<?xml version='1.0' encoding='UTF-8'?><gpx version="1.1" creator="JPX - https://github.com/jenetics/jpx" xmlns="http://www.topografix.com/GPX/1/1"><trk><trkseg><trkpt lat="45.41288" lon="9.0544383"><ele>113.0</ele><time>2026-04-18T09:04:00.992Z</time></trkpt><trkpt lat="45.4129383" lon="9.054605"><ele>113.00000000000001</ele><time>2026-04-18T09:04:02.992Z</time></trkpt><trkpt lat="45.41297" lon="9.05472"><ele>113.00000000000001</ele><time>2026-04-18T09:04:03.992Z</time></trkpt><trkpt lat="45.41302" lon="9.054835"><ele>113.0</ele><time>2026-04-18T09:04:04.992Z</time></trkpt><trkpt lat="45.41306" lon="9.05494"><ele>113.0</ele><time>2026-04-18T09:04:05.993Z</time></trkpt><trkpt lat="45.4131033" lon="9.0550567"><ele>113.16666666666666</ele><time>2026-04-18T09:04:06.992Z</time></trkpt><trkpt lat="45.4131417" lon="9.05517"><ele>113.33333333333333</ele><time>2026-04-18T09:04:07.992Z</time></trkpt><trkpt lat="45.4131783" lon="9.055275"><ele>113.5</ele><time>2026-04-18T09:04:08.992Z</time></trkpt><trkpt lat="45.413205" lon="9.0553733"><ele>113.66666666666666</ele><time>2026-04-18T09:04:09.992Z</time></trkpt><trkpt lat="45.413235" lon="9.0554617"><ele>113.83333333333333</ele><time>2026-04-18T09:04:10.992Z</time></trkpt><trkpt lat="45.4132433" lon="9.0555783"><ele>114.0</ele><time>2026-04-18T09:04:12.992Z</time></trkpt><trkpt lat="45.41315" lon="9.0556383"><ele>114.0</ele><time>2026-04-18T09:04:14.992Z</time></trkpt><trkpt lat="45.41309" lon="9.0556817"><ele>113.99999999999999</ele><time>2026-04-18T09:04:15.992Z</time></trkpt><trkpt lat="45.41304" lon="9.0557367"><ele>114.0</ele><time>2026-04-18T09:04:16.992Z</time></trkpt><trkpt lat="45.412985" lon="9.055795"><ele>114.0</ele><time>2026-04-18T09:04:17.992Z</time></trkpt><trkpt lat="45.412925" lon="9.0558583"><ele>113.99999999999999</ele><time>2026-04-18T09:04:18.992Z</time></trkpt><trkpt lat="45.4128667" lon="9.0559183"><ele>114.0</ele><time>2026-04-18T09:04:19.992Z</time></trkpt><trkpt lat="45.4127983" lon="9.055985"><ele>114.0</ele><time>2026-04-18T09:04:20.992Z</time></trkpt><trkpt lat="45.4127367" lon="9.0560533"><ele>113.66666666666667</ele><time>2026-04-18T09:04:21.992Z</time></trkpt><trkpt lat="45.41267" lon="9.0561183"><ele>113.33333333333334</ele><time>2026-04-18T09:04:22.992Z</time></trkpt><trkpt lat="45.4126" lon="9.0561833"><ele>113.0</ele><time>2026-04-18T09:04:23.992Z</time></trkpt><trkpt lat="45.4125283" lon="9.0562517"><ele>112.66666666666667</ele><time>2026-04-18T09:04:24.992Z</time></trkpt><trkpt lat="45.4124567" lon="9.0563233"><ele>112.33333333333334</ele><time>2026-04-18T09:04:25.992Z</time></trkpt><trkpt lat="45.4123817" lon="9.056395"><ele>112.0</ele><time>2026-04-18T09:04:26.992Z</time></trkpt><trkpt lat="45.412315" lon="9.056465"><ele>112.00000000000001</ele><time>2026-04-18T09:04:27.992Z</time></trkpt><trkpt lat="45.4122383" lon="9.0565467"><ele>112.0</ele><time>2026-04-18T09:04:28.992Z</time></trkpt><trkpt lat="45.4121583" lon="9.0566333"><ele>112.0</ele><time>2026-04-18T09:04:29.993Z</time></trkpt><trkpt lat="45.4120883" lon="9.05671"><ele>112.0</ele><time>2026-04-18T09:04:30.992Z</time></trkpt><trkpt lat="45.412025" lon="9.0567767"><ele>112.00000000000001</ele><time>2026-04-18T09:04:31.992Z</time></trkpt><trkpt lat="45.4119683" lon="9.0568383"><ele>112.0</ele><time>2026-04-18T09:04:32.992Z</time></trkpt><trkpt lat="45.4118917" lon="9.0569167"><ele>111.8</ele><time>2026-04-18T09:04:34.993Z</time></trkpt><trkpt lat="45.4118383" lon="9.056975"><ele>111.6</ele><time>2026-04-18T09:04:42.992Z</time></trkpt><trkpt lat="45.4117833" lon="9.0570283"><ele>111.39999999999999</ele><time>2026-04-18T09:04:43.992Z</time></trkpt><trkpt lat="45.4117083" lon="9.0571017"><ele>111.19999999999999</ele><time>2026-04-18T09:04:44.992Z</time></trkpt><trkpt lat="45.41161" lon="9.0571967"><ele>111.0</ele><time>2026-04-18T09:04:45.992Z</time></trkpt><trkpt lat="45.4115017" lon="9.0573067"><ele>111.0</ele><time>2026-04-18T09:04:46.992Z</time></trkpt><trkpt lat="45.41139" lon="9.0574233"><ele>111.0</ele><time>2026-04-18T09:04:47.992Z</time></trkpt><trkpt lat="45.4112733" lon="9.0575383"><ele>111.0</ele><time>2026-04-18T09:04:48.993Z</time></trkpt><trkpt lat="45.4111417" lon="9.0576633"><ele>111.0</ele><time>2026-04-18T09:04:49.992Z</time></trkpt><trkpt lat="45.4110183" lon="9.0577933"><ele>111.5</ele><time>2026-04-18T09:04:50.992Z</time></trkpt><trkpt lat="45.4108967" lon="9.05792"><ele>112.0</ele><time>2026-04-18T09:04:51.992Z</time></trkpt><trkpt lat="45.4107883" lon="9.0580417"><ele>112.5</ele><time>2026-04-18T09:04:52.992Z</time></trkpt><trkpt lat="45.41067" lon="9.05816"><ele>113.0</ele><time>2026-04-18T09:04:53.992Z</time></trkpt><trkpt lat="45.4105533" lon="9.0582783"><ele>113.0</ele><time>2026-04-18T09:04:54.992Z</time></trkpt><trkpt lat="45.4104417" lon="9.05839"><ele>113.0</ele><time>2026-04-18T09:04:55.992Z</time></trkpt><trkpt lat="45.4103267" lon="9.0585117"><ele>113.0</ele><time>2026-04-18T09:04:56.992Z</time></trkpt><trkpt lat="45.4102067" lon="9.0586333"><ele>113.0</ele><time>2026-04-18T09:04:57.992Z</time></trkpt><trkpt lat="45.4100917" lon="9.058745"><ele>113.0</ele><time>2026-04-18T09:04:58.992Z</time></trkpt><trkpt lat="45.4099833" lon="9.0588567"><ele>113.0</ele><time>2026-04-18T09:04:59.992Z</time></trkpt><trkpt lat="45.4098717" lon="9.0589567"><ele>113.0</ele><time>2026-04-18T09:05:00.992Z</time></trkpt><trkpt lat="45.4097583" lon="9.05906"><ele>113.0</ele><time>2026-04-18T09:05:01.992Z</time></trkpt><trkpt lat="45.4096383" lon="9.0591483"><ele>112.60000000000001</ele><time>2026-04-18T09:05:02.992Z</time></trkpt><trkpt lat="45.409535" lon="9.059235"><ele>112.20000000000002</ele><time>2026-04-18T09:05:03.992Z</time></trkpt><trkpt lat="45.40944" lon="9.05932"><ele>111.8</ele><time>2026-04-18T09:05:04.992Z</time></trkpt><trkpt lat="45.4093517" lon="9.0593933"><ele>111.4</ele><time>2026-04-18T09:05:05.992Z</time></trkpt><trkpt lat="45.4092717" lon="9.059465"><ele>111.0</ele><time>2026-04-18T09:05:06.991Z</time></trkpt><trkpt lat="45.40919" lon="9.05953"><ele>111.0</ele><time>2026-04-18T09:05:07.991Z</time></trkpt><trkpt lat="45.40912" lon="9.0596033"><ele>111.0</ele><time>2026-04-18T09:05:08.991Z</time></trkpt><trkpt lat="45.40907" lon="9.0596767"><ele>111.0</ele><time>2026-04-18T09:05:09.991Z</time></trkpt><trkpt lat="45.4090217" lon="9.0597767"><ele>111.0</ele><time>2026-04-18T09:05:11.992Z</time></trkpt><trkpt lat="45.4089717" lon="9.059835"><ele>111.0</ele><time>2026-04-18T09:05:13.991Z</time></trkpt><trkpt lat="45.4088983" lon="9.0598767"><ele>111.0</ele><time>2026-04-18T09:05:15.992Z</time></trkpt><trkpt lat="45.40881" lon="9.05993"><ele>111.16666666666667</ele><time>2026-04-18T09:05:18.991Z</time></trkpt><trkpt lat="45.4087417" lon="9.0599833"><ele>111.33333333333334</ele><time>2026-04-18T09:05:20.991Z</time></trkpt><trkpt lat="45.4086517" lon="9.060045"><ele>111.5</ele><time>2026-04-18T09:05:30.991Z</time></trkpt><trkpt lat="45.4085967" lon="9.06009"><ele>111.66666666666667</ele><time>2026-04-18T09:05:31.991Z</time></trkpt><trkpt lat="45.40853" lon="9.0601333"><ele>111.83333333333334</ele><time>2026-04-18T09:05:32.991Z</time></trkpt><trkpt lat="45.408455" lon="9.06018"><ele>112.0</ele><time>2026-04-18T09:05:33.991Z</time></trkpt><trkpt lat="45.408385" lon="9.060225"><ele>112.00000000000001</ele><time>2026-04-18T09:05:34.991Z</time></trkpt><trkpt lat="45.40831" lon="9.060275"><ele>112.0</ele><time>2026-04-18T09:05:35.991Z</time></trkpt><trkpt lat="45.40824" lon="9.0603217"><ele>112.0</ele><time>2026-04-18T09:05:36.991Z</time></trkpt><trkpt lat="45.408165" lon="9.060365"><ele>112.0</ele><time>2026-04-18T09:05:37.991Z</time></trkpt><trkpt lat="45.4080867" lon="9.0604217"><ele>112.00000000000001</ele><time>2026-04-18T09:05:38.991Z</time></trkpt><trkpt lat="45.407985" lon="9.060485"><ele>112.0</ele><time>2026-04-18T09:05:39.991Z</time></trkpt><trkpt lat="45.4078783" lon="9.06056"><ele>112.0</ele><time>2026-04-18T09:05:40.991Z</time></trkpt><trkpt lat="45.4077717" lon="9.0606367"><ele>112.0</ele><time>2026-04-18T09:05:41.991Z</time></trkpt><trkpt lat="45.4076617" lon="9.06071"><ele>112.0</ele><time>2026-04-18T09:05:42.991Z</time></trkpt><trkpt lat="45.4075517" lon="9.0607933"><ele>112.0</ele><time>2026-04-18T09:05:43.991Z</time></trkpt><trkpt lat="45.4074333" lon="9.06088"><ele>112.0</ele><time>2026-04-18T09:05:44.991Z</time></trkpt><trkpt lat="45.4073117" lon="9.0609467"><ele>112.0</ele><time>2026-04-18T09:05:45.991Z</time></trkpt><trkpt lat="45.4071917" lon="9.0610183"><ele>112.0</ele><time>2026-04-18T09:05:46.992Z</time></trkpt><trkpt lat="45.4070833" lon="9.0610867"><ele>112.0</ele><time>2026-04-18T09:05:47.991Z</time></trkpt><trkpt lat="45.406985" lon="9.0611467"><ele>111.6</ele><time>2026-04-18T09:05:48.992Z</time></trkpt><trkpt lat="45.4068883" lon="9.0612033"><ele>111.19999999999999</ele><time>2026-04-18T09:05:49.991Z</time></trkpt><trkpt lat="45.4068067" lon="9.0612583"><ele>110.8</ele><time>2026-04-18T09:05:50.991Z</time></trkpt><trkpt lat="45.406745" lon="9.061305"><ele>110.4</ele><time>2026-04-18T09:05:51.991Z</time></trkpt><trkpt lat="45.40665" lon="9.0613267"><ele>110.0</ele><time>2026-04-18T09:05:53.991Z</time></trkpt><trkpt lat="45.4065883" lon="9.0612317"><ele>110.0</ele><time>2026-04-18T09:05:55.991Z</time></trkpt><trkpt lat="45.4065533" lon="9.0611083"><ele>110.0</ele><time>2026-04-18T09:05:56.991Z</time></trkpt><trkpt lat="45.4065367" lon="9.0609833"><ele>110.0</ele><time>2026-04-18T09:05:57.992Z</time></trkpt><trkpt lat="45.4065133" lon="9.0608467"><ele>110.0</ele><time>2026-04-18T09:05:58.991Z</time></trkpt><trkpt lat="45.4064867" lon="9.0607067"><ele>110.0</ele><time>2026-04-18T09:05:59.991Z</time></trkpt><trkpt lat="45.40647" lon="9.06058"><ele>109.99999999999999</ele><time>2026-04-18T09:06:00.991Z</time></trkpt><trkpt lat="45.4064383" lon="9.0604683"><ele>110.0</ele><time>2026-04-18T09:06:01.991Z</time></trkpt><trkpt lat="45.4063983" lon="9.060375"><ele>110.0</ele><time>2026-04-18T09:06:02.991Z</time></trkpt><trkpt lat="45.4063267" lon="9.0603017"><ele>110.0</ele><time>2026-04-18T09:06:03.991Z</time></trkpt><trkpt lat="45.40624" lon="9.0602383"><ele>109.99999999999999</ele><time>2026-04-18T09:06:04.991Z</time></trkpt><trkpt lat="45.406155" lon="9.0602167"><ele>110.0</ele><time>2026-04-18T09:06:05.991Z</time></trkpt><trkpt lat="45.4060667" lon="9.0602367"><ele>110.0</ele><time>2026-04-18T09:06:06.991Z</time></trkpt><trkpt lat="45.4059767" lon="9.0602833"><ele>110.0</ele><time>2026-04-18T09:06:07.991Z</time></trkpt><trkpt lat="45.4058833" lon="9.060335"><ele>110.0</ele><time>2026-04-18T09:06:08.992Z</time></trkpt><trkpt lat="45.405775" lon="9.0603817"><ele>110.0</ele><time>2026-04-18T09:06:09.991Z</time></trkpt><trkpt lat="45.40566" lon="9.0604333"><ele>110.0</ele><time>2026-04-18T09:06:10.991Z</time></trkpt><trkpt lat="45.4055517" lon="9.0604883"><ele>110.0</ele><time>2026-04-18T09:06:11.991Z</time></trkpt><trkpt lat="45.405435" lon="9.06055"><ele>110.0</ele><time>2026-04-18T09:06:12.991Z</time></trkpt><trkpt lat="45.4053067" lon="9.0606033"><ele>110.0</ele><time>2026-04-18T09:06:13.991Z</time></trkpt><trkpt lat="45.4051683" lon="9.0606617"><ele>110.0</ele><time>2026-04-18T09:06:14.991Z</time></trkpt><trkpt lat="45.4050283" lon="9.0607383"><ele>109.5</ele><time>2026-04-18T09:06:15.991Z</time></trkpt><trkpt lat="45.4048883" lon="9.060805"><ele>109.0</ele><time>2026-04-18T09:06:16.991Z</time></trkpt><trkpt lat="45.4047517" lon="9.0608767"><ele>108.5</ele><time>2026-04-18T09:06:17.991Z</time></trkpt><trkpt lat="45.40461" lon="9.0609517"><ele>108.0</ele><time>2026-04-18T09:06:18.991Z</time></trkpt><trkpt lat="45.4044733" lon="9.06102"><ele>108.0</ele><time>2026-04-18T09:06:19.991Z</time></trkpt><trkpt lat="45.4043367" lon="9.06108"><ele>108.0</ele><time>2026-04-18T09:06:20.992Z</time></trkpt><trkpt lat="45.4042083" lon="9.0611433"><ele>108.0</ele><time>2026-04-18T09:06:21.991Z</time></trkpt><trkpt lat="45.4040733" lon="9.0612017"><ele>108.0</ele><time>2026-04-18T09:06:22.991Z</time></trkpt><trkpt lat="45.40395" lon="9.0612517"><ele>108.5</ele><time>2026-04-18T09:06:23.991Z</time></trkpt><trkpt lat="45.403825" lon="9.0612917"><ele>109.0</ele><time>2026-04-18T09:06:24.991Z</time></trkpt><trkpt lat="45.4037033" lon="9.0613267"><ele>109.5</ele><time>2026-04-18T09:06:25.991Z</time></trkpt><trkpt lat="45.4035867" lon="9.061355"><ele>110.0</ele><time>2026-04-18T09:06:26.991Z</time></trkpt><trkpt lat="45.40347" lon="9.061395"><ele>110.0</ele><time>2026-04-18T09:06:27.991Z</time></trkpt><trkpt lat="45.4033517" lon="9.0614383"><ele>110.0</ele><time>2026-04-18T09:06:28.991Z</time></trkpt><trkpt lat="45.4032283" lon="9.0614917"><ele>110.0</ele><time>2026-04-18T09:06:29.991Z</time></trkpt><trkpt lat="45.4031067" lon="9.0615583"><ele>110.0</ele><time>2026-04-18T09:06:30.992Z</time></trkpt><trkpt lat="45.40299" lon="9.0616283"><ele>110.5</ele><time>2026-04-18T09:06:31.991Z</time></trkpt><trkpt lat="45.4028633" lon="9.0617067"><ele>111.0</ele><time>2026-04-18T09:06:32.991Z</time></trkpt><trkpt lat="45.4027417" lon="9.061785"><ele>111.5</ele><time>2026-04-18T09:06:33.991Z</time></trkpt><trkpt lat="45.4026283" lon="9.06186"><ele>112.0</ele><time>2026-04-18T09:06:34.991Z</time></trkpt><trkpt lat="45.4025217" lon="9.061935"><ele>112.0</ele><time>2026-04-18T09:06:35.991Z</time></trkpt><trkpt lat="45.4024217" lon="9.06199"><ele>111.99999999999999</ele><time>2026-04-18T09:06:36.991Z</time></trkpt><trkpt lat="45.4023267" lon="9.0620517"><ele>111.99999999999999</ele><time>2026-04-18T09:06:37.991Z</time></trkpt><trkpt lat="45.40224" lon="9.0620917"><ele>112.0</ele><time>2026-04-18T09:06:38.991Z</time></trkpt><trkpt lat="45.4021417" lon="9.0621017"><ele>112.0</ele><time>2026-04-18T09:06:39.991Z</time></trkpt><trkpt lat="45.40204" lon="9.0620483"><ele>111.6</ele><time>2026-04-18T09:06:40.991Z</time></trkpt><trkpt lat="45.4019417" lon="9.0619767"><ele>111.19999999999999</ele><time>2026-04-18T09:06:41.991Z</time></trkpt><trkpt lat="45.40185" lon="9.0618767"><ele>110.8</ele><time>2026-04-18T09:06:42.991Z</time></trkpt><trkpt lat="45.401765" lon="9.0617667"><ele>110.4</ele><time>2026-04-18T09:06:43.991Z</time></trkpt><trkpt lat="45.4016933" lon="9.0616667"><ele>110.0</ele><time>2026-04-18T09:06:44.991Z</time></trkpt><trkpt lat="45.401605" lon="9.0615933"><ele>109.75</ele><time>2026-04-18T09:06:45.991Z</time></trkpt><trkpt lat="45.401505" lon="9.0615667"><ele>109.5</ele><time>2026-04-18T09:06:46.991Z</time></trkpt><trkpt lat="45.401385" lon="9.0615733"><ele>109.25</ele><time>2026-04-18T09:06:47.992Z</time></trkpt><trkpt lat="45.401255" lon="9.061585"><ele>109.0</ele><time>2026-04-18T09:06:48.991Z</time></trkpt><trkpt lat="45.4011283" lon="9.061595"><ele>109.0</ele><time>2026-04-18T09:06:49.991Z</time></trkpt><trkpt lat="45.4009983" lon="9.0616067"><ele>109.0</ele><time>2026-04-18T09:06:50.991Z</time></trkpt><trkpt lat="45.40087" lon="9.0616283"><ele>109.0</ele><time>2026-04-18T09:06:51.991Z</time></trkpt><trkpt lat="45.4007467" lon="9.0616583"><ele>109.0</ele><time>2026-04-18T09:06:52.991Z</time></trkpt><trkpt lat="45.400625" lon="9.0616867"><ele>109.0</ele><time>2026-04-18T09:06:53.991Z</time></trkpt><trkpt lat="45.4005" lon="9.0617133"><ele>109.0</ele><time>2026-04-18T09:06:54.991Z</time></trkpt><trkpt lat="45.4003767" lon="9.0617283"><ele>109.0</ele><time>2026-04-18T09:06:55.991Z</time></trkpt><trkpt lat="45.4002467" lon="9.0617533"><ele>109.0</ele><time>2026-04-18T09:06:56.991Z</time></trkpt><trkpt lat="45.400115" lon="9.06179"><ele>109.0</ele><time>2026-04-18T09:06:57.991Z</time></trkpt><trkpt lat="45.3999817" lon="9.0618333"><ele>109.0</ele><time>2026-04-18T09:06:58.991Z</time></trkpt><trkpt lat="45.3998467" lon="9.06188"><ele>109.0</ele><time>2026-04-18T09:06:59.992Z</time></trkpt><trkpt lat="45.3997133" lon="9.06193"><ele>109.0</ele><time>2026-04-18T09:07:00.991Z</time></trkpt><trkpt lat="45.39957" lon="9.0619967"><ele>109.25</ele><time>2026-04-18T09:07:01.991Z</time></trkpt><trkpt lat="45.399445" lon="9.06208"><ele>109.5</ele><time>2026-04-18T09:07:02.991Z</time></trkpt><trkpt lat="45.3993183" lon="9.0621667"><ele>109.75</ele><time>2026-04-18T09:07:03.991Z</time></trkpt><trkpt lat="45.3991917" lon="9.0622517"><ele>110.0</ele><time>2026-04-18T09:07:04.991Z</time></trkpt><trkpt lat="45.3990883" lon="9.0623367"><ele>110.0</ele><time>2026-04-18T09:07:05.991Z</time></trkpt><trkpt lat="45.3989833" lon="9.0624067"><ele>110.0</ele><time>2026-04-18T09:07:06.991Z</time></trkpt><trkpt lat="45.3988833" lon="9.0624583"><ele>110.0</ele><time>2026-04-18T09:07:07.991Z</time></trkpt><trkpt lat="45.3987683" lon="9.0624567"><ele>110.0</ele><time>2026-04-18T09:07:08.991Z</time></trkpt><trkpt lat="45.3986533" lon="9.0624167"><ele>109.5</ele><time>2026-04-18T09:07:09.991Z</time></trkpt><trkpt lat="45.3985267" lon="9.06235"><ele>109.0</ele><time>2026-04-18T09:07:10.991Z</time></trkpt><trkpt lat="45.398395" lon="9.0622733"><ele>108.5</ele><time>2026-04-18T09:07:11.991Z</time></trkpt><trkpt lat="45.3982533" lon="9.0621883"><ele>108.0</ele><time>2026-04-18T09:07:12.991Z</time></trkpt><trkpt lat="45.3981133" lon="9.0620967"><ele>107.75</ele><time>2026-04-18T09:07:13.991Z</time></trkpt><trkpt lat="45.3979733" lon="9.062005"><ele>107.5</ele><time>2026-04-18T09:07:14.991Z</time></trkpt><trkpt lat="45.3978417" lon="9.061905"><ele>107.25</ele><time>2026-04-18T09:07:15.991Z</time></trkpt><trkpt lat="45.3977283" lon="9.06182"><ele>107.0</ele><time>2026-04-18T09:07:16.991Z</time></trkpt><trkpt lat="45.3976133" lon="9.061745"><ele>107.0</ele><time>2026-04-18T09:07:17.991Z</time></trkpt><trkpt lat="45.3975033" lon="9.061685"><ele>106.99999999999999</ele><time>2026-04-18T09:07:18.991Z</time></trkpt><trkpt lat="45.397405" lon="9.0616517"><ele>106.99999999999999</ele><time>2026-04-18T09:07:19.991Z</time></trkpt><trkpt lat="45.3972983" lon="9.0616633"><ele>107.0</ele><time>2026-04-18T09:07:20.991Z</time></trkpt><trkpt lat="45.3971867" lon="9.0617333"><ele>107.0</ele><time>2026-04-18T09:07:21.991Z</time></trkpt><trkpt lat="45.39708" lon="9.0618267"><ele>107.19999999999999</ele><time>2026-04-18T09:07:22.991Z</time></trkpt><trkpt lat="45.396985" lon="9.06191"><ele>107.39999999999999</ele><time>2026-04-18T09:07:23.991Z</time></trkpt><trkpt lat="45.3969017" lon="9.0619817"><ele>107.60000000000001</ele><time>2026-04-18T09:07:24.991Z</time></trkpt><trkpt lat="45.39683" lon="9.062045"><ele>107.80000000000001</ele><time>2026-04-18T09:07:25.992Z</time></trkpt><trkpt lat="45.39676" lon="9.0620917"><ele>108.0</ele><time>2026-04-18T09:07:26.991Z</time></trkpt><trkpt lat="45.396685" lon="9.0621433"><ele>108.0</ele><time>2026-04-18T09:07:27.991Z</time></trkpt><trkpt lat="45.3965933" lon="9.0621983"><ele>108.00000000000001</ele><time>2026-04-18T09:07:28.991Z</time></trkpt><trkpt lat="45.3964933" lon="9.0622567"><ele>108.00000000000001</ele><time>2026-04-18T09:07:29.991Z</time></trkpt><trkpt lat="45.39639" lon="9.0623167"><ele>108.0</ele><time>2026-04-18T09:07:30.991Z</time></trkpt><trkpt lat="45.3962933" lon="9.0623883"><ele>108.0</ele><time>2026-04-18T09:07:31.991Z</time></trkpt><trkpt lat="45.3961933" lon="9.0624517"><ele>108.0</ele><time>2026-04-18T09:07:32.991Z</time></trkpt><trkpt lat="45.3960883" lon="9.062525"><ele>108.00000000000001</ele><time>2026-04-18T09:07:33.991Z</time></trkpt><trkpt lat="45.395985" lon="9.0625967"><ele>108.00000000000001</ele><time>2026-04-18T09:07:34.991Z</time></trkpt><trkpt lat="45.3958817" lon="9.0626683"><ele>108.0</ele><time>2026-04-18T09:07:35.992Z</time></trkpt><trkpt lat="45.395795" lon="9.0627467"><ele>108.0</ele><time>2026-04-18T09:07:36.991Z</time></trkpt><trkpt lat="45.3957133" lon="9.0628117"><ele>108.0</ele><time>2026-04-18T09:07:37.991Z</time></trkpt><trkpt lat="45.3956517" lon="9.062865"><ele>108.00000000000001</ele><time>2026-04-18T09:07:38.991Z</time></trkpt><trkpt lat="45.39555" lon="9.0629267"><ele>108.00000000000001</ele><time>2026-04-18T09:07:40.991Z</time></trkpt><trkpt lat="45.395455" lon="9.0629983"><ele>108.0</ele><time>2026-04-18T09:07:42.991Z</time></trkpt><trkpt lat="45.3953467" lon="9.0630933"><ele>108.0</ele><time>2026-04-18T09:07:44.992Z</time></trkpt><trkpt lat="45.3952783" lon="9.06314"><ele>108.0</ele><time>2026-04-18T09:07:45.991Z</time></trkpt><trkpt lat="45.3952" lon="9.0631867"><ele>108.00000000000001</ele><time>2026-04-18T09:07:46.991Z</time></trkpt><trkpt lat="45.3951117" lon="9.0632367"><ele>108.00000000000001</ele><time>2026-04-18T09:07:47.991Z</time></trkpt><trkpt lat="45.3950217" lon="9.0632817"><ele>108.0</ele><time>2026-04-18T09:07:48.991Z</time></trkpt><trkpt lat="45.39493" lon="9.0633467"><ele>108.0</ele><time>2026-04-18T09:07:49.991Z</time></trkpt><trkpt lat="45.3948333" lon="9.0634117"><ele>107.80000000000001</ele><time>2026-04-18T09:07:50.991Z</time></trkpt><trkpt lat="45.394745" lon="9.0634683"><ele>107.60000000000001</ele><time>2026-04-18T09:07:51.991Z</time></trkpt><trkpt lat="45.394655" lon="9.0635283"><ele>107.39999999999999</ele><time>2026-04-18T09:07:52.991Z</time></trkpt><trkpt lat="45.394565" lon="9.0635817"><ele>107.19999999999999</ele><time>2026-04-18T09:07:53.991Z</time></trkpt><trkpt lat="45.3944733" lon="9.0636317"><ele>107.0</ele><time>2026-04-18T09:07:54.992Z</time></trkpt><trkpt lat="45.39439" lon="9.06367"><ele>107.39999999999999</ele><time>2026-04-18T09:07:55.991Z</time></trkpt><trkpt lat="45.3943183" lon="9.0636683"><ele>107.79999999999998</ele><time>2026-04-18T09:07:56.991Z</time></trkpt><trkpt lat="45.3942233" lon="9.0636017"><ele>108.2</ele><time>2026-04-18T09:07:58.991Z</time></trkpt><trkpt lat="45.3941717" lon="9.0634633"><ele>108.6</ele><time>2026-04-18T09:08:00.991Z</time></trkpt><trkpt lat="45.39414" lon="9.0633617"><ele>109.0</ele><time>2026-04-18T09:08:01.991Z</time></trkpt><trkpt lat="45.3940983" lon="9.0632517"><ele>109.0</ele><time>2026-04-18T09:08:02.991Z</time></trkpt><trkpt lat="45.3940533" lon="9.0631333"><ele>109.0</ele><time>2026-04-18T09:08:03.991Z</time></trkpt><trkpt lat="45.3940083" lon="9.0630017"><ele>109.0</ele><time>2026-04-18T09:08:04.991Z</time></trkpt><trkpt lat="45.3939633" lon="9.0628667"><ele>109.0</ele><time>2026-04-18T09:08:05.991Z</time></trkpt><trkpt lat="45.393925" lon="9.0627367"><ele>109.0</ele><time>2026-04-18T09:08:06.991Z</time></trkpt><trkpt lat="45.3938717" lon="9.062605"><ele>109.0</ele><time>2026-04-18T09:08:07.991Z</time></trkpt><trkpt lat="45.393815" lon="9.0624867"><ele>109.0</ele><time>2026-04-18T09:08:08.991Z</time></trkpt><trkpt lat="45.3937583" lon="9.062365"><ele>109.0</ele><time>2026-04-18T09:08:09.992Z</time></trkpt><trkpt lat="45.3936983" lon="9.0622467"><ele>109.0</ele><time>2026-04-18T09:08:10.991Z</time></trkpt><trkpt lat="45.39364" lon="9.0621267"><ele>109.0</ele><time>2026-04-18T09:08:11.991Z</time></trkpt><trkpt lat="45.3935783" lon="9.0620133"><ele>108.66666666666667</ele><time>2026-04-18T09:08:12.991Z</time></trkpt><trkpt lat="45.3935217" lon="9.061905"><ele>108.33333333333334</ele><time>2026-04-18T09:08:13.991Z</time></trkpt><trkpt lat="45.393475" lon="9.0617983"><ele>108.0</ele><time>2026-04-18T09:08:14.991Z</time></trkpt><trkpt lat="45.39343" lon="9.0617017"><ele>107.66666666666666</ele><time>2026-04-18T09:08:15.991Z</time></trkpt><trkpt lat="45.39339" lon="9.061605"><ele>107.33333333333333</ele><time>2026-04-18T09:08:16.991Z</time></trkpt><trkpt lat="45.39335" lon="9.061505"><ele>107.0</ele><time>2026-04-18T09:08:17.991Z</time></trkpt><trkpt lat="45.3933067" lon="9.0613983"><ele>106.99999999999999</ele><time>2026-04-18T09:08:18.991Z</time></trkpt><trkpt lat="45.3932667" lon="9.0612933"><ele>107.0</ele><time>2026-04-18T09:08:19.991Z</time></trkpt><trkpt lat="45.3932383" lon="9.0611867"><ele>107.0</ele><time>2026-04-18T09:08:20.991Z</time></trkpt><trkpt lat="45.3932133" lon="9.0610783"><ele>107.0</ele><time>2026-04-18T09:08:21.991Z</time></trkpt><trkpt lat="45.3931967" lon="9.0609717"><ele>106.99999999999999</ele><time>2026-04-18T09:08:22.991Z</time></trkpt><trkpt lat="45.3931717" lon="9.060865"><ele>107.0</ele><time>2026-04-18T09:08:23.991Z</time></trkpt><trkpt lat="45.3931317" lon="9.0607533"><ele>107.0</ele><time>2026-04-18T09:08:24.991Z</time></trkpt><trkpt lat="45.3930783" lon="9.0606383"><ele>106.99999999999999</ele><time>2026-04-18T09:08:25.991Z</time></trkpt><trkpt lat="45.3930267" lon="9.06051"><ele>106.99999999999999</ele><time>2026-04-18T09:08:26.992Z</time></trkpt><trkpt lat="45.3929783" lon="9.0603717"><ele>107.0</ele><time>2026-04-18T09:08:27.991Z</time></trkpt><trkpt lat="45.3929333" lon="9.060225"><ele>107.0</ele><time>2026-04-18T09:08:28.991Z</time></trkpt><trkpt lat="45.3928883" lon="9.0600733"><ele>106.75</ele><time>2026-04-18T09:08:29.991Z</time></trkpt><trkpt lat="45.392825" lon="9.059915"><ele>106.5</ele><time>2026-04-18T09:08:30.991Z</time></trkpt><trkpt lat="45.3927517" lon="9.05976"><ele>106.25</ele><time>2026-04-18T09:08:31.991Z</time></trkpt><trkpt lat="45.3926683" lon="9.0596217"><ele>106.0</ele><time>2026-04-18T09:08:32.991Z</time></trkpt><trkpt lat="45.39258" lon="9.05948"><ele>106.0</ele><time>2026-04-18T09:08:33.991Z</time></trkpt><trkpt lat="45.3924867" lon="9.0593433"><ele>106.0</ele><time>2026-04-18T09:08:34.991Z</time></trkpt><trkpt lat="45.3923967" lon="9.0592"><ele>106.0</ele><time>2026-04-18T09:08:35.992Z</time></trkpt><trkpt lat="45.3923033" lon="9.0590567"><ele>106.0</ele><time>2026-04-18T09:08:36.992Z</time></trkpt><trkpt lat="45.3922067" lon="9.0589117"><ele>106.75</ele><time>2026-04-18T09:08:37.991Z</time></trkpt><trkpt lat="45.3921067" lon="9.0587717"><ele>107.5</ele><time>2026-04-18T09:08:38.991Z</time></trkpt><trkpt lat="45.3920083" lon="9.0586333"><ele>108.25</ele><time>2026-04-18T09:08:39.992Z</time></trkpt><trkpt lat="45.3919183" lon="9.058495"><ele>109.0</ele><time>2026-04-18T09:08:40.992Z</time></trkpt><trkpt lat="45.3918333" lon="9.05835"><ele>109.0</ele><time>2026-04-18T09:08:41.991Z</time></trkpt><trkpt lat="45.3917583" lon="9.0582117"><ele>109.0</ele><time>2026-04-18T09:08:42.991Z</time></trkpt><trkpt lat="45.3916933" lon="9.0580767"><ele>109.0</ele><time>2026-04-18T09:08:43.991Z</time></trkpt><trkpt lat="45.3916333" lon="9.0579467"><ele>109.0</ele><time>2026-04-18T09:08:44.991Z</time></trkpt><trkpt lat="45.391575" lon="9.057815"><ele>109.0</ele><time>2026-04-18T09:08:45.991Z</time></trkpt><trkpt lat="45.3915133" lon="9.0576883"><ele>109.0</ele><time>2026-04-18T09:08:46.992Z</time></trkpt><trkpt lat="45.3914583" lon="9.0575533"><ele>109.0</ele><time>2026-04-18T09:08:47.991Z</time></trkpt><trkpt lat="45.391395" lon="9.05741"><ele>109.0</ele><time>2026-04-18T09:08:48.992Z</time></trkpt><trkpt lat="45.3913283" lon="9.0572567"><ele>108.75</ele><time>2026-04-18T09:08:49.991Z</time></trkpt><trkpt lat="45.3912533" lon="9.0571067"><ele>108.5</ele><time>2026-04-18T09:08:50.991Z</time></trkpt><trkpt lat="45.3911833" lon="9.05695"><ele>108.25</ele><time>2026-04-18T09:08:51.992Z</time></trkpt><trkpt lat="45.3911167" lon="9.0567983"><ele>108.0</ele><time>2026-04-18T09:08:52.991Z</time></trkpt><trkpt lat="45.3910383" lon="9.0566433"><ele>108.25</ele><time>2026-04-18T09:08:53.991Z</time></trkpt><trkpt lat="45.39097" lon="9.056485"><ele>108.5</ele><time>2026-04-18T09:08:54.991Z</time></trkpt><trkpt lat="45.3909033" lon="9.056335"><ele>108.75</ele><time>2026-04-18T09:08:55.991Z</time></trkpt><trkpt lat="45.3908333" lon="9.056185"><ele>109.0</ele><time>2026-04-18T09:08:56.991Z</time></trkpt><trkpt lat="45.390765" lon="9.0560383"><ele>109.0</ele><time>2026-04-18T09:08:57.991Z</time></trkpt><trkpt lat="45.3907033" lon="9.0558933"><ele>109.0</ele><time>2026-04-18T09:08:58.991Z</time></trkpt><trkpt lat="45.3906433" lon="9.05576"><ele>109.0</ele><time>2026-04-18T09:08:59.991Z</time></trkpt><trkpt lat="45.390595" lon="9.0556383"><ele>109.0</ele><time>2026-04-18T09:09:00.991Z</time></trkpt><trkpt lat="45.390545" lon="9.0555217"><ele>109.0</ele><time>2026-04-18T09:09:01.991Z</time></trkpt><trkpt lat="45.390495" lon="9.0554267"><ele>108.83333333333334</ele><time>2026-04-18T09:09:02.991Z</time></trkpt><trkpt lat="45.3904567" lon="9.0553417"><ele>108.66666666666667</ele><time>2026-04-18T09:09:03.991Z</time></trkpt><trkpt lat="45.39042" lon="9.0552683"><ele>108.5</ele><time>2026-04-18T09:09:04.991Z</time></trkpt><trkpt lat="45.39034" lon="9.0552"><ele>108.33333333333334</ele><time>2026-04-18T09:09:06.991Z</time></trkpt><trkpt lat="45.390225" lon="9.0552383"><ele>108.16666666666667</ele><time>2026-04-18T09:09:08.991Z</time></trkpt><trkpt lat="45.3901533" lon="9.05528"><ele>108.0</ele><time>2026-04-18T09:09:09.991Z</time></trkpt><trkpt lat="45.39008" lon="9.0553167"><ele>108.0</ele><time>2026-04-18T09:09:10.991Z</time></trkpt><trkpt lat="45.3899883" lon="9.0553583"><ele>108.00000000000001</ele><time>2026-04-18T09:09:11.991Z</time></trkpt><trkpt lat="45.3898933" lon="9.0554083"><ele>108.00000000000001</ele><time>2026-04-18T09:09:12.991Z</time></trkpt><trkpt lat="45.3897917" lon="9.0554583"><ele>108.0</ele><time>2026-04-18T09:09:13.991Z</time></trkpt><trkpt lat="45.389695" lon="9.0555117"><ele>108.0</ele><time>2026-04-18T09:09:14.991Z</time></trkpt><trkpt lat="45.3895933" lon="9.055565"><ele>107.83333333333333</ele><time>2026-04-18T09:09:15.991Z</time></trkpt><trkpt lat="45.38951" lon="9.0556217"><ele>107.66666666666666</ele><time>2026-04-18T09:09:16.992Z</time></trkpt><trkpt lat="45.3894317" lon="9.0556533"><ele>107.5</ele><time>2026-04-18T09:09:17.991Z</time></trkpt><trkpt lat="45.389365" lon="9.0556617"><ele>107.33333333333333</ele><time>2026-04-18T09:09:18.991Z</time></trkpt><trkpt lat="45.3893" lon="9.0556383"><ele>107.16666666666666</ele><time>2026-04-18T09:09:19.991Z</time></trkpt><trkpt lat="45.38924" lon="9.0555767"><ele>107.0</ele><time>2026-04-18T09:09:20.991Z</time></trkpt><trkpt lat="45.38919" lon="9.0554833"><ele>107.0</ele><time>2026-04-18T09:09:21.991Z</time></trkpt><trkpt lat="45.3891367" lon="9.0553667"><ele>106.99999999999999</ele><time>2026-04-18T09:09:22.991Z</time></trkpt><trkpt lat="45.3890867" lon="9.0552433"><ele>106.99999999999999</ele><time>2026-04-18T09:09:23.991Z</time></trkpt><trkpt lat="45.3890383" lon="9.0551117"><ele>107.0</ele><time>2026-04-18T09:09:24.991Z</time></trkpt><trkpt lat="45.38899" lon="9.05497"><ele>107.0</ele><time>2026-04-18T09:09:25.991Z</time></trkpt><trkpt lat="45.3889467" lon="9.0548167"><ele>107.0</ele><time>2026-04-18T09:09:26.991Z</time></trkpt><trkpt lat="45.3889" lon="9.05466"><ele>107.0</ele><time>2026-04-18T09:09:27.991Z</time></trkpt><trkpt lat="45.388855" lon="9.0544917"><ele>107.0</ele><time>2026-04-18T09:09:28.991Z</time></trkpt><trkpt lat="45.3888067" lon="9.0543367"><ele>107.0</ele><time>2026-04-18T09:09:29.992Z</time></trkpt><trkpt lat="45.3887633" lon="9.054195"><ele>107.6</ele><time>2026-04-18T09:09:30.991Z</time></trkpt><trkpt lat="45.3887133" lon="9.054055"><ele>108.19999999999999</ele><time>2026-04-18T09:09:31.991Z</time></trkpt><trkpt lat="45.3886683" lon="9.0539067"><ele>108.8</ele><time>2026-04-18T09:09:32.991Z</time></trkpt><trkpt lat="45.3886267" lon="9.05377"><ele>109.4</ele><time>2026-04-18T09:09:33.991Z</time></trkpt><trkpt lat="45.388585" lon="9.05363"><ele>110.0</ele><time>2026-04-18T09:09:34.991Z</time></trkpt><trkpt lat="45.3885433" lon="9.0534867"><ele>110.0</ele><time>2026-04-18T09:09:35.991Z</time></trkpt><trkpt lat="45.3885117" lon="9.053345"><ele>110.0</ele><time>2026-04-18T09:09:36.991Z</time></trkpt><trkpt lat="45.3884683" lon="9.05321"><ele>110.0</ele><time>2026-04-18T09:09:37.991Z</time></trkpt><trkpt lat="45.3884267" lon="9.0530767"><ele>110.0</ele><time>2026-04-18T09:09:38.991Z</time></trkpt><trkpt lat="45.3883833" lon="9.052945"><ele>110.0</ele><time>2026-04-18T09:09:39.991Z</time></trkpt><trkpt lat="45.3883367" lon="9.05281"><ele>110.0</ele><time>2026-04-18T09:09:40.991Z</time></trkpt><trkpt lat="45.3882917" lon="9.0526717"><ele>110.0</ele><time>2026-04-18T09:09:41.991Z</time></trkpt><trkpt lat="45.388245" lon="9.0525417"><ele>110.0</ele><time>2026-04-18T09:09:42.991Z</time></trkpt><trkpt lat="45.3881933" lon="9.0524083"><ele>110.0</ele><time>2026-04-18T09:09:43.992Z</time></trkpt><trkpt lat="45.38814" lon="9.0522733"><ele>110.0</ele><time>2026-04-18T09:09:44.991Z</time></trkpt><trkpt lat="45.3881017" lon="9.0521383"><ele>109.83333333333333</ele><time>2026-04-18T09:09:45.991Z</time></trkpt><trkpt lat="45.3880767" lon="9.0520283"><ele>109.66666666666666</ele><time>2026-04-18T09:09:46.992Z</time></trkpt><trkpt lat="45.3880417" lon="9.0519533"><ele>109.5</ele><time>2026-04-18T09:09:47.991Z</time></trkpt><trkpt lat="45.3880033" lon="9.0518267"><ele>109.33333333333334</ele><time>2026-04-18T09:09:49.991Z</time></trkpt><trkpt lat="45.3879633" lon="9.051725"><ele>109.16666666666667</ele><time>2026-04-18T09:10:38.991Z</time></trkpt><trkpt lat="45.3879333" lon="9.051645"><ele>109.0</ele><time>2026-04-18T09:10:39.991Z</time></trkpt><trkpt lat="45.3878967" lon="9.0515467"><ele>108.6</ele><time>2026-04-18T09:10:40.991Z</time></trkpt><trkpt lat="45.3878567" lon="9.051435"><ele>108.2</ele><time>2026-04-18T09:10:41.991Z</time></trkpt><trkpt lat="45.3878133" lon="9.05131"><ele>107.79999999999998</ele><time>2026-04-18T09:10:42.991Z</time></trkpt><trkpt lat="45.38777" lon="9.0511783"><ele>107.39999999999999</ele><time>2026-04-18T09:10:43.991Z</time></trkpt><trkpt lat="45.3877283" lon="9.0510417"><ele>107.0</ele><time>2026-04-18T09:10:44.991Z</time></trkpt><trkpt lat="45.3876833" lon="9.0508983"><ele>107.25</ele><time>2026-04-18T09:10:45.991Z</time></trkpt><trkpt lat="45.38759" lon="9.05062"><ele>107.5</ele><time>2026-04-18T09:10:47.991Z</time></trkpt><trkpt lat="45.3875417" lon="9.0504817"><ele>107.75</ele><time>2026-04-18T09:10:48.991Z</time></trkpt><trkpt lat="45.387495" lon="9.0503333"><ele>108.0</ele><time>2026-04-18T09:10:49.991Z</time></trkpt><trkpt lat="45.387445" lon="9.0501817"><ele>108.0</ele><time>2026-04-18T09:10:50.992Z</time></trkpt><trkpt lat="45.38739" lon="9.0500283"><ele>108.0</ele><time>2026-04-18T09:10:51.991Z</time></trkpt><trkpt lat="45.38734" lon="9.0498717"><ele>108.0</ele><time>2026-04-18T09:10:52.991Z</time></trkpt><trkpt lat="45.3872867" lon="9.0497083"><ele>108.0</ele><time>2026-04-18T09:10:53.991Z</time></trkpt><trkpt lat="45.3872333" lon="9.0495483"><ele>108.0</ele><time>2026-04-18T09:10:54.991Z</time></trkpt><trkpt lat="45.3871867" lon="9.0493833"><ele>108.0</ele><time>2026-04-18T09:10:55.991Z</time></trkpt><trkpt lat="45.387135" lon="9.049225"><ele>108.0</ele><time>2026-04-18T09:10:56.991Z</time></trkpt><trkpt lat="45.387085" lon="9.0490733"><ele>108.0</ele><time>2026-04-18T09:10:57.991Z</time></trkpt><trkpt lat="45.3870383" lon="9.048925"><ele>107.80000000000001</ele><time>2026-04-18T09:10:58.991Z</time></trkpt><trkpt lat="45.3869933" lon="9.0487883"><ele>107.60000000000001</ele><time>2026-04-18T09:10:59.991Z</time></trkpt><trkpt lat="45.3869483" lon="9.04866"><ele>107.39999999999999</ele><time>2026-04-18T09:11:00.991Z</time></trkpt><trkpt lat="45.3869067" lon="9.048535"><ele>107.19999999999999</ele><time>2026-04-18T09:11:01.991Z</time></trkpt><trkpt lat="45.386865" lon="9.048415"><ele>107.0</ele><time>2026-04-18T09:11:02.991Z</time></trkpt><trkpt lat="45.3868333" lon="9.0483083"><ele>107.00000000000001</ele><time>2026-04-18T09:11:03.991Z</time></trkpt><trkpt lat="45.386815" lon="9.04821"><ele>107.0</ele><time>2026-04-18T09:11:04.991Z</time></trkpt><trkpt lat="45.3867967" lon="9.0481217"><ele>107.0</ele><time>2026-04-18T09:11:05.991Z</time></trkpt><trkpt lat="45.3868" lon="9.0480317"><ele>107.0</ele><time>2026-04-18T09:11:06.992Z</time></trkpt><trkpt lat="45.3868317" lon="9.04795"><ele>107.0</ele><time>2026-04-18T09:11:07.991Z</time></trkpt><trkpt lat="45.38688" lon="9.04788"><ele>107.00000000000001</ele><time>2026-04-18T09:11:08.991Z</time></trkpt><trkpt lat="45.3869533" lon="9.04782"><ele>107.0</ele><time>2026-04-18T09:11:09.991Z</time></trkpt><trkpt lat="45.3870467" lon="9.0477667"><ele>107.0</ele><time>2026-04-18T09:11:10.991Z</time></trkpt><trkpt lat="45.3871483" lon="9.0477117"><ele>107.0</ele><time>2026-04-18T09:11:11.991Z</time></trkpt><trkpt lat="45.387255" lon="9.047645"><ele>107.0</ele><time>2026-04-18T09:11:12.991Z</time></trkpt><trkpt lat="45.38737" lon="9.04757"><ele>107.0</ele><time>2026-04-18T09:11:13.991Z</time></trkpt><trkpt lat="45.38749" lon="9.0474883"><ele>107.25</ele><time>2026-04-18T09:11:14.991Z</time></trkpt><trkpt lat="45.3876083" lon="9.0474133"><ele>107.5</ele><time>2026-04-18T09:11:15.991Z</time></trkpt><trkpt lat="45.3877183" lon="9.0473433"><ele>107.75</ele><time>2026-04-18T09:11:16.992Z</time></trkpt><trkpt lat="45.3878183" lon="9.04727"><ele>108.0</ele><time>2026-04-18T09:11:17.991Z</time></trkpt><trkpt lat="45.3879167" lon="9.047205"><ele>108.0</ele><time>2026-04-18T09:11:18.991Z</time></trkpt><trkpt lat="45.3880133" lon="9.0471183"><ele>108.0</ele><time>2026-04-18T09:11:19.991Z</time></trkpt><trkpt lat="45.3881083" lon="9.0470217"><ele>108.0</ele><time>2026-04-18T09:11:20.991Z</time></trkpt><trkpt lat="45.3881917" lon="9.0469033"><ele>108.0</ele><time>2026-04-18T09:11:21.991Z</time></trkpt><trkpt lat="45.3882917" lon="9.046805"><ele>108.0</ele><time>2026-04-18T09:11:22.991Z</time></trkpt><trkpt lat="45.3884033" lon="9.046715"><ele>108.0</ele><time>2026-04-18T09:11:23.991Z</time></trkpt><trkpt lat="45.3885317" lon="9.0466433"><ele>108.0</ele><time>2026-04-18T09:11:24.991Z</time></trkpt><trkpt lat="45.3886717" lon="9.0465783"><ele>108.0</ele><time>2026-04-18T09:11:25.991Z</time></trkpt><trkpt lat="45.3888233" lon="9.046525"><ele>107.5</ele><time>2026-04-18T09:11:26.991Z</time></trkpt><trkpt lat="45.388975" lon="9.0464717"><ele>107.0</ele><time>2026-04-18T09:11:27.991Z</time></trkpt><trkpt lat="45.3891183" lon="9.0464283"><ele>106.5</ele><time>2026-04-18T09:11:28.991Z</time></trkpt><trkpt lat="45.3892483" lon="9.0463833"><ele>106.0</ele><time>2026-04-18T09:11:29.991Z</time></trkpt><trkpt lat="45.38937" lon="9.046345"><ele>106.0</ele><time>2026-04-18T09:11:30.991Z</time></trkpt><trkpt lat="45.389485" lon="9.0463133"><ele>106.0</ele><time>2026-04-18T09:11:31.991Z</time></trkpt><trkpt lat="45.389585" lon="9.0462767"><ele>106.0</ele><time>2026-04-18T09:11:32.991Z</time></trkpt><trkpt lat="45.3896633" lon="9.046235"><ele>106.0</ele><time>2026-04-18T09:11:33.991Z</time></trkpt><trkpt lat="45.389725" lon="9.0461917"><ele>106.0</ele><time>2026-04-18T09:11:34.991Z</time></trkpt><trkpt lat="45.3897483" lon="9.0460567"><ele>106.25</ele><time>2026-04-18T09:11:36.991Z</time></trkpt><trkpt lat="45.3897033" lon="9.045865"><ele>106.5</ele><time>2026-04-18T09:11:38.992Z</time></trkpt><trkpt lat="45.3896633" lon="9.0457383"><ele>106.75</ele><time>2026-04-18T09:11:39.991Z</time></trkpt><trkpt lat="45.3896167" lon="9.0456"><ele>107.0</ele><time>2026-04-18T09:11:40.991Z</time></trkpt><trkpt lat="45.3895617" lon="9.0454667"><ele>107.0</ele><time>2026-04-18T09:11:41.991Z</time></trkpt><trkpt lat="45.3895117" lon="9.0453333"><ele>106.99999999999999</ele><time>2026-04-18T09:11:42.991Z</time></trkpt><trkpt lat="45.3894617" lon="9.04521"><ele>106.99999999999999</ele><time>2026-04-18T09:11:43.991Z</time></trkpt><trkpt lat="45.3894083" lon="9.045085"><ele>107.0</ele><time>2026-04-18T09:11:44.991Z</time></trkpt><trkpt lat="45.3893433" lon="9.0449633"><ele>107.0</ele><time>2026-04-18T09:11:45.991Z</time></trkpt><trkpt lat="45.389275" lon="9.0448367"><ele>106.8</ele><time>2026-04-18T09:11:46.991Z</time></trkpt><trkpt lat="45.389215" lon="9.0447067"><ele>106.6</ele><time>2026-04-18T09:11:47.991Z</time></trkpt><trkpt lat="45.389155" lon="9.044585"><ele>106.39999999999999</ele><time>2026-04-18T09:11:48.991Z</time></trkpt><trkpt lat="45.3890933" lon="9.0444617"><ele>106.19999999999999</ele><time>2026-04-18T09:11:49.992Z</time></trkpt><trkpt lat="45.3890267" lon="9.04434"><ele>106.0</ele><time>2026-04-18T09:11:50.991Z</time></trkpt><trkpt lat="45.3889683" lon="9.0442183"><ele>106.4</ele><time>2026-04-18T09:11:51.991Z</time></trkpt><trkpt lat="45.3889083" lon="9.0440967"><ele>106.8</ele><time>2026-04-18T09:11:52.991Z</time></trkpt><trkpt lat="45.388845" lon="9.04399"><ele>107.20000000000002</ele><time>2026-04-18T09:11:53.991Z</time></trkpt><trkpt lat="45.3887783" lon="9.0438933"><ele>107.60000000000001</ele><time>2026-04-18T09:11:54.992Z</time></trkpt><trkpt lat="45.388695" lon="9.0438183"><ele>108.0</ele><time>2026-04-18T09:11:55.991Z</time></trkpt><trkpt lat="45.3886083" lon="9.0437567"><ele>108.2</ele><time>2026-04-18T09:11:56.991Z</time></trkpt><trkpt lat="45.3885167" lon="9.043705"><ele>108.4</ele><time>2026-04-18T09:11:57.991Z</time></trkpt><trkpt lat="45.3884267" lon="9.0436567"><ele>108.60000000000001</ele><time>2026-04-18T09:11:58.991Z</time></trkpt><trkpt lat="45.38834" lon="9.043605"><ele>108.80000000000001</ele><time>2026-04-18T09:11:59.991Z</time></trkpt><trkpt lat="45.388245" lon="9.043545"><ele>109.0</ele><time>2026-04-18T09:12:00.991Z</time></trkpt><trkpt lat="45.38815" lon="9.0434817"><ele>109.0</ele><time>2026-04-18T09:12:01.991Z</time></trkpt><trkpt lat="45.3880483" lon="9.043405"><ele>109.0</ele><time>2026-04-18T09:12:02.991Z</time></trkpt><trkpt lat="45.3879383" lon="9.043335"><ele>109.0</ele><time>2026-04-18T09:12:03.991Z</time></trkpt><trkpt lat="45.387825" lon="9.0432567"><ele>109.0</ele><time>2026-04-18T09:12:04.991Z</time></trkpt><trkpt lat="45.3877117" lon="9.0431883"><ele>109.5</ele><time>2026-04-18T09:12:05.991Z</time></trkpt><trkpt lat="45.3876083" lon="9.04313"><ele>110.0</ele><time>2026-04-18T09:12:06.991Z</time></trkpt><trkpt lat="45.3874983" lon="9.0430967"><ele>110.5</ele><time>2026-04-18T09:12:07.991Z</time></trkpt><trkpt lat="45.3873983" lon="9.0430383"><ele>111.0</ele><time>2026-04-18T09:12:08.991Z</time></trkpt><trkpt lat="45.3872817" lon="9.0429767"><ele>110.25</ele><time>2026-04-18T09:12:09.991Z</time></trkpt><trkpt lat="45.387165" lon="9.0429117"><ele>109.5</ele><time>2026-04-18T09:12:10.991Z</time></trkpt><trkpt lat="45.387045" lon="9.0428483"><ele>108.75</ele><time>2026-04-18T09:12:11.991Z</time></trkpt><trkpt lat="45.3869267" lon="9.0427733"><ele>108.0</ele><time>2026-04-18T09:12:12.991Z</time></trkpt><trkpt lat="45.386805" lon="9.042705"><ele>108.0</ele><time>2026-04-18T09:12:13.991Z</time></trkpt><trkpt lat="45.3866867" lon="9.042655"><ele>108.00000000000001</ele><time>2026-04-18T09:12:14.991Z</time></trkpt><trkpt lat="45.386575" lon="9.0426183"><ele>108.00000000000001</ele><time>2026-04-18T09:12:15.991Z</time></trkpt><trkpt lat="45.3864733" lon="9.04259"><ele>108.0</ele><time>2026-04-18T09:12:16.991Z</time></trkpt><trkpt lat="45.3863767" lon="9.0425533"><ele>108.0</ele><time>2026-04-18T09:12:17.991Z</time></trkpt><trkpt lat="45.3862817" lon="9.0424883"><ele>108.0</ele><time>2026-04-18T09:12:18.991Z</time></trkpt><trkpt lat="45.3861917" lon="9.0423967"><ele>108.0</ele><time>2026-04-18T09:12:19.991Z</time></trkpt><trkpt lat="45.3861133" lon="9.0422783"><ele>108.0</ele><time>2026-04-18T09:12:20.991Z</time></trkpt><trkpt lat="45.3860383" lon="9.04215"><ele>108.0</ele><time>2026-04-18T09:12:21.991Z</time></trkpt><trkpt lat="45.385965" lon="9.0420183"><ele>108.0</ele><time>2026-04-18T09:12:22.991Z</time></trkpt><trkpt lat="45.3858933" lon="9.0418967"><ele>108.0</ele><time>2026-04-18T09:12:23.991Z</time></trkpt><trkpt lat="45.3858317" lon="9.0417967"><ele>108.0</ele><time>2026-04-18T09:12:24.991Z</time></trkpt><trkpt lat="45.3857733" lon="9.041705"><ele>108.0</ele><time>2026-04-18T09:12:25.991Z</time></trkpt><trkpt lat="45.3857183" lon="9.0416217"><ele>108.0</ele><time>2026-04-18T09:12:26.991Z</time></trkpt><trkpt lat="45.3856683" lon="9.04155"><ele>108.0</ele><time>2026-04-18T09:12:27.991Z</time></trkpt><trkpt lat="45.3856167" lon="9.04148"><ele>108.0</ele><time>2026-04-18T09:12:28.991Z</time></trkpt><trkpt lat="45.3855417" lon="9.04138"><ele>108.00000000000001</ele><time>2026-04-18T09:12:30.991Z</time></trkpt><trkpt lat="45.3855967" lon="9.0415017"><ele>108.00000000000001</ele><time>2026-04-18T09:12:45.991Z</time></trkpt><trkpt lat="45.38562" lon="9.0416017"><ele>108.0</ele><time>2026-04-18T09:12:48.991Z</time></trkpt><trkpt lat="45.3855283" lon="9.0416883"><ele>108.0</ele><time>2026-04-18T09:13:01.991Z</time></trkpt><trkpt lat="45.3853633" lon="9.0418633"><ele>108.16666666666667</ele><time>2026-04-18T09:13:04.991Z</time></trkpt><trkpt lat="45.3852983" lon="9.04194"><ele>108.33333333333334</ele><time>2026-04-18T09:13:05.991Z</time></trkpt><trkpt lat="45.385235" lon="9.042015"><ele>108.5</ele><time>2026-04-18T09:13:06.991Z</time></trkpt><trkpt lat="45.3851733" lon="9.0420967"><ele>108.66666666666667</ele><time>2026-04-18T09:13:07.991Z</time></trkpt><trkpt lat="45.38512" lon="9.04218"><ele>108.83333333333334</ele><time>2026-04-18T09:13:08.991Z</time></trkpt><trkpt lat="45.3850617" lon="9.0422567"><ele>109.0</ele><time>2026-04-18T09:13:09.991Z</time></trkpt><trkpt lat="45.3850167" lon="9.0423317"><ele>109.0</ele><time>2026-04-18T09:13:10.991Z</time></trkpt><trkpt lat="45.38492" lon="9.0424333"><ele>109.0</ele><time>2026-04-18T09:13:12.991Z</time></trkpt><trkpt lat="45.3848133" lon="9.0425117"><ele>109.0</ele><time>2026-04-18T09:13:14.991Z</time></trkpt><trkpt lat="45.3847567" lon="9.0425517"><ele>109.0</ele><time>2026-04-18T09:13:15.991Z</time></trkpt><trkpt lat="45.3846417" lon="9.0426217"><ele>109.0</ele><time>2026-04-18T09:13:17.992Z</time></trkpt><trkpt lat="45.384555" lon="9.042685"><ele>108.83333333333334</ele><time>2026-04-18T09:13:19.991Z</time></trkpt><trkpt lat="45.3844817" lon="9.0427467"><ele>108.66666666666667</ele><time>2026-04-18T09:13:21.992Z</time></trkpt><trkpt lat="45.3844267" lon="9.04281"><ele>108.5</ele><time>2026-04-18T09:13:23.991Z</time></trkpt><trkpt lat="45.3843733" lon="9.0428667"><ele>108.33333333333334</ele><time>2026-04-18T09:13:35.991Z</time></trkpt><trkpt lat="45.38429" lon="9.0427883"><ele>108.16666666666667</ele><time>2026-04-18T09:13:38.991Z</time></trkpt><trkpt lat="45.3842167" lon="9.042665"><ele>108.0</ele><time>2026-04-18T09:13:40.991Z</time></trkpt><trkpt lat="45.3841383" lon="9.0425483"><ele>108.0</ele><time>2026-04-18T09:13:42.991Z</time></trkpt><trkpt lat="45.3840567" lon="9.04249"><ele>108.0</ele><time>2026-04-18T09:13:44.991Z</time></trkpt><trkpt lat="45.383975" lon="9.0424483"><ele>108.0</ele><time>2026-04-18T09:13:46.991Z</time></trkpt><trkpt lat="45.3839183" lon="9.042395"><ele>108.0</ele><time>2026-04-18T09:13:48.991Z</time></trkpt><trkpt lat="45.38384" lon="9.0423683"><ele>108.0</ele><time>2026-04-18T09:13:53.991Z</time></trkpt><trkpt lat="45.3837883" lon="9.0424417"><ele>108.0</ele><time>2026-04-18T09:13:55.991Z</time></trkpt><trkpt lat="45.38373" lon="9.0425317"><ele>108.4</ele><time>2026-04-18T09:13:57.991Z</time></trkpt><trkpt lat="45.3836417" lon="9.0426583"><ele>108.80000000000001</ele><time>2026-04-18T09:13:59.991Z</time></trkpt><trkpt lat="45.383585" lon="9.0427317"><ele>109.2</ele><time>2026-04-18T09:14:00.991Z</time></trkpt><trkpt lat="45.3835283" lon="9.0428117"><ele>109.6</ele><time>2026-04-18T09:14:01.991Z</time></trkpt><trkpt lat="45.3834683" lon="9.0428933"><ele>110.0</ele><time>2026-04-18T09:14:02.991Z</time></trkpt><trkpt lat="45.3834083" lon="9.04298"><ele>109.99999999999999</ele><time>2026-04-18T09:14:03.991Z</time></trkpt><trkpt lat="45.38335" lon="9.043065"><ele>110.0</ele><time>2026-04-18T09:14:04.991Z</time></trkpt><trkpt lat="45.3832867" lon="9.043155"><ele>110.0</ele><time>2026-04-18T09:14:05.991Z</time></trkpt><trkpt lat="45.3832283" lon="9.0432517"><ele>110.0</ele><time>2026-04-18T09:14:06.991Z</time></trkpt><trkpt lat="45.3831733" lon="9.0433433"><ele>109.99999999999999</ele><time>2026-04-18T09:14:07.992Z</time></trkpt><trkpt lat="45.383115" lon="9.043435"><ele>110.0</ele><time>2026-04-18T09:14:08.991Z</time></trkpt><trkpt lat="45.38305" lon="9.043525"><ele>109.66666666666666</ele><time>2026-04-18T09:14:09.991Z</time></trkpt><trkpt lat="45.3829967" lon="9.0436167"><ele>109.33333333333333</ele><time>2026-04-18T09:14:10.991Z</time></trkpt><trkpt lat="45.382945" lon="9.0437017"><ele>109.0</ele><time>2026-04-18T09:14:11.991Z</time></trkpt><trkpt lat="45.382895" lon="9.0437833"><ele>108.66666666666666</ele><time>2026-04-18T09:14:12.991Z</time></trkpt><trkpt lat="45.3828433" lon="9.0438417"><ele>108.33333333333333</ele><time>2026-04-18T09:14:13.991Z</time></trkpt><trkpt lat="45.3828" lon="9.0439083"><ele>108.0</ele><time>2026-04-18T09:14:14.991Z</time></trkpt><trkpt lat="45.38272" lon="9.0440133"><ele>108.0</ele><time>2026-04-18T09:14:16.991Z</time></trkpt><trkpt lat="45.3826617" lon="9.0440817"><ele>108.0</ele><time>2026-04-18T09:14:18.991Z</time></trkpt><trkpt lat="45.3825833" lon="9.044065"><ele>108.0</ele><time>2026-04-18T09:14:36.991Z</time></trkpt><trkpt lat="45.3825167" lon="9.04392"><ele>108.0</ele><time>2026-04-18T09:14:38.991Z</time></trkpt><trkpt lat="45.3824817" lon="9.0438317"><ele>108.0</ele><time>2026-04-18T09:14:39.991Z</time></trkpt><trkpt lat="45.382445" lon="9.04373"><ele>108.0</ele><time>2026-04-18T09:14:40.991Z</time></trkpt><trkpt lat="45.3824083" lon="9.0436233"><ele>108.0</ele><time>2026-04-18T09:14:41.991Z</time></trkpt><trkpt lat="45.3823733" lon="9.0435083"><ele>108.0</ele><time>2026-04-18T09:14:42.991Z</time></trkpt><trkpt lat="45.38233" lon="9.0433933"><ele>108.0</ele><time>2026-04-18T09:14:43.991Z</time></trkpt><trkpt lat="45.3822933" lon="9.0433"><ele>108.0</ele><time>2026-04-18T09:14:44.991Z</time></trkpt><trkpt lat="45.3822517" lon="9.043195"><ele>108.0</ele><time>2026-04-18T09:14:45.991Z</time></trkpt><trkpt lat="45.382205" lon="9.0430817"><ele>108.0</ele><time>2026-04-18T09:14:46.991Z</time></trkpt><trkpt lat="45.38215" lon="9.0429567"><ele>107.5</ele><time>2026-04-18T09:14:47.991Z</time></trkpt><trkpt lat="45.3820883" lon="9.0428267"><ele>107.0</ele><time>2026-04-18T09:14:48.99Z</time></trkpt><trkpt lat="45.3820183" lon="9.0426883"><ele>106.5</ele><time>2026-04-18T09:14:49.99Z</time></trkpt><trkpt lat="45.3819533" lon="9.0425517"><ele>106.0</ele><time>2026-04-18T09:14:50.99Z</time></trkpt><trkpt lat="45.3818933" lon="9.0424233"><ele>106.0</ele><time>2026-04-18T09:14:51.99Z</time></trkpt><trkpt lat="45.3818333" lon="9.042295"><ele>106.0</ele><time>2026-04-18T09:14:52.99Z</time></trkpt><trkpt lat="45.38177" lon="9.042165"><ele>106.0</ele><time>2026-04-18T09:14:53.99Z</time></trkpt><trkpt lat="45.381705" lon="9.0420433"><ele>106.0</ele><time>2026-04-18T09:14:54.99Z</time></trkpt><trkpt lat="45.381645" lon="9.041925"><ele>106.0</ele><time>2026-04-18T09:14:55.99Z</time></trkpt><trkpt lat="45.3815833" lon="9.0418117"><ele>106.0</ele><time>2026-04-18T09:14:56.99Z</time></trkpt><trkpt lat="45.381525" lon="9.0416883"><ele>106.0</ele><time>2026-04-18T09:14:57.99Z</time></trkpt><trkpt lat="45.381465" lon="9.0415583"><ele>106.0</ele><time>2026-04-18T09:14:58.99Z</time></trkpt><trkpt lat="45.3814" lon="9.041435"><ele>106.0</ele><time>2026-04-18T09:14:59.99Z</time></trkpt><trkpt lat="45.38134" lon="9.041305"><ele>106.0</ele><time>2026-04-18T09:15:00.99Z</time></trkpt><trkpt lat="45.3812883" lon="9.0411867"><ele>106.19999999999999</ele><time>2026-04-18T09:15:01.99Z</time></trkpt><trkpt lat="45.381235" lon="9.0410783"><ele>106.39999999999999</ele><time>2026-04-18T09:15:02.99Z</time></trkpt><trkpt lat="45.381185" lon="9.0409767"><ele>106.6</ele><time>2026-04-18T09:15:03.99Z</time></trkpt><trkpt lat="45.3811367" lon="9.0408817"><ele>106.8</ele><time>2026-04-18T09:15:04.99Z</time></trkpt><trkpt lat="45.3810917" lon="9.0408"><ele>107.0</ele><time>2026-04-18T09:15:05.99Z</time></trkpt><trkpt lat="45.381025" lon="9.0406617"><ele>106.99999999999999</ele><time>2026-04-18T09:15:07.99Z</time></trkpt><trkpt lat="45.3809917" lon="9.0405783"><ele>107.0</ele><time>2026-04-18T09:15:09.99Z</time></trkpt><trkpt lat="45.3809233" lon="9.0405217"><ele>107.0</ele><time>2026-04-18T09:15:17.99Z</time></trkpt><trkpt lat="45.38083" lon="9.0405583"><ele>107.0</ele><time>2026-04-18T09:15:19.99Z</time></trkpt><trkpt lat="45.380775" lon="9.0406033"><ele>106.99999999999999</ele><time>2026-04-18T09:15:20.99Z</time></trkpt><trkpt lat="45.3807083" lon="9.0406683"><ele>107.0</ele><time>2026-04-18T09:15:21.99Z</time></trkpt><trkpt lat="45.380645" lon="9.0407533"><ele>107.0</ele><time>2026-04-18T09:15:22.99Z</time></trkpt><trkpt lat="45.3805783" lon="9.040855"><ele>106.99999999999999</ele><time>2026-04-18T09:15:23.99Z</time></trkpt><trkpt lat="45.3805083" lon="9.040965"><ele>106.99999999999999</ele><time>2026-04-18T09:15:24.99Z</time></trkpt><trkpt lat="45.38044" lon="9.041075"><ele>107.0</ele><time>2026-04-18T09:15:25.99Z</time></trkpt><trkpt lat="45.3803683" lon="9.0411833"><ele>107.0</ele><time>2026-04-18T09:15:26.99Z</time></trkpt><trkpt lat="45.3802933" lon="9.0412917"><ele>107.0</ele><time>2026-04-18T09:15:27.99Z</time></trkpt><trkpt lat="45.3802117" lon="9.0414133"><ele>107.0</ele><time>2026-04-18T09:15:28.99Z</time></trkpt><trkpt lat="45.38012" lon="9.0415433"><ele>107.0</ele><time>2026-04-18T09:15:29.99Z</time></trkpt><trkpt lat="45.3800267" lon="9.041675"><ele>107.0</ele><time>2026-04-18T09:15:30.99Z</time></trkpt><trkpt lat="45.3799417" lon="9.0417967"><ele>106.8</ele><time>2026-04-18T09:15:31.99Z</time></trkpt><trkpt lat="45.3798583" lon="9.0419117"><ele>106.6</ele><time>2026-04-18T09:15:32.99Z</time></trkpt><trkpt lat="45.3797867" lon="9.0420233"><ele>106.39999999999999</ele><time>2026-04-18T09:15:33.99Z</time></trkpt><trkpt lat="45.3797117" lon="9.04214"><ele>106.19999999999999</ele><time>2026-04-18T09:15:34.991Z</time></trkpt><trkpt lat="45.3796383" lon="9.0422533"><ele>106.0</ele><time>2026-04-18T09:15:35.99Z</time></trkpt><trkpt lat="45.3795617" lon="9.042355"><ele>106.19999999999999</ele><time>2026-04-18T09:15:36.99Z</time></trkpt><trkpt lat="45.379485" lon="9.042465"><ele>106.39999999999999</ele><time>2026-04-18T09:15:37.99Z</time></trkpt><trkpt lat="45.379415" lon="9.042575"><ele>106.6</ele><time>2026-04-18T09:15:38.99Z</time></trkpt><trkpt lat="45.37935" lon="9.04268"><ele>106.8</ele><time>2026-04-18T09:15:39.99Z</time></trkpt><trkpt lat="45.3792933" lon="9.0427683"><ele>107.0</ele><time>2026-04-18T09:15:40.99Z</time></trkpt><trkpt lat="45.37924" lon="9.0428533"><ele>106.99999999999999</ele><time>2026-04-18T09:15:41.99Z</time></trkpt><trkpt lat="45.379185" lon="9.0429267"><ele>107.0</ele><time>2026-04-18T09:15:42.99Z</time></trkpt><trkpt lat="45.3791367" lon="9.042985"><ele>107.0</ele><time>2026-04-18T09:15:43.99Z</time></trkpt><trkpt lat="45.3790717" lon="9.0430767"><ele>107.0</ele><time>2026-04-18T09:15:45.991Z</time></trkpt><trkpt lat="45.37903" lon="9.043145"><ele>106.99999999999999</ele><time>2026-04-18T09:15:47.99Z</time></trkpt><trkpt lat="45.3789883" lon="9.043235"><ele>107.0</ele><time>2026-04-18T09:15:52.99Z</time></trkpt><trkpt lat="45.378905" lon="9.0433283"><ele>107.16666666666666</ele><time>2026-04-18T09:17:37.99Z</time></trkpt><trkpt lat="45.3788167" lon="9.0433083"><ele>107.33333333333333</ele><time>2026-04-18T09:17:40.99Z</time></trkpt><trkpt lat="45.3787533" lon="9.0432133"><ele>107.5</ele><time>2026-04-18T09:17:43.99Z</time></trkpt><trkpt lat="45.3786817" lon="9.043165"><ele>107.66666666666666</ele><time>2026-04-18T09:18:15.991Z</time></trkpt><trkpt lat="45.3786067" lon="9.0431017"><ele>107.83333333333333</ele><time>2026-04-18T09:18:17.99Z</time></trkpt><trkpt lat="45.3785383" lon="9.0430317"><ele>108.0</ele><time>2026-04-18T09:18:19.99Z</time></trkpt><trkpt lat="45.3784733" lon="9.042915"><ele>108.0</ele><time>2026-04-18T09:18:21.991Z</time></trkpt><trkpt lat="45.3784033" lon="9.0427617"><ele>108.00000000000001</ele><time>2026-04-18T09:18:23.99Z</time></trkpt><trkpt lat="45.378365" lon="9.04266"><ele>108.00000000000001</ele><time>2026-04-18T09:18:24.99Z</time></trkpt><trkpt lat="45.378325" lon="9.04255"><ele>108.0</ele><time>2026-04-18T09:18:25.99Z</time></trkpt><trkpt lat="45.3782817" lon="9.0424367"><ele>108.0</ele><time>2026-04-18T09:18:26.99Z</time></trkpt><trkpt lat="45.3782417" lon="9.042335"><ele>108.0</ele><time>2026-04-18T09:18:27.99Z</time></trkpt><trkpt lat="45.3781983" lon="9.0422383"><ele>108.0</ele><time>2026-04-18T09:18:28.99Z</time></trkpt><trkpt lat="45.3781567" lon="9.0421283"><ele>108.0</ele><time>2026-04-18T09:18:29.99Z</time></trkpt><trkpt lat="45.3781183" lon="9.0420317"><ele>108.0</ele><time>2026-04-18T09:18:30.99Z</time></trkpt><trkpt lat="45.378085" lon="9.0419483"><ele>108.0</ele><time>2026-04-18T09:18:31.99Z</time></trkpt><trkpt lat="45.3780467" lon="9.0418583"><ele>108.0</ele><time>2026-04-18T09:18:32.991Z</time></trkpt><trkpt lat="45.3780117" lon="9.0417767"><ele>107.80000000000001</ele><time>2026-04-18T09:18:33.99Z</time></trkpt><trkpt lat="45.3779583" lon="9.0416533"><ele>107.60000000000001</ele><time>2026-04-18T09:18:35.99Z</time></trkpt><trkpt lat="45.3779083" lon="9.0415767"><ele>107.39999999999999</ele><time>2026-04-18T09:18:38.99Z</time></trkpt><trkpt lat="45.377815" lon="9.04158"><ele>107.19999999999999</ele><time>2026-04-18T09:18:50.99Z</time></trkpt><trkpt lat="45.3777117" lon="9.0416833"><ele>107.0</ele><time>2026-04-18T09:18:52.99Z</time></trkpt><trkpt lat="45.377645" lon="9.0417483"><ele>107.0</ele><time>2026-04-18T09:18:53.99Z</time></trkpt><trkpt lat="45.3775733" lon="9.041825"><ele>106.99999999999999</ele><time>2026-04-18T09:18:54.99Z</time></trkpt><trkpt lat="45.3774917" lon="9.0419133"><ele>106.99999999999999</ele><time>2026-04-18T09:18:55.99Z</time></trkpt><trkpt lat="45.3774133" lon="9.0420083"><ele>107.0</ele><time>2026-04-18T09:18:56.991Z</time></trkpt><trkpt lat="45.3773217" lon="9.0421017"><ele>107.0</ele><time>2026-04-18T09:18:57.99Z</time></trkpt><trkpt lat="45.37723" lon="9.042195"><ele>107.0</ele><time>2026-04-18T09:18:58.99Z</time></trkpt><trkpt lat="45.3771367" lon="9.042285"><ele>107.0</ele><time>2026-04-18T09:18:59.99Z</time></trkpt><trkpt lat="45.3770467" lon="9.0423817"><ele>107.0</ele><time>2026-04-18T09:19:00.99Z</time></trkpt><trkpt lat="45.3769517" lon="9.0424783"><ele>107.0</ele><time>2026-04-18T09:19:01.99Z</time></trkpt><trkpt lat="45.376855" lon="9.0425833"><ele>107.0</ele><time>2026-04-18T09:19:02.99Z</time></trkpt><trkpt lat="45.3767567" lon="9.0426883"><ele>107.0</ele><time>2026-04-18T09:19:03.99Z</time></trkpt><trkpt lat="45.3766533" lon="9.042785"><ele>107.0</ele><time>2026-04-18T09:19:04.99Z</time></trkpt><trkpt lat="45.3765467" lon="9.0428817"><ele>107.0</ele><time>2026-04-18T09:19:05.99Z</time></trkpt><trkpt lat="45.37645" lon="9.042965"><ele>107.0</ele><time>2026-04-18T09:19:06.99Z</time></trkpt><trkpt lat="45.3763533" lon="9.043045"><ele>106.99999999999999</ele><time>2026-04-18T09:19:07.99Z</time></trkpt><trkpt lat="45.3762517" lon="9.0431"><ele>106.99999999999999</ele><time>2026-04-18T09:19:08.99Z</time></trkpt><trkpt lat="45.3761417" lon="9.0431583"><ele>107.0</ele><time>2026-04-18T09:19:09.99Z</time></trkpt><trkpt lat="45.3760367" lon="9.0432117"><ele>107.0</ele><time>2026-04-18T09:19:10.99Z</time></trkpt><trkpt lat="45.3759233" lon="9.0432733"><ele>107.0</ele><time>2026-04-18T09:19:11.99Z</time></trkpt><trkpt lat="45.375815" lon="9.043355"><ele>107.0</ele><time>2026-04-18T09:19:12.99Z</time></trkpt><trkpt lat="45.3757067" lon="9.0434233"><ele>107.0</ele><time>2026-04-18T09:19:13.99Z</time></trkpt><trkpt lat="45.3755967" lon="9.0434933"><ele>107.0</ele><time>2026-04-18T09:19:14.991Z</time></trkpt><trkpt lat="45.3754783" lon="9.0435567"><ele>107.25</ele><time>2026-04-18T09:19:15.99Z</time></trkpt><trkpt lat="45.375365" lon="9.0436333"><ele>107.5</ele><time>2026-04-18T09:19:16.99Z</time></trkpt><trkpt lat="45.3752617" lon="9.043725"><ele>107.75</ele><time>2026-04-18T09:19:17.99Z</time></trkpt><trkpt lat="45.375175" lon="9.0438183"><ele>108.0</ele><time>2026-04-18T09:19:18.99Z</time></trkpt><trkpt lat="45.3750967" lon="9.0439133"><ele>108.0</ele><time>2026-04-18T09:19:19.99Z</time></trkpt><trkpt lat="45.3750283" lon="9.0440017"><ele>108.0</ele><time>2026-04-18T09:19:20.99Z</time></trkpt><trkpt lat="45.3749667" lon="9.0440817"><ele>108.0</ele><time>2026-04-18T09:19:21.991Z</time></trkpt><trkpt lat="45.3749033" lon="9.0441483"><ele>108.0</ele><time>2026-04-18T09:19:22.99Z</time></trkpt><trkpt lat="45.374845" lon="9.0442317"><ele>108.0</ele><time>2026-04-18T09:19:23.99Z</time></trkpt><trkpt lat="45.3747883" lon="9.0443083"><ele>108.0</ele><time>2026-04-18T09:19:24.99Z</time></trkpt><trkpt lat="45.3747217" lon="9.04439"><ele>107.4</ele><time>2026-04-18T09:19:25.99Z</time></trkpt><trkpt lat="45.3746583" lon="9.0444833"><ele>106.80000000000001</ele><time>2026-04-18T09:19:26.99Z</time></trkpt><trkpt lat="45.37459" lon="9.0445817"><ele>106.2</ele><time>2026-04-18T09:19:27.99Z</time></trkpt><trkpt lat="45.3745183" lon="9.044675"><ele>105.6</ele><time>2026-04-18T09:19:28.99Z</time></trkpt><trkpt lat="45.3744533" lon="9.04477"><ele>105.0</ele><time>2026-04-18T09:19:29.99Z</time></trkpt><trkpt lat="45.37438" lon="9.0448767"><ele>105.2</ele><time>2026-04-18T09:19:30.99Z</time></trkpt><trkpt lat="45.3743033" lon="9.0449667"><ele>105.4</ele><time>2026-04-18T09:19:31.99Z</time></trkpt><trkpt lat="45.3742217" lon="9.04507"><ele>105.6</ele><time>2026-04-18T09:19:32.99Z</time></trkpt><trkpt lat="45.3741433" lon="9.0451483"><ele>105.8</ele><time>2026-04-18T09:19:33.99Z</time></trkpt><trkpt lat="45.3740633" lon="9.0452233"><ele>106.0</ele><time>2026-04-18T09:19:34.99Z</time></trkpt><trkpt lat="45.3739733" lon="9.0452967"><ele>106.0</ele><time>2026-04-18T09:19:35.99Z</time></trkpt><trkpt lat="45.3738883" lon="9.0453617"><ele>106.0</ele><time>2026-04-18T09:19:36.99Z</time></trkpt><trkpt lat="45.3738017" lon="9.0454333"><ele>106.0</ele><time>2026-04-18T09:19:37.99Z</time></trkpt><trkpt lat="45.3737167" lon="9.0455183"><ele>106.0</ele><time>2026-04-18T09:19:38.99Z</time></trkpt><trkpt lat="45.3736317" lon="9.0456"><ele>106.0</ele><time>2026-04-18T09:19:39.99Z</time></trkpt><trkpt lat="45.3735433" lon="9.0456883"><ele>105.8</ele><time>2026-04-18T09:19:40.991Z</time></trkpt><trkpt lat="45.3734567" lon="9.0457783"><ele>105.6</ele><time>2026-04-18T09:19:41.99Z</time></trkpt><trkpt lat="45.3733633" lon="9.04587"><ele>105.4</ele><time>2026-04-18T09:19:42.99Z</time></trkpt><trkpt lat="45.37327" lon="9.0459583"><ele>105.2</ele><time>2026-04-18T09:19:43.99Z</time></trkpt><trkpt lat="45.37317" lon="9.0460433"><ele>105.0</ele><time>2026-04-18T09:19:44.99Z</time></trkpt><trkpt lat="45.37307" lon="9.0461217"><ele>105.0</ele><time>2026-04-18T09:19:45.99Z</time></trkpt><trkpt lat="45.372965" lon="9.0462017"><ele>105.0</ele><time>2026-04-18T09:19:46.99Z</time></trkpt><trkpt lat="45.37286" lon="9.04627"><ele>105.0</ele><time>2026-04-18T09:19:47.99Z</time></trkpt><trkpt lat="45.372755" lon="9.0463333"><ele>105.0</ele><time>2026-04-18T09:19:48.99Z</time></trkpt><trkpt lat="45.3726483" lon="9.0463967"><ele>105.0</ele><time>2026-04-18T09:19:49.99Z</time></trkpt><trkpt lat="45.372545" lon="9.0464533"><ele>105.0</ele><time>2026-04-18T09:19:50.99Z</time></trkpt><trkpt lat="45.372445" lon="9.0465133"><ele>105.0</ele><time>2026-04-18T09:19:51.99Z</time></trkpt><trkpt lat="45.37235" lon="9.0465617"><ele>105.0</ele><time>2026-04-18T09:19:52.99Z</time></trkpt><trkpt lat="45.3722733" lon="9.0466"><ele>105.0</ele><time>2026-04-18T09:19:53.99Z</time></trkpt><trkpt lat="45.372205" lon="9.0466267"><ele>105.2</ele><time>2026-04-18T09:19:54.99Z</time></trkpt><trkpt lat="45.3721333" lon="9.0466633"><ele>105.4</ele><time>2026-04-18T09:19:55.99Z</time></trkpt><trkpt lat="45.3720633" lon="9.0467117"><ele>105.6</ele><time>2026-04-18T09:19:56.99Z</time></trkpt><trkpt lat="45.3719867" lon="9.04678"><ele>105.8</ele><time>2026-04-18T09:19:57.99Z</time></trkpt><trkpt lat="45.3719067" lon="9.0468717"><ele>106.0</ele><time>2026-04-18T09:19:58.99Z</time></trkpt><trkpt lat="45.371825" lon="9.0469633"><ele>106.0</ele><time>2026-04-18T09:19:59.99Z</time></trkpt><trkpt lat="45.3717483" lon="9.0470583"><ele>106.0</ele><time>2026-04-18T09:20:00.99Z</time></trkpt><trkpt lat="45.3716667" lon="9.0471583"><ele>106.0</ele><time>2026-04-18T09:20:01.99Z</time></trkpt><trkpt lat="45.3715833" lon="9.047255"><ele>106.0</ele><time>2026-04-18T09:20:02.99Z</time></trkpt><trkpt lat="45.3714933" lon="9.04736"><ele>106.0</ele><time>2026-04-18T09:20:03.99Z</time></trkpt><trkpt lat="45.3714033" lon="9.04746"><ele>105.75</ele><time>2026-04-18T09:20:04.99Z</time></trkpt><trkpt lat="45.3713083" lon="9.0475683"><ele>105.5</ele><time>2026-04-18T09:20:05.99Z</time></trkpt><trkpt lat="45.371215" lon="9.0476783"><ele>105.25</ele><time>2026-04-18T09:20:06.99Z</time></trkpt><trkpt lat="45.3711233" lon="9.047775"><ele>105.0</ele><time>2026-04-18T09:20:07.99Z</time></trkpt><trkpt lat="45.371045" lon="9.047865"><ele>105.0</ele><time>2026-04-18T09:20:08.99Z</time></trkpt><trkpt lat="45.3709683" lon="9.0479483"><ele>105.0</ele><time>2026-04-18T09:20:09.99Z</time></trkpt><trkpt lat="45.3709" lon="9.0480433"><ele>105.0</ele><time>2026-04-18T09:20:10.99Z</time></trkpt><trkpt lat="45.3708383" lon="9.0481233"><ele>105.0</ele><time>2026-04-18T09:20:11.99Z</time></trkpt><trkpt lat="45.37077" lon="9.0481933"><ele>105.0</ele><time>2026-04-18T09:20:12.99Z</time></trkpt><trkpt lat="45.370705" lon="9.0482483"><ele>105.0</ele><time>2026-04-18T09:20:13.99Z</time></trkpt><trkpt lat="45.3705867" lon="9.04825"><ele>105.0</ele><time>2026-04-18T09:20:15.99Z</time></trkpt><trkpt lat="45.3705017" lon="9.0481583"><ele>105.0</ele><time>2026-04-18T09:20:17.99Z</time></trkpt><trkpt lat="45.3704267" lon="9.0479917"><ele>105.0</ele><time>2026-04-18T09:20:19.99Z</time></trkpt><trkpt lat="45.3703767" lon="9.0478917"><ele>105.0</ele><time>2026-04-18T09:20:20.991Z</time></trkpt><trkpt lat="45.3703233" lon="9.047775"><ele>105.0</ele><time>2026-04-18T09:20:21.99Z</time></trkpt><trkpt lat="45.3702617" lon="9.04765"><ele>105.0</ele><time>2026-04-18T09:20:22.99Z</time></trkpt><trkpt lat="45.3702" lon="9.0475183"><ele>105.0</ele><time>2026-04-18T09:20:23.99Z</time></trkpt><trkpt lat="45.3701367" lon="9.0473733"><ele>105.0</ele><time>2026-04-18T09:20:24.99Z</time></trkpt><trkpt lat="45.3700667" lon="9.0472183"><ele>105.0</ele><time>2026-04-18T09:20:25.991Z</time></trkpt><trkpt lat="45.36999" lon="9.0470583"><ele>105.5</ele><time>2026-04-18T09:20:26.99Z</time></trkpt><trkpt lat="45.3699167" lon="9.0468983"><ele>106.0</ele><time>2026-04-18T09:20:27.99Z</time></trkpt><trkpt lat="45.3698433" lon="9.0467367"><ele>106.5</ele><time>2026-04-18T09:20:28.99Z</time></trkpt><trkpt lat="45.36977" lon="9.0465967"><ele>107.0</ele><time>2026-04-18T09:20:29.99Z</time></trkpt><trkpt lat="45.3697017" lon="9.0464617"><ele>106.39999999999999</ele><time>2026-04-18T09:20:30.99Z</time></trkpt><trkpt lat="45.3696417" lon="9.046345"><ele>105.79999999999998</ele><time>2026-04-18T09:20:31.99Z</time></trkpt><trkpt lat="45.369585" lon="9.0462333"><ele>105.2</ele><time>2026-04-18T09:20:32.99Z</time></trkpt><trkpt lat="45.3695383" lon="9.0461283"><ele>104.6</ele><time>2026-04-18T09:20:33.99Z</time></trkpt><trkpt lat="45.3694867" lon="9.04602"><ele>104.0</ele><time>2026-04-18T09:20:34.99Z</time></trkpt><trkpt lat="45.369435" lon="9.0459017"><ele>104.4</ele><time>2026-04-18T09:20:35.99Z</time></trkpt><trkpt lat="45.369395" lon="9.0457717"><ele>104.80000000000001</ele><time>2026-04-18T09:20:36.99Z</time></trkpt><trkpt lat="45.3693583" lon="9.0456333"><ele>105.19999999999999</ele><time>2026-04-18T09:20:37.99Z</time></trkpt><trkpt lat="45.3693317" lon="9.0454883"><ele>105.6</ele><time>2026-04-18T09:20:38.99Z</time></trkpt><trkpt lat="45.3693083" lon="9.045345"><ele>106.0</ele><time>2026-04-18T09:20:39.99Z</time></trkpt><trkpt lat="45.3692883" lon="9.0452033"><ele>106.0</ele><time>2026-04-18T09:20:40.99Z</time></trkpt><trkpt lat="45.3692667" lon="9.0450733"><ele>106.0</ele><time>2026-04-18T09:20:41.99Z</time></trkpt><trkpt lat="45.3692533" lon="9.0449733"><ele>106.0</ele><time>2026-04-18T09:20:42.99Z</time></trkpt><trkpt lat="45.369235" lon="9.04483"><ele>106.0</ele><time>2026-04-18T09:20:59.99Z</time></trkpt><trkpt lat="45.3691883" lon="9.04469"><ele>106.0</ele><time>2026-04-18T09:21:01.99Z</time></trkpt><trkpt lat="45.3691533" lon="9.044545"><ele>106.4</ele><time>2026-04-18T09:21:03.99Z</time></trkpt><trkpt lat="45.3691283" lon="9.044405"><ele>106.8</ele><time>2026-04-18T09:21:05.99Z</time></trkpt><trkpt lat="45.3691017" lon="9.04429"><ele>107.20000000000002</ele><time>2026-04-18T09:21:07.99Z</time></trkpt><trkpt lat="45.3690867" lon="9.0441417"><ele>107.60000000000001</ele><time>2026-04-18T09:21:10.99Z</time></trkpt><trkpt lat="45.3690683" lon="9.04399"><ele>108.0</ele><time>2026-04-18T09:21:12.99Z</time></trkpt><trkpt lat="45.3690517" lon="9.04387"><ele>108.0</ele><time>2026-04-18T09:21:14.99Z</time></trkpt><trkpt lat="45.3690283" lon="9.0437483"><ele>108.0</ele><time>2026-04-18T09:21:17.99Z</time></trkpt><trkpt lat="45.3690133" lon="9.0436583"><ele>108.0</ele><time>2026-04-18T09:21:21.99Z</time></trkpt><trkpt lat="45.3690217" lon="9.043555"><ele>108.0</ele><time>2026-04-18T09:21:24.99Z</time></trkpt><trkpt lat="45.3690067" lon="9.04343"><ele>108.0</ele><time>2026-04-18T09:21:27.99Z</time></trkpt><trkpt lat="45.3690083" lon="9.0433117"><ele>108.0</ele><time>2026-04-18T09:21:30.991Z</time></trkpt><trkpt lat="45.3689983" lon="9.0431983"><ele>107.66666666666667</ele><time>2026-04-18T09:21:33.99Z</time></trkpt><trkpt lat="45.3689667" lon="9.0430667"><ele>107.33333333333334</ele><time>2026-04-18T09:21:36.99Z</time></trkpt><trkpt lat="45.3689233" lon="9.0429367"><ele>107.0</ele><time>2026-04-18T09:21:57.99Z</time></trkpt><trkpt lat="45.3689067" lon="9.04284"><ele>106.66666666666667</ele><time>2026-04-18T09:21:58.99Z</time></trkpt><trkpt lat="45.3688933" lon="9.0427467"><ele>106.33333333333334</ele><time>2026-04-18T09:21:59.99Z</time></trkpt><trkpt lat="45.3688883" lon="9.0426517"><ele>106.0</ele><time>2026-04-18T09:22:00.99Z</time></trkpt><trkpt lat="45.3688883" lon="9.0425617"><ele>105.8</ele><time>2026-04-18T09:22:01.99Z</time></trkpt><trkpt lat="45.3688817" lon="9.0424233"><ele>105.6</ele><time>2026-04-18T09:22:03.99Z</time></trkpt><trkpt lat="45.3688683" lon="9.042285"><ele>105.4</ele><time>2026-04-18T09:22:05.99Z</time></trkpt><trkpt lat="45.3688533" lon="9.042155"><ele>105.2</ele><time>2026-04-18T09:22:07.99Z</time></trkpt><trkpt lat="45.36885" lon="9.042015"><ele>105.0</ele><time>2026-04-18T09:22:09.99Z</time></trkpt><trkpt lat="45.3688833" lon="9.0419033"><ele>105.0</ele><time>2026-04-18T09:22:12.99Z</time></trkpt><trkpt lat="45.368975" lon="9.0418883"><ele>105.0</ele><time>2026-04-18T09:22:14.99Z</time></trkpt><trkpt lat="45.3690383" lon="9.04188"><ele>105.0</ele><time>2026-04-18T09:22:15.99Z</time></trkpt><trkpt lat="45.36911" lon="9.041875"><ele>105.0</ele><time>2026-04-18T09:22:16.99Z</time></trkpt><trkpt lat="45.3691933" lon="9.041875"><ele>105.0</ele><time>2026-04-18T09:22:17.99Z</time></trkpt><trkpt lat="45.369285" lon="9.0418767"><ele>105.0</ele><time>2026-04-18T09:22:18.99Z</time></trkpt><trkpt lat="45.3693767" lon="9.0418683"><ele>105.0</ele><time>2026-04-18T09:22:19.991Z</time></trkpt><trkpt lat="45.36947" lon="9.0418667"><ele>105.0</ele><time>2026-04-18T09:22:20.99Z</time></trkpt><trkpt lat="45.36956" lon="9.041875"><ele>105.0</ele><time>2026-04-18T09:22:21.99Z</time></trkpt><trkpt lat="45.3696417" lon="9.0418717"><ele>105.0</ele><time>2026-04-18T09:22:22.99Z</time></trkpt><trkpt lat="45.3697283" lon="9.041885"><ele>105.0</ele><time>2026-04-18T09:22:23.99Z</time></trkpt><trkpt lat="45.36982" lon="9.0418883"><ele>105.0</ele><time>2026-04-18T09:22:24.99Z</time></trkpt><trkpt lat="45.3699067" lon="9.0419017"><ele>105.16666666666667</ele><time>2026-04-18T09:22:25.99Z</time></trkpt><trkpt lat="45.36999" lon="9.0419183"><ele>105.33333333333334</ele><time>2026-04-18T09:22:26.99Z</time></trkpt><trkpt lat="45.3700733" lon="9.04193"><ele>105.5</ele><time>2026-04-18T09:22:27.991Z</time></trkpt><trkpt lat="45.3701617" lon="9.041935"><ele>105.66666666666667</ele><time>2026-04-18T09:22:28.99Z</time></trkpt><trkpt lat="45.370255" lon="9.04193"><ele>105.83333333333334</ele><time>2026-04-18T09:22:29.99Z</time></trkpt><trkpt lat="45.3703517" lon="9.0419217"><ele>106.0</ele><time>2026-04-18T09:22:30.99Z</time></trkpt><trkpt lat="45.3704417" lon="9.0419033"><ele>106.00000000000001</ele><time>2026-04-18T09:22:31.99Z</time></trkpt><trkpt lat="45.3705217" lon="9.0418933"><ele>106.0</ele><time>2026-04-18T09:22:32.99Z</time></trkpt><trkpt lat="45.3705917" lon="9.0418833"><ele>106.0</ele><time>2026-04-18T09:22:33.99Z</time></trkpt><trkpt lat="45.3706583" lon="9.041875"><ele>106.0</ele><time>2026-04-18T09:22:34.99Z</time></trkpt><trkpt lat="45.3707733" lon="9.04185"><ele>106.00000000000001</ele><time>2026-04-18T09:22:36.99Z</time></trkpt><trkpt lat="45.3708367" lon="9.04193"><ele>106.0</ele><time>2026-04-18T09:22:38.99Z</time></trkpt><trkpt lat="45.370855" lon="9.0421117"><ele>105.83333333333334</ele><time>2026-04-18T09:22:40.99Z</time></trkpt><trkpt lat="45.3708683" lon="9.042235"><ele>105.66666666666667</ele><time>2026-04-18T09:22:41.99Z</time></trkpt><trkpt lat="45.3708883" lon="9.0423617"><ele>105.5</ele><time>2026-04-18T09:22:42.99Z</time></trkpt><trkpt lat="45.3709083" lon="9.042485"><ele>105.33333333333334</ele><time>2026-04-18T09:22:43.991Z</time></trkpt><trkpt lat="45.370925" lon="9.0426183"><ele>105.16666666666667</ele><time>2026-04-18T09:22:44.99Z</time></trkpt><trkpt lat="45.3709433" lon="9.0427333"><ele>105.0</ele><time>2026-04-18T09:22:45.99Z</time></trkpt><trkpt lat="45.370955" lon="9.0428283"><ele>105.2</ele><time>2026-04-18T09:22:46.99Z</time></trkpt><trkpt lat="45.3709783" lon="9.0429867"><ele>105.4</ele><time>2026-04-18T09:22:48.989Z</time></trkpt><trkpt lat="45.371035" lon="9.043085"><ele>105.6</ele><time>2026-04-18T09:22:50.99Z</time></trkpt><trkpt lat="45.3711617" lon="9.043025"><ele>105.8</ele><time>2026-04-18T09:22:52.99Z</time></trkpt><trkpt lat="45.371255" lon="9.0429483"><ele>106.0</ele><time>2026-04-18T09:22:53.989Z</time></trkpt><trkpt lat="45.3713583" lon="9.0428717"><ele>106.0</ele><time>2026-04-18T09:22:54.989Z</time></trkpt><trkpt lat="45.3714683" lon="9.042795"><ele>106.0</ele><time>2026-04-18T09:22:55.989Z</time></trkpt><trkpt lat="45.3715833" lon="9.04272"><ele>106.0</ele><time>2026-04-18T09:22:56.989Z</time></trkpt><trkpt lat="45.3717017" lon="9.0426333"><ele>106.0</ele><time>2026-04-18T09:22:57.989Z</time></trkpt><trkpt lat="45.3718283" lon="9.0425367"><ele>105.75</ele><time>2026-04-18T09:22:58.99Z</time></trkpt><trkpt lat="45.3719567" lon="9.04245"><ele>105.5</ele><time>2026-04-18T09:22:59.989Z</time></trkpt><trkpt lat="45.372085" lon="9.0423617"><ele>105.25</ele><time>2026-04-18T09:23:00.989Z</time></trkpt><trkpt lat="45.3722133" lon="9.0422817"><ele>105.0</ele><time>2026-04-18T09:23:01.989Z</time></trkpt><trkpt lat="45.3723383" lon="9.0421967"><ele>105.0</ele><time>2026-04-18T09:23:02.989Z</time></trkpt><trkpt lat="45.3724617" lon="9.0421117"><ele>105.0</ele><time>2026-04-18T09:23:03.989Z</time></trkpt><trkpt lat="45.3725717" lon="9.0420333"><ele>105.0</ele><time>2026-04-18T09:23:04.989Z</time></trkpt><trkpt lat="45.37269" lon="9.041955"><ele>105.0</ele><time>2026-04-18T09:23:05.989Z</time></trkpt><trkpt lat="45.37279" lon="9.041885"><ele>105.0</ele><time>2026-04-18T09:23:06.989Z</time></trkpt><trkpt lat="45.3729" lon="9.0418167"><ele>105.0</ele><time>2026-04-18T09:23:07.989Z</time></trkpt><trkpt lat="45.3730017" lon="9.04174"><ele>105.0</ele><time>2026-04-18T09:23:08.989Z</time></trkpt><trkpt lat="45.3731083" lon="9.0416667"><ele>105.0</ele><time>2026-04-18T09:23:09.99Z</time></trkpt><trkpt lat="45.3732167" lon="9.04159"><ele>105.2</ele><time>2026-04-18T09:23:10.989Z</time></trkpt><trkpt lat="45.3733267" lon="9.0415167"><ele>105.4</ele><time>2026-04-18T09:23:11.989Z</time></trkpt><trkpt lat="45.3734283" lon="9.0414483"><ele>105.6</ele><time>2026-04-18T09:23:12.989Z</time></trkpt><trkpt lat="45.3735167" lon="9.04139"><ele>105.8</ele><time>2026-04-18T09:23:13.989Z</time></trkpt><trkpt lat="45.3736117" lon="9.0413283"><ele>106.0</ele><time>2026-04-18T09:23:14.989Z</time></trkpt><trkpt lat="45.3736967" lon="9.0412783"><ele>106.0</ele><time>2026-04-18T09:23:15.989Z</time></trkpt><trkpt lat="45.373775" lon="9.0412333"><ele>106.0</ele><time>2026-04-18T09:23:16.989Z</time></trkpt><trkpt lat="45.3738433" lon="9.0411767"><ele>106.0</ele><time>2026-04-18T09:23:17.989Z</time></trkpt><trkpt lat="45.37391" lon="9.0411283"><ele>106.0</ele><time>2026-04-18T09:23:18.989Z</time></trkpt><trkpt lat="45.3739817" lon="9.041085"><ele>106.0</ele><time>2026-04-18T09:23:19.989Z</time></trkpt><trkpt lat="45.3740467" lon="9.0410583"><ele>106.0</ele><time>2026-04-18T09:23:20.989Z</time></trkpt><trkpt lat="45.3741117" lon="9.04106"><ele>106.0</ele><time>2026-04-18T09:23:21.989Z</time></trkpt><trkpt lat="45.3741883" lon="9.041175"><ele>106.0</ele><time>2026-04-18T09:23:23.989Z</time></trkpt><trkpt lat="45.3742183" lon="9.0412667"><ele>106.0</ele><time>2026-04-18T09:23:24.989Z</time></trkpt><trkpt lat="45.3742567" lon="9.041375"><ele>106.0</ele><time>2026-04-18T09:23:25.989Z</time></trkpt><trkpt lat="45.3742967" lon="9.0414967"><ele>106.0</ele><time>2026-04-18T09:23:26.989Z</time></trkpt><trkpt lat="45.3743383" lon="9.0416417"><ele>106.0</ele><time>2026-04-18T09:23:27.989Z</time></trkpt><trkpt lat="45.3743883" lon="9.0417883"><ele>106.19999999999999</ele><time>2026-04-18T09:23:28.99Z</time></trkpt><trkpt lat="45.3744433" lon="9.04193"><ele>106.39999999999999</ele><time>2026-04-18T09:23:29.989Z</time></trkpt><trkpt lat="45.374495" lon="9.042065"><ele>106.6</ele><time>2026-04-18T09:23:30.989Z</time></trkpt><trkpt lat="45.3745433" lon="9.0422"><ele>106.8</ele><time>2026-04-18T09:23:31.989Z</time></trkpt><trkpt lat="45.374585" lon="9.0423333"><ele>107.0</ele><time>2026-04-18T09:23:32.989Z</time></trkpt><trkpt lat="45.374625" lon="9.042445"><ele>107.0</ele><time>2026-04-18T09:23:33.989Z</time></trkpt><trkpt lat="45.374665" lon="9.0425617"><ele>106.99999999999999</ele><time>2026-04-18T09:23:34.989Z</time></trkpt><trkpt lat="45.3747" lon="9.0426567"><ele>106.99999999999999</ele><time>2026-04-18T09:23:35.99Z</time></trkpt><trkpt lat="45.374755" lon="9.0428183"><ele>107.0</ele><time>2026-04-18T09:23:37.989Z</time></trkpt><trkpt lat="45.3748033" lon="9.0429633"><ele>107.0</ele><time>2026-04-18T09:23:39.989Z</time></trkpt><trkpt lat="45.3748533" lon="9.04311"><ele>107.16666666666666</ele><time>2026-04-18T09:23:41.989Z</time></trkpt><trkpt lat="45.3748767" lon="9.04321"><ele>107.33333333333333</ele><time>2026-04-18T09:23:43.989Z</time></trkpt><trkpt lat="45.3749217" lon="9.0433267"><ele>107.5</ele><time>2026-04-18T09:23:46.989Z</time></trkpt><trkpt lat="45.37498" lon="9.0434267"><ele>107.66666666666666</ele><time>2026-04-18T09:23:48.989Z</time></trkpt><trkpt lat="45.3750617" lon="9.0434817"><ele>107.83333333333333</ele><time>2026-04-18T09:23:50.989Z</time></trkpt><trkpt lat="45.375155" lon="9.043485"><ele>108.0</ele><time>2026-04-18T09:23:52.989Z</time></trkpt><trkpt lat="45.3752417" lon="9.043455"><ele>108.0</ele><time>2026-04-18T09:23:54.989Z</time></trkpt><trkpt lat="45.375325" lon="9.043385"><ele>108.0</ele><time>2026-04-18T09:23:56.989Z</time></trkpt><trkpt lat="45.375375" lon="9.0432767"><ele>108.0</ele><time>2026-04-18T09:23:58.989Z</time></trkpt><trkpt lat="45.3753817" lon="9.043145"><ele>108.0</ele><time>2026-04-18T09:24:00.989Z</time></trkpt><trkpt lat="45.3753767" lon="9.043025"><ele>108.0</ele><time>2026-04-18T09:24:02.989Z</time></trkpt><trkpt lat="45.37533" lon="9.0429533"><ele>108.0</ele><time>2026-04-18T09:24:04.989Z</time></trkpt><trkpt lat="45.3752633" lon="9.0428717"><ele>108.0</ele><time>2026-04-18T09:24:07.989Z</time></trkpt><trkpt lat="45.3752133" lon="9.04279"><ele>108.0</ele><time>2026-04-18T09:24:09.989Z</time></trkpt><trkpt lat="45.375145" lon="9.04271"><ele>108.0</ele><time>2026-04-18T09:24:12.989Z</time></trkpt><trkpt lat="45.3750683" lon="9.0427267"><ele>108.0</ele><time>2026-04-18T09:24:14.989Z</time></trkpt><trkpt lat="45.375005" lon="9.0427767"><ele>108.0</ele><time>2026-04-18T09:24:16.989Z</time></trkpt><trkpt lat="45.3749417" lon="9.0428483"><ele>108.0</ele><time>2026-04-18T09:24:18.989Z</time></trkpt><trkpt lat="45.3748867" lon="9.042935"><ele>108.0</ele><time>2026-04-18T09:24:20.989Z</time></trkpt><trkpt lat="45.3748317" lon="9.0429967"><ele>108.00000000000001</ele><time>2026-04-18T09:24:23.989Z</time></trkpt><trkpt lat="45.3747767" lon="9.0429033"><ele>108.00000000000001</ele><time>2026-04-18T09:24:28.989Z</time></trkpt><trkpt lat="45.37473" lon="9.0427633"><ele>108.0</ele><time>2026-04-18T09:24:30.989Z</time></trkpt><trkpt lat="45.3746783" lon="9.0425983"><ele>108.0</ele><time>2026-04-18T09:24:32.989Z</time></trkpt><trkpt lat="45.37462" lon="9.0424283"><ele>107.83333333333333</ele><time>2026-04-18T09:24:34.989Z</time></trkpt><trkpt lat="45.3745883" lon="9.0423433"><ele>107.66666666666666</ele><time>2026-04-18T09:24:35.989Z</time></trkpt><trkpt lat="45.3745517" lon="9.0422467"><ele>107.5</ele><time>2026-04-18T09:24:36.99Z</time></trkpt><trkpt lat="45.3745133" lon="9.042135"><ele>107.33333333333333</ele><time>2026-04-18T09:24:37.989Z</time></trkpt><trkpt lat="45.37447" lon="9.04203"><ele>107.16666666666666</ele><time>2026-04-18T09:24:38.989Z</time></trkpt><trkpt lat="45.37443" lon="9.0419233"><ele>107.0</ele><time>2026-04-18T09:24:39.989Z</time></trkpt><trkpt lat="45.3743917" lon="9.041815"><ele>106.99999999999999</ele><time>2026-04-18T09:24:40.989Z</time></trkpt><trkpt lat="45.3743567" lon="9.0416983"><ele>107.0</ele><time>2026-04-18T09:24:41.989Z</time></trkpt><trkpt lat="45.3743233" lon="9.0415867"><ele>107.0</ele><time>2026-04-18T09:24:42.989Z</time></trkpt><trkpt lat="45.3742917" lon="9.0414867"><ele>107.0</ele><time>2026-04-18T09:24:43.989Z</time></trkpt><trkpt lat="45.3742617" lon="9.0413883"><ele>106.99999999999999</ele><time>2026-04-18T09:24:44.989Z</time></trkpt><trkpt lat="45.37423" lon="9.0413017"><ele>107.0</ele><time>2026-04-18T09:24:45.989Z</time></trkpt><trkpt lat="45.37418" lon="9.0411683"><ele>106.83333333333333</ele><time>2026-04-18T09:24:47.989Z</time></trkpt><trkpt lat="45.3741417" lon="9.041075"><ele>106.66666666666666</ele><time>2026-04-18T09:24:50.989Z</time></trkpt><trkpt lat="45.3741017" lon="9.0409667"><ele>106.5</ele><time>2026-04-18T09:25:14.989Z</time></trkpt><trkpt lat="45.3740533" lon="9.0408217"><ele>106.33333333333334</ele><time>2026-04-18T09:25:16.99Z</time></trkpt><trkpt lat="45.3740233" lon="9.0407283"><ele>106.16666666666667</ele><time>2026-04-18T09:25:17.989Z</time></trkpt><trkpt lat="45.37399" lon="9.0406183"><ele>106.0</ele><time>2026-04-18T09:25:18.989Z</time></trkpt><trkpt lat="45.3739517" lon="9.040495"><ele>106.00000000000001</ele><time>2026-04-18T09:25:19.989Z</time></trkpt><trkpt lat="45.37391" lon="9.0403817"><ele>106.0</ele><time>2026-04-18T09:25:20.989Z</time></trkpt><trkpt lat="45.3738683" lon="9.040265"><ele>106.0</ele><time>2026-04-18T09:25:21.989Z</time></trkpt><trkpt lat="45.3738283" lon="9.04015"><ele>106.0</ele><time>2026-04-18T09:25:22.989Z</time></trkpt><trkpt lat="45.3737917" lon="9.0400317"><ele>106.00000000000001</ele><time>2026-04-18T09:25:23.99Z</time></trkpt><trkpt lat="45.3737533" lon="9.0399233"><ele>106.0</ele><time>2026-04-18T09:25:24.989Z</time></trkpt><trkpt lat="45.3737083" lon="9.0398067"><ele>105.83333333333334</ele><time>2026-04-18T09:25:25.989Z</time></trkpt><trkpt lat="45.3736633" lon="9.0396983"><ele>105.66666666666667</ele><time>2026-04-18T09:25:26.99Z</time></trkpt><trkpt lat="45.373625" lon="9.0395867"><ele>105.5</ele><time>2026-04-18T09:25:27.989Z</time></trkpt><trkpt lat="45.3735883" lon="9.0394817"><ele>105.33333333333334</ele><time>2026-04-18T09:25:28.989Z</time></trkpt><trkpt lat="45.3735583" lon="9.0393817"><ele>105.16666666666667</ele><time>2026-04-18T09:25:29.989Z</time></trkpt><trkpt lat="45.37353" lon="9.0392967"><ele>105.0</ele><time>2026-04-18T09:25:30.99Z</time></trkpt><trkpt lat="45.3734883" lon="9.039145"><ele>105.2</ele><time>2026-04-18T09:25:32.99Z</time></trkpt><trkpt lat="45.373455" lon="9.0390417"><ele>105.4</ele><time>2026-04-18T09:25:34.989Z</time></trkpt><trkpt lat="45.3735033" lon="9.0389483"><ele>105.6</ele><time>2026-04-18T09:25:37.989Z</time></trkpt><trkpt lat="45.3735867" lon="9.0388983"><ele>105.8</ele><time>2026-04-18T09:25:39.989Z</time></trkpt><trkpt lat="45.3736833" lon="9.0388367"><ele>106.0</ele><time>2026-04-18T09:25:41.989Z</time></trkpt><trkpt lat="45.3737917" lon="9.038755"><ele>106.00000000000001</ele><time>2026-04-18T09:25:43.989Z</time></trkpt><trkpt lat="45.3738533" lon="9.0387133"><ele>106.0</ele><time>2026-04-18T09:25:44.989Z</time></trkpt><trkpt lat="45.37392" lon="9.0386733"><ele>106.0</ele><time>2026-04-18T09:25:45.989Z</time></trkpt><trkpt lat="45.3739967" lon="9.038625"><ele>106.0</ele><time>2026-04-18T09:25:46.989Z</time></trkpt><trkpt lat="45.3740767" lon="9.0385817"><ele>106.00000000000001</ele><time>2026-04-18T09:25:47.989Z</time></trkpt><trkpt lat="45.3741417" lon="9.0385417"><ele>106.0</ele><time>2026-04-18T09:25:48.989Z</time></trkpt><trkpt lat="45.3742283" lon="9.0385017"><ele>106.00000000000001</ele><time>2026-04-18T09:25:50.989Z</time></trkpt><trkpt lat="45.37429" lon="9.0384583"><ele>106.0</ele><time>2026-04-18T09:25:52.989Z</time></trkpt><trkpt lat="45.3743483" lon="9.0384033"><ele>106.0</ele><time>2026-04-18T09:26:22.989Z</time></trkpt><trkpt lat="45.3744483" lon="9.03835"><ele>106.0</ele><time>2026-04-18T09:26:24.989Z</time></trkpt><trkpt lat="45.37451" lon="9.0383183"><ele>106.00000000000001</ele><time>2026-04-18T09:26:25.989Z</time></trkpt><trkpt lat="45.3745783" lon="9.0382783"><ele>106.0</ele><time>2026-04-18T09:26:26.989Z</time></trkpt><trkpt lat="45.3746567" lon="9.0382333"><ele>106.0</ele><time>2026-04-18T09:26:27.99Z</time></trkpt><trkpt lat="45.374745" lon="9.0381983"><ele>106.0</ele><time>2026-04-18T09:26:28.989Z</time></trkpt><trkpt lat="45.3748333" lon="9.0381667"><ele>106.0</ele><time>2026-04-18T09:26:29.989Z</time></trkpt><trkpt lat="45.3749167" lon="9.0381283"><ele>106.0</ele><time>2026-04-18T09:26:30.989Z</time></trkpt><trkpt lat="45.3750033" lon="9.038085"><ele>106.0</ele><time>2026-04-18T09:26:31.989Z</time></trkpt><trkpt lat="45.3750933" lon="9.0380467"><ele>106.0</ele><time>2026-04-18T09:26:32.989Z</time></trkpt><trkpt lat="45.3751783" lon="9.0380167"><ele>106.0</ele><time>2026-04-18T09:26:33.989Z</time></trkpt><trkpt lat="45.375265" lon="9.03797"><ele>106.0</ele><time>2026-04-18T09:26:34.989Z</time></trkpt><trkpt lat="45.3753517" lon="9.0379283"><ele>106.0</ele><time>2026-04-18T09:26:35.989Z</time></trkpt><trkpt lat="45.3754383" lon="9.0378917"><ele>106.0</ele><time>2026-04-18T09:26:36.989Z</time></trkpt><trkpt lat="45.3755267" lon="9.037855"><ele>106.6</ele><time>2026-04-18T09:26:37.989Z</time></trkpt><trkpt lat="45.3756183" lon="9.0378083"><ele>107.19999999999999</ele><time>2026-04-18T09:26:38.99Z</time></trkpt><trkpt lat="45.3757133" lon="9.0377617"><ele>107.80000000000001</ele><time>2026-04-18T09:26:39.989Z</time></trkpt><trkpt lat="45.3758067" lon="9.0377117"><ele>108.4</ele><time>2026-04-18T09:26:40.989Z</time></trkpt><trkpt lat="45.3758933" lon="9.0376633"><ele>109.0</ele><time>2026-04-18T09:26:41.989Z</time></trkpt><trkpt lat="45.3759717" lon="9.0376217"><ele>109.0</ele><time>2026-04-18T09:26:42.989Z</time></trkpt><trkpt lat="45.3760483" lon="9.0375783"><ele>109.0</ele><time>2026-04-18T09:26:43.989Z</time></trkpt><trkpt lat="45.3761267" lon="9.0375467"><ele>109.0</ele><time>2026-04-18T09:26:44.989Z</time></trkpt><trkpt lat="45.3762117" lon="9.0375233"><ele>109.0</ele><time>2026-04-18T09:26:45.989Z</time></trkpt><trkpt lat="45.3763067" lon="9.037485"><ele>109.0</ele><time>2026-04-18T09:26:46.989Z</time></trkpt><trkpt lat="45.376405" lon="9.0374333"><ele>109.0</ele><time>2026-04-18T09:26:47.989Z</time></trkpt><trkpt lat="45.3765" lon="9.03738"><ele>109.0</ele><time>2026-04-18T09:26:48.989Z</time></trkpt><trkpt lat="45.3765983" lon="9.0373317"><ele>109.0</ele><time>2026-04-18T09:26:49.989Z</time></trkpt><trkpt lat="45.376695" lon="9.0372867"><ele>109.0</ele><time>2026-04-18T09:26:50.989Z</time></trkpt><trkpt lat="45.37679" lon="9.03724"><ele>109.0</ele><time>2026-04-18T09:26:51.989Z</time></trkpt><trkpt lat="45.3768817" lon="9.0371833"><ele>109.0</ele><time>2026-04-18T09:26:52.989Z</time></trkpt><trkpt lat="45.376965" lon="9.0371317"><ele>109.0</ele><time>2026-04-18T09:26:53.989Z</time></trkpt><trkpt lat="45.3770583" lon="9.0370733"><ele>109.0</ele><time>2026-04-18T09:26:54.989Z</time></trkpt><trkpt lat="45.3771533" lon="9.0370333"><ele>109.0</ele><time>2026-04-18T09:26:55.989Z</time></trkpt><trkpt lat="45.3772567" lon="9.0369983"><ele>109.0</ele><time>2026-04-18T09:26:56.989Z</time></trkpt><trkpt lat="45.3773583" lon="9.036955"><ele>108.83333333333334</ele><time>2026-04-18T09:26:57.99Z</time></trkpt><trkpt lat="45.3774567" lon="9.036905"><ele>108.66666666666667</ele><time>2026-04-18T09:26:58.989Z</time></trkpt><trkpt lat="45.3775517" lon="9.0368583"><ele>108.5</ele><time>2026-04-18T09:26:59.989Z</time></trkpt><trkpt lat="45.3776333" lon="9.0368183"><ele>108.33333333333334</ele><time>2026-04-18T09:27:00.989Z</time></trkpt><trkpt lat="45.3777067" lon="9.0367717"><ele>108.16666666666667</ele><time>2026-04-18T09:27:01.989Z</time></trkpt><trkpt lat="45.3777783" lon="9.0367283"><ele>108.0</ele><time>2026-04-18T09:27:02.989Z</time></trkpt><trkpt lat="45.3778567" lon="9.0366967"><ele>108.0</ele><time>2026-04-18T09:27:03.989Z</time></trkpt><trkpt lat="45.3779383" lon="9.0366683"><ele>108.0</ele><time>2026-04-18T09:27:04.989Z</time></trkpt><trkpt lat="45.3780183" lon="9.0366283"><ele>108.0</ele><time>2026-04-18T09:27:05.989Z</time></trkpt><trkpt lat="45.3781033" lon="9.0365867"><ele>108.0</ele><time>2026-04-18T09:27:06.989Z</time></trkpt><trkpt lat="45.37818" lon="9.0365433"><ele>108.0</ele><time>2026-04-18T09:27:07.99Z</time></trkpt><trkpt lat="45.3782617" lon="9.0364983"><ele>108.0</ele><time>2026-04-18T09:27:08.989Z</time></trkpt><trkpt lat="45.37835" lon="9.0364567"><ele>108.0</ele><time>2026-04-18T09:27:09.989Z</time></trkpt><trkpt lat="45.3784367" lon="9.036415"><ele>108.0</ele><time>2026-04-18T09:27:10.989Z</time></trkpt><trkpt lat="45.378515" lon="9.0363667"><ele>108.0</ele><time>2026-04-18T09:27:11.989Z</time></trkpt><trkpt lat="45.378595" lon="9.0363233"><ele>108.0</ele><time>2026-04-18T09:27:12.989Z</time></trkpt><trkpt lat="45.3786817" lon="9.0362717"><ele>108.0</ele><time>2026-04-18T09:27:13.989Z</time></trkpt><trkpt lat="45.3787667" lon="9.03623"><ele>108.0</ele><time>2026-04-18T09:27:14.989Z</time></trkpt><trkpt lat="45.37886" lon="9.0361817"><ele>108.0</ele><time>2026-04-18T09:27:15.989Z</time></trkpt><trkpt lat="45.3789483" lon="9.036125"><ele>108.00000000000001</ele><time>2026-04-18T09:27:16.989Z</time></trkpt><trkpt lat="45.3790367" lon="9.0360633"><ele>108.00000000000001</ele><time>2026-04-18T09:27:17.989Z</time></trkpt><trkpt lat="45.3791283" lon="9.0360017"><ele>108.0</ele><time>2026-04-18T09:27:18.989Z</time></trkpt><trkpt lat="45.3792167" lon="9.0359383"><ele>108.0</ele><time>2026-04-18T09:27:19.989Z</time></trkpt><trkpt lat="45.3793" lon="9.0358783"><ele>108.0</ele><time>2026-04-18T09:27:20.989Z</time></trkpt><trkpt lat="45.3793783" lon="9.035825"><ele>108.0</ele><time>2026-04-18T09:27:21.989Z</time></trkpt><trkpt lat="45.379455" lon="9.0357783"><ele>108.0</ele><time>2026-04-18T09:27:22.989Z</time></trkpt><trkpt lat="45.37952" lon="9.0357333"><ele>108.0</ele><time>2026-04-18T09:27:23.989Z</time></trkpt><trkpt lat="45.3796133" lon="9.0356633"><ele>108.0</ele><time>2026-04-18T09:27:25.989Z</time></trkpt><trkpt lat="45.3796733" lon="9.0356333"><ele>108.0</ele><time>2026-04-18T09:28:16.989Z</time></trkpt><trkpt lat="45.3797467" lon="9.0356567"><ele>108.0</ele><time>2026-04-18T09:28:36.989Z</time></trkpt><trkpt lat="45.3796617" lon="9.0356833"><ele>108.0</ele><time>2026-04-18T09:29:07.989Z</time></trkpt><trkpt lat="45.37957" lon="9.0357117"><ele>108.0</ele><time>2026-04-18T09:29:09.989Z</time></trkpt><trkpt lat="45.3795117" lon="9.0357483"><ele>108.0</ele><time>2026-04-18T09:29:10.989Z</time></trkpt><trkpt lat="45.3794467" lon="9.0357883"><ele>108.0</ele><time>2026-04-18T09:29:11.989Z</time></trkpt><trkpt lat="45.3793817" lon="9.0358367"><ele>108.0</ele><time>2026-04-18T09:29:12.989Z</time></trkpt><trkpt lat="45.3793167" lon="9.0358817"><ele>108.0</ele><time>2026-04-18T09:29:13.99Z</time></trkpt><trkpt lat="45.37924" lon="9.0359317"><ele>108.0</ele><time>2026-04-18T09:29:14.989Z</time></trkpt><trkpt lat="45.3791617" lon="9.035985"><ele>108.0</ele><time>2026-04-18T09:29:15.989Z</time></trkpt><trkpt lat="45.3790867" lon="9.0360417"><ele>108.0</ele><time>2026-04-18T09:29:16.989Z</time></trkpt><trkpt lat="45.3790233" lon="9.0360867"><ele>108.0</ele><time>2026-04-18T09:29:17.989Z</time></trkpt><trkpt lat="45.37896" lon="9.0361283"><ele>108.0</ele><time>2026-04-18T09:29:18.989Z</time></trkpt><trkpt lat="45.37889" lon="9.0361667"><ele>108.16666666666667</ele><time>2026-04-18T09:29:19.989Z</time></trkpt><trkpt lat="45.3788217" lon="9.036205"><ele>108.33333333333334</ele><time>2026-04-18T09:29:20.989Z</time></trkpt><trkpt lat="45.37874" lon="9.036245"><ele>108.5</ele><time>2026-04-18T09:29:21.989Z</time></trkpt><trkpt lat="45.3786583" lon="9.0362883"><ele>108.66666666666667</ele><time>2026-04-18T09:29:22.989Z</time></trkpt><trkpt lat="45.3785783" lon="9.0363283"><ele>108.83333333333334</ele><time>2026-04-18T09:29:23.989Z</time></trkpt><trkpt lat="45.378495" lon="9.0363783"><ele>109.0</ele><time>2026-04-18T09:29:24.989Z</time></trkpt><trkpt lat="45.3784167" lon="9.036425"><ele>109.0</ele><time>2026-04-18T09:29:25.989Z</time></trkpt><trkpt lat="45.37835" lon="9.0364617"><ele>109.0</ele><time>2026-04-18T09:29:26.99Z</time></trkpt><trkpt lat="45.3782883" lon="9.0364917"><ele>109.0</ele><time>2026-04-18T09:29:27.989Z</time></trkpt><trkpt lat="45.378225" lon="9.03652"><ele>109.0</ele><time>2026-04-18T09:29:28.989Z</time></trkpt><trkpt lat="45.3781583" lon="9.0365483"><ele>109.0</ele><time>2026-04-18T09:29:29.989Z</time></trkpt><trkpt lat="45.37809" lon="9.0365783"><ele>109.0</ele><time>2026-04-18T09:29:30.989Z</time></trkpt><trkpt lat="45.37802" lon="9.03661"><ele>109.0</ele><time>2026-04-18T09:29:31.989Z</time></trkpt><trkpt lat="45.37795" lon="9.03665"><ele>108.83333333333334</ele><time>2026-04-18T09:29:32.989Z</time></trkpt><trkpt lat="45.37788" lon="9.0366833"><ele>108.66666666666667</ele><time>2026-04-18T09:29:33.989Z</time></trkpt><trkpt lat="45.3778083" lon="9.036715"><ele>108.5</ele><time>2026-04-18T09:29:34.989Z</time></trkpt><trkpt lat="45.3777433" lon="9.0367583"><ele>108.33333333333334</ele><time>2026-04-18T09:29:35.989Z</time></trkpt><trkpt lat="45.3776683" lon="9.0367983"><ele>108.16666666666667</ele><time>2026-04-18T09:29:36.989Z</time></trkpt><trkpt lat="45.37759" lon="9.036845"><ele>108.0</ele><time>2026-04-18T09:29:37.989Z</time></trkpt><trkpt lat="45.37752" lon="9.036885"><ele>108.0</ele><time>2026-04-18T09:29:38.989Z</time></trkpt><trkpt lat="45.37745" lon="9.0369267"><ele>108.0</ele><time>2026-04-18T09:29:39.989Z</time></trkpt><trkpt lat="45.3773767" lon="9.036955"><ele>108.0</ele><time>2026-04-18T09:29:40.989Z</time></trkpt><trkpt lat="45.3773067" lon="9.0369733"><ele>108.0</ele><time>2026-04-18T09:29:41.989Z</time></trkpt><trkpt lat="45.3772333" lon="9.0369967"><ele>108.0</ele><time>2026-04-18T09:29:42.989Z</time></trkpt><trkpt lat="45.37717" lon="9.037015"><ele>108.0</ele><time>2026-04-18T09:29:43.989Z</time></trkpt><trkpt lat="45.3771" lon="9.037045"><ele>108.0</ele><time>2026-04-18T09:29:44.989Z</time></trkpt><trkpt lat="45.3770333" lon="9.0370767"><ele>108.14285714285714</ele><time>2026-04-18T09:29:45.99Z</time></trkpt><trkpt lat="45.3769617" lon="9.0371167"><ele>108.28571428571428</ele><time>2026-04-18T09:29:46.989Z</time></trkpt><trkpt lat="45.37689" lon="9.0371567"><ele>108.42857142857143</ele><time>2026-04-18T09:29:47.989Z</time></trkpt><trkpt lat="45.37682" lon="9.037205"><ele>108.57142857142857</ele><time>2026-04-18T09:29:48.989Z</time></trkpt><trkpt lat="45.37675" lon="9.0372467"><ele>108.71428571428572</ele><time>2026-04-18T09:29:49.99Z</time></trkpt><trkpt lat="45.376685" lon="9.0372867"><ele>108.85714285714286</ele><time>2026-04-18T09:29:50.989Z</time></trkpt><trkpt lat="45.37662" lon="9.0373233"><ele>109.0</ele><time>2026-04-18T09:29:51.989Z</time></trkpt><trkpt lat="45.376555" lon="9.0373483"><ele>109.0</ele><time>2026-04-18T09:29:52.989Z</time></trkpt><trkpt lat="45.3764917" lon="9.0373783"><ele>109.0</ele><time>2026-04-18T09:29:53.99Z</time></trkpt><trkpt lat="45.376425" lon="9.037405"><ele>109.0</ele><time>2026-04-18T09:29:54.989Z</time></trkpt><trkpt lat="45.3763517" lon="9.0374383"><ele>109.0</ele><time>2026-04-18T09:29:55.989Z</time></trkpt><trkpt lat="45.37628" lon="9.0374683"><ele>109.0</ele><time>2026-04-18T09:29:56.989Z</time></trkpt><trkpt lat="45.3762083" lon="9.037495"><ele>109.0</ele><time>2026-04-18T09:29:57.989Z</time></trkpt><trkpt lat="45.376145" lon="9.03752"><ele>109.0</ele><time>2026-04-18T09:29:58.99Z</time></trkpt><trkpt lat="45.3760333" lon="9.03756"><ele>109.00000000000001</ele><time>2026-04-18T09:30:00.989Z</time></trkpt><trkpt lat="45.3759733" lon="9.03759"><ele>109.0</ele><time>2026-04-18T09:30:01.989Z</time></trkpt><trkpt lat="45.37591" lon="9.0376167"><ele>109.0</ele><time>2026-04-18T09:30:02.989Z</time></trkpt><trkpt lat="45.3758433" lon="9.03765"><ele>109.0</ele><time>2026-04-18T09:30:03.989Z</time></trkpt><trkpt lat="45.375705" lon="9.0377333"><ele>109.00000000000001</ele><time>2026-04-18T09:30:05.989Z</time></trkpt><trkpt lat="45.3756367" lon="9.0377783"><ele>109.0</ele><time>2026-04-18T09:30:06.99Z</time></trkpt><trkpt lat="45.375565" lon="9.0378133"><ele>108.50000000000001</ele><time>2026-04-18T09:30:07.989Z</time></trkpt><trkpt lat="45.37549" lon="9.0378617"><ele>108.0</ele><time>2026-04-18T09:30:08.989Z</time></trkpt><trkpt lat="45.3754133" lon="9.0378967"><ele>107.5</ele><time>2026-04-18T09:30:09.989Z</time></trkpt><trkpt lat="45.3753317" lon="9.0379383"><ele>107.0</ele><time>2026-04-18T09:30:10.989Z</time></trkpt><trkpt lat="45.3752483" lon="9.03798"><ele>106.50000000000001</ele><time>2026-04-18T09:30:11.989Z</time></trkpt><trkpt lat="45.3751717" lon="9.0380233"><ele>106.0</ele><time>2026-04-18T09:30:12.989Z</time></trkpt><trkpt lat="45.3750917" lon="9.0380517"><ele>106.0</ele><time>2026-04-18T09:30:13.989Z</time></trkpt><trkpt lat="45.3750083" lon="9.038085"><ele>106.0</ele><time>2026-04-18T09:30:14.989Z</time></trkpt><trkpt lat="45.3749283" lon="9.0381217"><ele>106.0</ele><time>2026-04-18T09:30:15.989Z</time></trkpt><trkpt lat="45.3748417" lon="9.0381583"><ele>106.0</ele><time>2026-04-18T09:30:16.989Z</time></trkpt><trkpt lat="45.3747383" lon="9.038195"><ele>106.0</ele><time>2026-04-18T09:30:17.989Z</time></trkpt><trkpt lat="45.3746317" lon="9.0382417"><ele>106.0</ele><time>2026-04-18T09:30:18.989Z</time></trkpt><trkpt lat="45.3745317" lon="9.038295"><ele>106.0</ele><time>2026-04-18T09:30:19.989Z</time></trkpt><trkpt lat="45.374435" lon="9.038345"><ele>106.0</ele><time>2026-04-18T09:30:20.989Z</time></trkpt><trkpt lat="45.3743383" lon="9.0383967"><ele>106.0</ele><time>2026-04-18T09:30:21.99Z</time></trkpt><trkpt lat="45.374245" lon="9.03845"><ele>106.0</ele><time>2026-04-18T09:30:22.989Z</time></trkpt><trkpt lat="45.3741617" lon="9.0385117"><ele>106.00000000000001</ele><time>2026-04-18T09:30:23.989Z</time></trkpt><trkpt lat="45.374075" lon="9.03857"><ele>106.0</ele><time>2026-04-18T09:30:24.989Z</time></trkpt><trkpt lat="45.3739983" lon="9.038615"><ele>106.0</ele><time>2026-04-18T09:30:25.989Z</time></trkpt><trkpt lat="45.3739117" lon="9.0386583"><ele>106.0</ele><time>2026-04-18T09:30:26.989Z</time></trkpt><trkpt lat="45.3738383" lon="9.0387067"><ele>106.00000000000001</ele><time>2026-04-18T09:30:27.989Z</time></trkpt><trkpt lat="45.3737667" lon="9.038745"><ele>106.0</ele><time>2026-04-18T09:30:28.989Z</time></trkpt><trkpt lat="45.3737" lon="9.0387867"><ele>106.0</ele><time>2026-04-18T09:30:29.989Z</time></trkpt><trkpt lat="45.37364" lon="9.0388217"><ele>106.0</ele><time>2026-04-18T09:30:30.989Z</time></trkpt><trkpt lat="45.3735333" lon="9.0388933"><ele>106.0</ele><time>2026-04-18T09:30:32.989Z</time></trkpt><trkpt lat="45.3734533" lon="9.038935"><ele>106.0</ele><time>2026-04-18T09:30:34.989Z</time></trkpt><trkpt lat="45.373355" lon="9.0390083"><ele>106.0</ele><time>2026-04-18T09:30:44.988Z</time></trkpt><trkpt lat="45.373285" lon="9.039045"><ele>106.0</ele><time>2026-04-18T09:30:45.988Z</time></trkpt><trkpt lat="45.3732183" lon="9.0390833"><ele>106.0</ele><time>2026-04-18T09:30:46.988Z</time></trkpt><trkpt lat="45.3731483" lon="9.0391233"><ele>106.0</ele><time>2026-04-18T09:30:47.988Z</time></trkpt><trkpt lat="45.37308" lon="9.0391683"><ele>106.0</ele><time>2026-04-18T09:30:48.989Z</time></trkpt><trkpt lat="45.3730083" lon="9.03921"><ele>106.0</ele><time>2026-04-18T09:30:49.988Z</time></trkpt><trkpt lat="45.3729517" lon="9.0392517"><ele>106.0</ele><time>2026-04-18T09:30:50.988Z</time></trkpt><trkpt lat="45.372885" lon="9.039285"><ele>106.0</ele><time>2026-04-18T09:30:51.988Z</time></trkpt><trkpt lat="45.372815" lon="9.0393183"><ele>105.83333333333334</ele><time>2026-04-18T09:30:52.988Z</time></trkpt><trkpt lat="45.3727383" lon="9.03936"><ele>105.66666666666667</ele><time>2026-04-18T09:30:53.988Z</time></trkpt><trkpt lat="45.3726567" lon="9.0394033"><ele>105.5</ele><time>2026-04-18T09:30:54.988Z</time></trkpt><trkpt lat="45.3725717" lon="9.0394467"><ele>105.33333333333334</ele><time>2026-04-18T09:30:55.988Z</time></trkpt><trkpt lat="45.3724883" lon="9.03949"><ele>105.16666666666667</ele><time>2026-04-18T09:30:56.988Z</time></trkpt><trkpt lat="45.37241" lon="9.0395333"><ele>105.0</ele><time>2026-04-18T09:30:57.988Z</time></trkpt><trkpt lat="45.372335" lon="9.0395883"><ele>105.0</ele><time>2026-04-18T09:30:58.988Z</time></trkpt><trkpt lat="45.3722533" lon="9.03965"><ele>105.0</ele><time>2026-04-18T09:30:59.988Z</time></trkpt><trkpt lat="45.3721833" lon="9.0396983"><ele>105.0</ele><time>2026-04-18T09:31:00.988Z</time></trkpt><trkpt lat="45.3721133" lon="9.0397367"><ele>105.0</ele><time>2026-04-18T09:31:01.988Z</time></trkpt><trkpt lat="45.3720417" lon="9.03978"><ele>105.0</ele><time>2026-04-18T09:31:02.988Z</time></trkpt><trkpt lat="45.3719667" lon="9.039825"><ele>105.0</ele><time>2026-04-18T09:31:03.988Z</time></trkpt><trkpt lat="45.3718867" lon="9.0398817"><ele>105.14285714285714</ele><time>2026-04-18T09:31:04.988Z</time></trkpt><trkpt lat="45.371805" lon="9.0399267"><ele>105.28571428571428</ele><time>2026-04-18T09:31:05.988Z</time></trkpt><trkpt lat="45.3717333" lon="9.0399683"><ele>105.42857142857143</ele><time>2026-04-18T09:31:06.988Z</time></trkpt><trkpt lat="45.3716667" lon="9.040015"><ele>105.57142857142857</ele><time>2026-04-18T09:31:07.988Z</time></trkpt><trkpt lat="45.3716017" lon="9.0400483"><ele>105.71428571428571</ele><time>2026-04-18T09:31:08.988Z</time></trkpt><trkpt lat="45.3715417" lon="9.0400883"><ele>105.85714285714286</ele><time>2026-04-18T09:31:09.988Z</time></trkpt><trkpt lat="45.3714817" lon="9.0401183"><ele>106.0</ele><time>2026-04-18T09:31:10.988Z</time></trkpt><trkpt lat="45.37142" lon="9.0401483"><ele>106.16666666666667</ele><time>2026-04-18T09:31:11.988Z</time></trkpt><trkpt lat="45.37135" lon="9.0401917"><ele>106.33333333333334</ele><time>2026-04-18T09:31:12.988Z</time></trkpt><trkpt lat="45.371285" lon="9.0402317"><ele>106.5</ele><time>2026-04-18T09:31:13.988Z</time></trkpt><trkpt lat="45.3712183" lon="9.0402783"><ele>106.66666666666666</ele><time>2026-04-18T09:31:14.988Z</time></trkpt><trkpt lat="45.37115" lon="9.0403267"><ele>106.83333333333333</ele><time>2026-04-18T09:31:15.988Z</time></trkpt><trkpt lat="45.3710833" lon="9.0403517"><ele>107.0</ele><time>2026-04-18T09:31:16.988Z</time></trkpt><trkpt lat="45.3709667" lon="9.0404133"><ele>106.99999999999999</ele><time>2026-04-18T09:31:18.988Z</time></trkpt><trkpt lat="45.3709033" lon="9.0404383"><ele>107.0</ele><time>2026-04-18T09:31:19.988Z</time></trkpt><trkpt lat="45.3707917" lon="9.040475"><ele>107.0</ele><time>2026-04-18T09:31:21.988Z</time></trkpt><trkpt lat="45.370695" lon="9.040515"><ele>107.0</ele><time>2026-04-18T09:31:23.988Z</time></trkpt><trkpt lat="45.37063" lon="9.040545"><ele>106.99999999999999</ele><time>2026-04-18T09:31:26.988Z</time></trkpt><trkpt lat="45.3707" lon="9.0405383"><ele>107.0</ele><time>2026-04-18T09:32:47.988Z</time></trkpt><trkpt lat="45.3707667" lon="9.0405"><ele>106.99999999999999</ele><time>2026-04-18T09:32:49.988Z</time></trkpt><trkpt lat="45.3708617" lon="9.0404567"><ele>107.0</ele><time>2026-04-18T09:32:51.988Z</time></trkpt><trkpt lat="45.3709267" lon="9.040435"><ele>107.0</ele><time>2026-04-18T09:32:52.988Z</time></trkpt><trkpt lat="45.370995" lon="9.04041"><ele>107.0</ele><time>2026-04-18T09:32:53.988Z</time></trkpt><trkpt lat="45.3710617" lon="9.0403817"><ele>106.99999999999999</ele><time>2026-04-18T09:32:54.988Z</time></trkpt><trkpt lat="45.3711683" lon="9.04032"><ele>107.0</ele><time>2026-04-18T09:32:56.988Z</time></trkpt><trkpt lat="45.37127" lon="9.0402433"><ele>106.99999999999999</ele><time>2026-04-18T09:32:58.988Z</time></trkpt><trkpt lat="45.37137" lon="9.0401817"><ele>107.0</ele><time>2026-04-18T09:33:00.989Z</time></trkpt><trkpt lat="45.3714283" lon="9.040145"><ele>107.0</ele><time>2026-04-18T09:33:01.988Z</time></trkpt><trkpt lat="45.3714933" lon="9.0401067"><ele>107.0</ele><time>2026-04-18T09:33:02.988Z</time></trkpt><trkpt lat="45.371555" lon="9.0400767"><ele>106.99999999999999</ele><time>2026-04-18T09:33:03.988Z</time></trkpt><trkpt lat="45.3716483" lon="9.04003"><ele>107.0</ele><time>2026-04-18T09:33:05.988Z</time></trkpt><trkpt lat="45.3717617" lon="9.0399583"><ele>106.83333333333333</ele><time>2026-04-18T09:33:07.988Z</time></trkpt><trkpt lat="45.3718267" lon="9.03992"><ele>106.66666666666666</ele><time>2026-04-18T09:33:08.988Z</time></trkpt><trkpt lat="45.3719" lon="9.0398783"><ele>106.5</ele><time>2026-04-18T09:33:09.989Z</time></trkpt><trkpt lat="45.3719783" lon="9.0398317"><ele>106.33333333333334</ele><time>2026-04-18T09:33:10.989Z</time></trkpt><trkpt lat="45.3720633" lon="9.039785"><ele>106.16666666666667</ele><time>2026-04-18T09:33:11.988Z</time></trkpt><trkpt lat="45.3721467" lon="9.0397367"><ele>106.0</ele><time>2026-04-18T09:33:12.988Z</time></trkpt><trkpt lat="45.3722233" lon="9.0396867"><ele>105.8</ele><time>2026-04-18T09:33:13.988Z</time></trkpt><trkpt lat="45.3723033" lon="9.039635"><ele>105.6</ele><time>2026-04-18T09:33:14.988Z</time></trkpt><trkpt lat="45.37239" lon="9.0395867"><ele>105.4</ele><time>2026-04-18T09:33:15.988Z</time></trkpt><trkpt lat="45.3724867" lon="9.0395267"><ele>105.2</ele><time>2026-04-18T09:33:16.988Z</time></trkpt><trkpt lat="45.37259" lon="9.039465"><ele>105.0</ele><time>2026-04-18T09:33:17.988Z</time></trkpt><trkpt lat="45.3726883" lon="9.0394083"><ele>105.0</ele><time>2026-04-18T09:33:18.988Z</time></trkpt><trkpt lat="45.3727833" lon="9.0393533"><ele>105.0</ele><time>2026-04-18T09:33:19.988Z</time></trkpt><trkpt lat="45.3728783" lon="9.0393033"><ele>105.0</ele><time>2026-04-18T09:33:20.988Z</time></trkpt><trkpt lat="45.372975" lon="9.0392467"><ele>105.0</ele><time>2026-04-18T09:33:21.988Z</time></trkpt><trkpt lat="45.373065" lon="9.0391917"><ele>105.0</ele><time>2026-04-18T09:33:22.988Z</time></trkpt><trkpt lat="45.3731367" lon="9.0391417"><ele>105.0</ele><time>2026-04-18T09:33:23.988Z</time></trkpt><trkpt lat="45.3732033" lon="9.0391"><ele>105.0</ele><time>2026-04-18T09:33:24.988Z</time></trkpt><trkpt lat="45.3732683" lon="9.0390583"><ele>105.0</ele><time>2026-04-18T09:33:25.988Z</time></trkpt><trkpt lat="45.3733283" lon="9.0390233"><ele>105.0</ele><time>2026-04-18T09:33:26.988Z</time></trkpt><trkpt lat="45.373405" lon="9.0389933"><ele>105.0</ele><time>2026-04-18T09:33:28.988Z</time></trkpt><trkpt lat="45.37347" lon="9.0390267"><ele>105.0</ele><time>2026-04-18T09:33:30.988Z</time></trkpt><trkpt lat="45.3735167" lon="9.0391717"><ele>105.0</ele><time>2026-04-18T09:33:32.988Z</time></trkpt><trkpt lat="45.37355" lon="9.039295"><ele>105.0</ele><time>2026-04-18T09:33:33.988Z</time></trkpt><trkpt lat="45.3735867" lon="9.0394217"><ele>105.0</ele><time>2026-04-18T09:33:34.988Z</time></trkpt><trkpt lat="45.3736317" lon="9.0395683"><ele>105.0</ele><time>2026-04-18T09:33:35.988Z</time></trkpt><trkpt lat="45.3736767" lon="9.0397067"><ele>105.0</ele><time>2026-04-18T09:33:36.988Z</time></trkpt><trkpt lat="45.3737267" lon="9.0398467"><ele>105.2</ele><time>2026-04-18T09:33:37.988Z</time></trkpt><trkpt lat="45.3737733" lon="9.039995"><ele>105.4</ele><time>2026-04-18T09:33:38.988Z</time></trkpt><trkpt lat="45.37382" lon="9.04014"><ele>105.6</ele><time>2026-04-18T09:33:39.988Z</time></trkpt><trkpt lat="45.3738667" lon="9.040285"><ele>105.8</ele><time>2026-04-18T09:33:40.989Z</time></trkpt><trkpt lat="45.373915" lon="9.0404267"><ele>106.0</ele><time>2026-04-18T09:33:41.988Z</time></trkpt><trkpt lat="45.3739583" lon="9.0405467"><ele>106.00000000000001</ele><time>2026-04-18T09:33:42.988Z</time></trkpt><trkpt lat="45.3740033" lon="9.0406583"><ele>106.0</ele><time>2026-04-18T09:33:43.988Z</time></trkpt><trkpt lat="45.3740383" lon="9.0407633"><ele>106.0</ele><time>2026-04-18T09:33:44.988Z</time></trkpt><trkpt lat="45.37409" lon="9.0408933"><ele>106.0</ele><time>2026-04-18T09:33:46.988Z</time></trkpt><trkpt lat="45.3741167" lon="9.0409817"><ele>106.00000000000001</ele><time>2026-04-18T09:33:49.988Z</time></trkpt><trkpt lat="45.3740567" lon="9.04106"><ele>106.0</ele><time>2026-04-18T09:33:54.988Z</time></trkpt><trkpt lat="45.373945" lon="9.041125"><ele>106.0</ele><time>2026-04-18T09:33:56.988Z</time></trkpt><trkpt lat="45.3738683" lon="9.041175"><ele>106.0</ele><time>2026-04-18T09:33:57.988Z</time></trkpt><trkpt lat="45.3737717" lon="9.04123"><ele>106.0</ele><time>2026-04-18T09:33:58.988Z</time></trkpt><trkpt lat="45.373665" lon="9.0413017"><ele>106.0</ele><time>2026-04-18T09:33:59.988Z</time></trkpt><trkpt lat="45.37355" lon="9.041385"><ele>106.0</ele><time>2026-04-18T09:34:00.988Z</time></trkpt><trkpt lat="45.37343" lon="9.041465"><ele>106.0</ele><time>2026-04-18T09:34:01.988Z</time></trkpt><trkpt lat="45.3732933" lon="9.041545"><ele>106.0</ele><time>2026-04-18T09:34:02.988Z</time></trkpt><trkpt lat="45.3731667" lon="9.0416317"><ele>106.0</ele><time>2026-04-18T09:34:03.988Z</time></trkpt><trkpt lat="45.3730367" lon="9.0417267"><ele>106.0</ele><time>2026-04-18T09:34:04.988Z</time></trkpt><trkpt lat="45.37291" lon="9.0418117"><ele>105.75</ele><time>2026-04-18T09:34:05.988Z</time></trkpt><trkpt lat="45.3727867" lon="9.0419017"><ele>105.5</ele><time>2026-04-18T09:34:06.988Z</time></trkpt><trkpt lat="45.3726517" lon="9.0419883"><ele>105.25</ele><time>2026-04-18T09:34:07.989Z</time></trkpt><trkpt lat="45.37252" lon="9.04207"><ele>105.0</ele><time>2026-04-18T09:34:08.988Z</time></trkpt><trkpt lat="45.3723933" lon="9.04215"><ele>105.0</ele><time>2026-04-18T09:34:09.988Z</time></trkpt><trkpt lat="45.372265" lon="9.0422383"><ele>105.0</ele><time>2026-04-18T09:34:10.988Z</time></trkpt><trkpt lat="45.3721517" lon="9.0423167"><ele>105.0</ele><time>2026-04-18T09:34:11.988Z</time></trkpt><trkpt lat="45.3720417" lon="9.0423917"><ele>105.0</ele><time>2026-04-18T09:34:12.989Z</time></trkpt><trkpt lat="45.37193" lon="9.0424683"><ele>105.2</ele><time>2026-04-18T09:34:13.988Z</time></trkpt><trkpt lat="45.3718183" lon="9.0425483"><ele>105.4</ele><time>2026-04-18T09:34:14.988Z</time></trkpt><trkpt lat="45.3717217" lon="9.0426217"><ele>105.6</ele><time>2026-04-18T09:34:15.988Z</time></trkpt><trkpt lat="45.37163" lon="9.0426917"><ele>105.8</ele><time>2026-04-18T09:34:16.988Z</time></trkpt><trkpt lat="45.3715417" lon="9.0427517"><ele>106.0</ele><time>2026-04-18T09:34:17.988Z</time></trkpt><trkpt lat="45.3714533" lon="9.04281"><ele>106.00000000000001</ele><time>2026-04-18T09:34:18.988Z</time></trkpt><trkpt lat="45.371375" lon="9.0428617"><ele>106.0</ele><time>2026-04-18T09:34:19.988Z</time></trkpt><trkpt lat="45.3713033" lon="9.04291"><ele>106.0</ele><time>2026-04-18T09:34:20.988Z</time></trkpt><trkpt lat="45.3712283" lon="9.0429517"><ele>106.0</ele><time>2026-04-18T09:34:21.988Z</time></trkpt><trkpt lat="45.37116" lon="9.042995"><ele>106.00000000000001</ele><time>2026-04-18T09:34:22.988Z</time></trkpt><trkpt lat="45.3711" lon="9.0430433"><ele>106.0</ele><time>2026-04-18T09:34:23.988Z</time></trkpt><trkpt lat="45.3709967" lon="9.043065"><ele>106.19999999999999</ele><time>2026-04-18T09:34:25.988Z</time></trkpt><trkpt lat="45.3709317" lon="9.0429317"><ele>106.39999999999999</ele><time>2026-04-18T09:34:27.988Z</time></trkpt><trkpt lat="45.3709183" lon="9.0427917"><ele>106.6</ele><time>2026-04-18T09:34:28.988Z</time></trkpt><trkpt lat="45.370905" lon="9.0426633"><ele>106.8</ele><time>2026-04-18T09:34:29.988Z</time></trkpt><trkpt lat="45.3708883" lon="9.0425533"><ele>107.0</ele><time>2026-04-18T09:34:30.988Z</time></trkpt><trkpt lat="45.3708667" lon="9.0424367"><ele>106.66666666666666</ele><time>2026-04-18T09:34:31.988Z</time></trkpt><trkpt lat="45.37084" lon="9.0423067"><ele>106.33333333333333</ele><time>2026-04-18T09:34:32.988Z</time></trkpt><trkpt lat="45.3708283" lon="9.042185"><ele>106.0</ele><time>2026-04-18T09:34:33.988Z</time></trkpt><trkpt lat="45.3708167" lon="9.042065"><ele>105.66666666666666</ele><time>2026-04-18T09:34:34.988Z</time></trkpt><trkpt lat="45.3708083" lon="9.0419583"><ele>105.33333333333333</ele><time>2026-04-18T09:34:35.988Z</time></trkpt><trkpt lat="45.3707567" lon="9.0418367"><ele>105.0</ele><time>2026-04-18T09:34:37.989Z</time></trkpt><trkpt lat="45.37063" lon="9.0418383"><ele>105.0</ele><time>2026-04-18T09:34:39.988Z</time></trkpt><trkpt lat="45.370525" lon="9.0418667"><ele>105.0</ele><time>2026-04-18T09:34:40.988Z</time></trkpt><trkpt lat="45.370415" lon="9.041895"><ele>105.0</ele><time>2026-04-18T09:34:41.988Z</time></trkpt><trkpt lat="45.3702967" lon="9.0419133"><ele>105.0</ele><time>2026-04-18T09:34:42.988Z</time></trkpt><trkpt lat="45.370165" lon="9.0419283"><ele>105.0</ele><time>2026-04-18T09:34:43.988Z</time></trkpt><trkpt lat="45.3700283" lon="9.0419183"><ele>105.0</ele><time>2026-04-18T09:34:44.988Z</time></trkpt><trkpt lat="45.369885" lon="9.0418983"><ele>105.0</ele><time>2026-04-18T09:34:45.988Z</time></trkpt><trkpt lat="45.3697383" lon="9.0418867"><ele>105.0</ele><time>2026-04-18T09:34:46.988Z</time></trkpt><trkpt lat="45.3695917" lon="9.041885"><ele>105.0</ele><time>2026-04-18T09:34:47.988Z</time></trkpt><trkpt lat="45.36946" lon="9.041885"><ele>105.0</ele><time>2026-04-18T09:34:48.988Z</time></trkpt><trkpt lat="45.3693317" lon="9.0418867"><ele>105.0</ele><time>2026-04-18T09:34:49.988Z</time></trkpt><trkpt lat="45.3692067" lon="9.0418783"><ele>105.0</ele><time>2026-04-18T09:34:50.988Z</time></trkpt><trkpt lat="45.369095" lon="9.041875"><ele>105.0</ele><time>2026-04-18T09:34:51.988Z</time></trkpt><trkpt lat="45.3690067" lon="9.0418833"><ele>105.0</ele><time>2026-04-18T09:34:52.988Z</time></trkpt><trkpt lat="45.3689333" lon="9.0418833"><ele>105.0</ele><time>2026-04-18T09:34:53.988Z</time></trkpt><trkpt lat="45.36883" lon="9.041825"><ele>105.0</ele><time>2026-04-18T09:34:55.989Z</time></trkpt><trkpt lat="45.36881" lon="9.0416483"><ele>105.0</ele><time>2026-04-18T09:34:57.989Z</time></trkpt><trkpt lat="45.368795" lon="9.0415583"><ele>105.2</ele><time>2026-04-18T09:34:58.988Z</time></trkpt><trkpt lat="45.3686967" lon="9.0414533"><ele>105.4</ele><time>2026-04-18T09:35:00.988Z</time></trkpt><trkpt lat="45.3686233" lon="9.0414467"><ele>105.6</ele><time>2026-04-18T09:35:01.988Z</time></trkpt><trkpt lat="45.3685467" lon="9.0414517"><ele>105.8</ele><time>2026-04-18T09:35:02.988Z</time></trkpt><trkpt lat="45.36846" lon="9.0414683"><ele>106.0</ele><time>2026-04-18T09:35:03.988Z</time></trkpt><trkpt lat="45.3683667" lon="9.0414933"><ele>106.00000000000001</ele><time>2026-04-18T09:35:04.988Z</time></trkpt><trkpt lat="45.3682733" lon="9.04151"><ele>106.0</ele><time>2026-04-18T09:35:05.988Z</time></trkpt><trkpt lat="45.3681833" lon="9.0415183"><ele>106.0</ele><time>2026-04-18T09:35:06.988Z</time></trkpt><trkpt lat="45.368095" lon="9.041515"><ele>106.0</ele><time>2026-04-18T09:35:07.988Z</time></trkpt><trkpt lat="45.3680167" lon="9.0414967"><ele>106.00000000000001</ele><time>2026-04-18T09:35:08.988Z</time></trkpt><trkpt lat="45.367935" lon="9.0414883"><ele>106.0</ele><time>2026-04-18T09:35:09.988Z</time></trkpt><trkpt lat="45.3678533" lon="9.0415033"><ele>106.4</ele><time>2026-04-18T09:35:10.988Z</time></trkpt><trkpt lat="45.367765" lon="9.0415233"><ele>106.8</ele><time>2026-04-18T09:35:11.988Z</time></trkpt><trkpt lat="45.3676617" lon="9.041545"><ele>107.20000000000002</ele><time>2026-04-18T09:35:12.988Z</time></trkpt><trkpt lat="45.3675617" lon="9.0415683"><ele>107.60000000000001</ele><time>2026-04-18T09:35:13.988Z</time></trkpt><trkpt lat="45.3674483" lon="9.0415817"><ele>108.0</ele><time>2026-04-18T09:35:14.988Z</time></trkpt><trkpt lat="45.3673233" lon="9.0416"><ele>108.0</ele><time>2026-04-18T09:35:15.988Z</time></trkpt><trkpt lat="45.3672033" lon="9.041615"><ele>108.0</ele><time>2026-04-18T09:35:16.988Z</time></trkpt><trkpt lat="45.3670867" lon="9.04163"><ele>108.0</ele><time>2026-04-18T09:35:17.988Z</time></trkpt><trkpt lat="45.3669783" lon="9.0416467"><ele>108.0</ele><time>2026-04-18T09:35:18.988Z</time></trkpt><trkpt lat="45.3668667" lon="9.0416617"><ele>107.83333333333333</ele><time>2026-04-18T09:35:19.988Z</time></trkpt><trkpt lat="45.3667517" lon="9.04168"><ele>107.66666666666666</ele><time>2026-04-18T09:35:20.988Z</time></trkpt><trkpt lat="45.3666517" lon="9.041705"><ele>107.5</ele><time>2026-04-18T09:35:21.988Z</time></trkpt><trkpt lat="45.3665733" lon="9.0417167"><ele>107.33333333333333</ele><time>2026-04-18T09:35:22.988Z</time></trkpt><trkpt lat="45.3665" lon="9.04173"><ele>107.16666666666666</ele><time>2026-04-18T09:35:23.988Z</time></trkpt><trkpt lat="45.3664333" lon="9.0417483"><ele>107.0</ele><time>2026-04-18T09:35:24.988Z</time></trkpt><trkpt lat="45.3663267" lon="9.0417817"><ele>106.66666666666666</ele><time>2026-04-18T09:35:26.988Z</time></trkpt><trkpt lat="45.36626" lon="9.0417967"><ele>106.33333333333333</ele><time>2026-04-18T09:35:43.988Z</time></trkpt><trkpt lat="45.3661667" lon="9.0418267"><ele>106.0</ele><time>2026-04-18T09:35:45.988Z</time></trkpt><trkpt lat="45.366095" lon="9.04185"><ele>105.66666666666666</ele><time>2026-04-18T09:35:46.988Z</time></trkpt><trkpt lat="45.36601" lon="9.0418817"><ele>105.33333333333333</ele><time>2026-04-18T09:35:47.988Z</time></trkpt><trkpt lat="45.3659217" lon="9.04191"><ele>105.0</ele><time>2026-04-18T09:35:48.988Z</time></trkpt><trkpt lat="45.3658383" lon="9.0419383"><ele>105.0</ele><time>2026-04-18T09:35:49.988Z</time></trkpt><trkpt lat="45.3657567" lon="9.041965"><ele>105.0</ele><time>2026-04-18T09:35:50.988Z</time></trkpt><trkpt lat="45.3656783" lon="9.0419933"><ele>105.0</ele><time>2026-04-18T09:35:51.988Z</time></trkpt><trkpt lat="45.3655967" lon="9.0420217"><ele>105.0</ele><time>2026-04-18T09:35:52.988Z</time></trkpt><trkpt lat="45.365505" lon="9.04205"><ele>105.0</ele><time>2026-04-18T09:35:53.988Z</time></trkpt><trkpt lat="45.365415" lon="9.042085"><ele>105.0</ele><time>2026-04-18T09:35:54.988Z</time></trkpt><trkpt lat="45.3653167" lon="9.0421183"><ele>105.2</ele><time>2026-04-18T09:35:55.988Z</time></trkpt><trkpt lat="45.3652233" lon="9.0421517"><ele>105.4</ele><time>2026-04-18T09:35:56.988Z</time></trkpt><trkpt lat="45.3651283" lon="9.0421783"><ele>105.6</ele><time>2026-04-18T09:35:57.988Z</time></trkpt><trkpt lat="45.3650367" lon="9.0422067"><ele>105.8</ele><time>2026-04-18T09:35:58.988Z</time></trkpt><trkpt lat="45.3649483" lon="9.0422267"><ele>106.0</ele><time>2026-04-18T09:35:59.988Z</time></trkpt><trkpt lat="45.3648617" lon="9.0422533"><ele>106.00000000000001</ele><time>2026-04-18T09:36:00.988Z</time></trkpt><trkpt lat="45.3647783" lon="9.042285"><ele>106.0</ele><time>2026-04-18T09:36:01.988Z</time></trkpt><trkpt lat="45.3646967" lon="9.042315"><ele>106.0</ele><time>2026-04-18T09:36:02.988Z</time></trkpt><trkpt lat="45.364615" lon="9.0423367"><ele>106.0</ele><time>2026-04-18T09:36:03.988Z</time></trkpt><trkpt lat="45.3645333" lon="9.04236"><ele>106.00000000000001</ele><time>2026-04-18T09:36:04.988Z</time></trkpt><trkpt lat="45.364455" lon="9.042385"><ele>106.0</ele><time>2026-04-18T09:36:05.988Z</time></trkpt><trkpt lat="45.3643767" lon="9.0424083"><ele>105.83333333333334</ele><time>2026-04-18T09:36:06.988Z</time></trkpt><trkpt lat="45.3643017" lon="9.0424333"><ele>105.66666666666667</ele><time>2026-04-18T09:36:07.988Z</time></trkpt><trkpt lat="45.3642333" lon="9.0424617"><ele>105.5</ele><time>2026-04-18T09:36:08.988Z</time></trkpt><trkpt lat="45.3641683" lon="9.0424833"><ele>105.33333333333334</ele><time>2026-04-18T09:36:09.988Z</time></trkpt><trkpt lat="45.364065" lon="9.04252"><ele>105.16666666666667</ele><time>2026-04-18T09:36:11.988Z</time></trkpt><trkpt lat="45.3639617" lon="9.0425533"><ele>105.0</ele><time>2026-04-18T09:36:13.988Z</time></trkpt><trkpt lat="45.36389" lon="9.0425583"><ele>105.0</ele><time>2026-04-18T09:36:15.988Z</time></trkpt><trkpt lat="45.363845" lon="9.0424733"><ele>105.0</ele><time>2026-04-18T09:36:17.988Z</time></trkpt><trkpt lat="45.36383" lon="9.0423"><ele>105.0</ele><time>2026-04-18T09:36:19.988Z</time></trkpt><trkpt lat="45.3638267" lon="9.04219"><ele>105.0</ele><time>2026-04-18T09:36:20.988Z</time></trkpt><trkpt lat="45.3638217" lon="9.0420817"><ele>105.0</ele><time>2026-04-18T09:36:21.988Z</time></trkpt><trkpt lat="45.3638117" lon="9.0419617"><ele>105.0</ele><time>2026-04-18T09:36:22.988Z</time></trkpt><trkpt lat="45.3638017" lon="9.0418383"><ele>105.0</ele><time>2026-04-18T09:36:23.988Z</time></trkpt><trkpt lat="45.36379" lon="9.0417167"><ele>105.0</ele><time>2026-04-18T09:36:24.988Z</time></trkpt><trkpt lat="45.3637817" lon="9.04159"><ele>105.0</ele><time>2026-04-18T09:36:25.988Z</time></trkpt><trkpt lat="45.36377" lon="9.0414717"><ele>105.0</ele><time>2026-04-18T09:36:26.988Z</time></trkpt><trkpt lat="45.3637583" lon="9.0413667"><ele>105.0</ele><time>2026-04-18T09:36:27.988Z</time></trkpt><trkpt lat="45.3637467" lon="9.0412683"><ele>105.0</ele><time>2026-04-18T09:36:28.988Z</time></trkpt><trkpt lat="45.3637517" lon="9.041135"><ele>105.0</ele><time>2026-04-18T09:36:30.988Z</time></trkpt><trkpt lat="45.363815" lon="9.0410667"><ele>105.0</ele><time>2026-04-18T09:36:32.989Z</time></trkpt><trkpt lat="45.3639483" lon="9.0410367"><ele>105.0</ele><time>2026-04-18T09:36:34.988Z</time></trkpt><trkpt lat="45.3640333" lon="9.04101"><ele>105.0</ele><time>2026-04-18T09:36:35.988Z</time></trkpt><trkpt lat="45.3641317" lon="9.0409817"><ele>105.0</ele><time>2026-04-18T09:36:36.988Z</time></trkpt><trkpt lat="45.36423" lon="9.0409433"><ele>105.0</ele><time>2026-04-18T09:36:37.988Z</time></trkpt><trkpt lat="45.3643317" lon="9.040905"><ele>105.0</ele><time>2026-04-18T09:36:38.988Z</time></trkpt><trkpt lat="45.36444" lon="9.0408683"><ele>105.0</ele><time>2026-04-18T09:36:39.988Z</time></trkpt><trkpt lat="45.364535" lon="9.040835"><ele>105.0</ele><time>2026-04-18T09:36:40.988Z</time></trkpt><trkpt lat="45.364635" lon="9.0408033"><ele>105.0</ele><time>2026-04-18T09:36:41.988Z</time></trkpt><trkpt lat="45.36474" lon="9.040765"><ele>105.2</ele><time>2026-04-18T09:36:42.988Z</time></trkpt><trkpt lat="45.3648467" lon="9.040725"><ele>105.4</ele><time>2026-04-18T09:36:43.988Z</time></trkpt><trkpt lat="45.3649533" lon="9.0406817"><ele>105.6</ele><time>2026-04-18T09:36:44.989Z</time></trkpt><trkpt lat="45.365055" lon="9.0406383"><ele>105.8</ele><time>2026-04-18T09:36:45.988Z</time></trkpt><trkpt lat="45.3651517" lon="9.0406033"><ele>106.0</ele><time>2026-04-18T09:36:46.988Z</time></trkpt><trkpt lat="45.3652517" lon="9.040565"><ele>106.00000000000001</ele><time>2026-04-18T09:36:47.988Z</time></trkpt><trkpt lat="45.3653467" lon="9.0405333"><ele>106.0</ele><time>2026-04-18T09:36:48.988Z</time></trkpt><trkpt lat="45.3654383" lon="9.040495"><ele>106.0</ele><time>2026-04-18T09:36:49.988Z</time></trkpt><trkpt lat="45.365525" lon="9.04047"><ele>106.0</ele><time>2026-04-18T09:36:50.988Z</time></trkpt><trkpt lat="45.3656" lon="9.040445"><ele>106.00000000000001</ele><time>2026-04-18T09:36:51.988Z</time></trkpt><trkpt lat="45.3656717" lon="9.040425"><ele>106.0</ele><time>2026-04-18T09:36:52.988Z</time></trkpt><trkpt lat="45.3657383" lon="9.0404083"><ele>106.0</ele><time>2026-04-18T09:36:53.988Z</time></trkpt><trkpt lat="45.365845" lon="9.0403833"><ele>106.0</ele><time>2026-04-18T09:36:55.988Z</time></trkpt><trkpt lat="45.3659133" lon="9.0403767"><ele>106.0</ele><time>2026-04-18T09:36:58.988Z</time></trkpt><trkpt lat="45.3659717" lon="9.0405233"><ele>106.0</ele><time>2026-04-18T09:37:15.989Z</time></trkpt><trkpt lat="45.3659833" lon="9.0406117"><ele>106.0</ele><time>2026-04-18T09:37:16.988Z</time></trkpt><trkpt lat="45.3660117" lon="9.0407967"><ele>105.83333333333334</ele><time>2026-04-18T09:37:18.988Z</time></trkpt><trkpt lat="45.3660333" lon="9.0408917"><ele>105.66666666666667</ele><time>2026-04-18T09:37:19.988Z</time></trkpt><trkpt lat="45.3660533" lon="9.0409933"><ele>105.5</ele><time>2026-04-18T09:37:20.988Z</time></trkpt><trkpt lat="45.3660767" lon="9.0411033"><ele>105.33333333333334</ele><time>2026-04-18T09:37:21.988Z</time></trkpt><trkpt lat="45.3661033" lon="9.04122"><ele>105.16666666666667</ele><time>2026-04-18T09:37:22.988Z</time></trkpt><trkpt lat="45.3661217" lon="9.0413333"><ele>105.0</ele><time>2026-04-18T09:37:23.988Z</time></trkpt><trkpt lat="45.3661417" lon="9.0414483"><ele>105.0</ele><time>2026-04-18T09:37:24.988Z</time></trkpt><trkpt lat="45.36616" lon="9.0415433"><ele>105.0</ele><time>2026-04-18T09:37:25.988Z</time></trkpt><trkpt lat="45.3661817" lon="9.0416333"><ele>105.0</ele><time>2026-04-18T09:37:26.988Z</time></trkpt><trkpt lat="45.36624" lon="9.0417583"><ele>105.0</ele><time>2026-04-18T09:37:28.989Z</time></trkpt><trkpt lat="45.3663267" lon="9.0418033"><ele>105.0</ele><time>2026-04-18T09:37:30.988Z</time></trkpt><trkpt lat="45.3663883" lon="9.0417817"><ele>105.0</ele><time>2026-04-18T09:37:31.988Z</time></trkpt><trkpt lat="45.3664717" lon="9.04176"><ele>105.4</ele><time>2026-04-18T09:37:32.988Z</time></trkpt><trkpt lat="45.3665517" lon="9.0417417"><ele>105.8</ele><time>2026-04-18T09:37:33.988Z</time></trkpt><trkpt lat="45.36664" lon="9.04172"><ele>106.19999999999999</ele><time>2026-04-18T09:37:34.988Z</time></trkpt><trkpt lat="45.3667333" lon="9.04171"><ele>106.6</ele><time>2026-04-18T09:37:35.988Z</time></trkpt><trkpt lat="45.3668317" lon="9.04169"><ele>107.0</ele><time>2026-04-18T09:37:36.988Z</time></trkpt><trkpt lat="45.3669283" lon="9.04167"><ele>107.0</ele><time>2026-04-18T09:37:37.988Z</time></trkpt><trkpt lat="45.3670367" lon="9.0416583"><ele>106.99999999999999</ele><time>2026-04-18T09:37:38.988Z</time></trkpt><trkpt lat="45.367145" lon="9.0416367"><ele>106.99999999999999</ele><time>2026-04-18T09:37:39.988Z</time></trkpt><trkpt lat="45.3672567" lon="9.0416167"><ele>107.0</ele><time>2026-04-18T09:37:40.988Z</time></trkpt><trkpt lat="45.3673667" lon="9.0415917"><ele>107.0</ele><time>2026-04-18T09:37:41.988Z</time></trkpt><trkpt lat="45.36747" lon="9.04157"><ele>107.16666666666666</ele><time>2026-04-18T09:37:42.988Z</time></trkpt><trkpt lat="45.3675633" lon="9.04156"><ele>107.33333333333333</ele><time>2026-04-18T09:37:43.988Z</time></trkpt><trkpt lat="45.367645" lon="9.04155"><ele>107.5</ele><time>2026-04-18T09:37:44.988Z</time></trkpt><trkpt lat="45.3677133" lon="9.041535"><ele>107.66666666666666</ele><time>2026-04-18T09:37:45.988Z</time></trkpt><trkpt lat="45.3678167" lon="9.0415267"><ele>107.83333333333333</ele><time>2026-04-18T09:37:47.988Z</time></trkpt><trkpt lat="45.3679017" lon="9.0415133"><ele>108.0</ele><time>2026-04-18T09:37:49.988Z</time></trkpt><trkpt lat="45.367975" lon="9.0415033"><ele>107.66666666666667</ele><time>2026-04-18T09:37:51.988Z</time></trkpt><trkpt lat="45.3680567" lon="9.0415167"><ele>107.33333333333334</ele><time>2026-04-18T09:37:53.988Z</time></trkpt><trkpt lat="45.3681767" lon="9.0415333"><ele>107.0</ele><time>2026-04-18T09:37:55.988Z</time></trkpt><trkpt lat="45.36825" lon="9.041525"><ele>106.66666666666667</ele><time>2026-04-18T09:37:56.988Z</time></trkpt><trkpt lat="45.3683333" lon="9.041515"><ele>106.33333333333334</ele><time>2026-04-18T09:37:57.988Z</time></trkpt><trkpt lat="45.36842" lon="9.0415017"><ele>106.0</ele><time>2026-04-18T09:37:58.988Z</time></trkpt><trkpt lat="45.368505" lon="9.0414833"><ele>106.00000000000001</ele><time>2026-04-18T09:37:59.988Z</time></trkpt><trkpt lat="45.3685833" lon="9.0414733"><ele>106.0</ele><time>2026-04-18T09:38:00.988Z</time></trkpt><trkpt lat="45.3686533" lon="9.0414633"><ele>106.0</ele><time>2026-04-18T09:38:01.988Z</time></trkpt><trkpt lat="45.3687633" lon="9.0415217"><ele>106.0</ele><time>2026-04-18T09:38:03.988Z</time></trkpt><trkpt lat="45.368815" lon="9.0416517"><ele>106.00000000000001</ele><time>2026-04-18T09:38:05.988Z</time></trkpt><trkpt lat="45.3688233" lon="9.0417433"><ele>106.0</ele><time>2026-04-18T09:38:06.988Z</time></trkpt><trkpt lat="45.3688267" lon="9.0418683"><ele>106.0</ele><time>2026-04-18T09:38:07.988Z</time></trkpt><trkpt lat="45.3688333" lon="9.0420117"><ele>106.0</ele><time>2026-04-18T09:38:08.988Z</time></trkpt><trkpt lat="45.3688417" lon="9.0421683"><ele>106.0</ele><time>2026-04-18T09:38:09.988Z</time></trkpt><trkpt lat="45.3688533" lon="9.0423367"><ele>106.0</ele><time>2026-04-18T09:38:10.989Z</time></trkpt><trkpt lat="45.3688667" lon="9.0425"><ele>106.0</ele><time>2026-04-18T09:38:11.988Z</time></trkpt><trkpt lat="45.3688733" lon="9.042675"><ele>106.00000000000001</ele><time>2026-04-18T09:38:12.988Z</time></trkpt><trkpt lat="45.3688833" lon="9.0428233"><ele>106.0</ele><time>2026-04-18T09:38:13.988Z</time></trkpt><trkpt lat="45.3688933" lon="9.04295"><ele>106.0</ele><time>2026-04-18T09:38:14.988Z</time></trkpt><trkpt lat="45.3689117" lon="9.0430717"><ele>106.0</ele><time>2026-04-18T09:38:15.988Z</time></trkpt><trkpt lat="45.3689383" lon="9.0431783"><ele>106.00000000000001</ele><time>2026-04-18T09:38:16.988Z</time></trkpt><trkpt lat="45.368965" lon="9.0432917"><ele>106.0</ele><time>2026-04-18T09:38:17.988Z</time></trkpt><trkpt lat="45.3689767" lon="9.0434"><ele>106.33333333333334</ele><time>2026-04-18T09:38:18.988Z</time></trkpt><trkpt lat="45.3689833" lon="9.0434967"><ele>106.66666666666667</ele><time>2026-04-18T09:38:19.988Z</time></trkpt><trkpt lat="45.3689867" lon="9.0435883"><ele>107.0</ele><time>2026-04-18T09:38:20.988Z</time></trkpt><trkpt lat="45.36899" lon="9.0436933"><ele>107.33333333333334</ele><time>2026-04-18T09:38:22.988Z</time></trkpt><trkpt lat="45.3689833" lon="9.0438267"><ele>107.66666666666667</ele><time>2026-04-18T09:38:26.988Z</time></trkpt><trkpt lat="45.368995" lon="9.043965"><ele>108.0</ele><time>2026-04-18T09:38:28.989Z</time></trkpt><trkpt lat="45.3690317" lon="9.0441167"><ele>108.0</ele><time>2026-04-18T09:38:30.988Z</time></trkpt><trkpt lat="45.36904" lon="9.0442117"><ele>108.0</ele><time>2026-04-18T09:38:31.988Z</time></trkpt><trkpt lat="45.369055" lon="9.0443133"><ele>108.0</ele><time>2026-04-18T09:38:32.988Z</time></trkpt><trkpt lat="45.3690767" lon="9.044415"><ele>108.0</ele><time>2026-04-18T09:38:33.988Z</time></trkpt><trkpt lat="45.3691017" lon="9.0445317"><ele>108.0</ele><time>2026-04-18T09:38:34.988Z</time></trkpt><trkpt lat="45.3691367" lon="9.04465"><ele>108.0</ele><time>2026-04-18T09:38:35.988Z</time></trkpt><trkpt lat="45.3691783" lon="9.0447683"><ele>108.0</ele><time>2026-04-18T09:38:36.988Z</time></trkpt><trkpt lat="45.3692183" lon="9.044925"><ele>108.0</ele><time>2026-04-18T09:38:37.988Z</time></trkpt><trkpt lat="45.36925" lon="9.0450783"><ele>108.0</ele><time>2026-04-18T09:38:38.988Z</time></trkpt><trkpt lat="45.3692817" lon="9.0452367"><ele>108.0</ele><time>2026-04-18T09:38:39.988Z</time></trkpt><trkpt lat="45.3693017" lon="9.0453967"><ele>107.5</ele><time>2026-04-18T09:38:40.988Z</time></trkpt><trkpt lat="45.3693283" lon="9.0455583"><ele>107.0</ele><time>2026-04-18T09:38:41.988Z</time></trkpt><trkpt lat="45.36937" lon="9.0457233"><ele>106.5</ele><time>2026-04-18T09:38:42.988Z</time></trkpt><trkpt lat="45.3694233" lon="9.0458767"><ele>106.0</ele><time>2026-04-18T09:38:43.988Z</time></trkpt><trkpt lat="45.3694917" lon="9.0460433"><ele>106.25</ele><time>2026-04-18T09:38:44.988Z</time></trkpt><trkpt lat="45.3695717" lon="9.04622"><ele>106.5</ele><time>2026-04-18T09:38:45.988Z</time></trkpt><trkpt lat="45.3696533" lon="9.0463933"><ele>106.75</ele><time>2026-04-18T09:38:46.988Z</time></trkpt><trkpt lat="45.369735" lon="9.046575"><ele>107.0</ele><time>2026-04-18T09:38:47.988Z</time></trkpt><trkpt lat="45.369825" lon="9.0467767"><ele>107.0</ele><time>2026-04-18T09:38:48.988Z</time></trkpt><trkpt lat="45.369915" lon="9.046955"><ele>107.0</ele><time>2026-04-18T09:38:49.988Z</time></trkpt><trkpt lat="45.3699917" lon="9.04713"><ele>107.0</ele><time>2026-04-18T09:38:50.988Z</time></trkpt><trkpt lat="45.3700717" lon="9.0473033"><ele>107.0</ele><time>2026-04-18T09:38:51.988Z</time></trkpt><trkpt lat="45.37015" lon="9.047465"><ele>106.5</ele><time>2026-04-18T09:38:52.988Z</time></trkpt><trkpt lat="45.3702267" lon="9.0476117"><ele>106.0</ele><time>2026-04-18T09:38:53.988Z</time></trkpt><trkpt lat="45.370295" lon="9.0477517"><ele>105.5</ele><time>2026-04-18T09:38:54.988Z</time></trkpt><trkpt lat="45.370355" lon="9.047885"><ele>105.0</ele><time>2026-04-18T09:38:55.988Z</time></trkpt><trkpt lat="45.3704117" lon="9.0479983"><ele>105.0</ele><time>2026-04-18T09:38:56.989Z</time></trkpt><trkpt lat="45.3704667" lon="9.0480983"><ele>105.0</ele><time>2026-04-18T09:38:57.988Z</time></trkpt><trkpt lat="45.3705067" lon="9.0481867"><ele>105.0</ele><time>2026-04-18T09:38:58.989Z</time></trkpt><trkpt lat="45.3705533" lon="9.0483333"><ele>105.0</ele><time>2026-04-18T09:39:00.988Z</time></trkpt><trkpt lat="45.3705483" lon="9.0484617"><ele>105.0</ele><time>2026-04-18T09:39:02.988Z</time></trkpt><trkpt lat="45.3704483" lon="9.0486167"><ele>105.2</ele><time>2026-04-18T09:39:04.988Z</time></trkpt><trkpt lat="45.37038" lon="9.0486933"><ele>105.4</ele><time>2026-04-18T09:39:05.988Z</time></trkpt><trkpt lat="45.3702983" lon="9.048775"><ele>105.6</ele><time>2026-04-18T09:39:06.988Z</time></trkpt><trkpt lat="45.3701983" lon="9.0488533"><ele>105.8</ele><time>2026-04-18T09:39:07.988Z</time></trkpt><trkpt lat="45.37009" lon="9.04894"><ele>106.0</ele><time>2026-04-18T09:39:08.988Z</time></trkpt><trkpt lat="45.3699767" lon="9.0490183"><ele>106.0</ele><time>2026-04-18T09:39:09.988Z</time></trkpt><trkpt lat="45.3698467" lon="9.049095"><ele>106.0</ele><time>2026-04-18T09:39:10.988Z</time></trkpt><trkpt lat="45.3697183" lon="9.0491633"><ele>106.0</ele><time>2026-04-18T09:39:11.988Z</time></trkpt><trkpt lat="45.3695767" lon="9.04921"><ele>106.0</ele><time>2026-04-18T09:39:12.988Z</time></trkpt><trkpt lat="45.36943" lon="9.0492567"><ele>105.66666666666667</ele><time>2026-04-18T09:39:13.988Z</time></trkpt><trkpt lat="45.3692733" lon="9.049295"><ele>105.33333333333334</ele><time>2026-04-18T09:39:14.988Z</time></trkpt><trkpt lat="45.3691033" lon="9.0493267"><ele>105.0</ele><time>2026-04-18T09:39:15.988Z</time></trkpt><trkpt lat="45.368925" lon="9.0493517"><ele>105.0</ele><time>2026-04-18T09:39:16.988Z</time></trkpt><trkpt lat="45.36875" lon="9.0493833"><ele>105.0</ele><time>2026-04-18T09:39:17.988Z</time></trkpt><trkpt lat="45.368575" lon="9.0494283"><ele>105.0</ele><time>2026-04-18T09:39:18.988Z</time></trkpt><trkpt lat="45.3683917" lon="9.04947"><ele>105.0</ele><time>2026-04-18T09:39:19.988Z</time></trkpt><trkpt lat="45.3682" lon="9.0495033"><ele>105.0</ele><time>2026-04-18T09:39:20.988Z</time></trkpt><trkpt lat="45.3680167" lon="9.049545"><ele>105.0</ele><time>2026-04-18T09:39:21.988Z</time></trkpt><trkpt lat="45.3678283" lon="9.04958"><ele>105.0</ele><time>2026-04-18T09:39:22.988Z</time></trkpt><trkpt lat="45.3676317" lon="9.0496283"><ele>105.0</ele><time>2026-04-18T09:39:23.988Z</time></trkpt><trkpt lat="45.36745" lon="9.049665"><ele>105.0</ele><time>2026-04-18T09:39:24.988Z</time></trkpt><trkpt lat="45.367275" lon="9.0497"><ele>104.33333333333334</ele><time>2026-04-18T09:39:25.989Z</time></trkpt><trkpt lat="45.3671033" lon="9.0497317"><ele>103.66666666666667</ele><time>2026-04-18T09:39:26.988Z</time></trkpt><trkpt lat="45.3669283" lon="9.0497783"><ele>103.0</ele><time>2026-04-18T09:39:27.988Z</time></trkpt><trkpt lat="45.3667617" lon="9.0498283"><ele>103.0</ele><time>2026-04-18T09:39:28.988Z</time></trkpt><trkpt lat="45.3666183" lon="9.049895"><ele>103.0</ele><time>2026-04-18T09:39:29.988Z</time></trkpt><trkpt lat="45.3664767" lon="9.0499883"><ele>103.0</ele><time>2026-04-18T09:39:30.988Z</time></trkpt><trkpt lat="45.3663383" lon="9.0501067"><ele>102.66666666666667</ele><time>2026-04-18T09:39:31.988Z</time></trkpt><trkpt lat="45.3662167" lon="9.0502383"><ele>102.33333333333334</ele><time>2026-04-18T09:39:32.988Z</time></trkpt><trkpt lat="45.3661" lon="9.0503933"><ele>102.0</ele><time>2026-04-18T09:39:33.988Z</time></trkpt><trkpt lat="45.365995" lon="9.05056"><ele>102.0</ele><time>2026-04-18T09:39:34.988Z</time></trkpt><trkpt lat="45.3659067" lon="9.0507517"><ele>102.0</ele><time>2026-04-18T09:39:35.988Z</time></trkpt><trkpt lat="45.36583" lon="9.0509583"><ele>102.0</ele><time>2026-04-18T09:39:36.988Z</time></trkpt><trkpt lat="45.3657567" lon="9.051175"><ele>102.33333333333334</ele><time>2026-04-18T09:39:37.988Z</time></trkpt><trkpt lat="45.365685" lon="9.0513983"><ele>102.66666666666667</ele><time>2026-04-18T09:39:38.988Z</time></trkpt><trkpt lat="45.36561" lon="9.0516267"><ele>103.0</ele><time>2026-04-18T09:39:39.988Z</time></trkpt><trkpt lat="45.36554" lon="9.05185"><ele>103.0</ele><time>2026-04-18T09:39:40.988Z</time></trkpt><trkpt lat="45.3654733" lon="9.05208"><ele>103.0</ele><time>2026-04-18T09:39:41.988Z</time></trkpt><trkpt lat="45.365395" lon="9.052295"><ele>103.0</ele><time>2026-04-18T09:39:42.988Z</time></trkpt><trkpt lat="45.3652967" lon="9.0525017"><ele>102.66666666666667</ele><time>2026-04-18T09:39:43.988Z</time></trkpt><trkpt lat="45.3651767" lon="9.052685"><ele>102.33333333333334</ele><time>2026-04-18T09:39:44.988Z</time></trkpt><trkpt lat="45.3650517" lon="9.052845"><ele>102.0</ele><time>2026-04-18T09:39:45.988Z</time></trkpt><trkpt lat="45.36493" lon="9.0529667"><ele>102.0</ele><time>2026-04-18T09:39:46.988Z</time></trkpt><trkpt lat="45.364805" lon="9.053065"><ele>102.0</ele><time>2026-04-18T09:39:47.988Z</time></trkpt><trkpt lat="45.3646783" lon="9.05314"><ele>102.0</ele><time>2026-04-18T09:39:48.988Z</time></trkpt><trkpt lat="45.3645533" lon="9.0531967"><ele>102.0</ele><time>2026-04-18T09:39:49.988Z</time></trkpt><trkpt lat="45.3644217" lon="9.0532233"><ele>102.5</ele><time>2026-04-18T09:39:50.988Z</time></trkpt><trkpt lat="45.3642867" lon="9.0532433"><ele>103.0</ele><time>2026-04-18T09:39:51.988Z</time></trkpt><trkpt lat="45.364155" lon="9.053265"><ele>103.5</ele><time>2026-04-18T09:39:52.988Z</time></trkpt><trkpt lat="45.3640217" lon="9.0532833"><ele>104.0</ele><time>2026-04-18T09:39:53.988Z</time></trkpt><trkpt lat="45.3638867" lon="9.0533033"><ele>104.5</ele><time>2026-04-18T09:39:54.988Z</time></trkpt><trkpt lat="45.3637517" lon="9.05332"><ele>105.0</ele><time>2026-04-18T09:39:55.989Z</time></trkpt><trkpt lat="45.36363" lon="9.0533483"><ele>105.5</ele><time>2026-04-18T09:39:56.988Z</time></trkpt><trkpt lat="45.3635033" lon="9.0533667"><ele>106.0</ele><time>2026-04-18T09:39:57.988Z</time></trkpt><trkpt lat="45.3633717" lon="9.0533917"><ele>106.0</ele><time>2026-04-18T09:39:58.988Z</time></trkpt><trkpt lat="45.3632383" lon="9.0534133"><ele>106.0</ele><time>2026-04-18T09:39:59.988Z</time></trkpt><trkpt lat="45.3631" lon="9.0534267"><ele>106.0</ele><time>2026-04-18T09:40:00.988Z</time></trkpt><trkpt lat="45.3629567" lon="9.05344"><ele>106.0</ele><time>2026-04-18T09:40:01.988Z</time></trkpt><trkpt lat="45.3628183" lon="9.0534633"><ele>106.0</ele><time>2026-04-18T09:40:02.988Z</time></trkpt><trkpt lat="45.3626717" lon="9.05349"><ele>106.0</ele><time>2026-04-18T09:40:03.988Z</time></trkpt><trkpt lat="45.3625167" lon="9.0535117"><ele>106.0</ele><time>2026-04-18T09:40:04.988Z</time></trkpt><trkpt lat="45.36236" lon="9.053535"><ele>106.0</ele><time>2026-04-18T09:40:05.988Z</time></trkpt><trkpt lat="45.3622033" lon="9.05356"><ele>106.0</ele><time>2026-04-18T09:40:06.988Z</time></trkpt><trkpt lat="45.362035" lon="9.053575"><ele>106.0</ele><time>2026-04-18T09:40:07.988Z</time></trkpt><trkpt lat="45.361865" lon="9.0535983"><ele>106.0</ele><time>2026-04-18T09:40:08.988Z</time></trkpt><trkpt lat="45.3616983" lon="9.05362"><ele>106.0</ele><time>2026-04-18T09:40:09.988Z</time></trkpt><trkpt lat="45.36153" lon="9.0536467"><ele>106.0</ele><time>2026-04-18T09:40:10.988Z</time></trkpt><trkpt lat="45.3613617" lon="9.0536767"><ele>106.0</ele><time>2026-04-18T09:40:11.988Z</time></trkpt><trkpt lat="45.3611933" lon="9.0537033"><ele>106.0</ele><time>2026-04-18T09:40:12.989Z</time></trkpt><trkpt lat="45.3610283" lon="9.05373"><ele>106.0</ele><time>2026-04-18T09:40:13.988Z</time></trkpt><trkpt lat="45.360865" lon="9.0537567"><ele>106.0</ele><time>2026-04-18T09:40:14.988Z</time></trkpt><trkpt lat="45.3607033" lon="9.0537717"><ele>106.0</ele><time>2026-04-18T09:40:15.988Z</time></trkpt><trkpt lat="45.3605367" lon="9.0537917"><ele>106.0</ele><time>2026-04-18T09:40:16.988Z</time></trkpt><trkpt lat="45.36037" lon="9.0538183"><ele>106.0</ele><time>2026-04-18T09:40:17.988Z</time></trkpt><trkpt lat="45.3602067" lon="9.053855"><ele>106.0</ele><time>2026-04-18T09:40:18.988Z</time></trkpt><trkpt lat="45.3600417" lon="9.0538833"><ele>106.0</ele><time>2026-04-18T09:40:19.988Z</time></trkpt><trkpt lat="45.359875" lon="9.053915"><ele>106.0</ele><time>2026-04-18T09:40:20.988Z</time></trkpt><trkpt lat="45.35971" lon="9.05395"><ele>106.0</ele><time>2026-04-18T09:40:21.988Z</time></trkpt><trkpt lat="45.359545" lon="9.0539817"><ele>106.0</ele><time>2026-04-18T09:40:22.988Z</time></trkpt><trkpt lat="45.359385" lon="9.0540233"><ele>105.66666666666667</ele><time>2026-04-18T09:40:23.988Z</time></trkpt><trkpt lat="45.35923" lon="9.0540567"><ele>105.33333333333334</ele><time>2026-04-18T09:40:24.988Z</time></trkpt><trkpt lat="45.3590667" lon="9.0541"><ele>105.0</ele><time>2026-04-18T09:40:25.988Z</time></trkpt><trkpt lat="45.3589033" lon="9.0541467"><ele>104.75</ele><time>2026-04-18T09:40:26.988Z</time></trkpt><trkpt lat="45.3587483" lon="9.0541933"><ele>104.5</ele><time>2026-04-18T09:40:27.988Z</time></trkpt><trkpt lat="45.358605" lon="9.0542417"><ele>104.25</ele><time>2026-04-18T09:40:28.988Z</time></trkpt><trkpt lat="45.3584667" lon="9.0542917"><ele>104.0</ele><time>2026-04-18T09:40:29.988Z</time></trkpt><trkpt lat="45.3583233" lon="9.0543333"><ele>104.0</ele><time>2026-04-18T09:40:30.989Z</time></trkpt><trkpt lat="45.35818" lon="9.0543783"><ele>104.0</ele><time>2026-04-18T09:40:31.988Z</time></trkpt><trkpt lat="45.3580467" lon="9.0544183"><ele>104.0</ele><time>2026-04-18T09:40:32.988Z</time></trkpt><trkpt lat="45.3579083" lon="9.05446"><ele>104.0</ele><time>2026-04-18T09:40:33.989Z</time></trkpt><trkpt lat="45.357775" lon="9.0545067"><ele>104.25</ele><time>2026-04-18T09:40:34.988Z</time></trkpt><trkpt lat="45.3576517" lon="9.0545467"><ele>104.5</ele><time>2026-04-18T09:40:35.989Z</time></trkpt><trkpt lat="45.3575317" lon="9.054585"><ele>104.75</ele><time>2026-04-18T09:40:36.988Z</time></trkpt><trkpt lat="45.35742" lon="9.054625"><ele>105.0</ele><time>2026-04-18T09:40:37.988Z</time></trkpt><trkpt lat="45.35732" lon="9.05465"><ele>105.0</ele><time>2026-04-18T09:40:38.988Z</time></trkpt><trkpt lat="45.357225" lon="9.0546733"><ele>105.0</ele><time>2026-04-18T09:40:39.988Z</time></trkpt><trkpt lat="45.35714" lon="9.054705"><ele>105.0</ele><time>2026-04-18T09:40:40.988Z</time></trkpt><trkpt lat="45.3570633" lon="9.05473"><ele>105.0</ele><time>2026-04-18T09:40:41.988Z</time></trkpt><trkpt lat="45.3569933" lon="9.054745"><ele>105.0</ele><time>2026-04-18T09:40:42.988Z</time></trkpt><trkpt lat="45.3569033" lon="9.0547067"><ele>105.0</ele><time>2026-04-18T09:40:44.988Z</time></trkpt><trkpt lat="45.3568633" lon="9.05456"><ele>105.0</ele><time>2026-04-18T09:40:53.988Z</time></trkpt><trkpt lat="45.356865" lon="9.0544683"><ele>105.0</ele><time>2026-04-18T09:40:54.988Z</time></trkpt><trkpt lat="45.356855" lon="9.05436"><ele>105.0</ele><time>2026-04-18T09:40:55.988Z</time></trkpt><trkpt lat="45.3568517" lon="9.0542383"><ele>105.0</ele><time>2026-04-18T09:40:56.988Z</time></trkpt><trkpt lat="45.3568417" lon="9.0541017"><ele>105.0</ele><time>2026-04-18T09:40:57.988Z</time></trkpt><trkpt lat="45.356835" lon="9.0539417"><ele>105.0</ele><time>2026-04-18T09:40:58.988Z</time></trkpt><trkpt lat="45.3568317" lon="9.0537733"><ele>105.0</ele><time>2026-04-18T09:40:59.988Z</time></trkpt><trkpt lat="45.3568267" lon="9.0535967"><ele>105.0</ele><time>2026-04-18T09:41:00.988Z</time></trkpt><trkpt lat="45.3568167" lon="9.05341"><ele>105.0</ele><time>2026-04-18T09:41:01.988Z</time></trkpt><trkpt lat="45.3568117" lon="9.05323"><ele>105.0</ele><time>2026-04-18T09:41:02.988Z</time></trkpt><trkpt lat="45.3568067" lon="9.0530517"><ele>105.0</ele><time>2026-04-18T09:41:03.988Z</time></trkpt><trkpt lat="45.3568033" lon="9.05286"><ele>105.0</ele><time>2026-04-18T09:41:04.988Z</time></trkpt><trkpt lat="45.3567967" lon="9.05268"><ele>105.0</ele><time>2026-04-18T09:41:05.988Z</time></trkpt><trkpt lat="45.3567933" lon="9.052515"><ele>105.0</ele><time>2026-04-18T09:41:06.988Z</time></trkpt><trkpt lat="45.3567917" lon="9.0523783"><ele>104.83333333333333</ele><time>2026-04-18T09:41:07.988Z</time></trkpt><trkpt lat="45.35679" lon="9.0522683"><ele>104.66666666666666</ele><time>2026-04-18T09:41:08.988Z</time></trkpt><trkpt lat="45.3567783" lon="9.05218"><ele>104.5</ele><time>2026-04-18T09:41:09.988Z</time></trkpt><trkpt lat="45.3567" lon="9.052085"><ele>104.33333333333333</ele><time>2026-04-18T09:41:11.988Z</time></trkpt><trkpt lat="45.3566367" lon="9.05208"><ele>104.16666666666666</ele><time>2026-04-18T09:41:12.988Z</time></trkpt><trkpt lat="45.3565533" lon="9.0520933"><ele>104.0</ele><time>2026-04-18T09:41:13.988Z</time></trkpt><trkpt lat="45.35645" lon="9.0521133"><ele>103.75</ele><time>2026-04-18T09:41:14.988Z</time></trkpt><trkpt lat="45.3563267" lon="9.0521267"><ele>103.5</ele><time>2026-04-18T09:41:15.987Z</time></trkpt><trkpt lat="45.3562" lon="9.0521483"><ele>103.25</ele><time>2026-04-18T09:41:16.987Z</time></trkpt><trkpt lat="45.3560733" lon="9.05218"><ele>103.0</ele><time>2026-04-18T09:41:17.988Z</time></trkpt><trkpt lat="45.35594" lon="9.0522217"><ele>103.0</ele><time>2026-04-18T09:41:18.987Z</time></trkpt><trkpt lat="45.3558017" lon="9.0522617"><ele>103.0</ele><time>2026-04-18T09:41:19.987Z</time></trkpt><trkpt lat="45.355665" lon="9.052295"><ele>103.0</ele><time>2026-04-18T09:41:20.987Z</time></trkpt><trkpt lat="45.355525" lon="9.0523367"><ele>103.0</ele><time>2026-04-18T09:41:21.987Z</time></trkpt><trkpt lat="45.355395" lon="9.05237"><ele>103.0</ele><time>2026-04-18T09:41:22.987Z</time></trkpt><trkpt lat="45.3552633" lon="9.0524017"><ele>103.0</ele><time>2026-04-18T09:41:23.987Z</time></trkpt><trkpt lat="45.35514" lon="9.052445"><ele>103.0</ele><time>2026-04-18T09:41:24.987Z</time></trkpt><trkpt lat="45.3550333" lon="9.052485"><ele>103.0</ele><time>2026-04-18T09:41:25.987Z</time></trkpt><trkpt lat="45.354935" lon="9.05251"><ele>103.00000000000001</ele><time>2026-04-18T09:41:26.987Z</time></trkpt><trkpt lat="45.3548467" lon="9.0525367"><ele>103.0</ele><time>2026-04-18T09:41:27.987Z</time></trkpt><trkpt lat="45.3547633" lon="9.0525467"><ele>103.0</ele><time>2026-04-18T09:41:28.987Z</time></trkpt><trkpt lat="45.3546833" lon="9.0525383"><ele>103.0</ele><time>2026-04-18T09:41:29.987Z</time></trkpt><trkpt lat="45.35462" lon="9.052495"><ele>103.00000000000001</ele><time>2026-04-18T09:41:30.987Z</time></trkpt><trkpt lat="45.3545717" lon="9.052425"><ele>103.0</ele><time>2026-04-18T09:41:31.987Z</time></trkpt><trkpt lat="45.3545483" lon="9.0523033"><ele>103.25</ele><time>2026-04-18T09:41:32.987Z</time></trkpt><trkpt lat="45.3545417" lon="9.0521417"><ele>103.5</ele><time>2026-04-18T09:41:33.987Z</time></trkpt><trkpt lat="45.3545417" lon="9.0519617"><ele>103.75</ele><time>2026-04-18T09:41:34.987Z</time></trkpt><trkpt lat="45.3545333" lon="9.0517933"><ele>104.0</ele><time>2026-04-18T09:41:35.987Z</time></trkpt><trkpt lat="45.3545183" lon="9.051645"><ele>103.66666666666666</ele><time>2026-04-18T09:41:36.987Z</time></trkpt><trkpt lat="45.3545" lon="9.0515133"><ele>103.33333333333333</ele><time>2026-04-18T09:41:37.988Z</time></trkpt><trkpt lat="45.3544783" lon="9.051405"><ele>103.0</ele><time>2026-04-18T09:41:38.988Z</time></trkpt><trkpt lat="45.3544467" lon="9.0513167"><ele>102.66666666666666</ele><time>2026-04-18T09:41:39.987Z</time></trkpt><trkpt lat="45.3544017" lon="9.0512483"><ele>102.33333333333333</ele><time>2026-04-18T09:41:40.987Z</time></trkpt><trkpt lat="45.3542767" lon="9.0512183"><ele>102.0</ele><time>2026-04-18T09:41:42.987Z</time></trkpt><trkpt lat="45.35418" lon="9.0512433"><ele>102.0</ele><time>2026-04-18T09:41:43.988Z</time></trkpt><trkpt lat="45.3540667" lon="9.0512883"><ele>102.0</ele><time>2026-04-18T09:41:44.987Z</time></trkpt><trkpt lat="45.353945" lon="9.0513333"><ele>102.0</ele><time>2026-04-18T09:41:45.987Z</time></trkpt><trkpt lat="45.353825" lon="9.0513717"><ele>102.0</ele><time>2026-04-18T09:41:46.987Z</time></trkpt><trkpt lat="45.3536983" lon="9.0514117"><ele>102.0</ele><time>2026-04-18T09:41:47.987Z</time></trkpt><trkpt lat="45.3535667" lon="9.0514517"><ele>102.0</ele><time>2026-04-18T09:41:48.987Z</time></trkpt><trkpt lat="45.353435" lon="9.0515"><ele>102.0</ele><time>2026-04-18T09:41:49.987Z</time></trkpt><trkpt lat="45.3533083" lon="9.051535"><ele>102.0</ele><time>2026-04-18T09:41:50.987Z</time></trkpt><trkpt lat="45.35318" lon="9.05157"><ele>102.0</ele><time>2026-04-18T09:41:51.987Z</time></trkpt><trkpt lat="45.3530483" lon="9.05161"><ele>102.0</ele><time>2026-04-18T09:41:52.987Z</time></trkpt><trkpt lat="45.3529167" lon="9.051645"><ele>102.0</ele><time>2026-04-18T09:41:53.987Z</time></trkpt><trkpt lat="45.352785" lon="9.0516817"><ele>102.0</ele><time>2026-04-18T09:41:54.987Z</time></trkpt><trkpt lat="45.3526517" lon="9.0517167"><ele>102.25</ele><time>2026-04-18T09:41:55.987Z</time></trkpt><trkpt lat="45.3525317" lon="9.051755"><ele>102.5</ele><time>2026-04-18T09:41:56.987Z</time></trkpt><trkpt lat="45.3524033" lon="9.0518017"><ele>102.75</ele><time>2026-04-18T09:41:57.987Z</time></trkpt><trkpt lat="45.3522767" lon="9.0518483"><ele>103.0</ele><time>2026-04-18T09:41:58.987Z</time></trkpt><trkpt lat="45.3521583" lon="9.0519033"><ele>103.5</ele><time>2026-04-18T09:41:59.987Z</time></trkpt><trkpt lat="45.3520367" lon="9.0519683"><ele>104.0</ele><time>2026-04-18T09:42:00.987Z</time></trkpt><trkpt lat="45.35192" lon="9.0520367"><ele>104.5</ele><time>2026-04-18T09:42:01.987Z</time></trkpt><trkpt lat="45.351815" lon="9.052105"><ele>105.0</ele><time>2026-04-18T09:42:02.987Z</time></trkpt><trkpt lat="45.3517133" lon="9.0521667"><ele>105.0</ele><time>2026-04-18T09:42:03.987Z</time></trkpt><trkpt lat="45.3516233" lon="9.0522117"><ele>105.0</ele><time>2026-04-18T09:42:04.987Z</time></trkpt><trkpt lat="45.3515283" lon="9.0522667"><ele>105.0</ele><time>2026-04-18T09:42:05.987Z</time></trkpt><trkpt lat="45.35144" lon="9.0523233"><ele>105.0</ele><time>2026-04-18T09:42:06.987Z</time></trkpt><trkpt lat="45.3513767" lon="9.0524067"><ele>105.0</ele><time>2026-04-18T09:42:07.987Z</time></trkpt><trkpt lat="45.3513367" lon="9.052525"><ele>104.5</ele><time>2026-04-18T09:42:08.988Z</time></trkpt><trkpt lat="45.3513" lon="9.0526767"><ele>104.0</ele><time>2026-04-18T09:42:09.987Z</time></trkpt><trkpt lat="45.351275" lon="9.0528317"><ele>103.5</ele><time>2026-04-18T09:42:10.987Z</time></trkpt><trkpt lat="45.3512633" lon="9.0529983"><ele>103.0</ele><time>2026-04-18T09:42:11.987Z</time></trkpt><trkpt lat="45.351285" lon="9.0531683"><ele>103.0</ele><time>2026-04-18T09:42:12.987Z</time></trkpt><trkpt lat="45.351315" lon="9.0533533"><ele>103.0</ele><time>2026-04-18T09:42:13.987Z</time></trkpt><trkpt lat="45.35134" lon="9.0535367"><ele>103.0</ele><time>2026-04-18T09:42:14.987Z</time></trkpt><trkpt lat="45.3513733" lon="9.0537217"><ele>103.0</ele><time>2026-04-18T09:42:15.987Z</time></trkpt><trkpt lat="45.35139" lon="9.0539117"><ele>102.80000000000001</ele><time>2026-04-18T09:42:16.987Z</time></trkpt><trkpt lat="45.351425" lon="9.0540833"><ele>102.6</ele><time>2026-04-18T09:42:17.987Z</time></trkpt><trkpt lat="45.3514483" lon="9.05423"><ele>102.4</ele><time>2026-04-18T09:42:18.987Z</time></trkpt><trkpt lat="45.35147" lon="9.0543783"><ele>102.19999999999999</ele><time>2026-04-18T09:42:19.987Z</time></trkpt><trkpt lat="45.351475" lon="9.054515"><ele>102.0</ele><time>2026-04-18T09:42:20.987Z</time></trkpt><trkpt lat="45.3514583" lon="9.0546217"><ele>102.0</ele><time>2026-04-18T09:42:21.987Z</time></trkpt><trkpt lat="45.3514217" lon="9.0547067"><ele>102.0</ele><time>2026-04-18T09:42:22.987Z</time></trkpt><trkpt lat="45.35136" lon="9.0547667"><ele>102.0</ele><time>2026-04-18T09:42:23.987Z</time></trkpt><trkpt lat="45.351255" lon="9.0547933"><ele>102.0</ele><time>2026-04-18T09:42:24.987Z</time></trkpt><trkpt lat="45.3511333" lon="9.0548133"><ele>102.0</ele><time>2026-04-18T09:42:25.987Z</time></trkpt><trkpt lat="45.35101" lon="9.0548467"><ele>101.5</ele><time>2026-04-18T09:42:26.987Z</time></trkpt><trkpt lat="45.35088" lon="9.0548783"><ele>101.0</ele><time>2026-04-18T09:42:27.987Z</time></trkpt><trkpt lat="45.35074" lon="9.05491"><ele>100.5</ele><time>2026-04-18T09:42:28.987Z</time></trkpt><trkpt lat="45.3506" lon="9.0549517"><ele>100.0</ele><time>2026-04-18T09:42:29.987Z</time></trkpt><trkpt lat="45.3504617" lon="9.0550117"><ele>100.0</ele><time>2026-04-18T09:42:30.987Z</time></trkpt><trkpt lat="45.35033" lon="9.0550617"><ele>100.0</ele><time>2026-04-18T09:42:31.987Z</time></trkpt><trkpt lat="45.35019" lon="9.0551117"><ele>100.0</ele><time>2026-04-18T09:42:32.987Z</time></trkpt><trkpt lat="45.35005" lon="9.05516"><ele>100.0</ele><time>2026-04-18T09:42:33.987Z</time></trkpt><trkpt lat="45.34991" lon="9.0552117"><ele>100.0</ele><time>2026-04-18T09:42:34.987Z</time></trkpt><trkpt lat="45.3497767" lon="9.05525"><ele>100.0</ele><time>2026-04-18T09:42:35.987Z</time></trkpt><trkpt lat="45.3496483" lon="9.0552917"><ele>100.0</ele><time>2026-04-18T09:42:36.987Z</time></trkpt><trkpt lat="45.34953" lon="9.0553317"><ele>100.0</ele><time>2026-04-18T09:42:37.987Z</time></trkpt><trkpt lat="45.3494167" lon="9.0553817"><ele>100.5</ele><time>2026-04-18T09:42:38.988Z</time></trkpt><trkpt lat="45.3493117" lon="9.0554283"><ele>101.0</ele><time>2026-04-18T09:42:39.987Z</time></trkpt><trkpt lat="45.3491983" lon="9.0554833"><ele>101.5</ele><time>2026-04-18T09:42:40.987Z</time></trkpt><trkpt lat="45.3490917" lon="9.0555517"><ele>102.0</ele><time>2026-04-18T09:42:41.987Z</time></trkpt><trkpt lat="45.348975" lon="9.0556367"><ele>102.0</ele><time>2026-04-18T09:42:42.987Z</time></trkpt><trkpt lat="45.3488567" lon="9.05573"><ele>102.0</ele><time>2026-04-18T09:42:43.987Z</time></trkpt><trkpt lat="45.34874" lon="9.0558117"><ele>102.0</ele><time>2026-04-18T09:42:44.988Z</time></trkpt><trkpt lat="45.3486133" lon="9.055865"><ele>102.0</ele><time>2026-04-18T09:42:45.987Z</time></trkpt><trkpt lat="45.348485" lon="9.0559217"><ele>102.0</ele><time>2026-04-18T09:42:46.987Z</time></trkpt><trkpt lat="45.34836" lon="9.055985"><ele>102.0</ele><time>2026-04-18T09:42:47.987Z</time></trkpt><trkpt lat="45.34822" lon="9.0560533"><ele>102.0</ele><time>2026-04-18T09:42:48.987Z</time></trkpt><trkpt lat="45.3480867" lon="9.0561217"><ele>102.0</ele><time>2026-04-18T09:42:49.987Z</time></trkpt><trkpt lat="45.3479467" lon="9.056195"><ele>101.66666666666666</ele><time>2026-04-18T09:42:50.987Z</time></trkpt><trkpt lat="45.3478" lon="9.0562683"><ele>101.33333333333333</ele><time>2026-04-18T09:42:51.987Z</time></trkpt><trkpt lat="45.34765" lon="9.0563367"><ele>101.0</ele><time>2026-04-18T09:42:52.988Z</time></trkpt><trkpt lat="45.3474983" lon="9.0563933"><ele>101.0</ele><time>2026-04-18T09:42:53.987Z</time></trkpt><trkpt lat="45.3473467" lon="9.0564567"><ele>101.0</ele><time>2026-04-18T09:42:54.987Z</time></trkpt><trkpt lat="45.3471933" lon="9.0565067"><ele>101.0</ele><time>2026-04-18T09:42:55.987Z</time></trkpt><trkpt lat="45.3470383" lon="9.0565633"><ele>101.33333333333333</ele><time>2026-04-18T09:42:56.987Z</time></trkpt><trkpt lat="45.34687" lon="9.056625"><ele>101.66666666666666</ele><time>2026-04-18T09:42:57.987Z</time></trkpt><trkpt lat="45.3467" lon="9.0566867"><ele>102.0</ele><time>2026-04-18T09:42:58.987Z</time></trkpt><trkpt lat="45.34653" lon="9.0567467"><ele>101.33333333333334</ele><time>2026-04-18T09:42:59.987Z</time></trkpt><trkpt lat="45.3463633" lon="9.0568183"><ele>100.66666666666667</ele><time>2026-04-18T09:43:00.988Z</time></trkpt><trkpt lat="45.3462017" lon="9.0568867"><ele>100.0</ele><time>2026-04-18T09:43:01.987Z</time></trkpt><trkpt lat="45.346035" lon="9.0569567"><ele>100.0</ele><time>2026-04-18T09:43:02.987Z</time></trkpt><trkpt lat="45.345875" lon="9.057025"><ele>100.0</ele><time>2026-04-18T09:43:03.987Z</time></trkpt><trkpt lat="45.345715" lon="9.0570883"><ele>100.0</ele><time>2026-04-18T09:43:04.987Z</time></trkpt><trkpt lat="45.345555" lon="9.0571517"><ele>100.33333333333334</ele><time>2026-04-18T09:43:05.987Z</time></trkpt><trkpt lat="45.3454" lon="9.0572067"><ele>100.66666666666666</ele><time>2026-04-18T09:43:06.987Z</time></trkpt><trkpt lat="45.3452367" lon="9.057265"><ele>101.0</ele><time>2026-04-18T09:43:07.987Z</time></trkpt><trkpt lat="45.34508" lon="9.0573283"><ele>101.0</ele><time>2026-04-18T09:43:08.987Z</time></trkpt><trkpt lat="45.3449233" lon="9.0573833"><ele>101.0</ele><time>2026-04-18T09:43:09.987Z</time></trkpt><trkpt lat="45.3447633" lon="9.0574467"><ele>101.0</ele><time>2026-04-18T09:43:10.987Z</time></trkpt><trkpt lat="45.3446117" lon="9.0575183"><ele>101.66666666666666</ele><time>2026-04-18T09:43:11.987Z</time></trkpt><trkpt lat="45.344455" lon="9.0575867"><ele>102.33333333333334</ele><time>2026-04-18T09:43:12.987Z</time></trkpt><trkpt lat="45.3442983" lon="9.0576467"><ele>103.0</ele><time>2026-04-18T09:43:13.987Z</time></trkpt><trkpt lat="45.34413" lon="9.05771"><ele>103.0</ele><time>2026-04-18T09:43:14.987Z</time></trkpt><trkpt lat="45.3439683" lon="9.0577667"><ele>103.0</ele><time>2026-04-18T09:43:15.987Z</time></trkpt><trkpt lat="45.3437983" lon="9.057815"><ele>103.0</ele><time>2026-04-18T09:43:16.987Z</time></trkpt><trkpt lat="45.3436367" lon="9.05787"><ele>102.0</ele><time>2026-04-18T09:43:17.987Z</time></trkpt><trkpt lat="45.3434733" lon="9.057925"><ele>101.0</ele><time>2026-04-18T09:43:18.987Z</time></trkpt><trkpt lat="45.3433133" lon="9.0579783"><ele>100.0</ele><time>2026-04-18T09:43:19.987Z</time></trkpt><trkpt lat="45.3431567" lon="9.0580267"><ele>100.5</ele><time>2026-04-18T09:43:20.987Z</time></trkpt><trkpt lat="45.3430083" lon="9.05807"><ele>101.0</ele><time>2026-04-18T09:43:21.987Z</time></trkpt><trkpt lat="45.3428717" lon="9.0581067"><ele>101.5</ele><time>2026-04-18T09:43:22.987Z</time></trkpt><trkpt lat="45.3427433" lon="9.058145"><ele>102.0</ele><time>2026-04-18T09:43:23.987Z</time></trkpt><trkpt lat="45.3426217" lon="9.0581783"><ele>102.0</ele><time>2026-04-18T09:43:24.987Z</time></trkpt><trkpt lat="45.3425133" lon="9.05821"><ele>102.0</ele><time>2026-04-18T09:43:25.987Z</time></trkpt><trkpt lat="45.3424117" lon="9.0582417"><ele>102.0</ele><time>2026-04-18T09:43:26.987Z</time></trkpt><trkpt lat="45.3423133" lon="9.0582717"><ele>102.0</ele><time>2026-04-18T09:43:27.987Z</time></trkpt><trkpt lat="45.342235" lon="9.0583183"><ele>102.0</ele><time>2026-04-18T09:43:28.987Z</time></trkpt><trkpt lat="45.3421783" lon="9.0583967"><ele>101.8</ele><time>2026-04-18T09:43:29.987Z</time></trkpt><trkpt lat="45.3421483" lon="9.0585067"><ele>101.6</ele><time>2026-04-18T09:43:30.987Z</time></trkpt><trkpt lat="45.3421467" lon="9.0586417"><ele>101.39999999999999</ele><time>2026-04-18T09:43:31.987Z</time></trkpt><trkpt lat="45.3421667" lon="9.0587983"><ele>101.19999999999999</ele><time>2026-04-18T09:43:32.987Z</time></trkpt><trkpt lat="45.3421983" lon="9.0589733"><ele>101.0</ele><time>2026-04-18T09:43:33.987Z</time></trkpt><trkpt lat="45.3422317" lon="9.05914"><ele>101.0</ele><time>2026-04-18T09:43:34.987Z</time></trkpt><trkpt lat="45.3422683" lon="9.0593167"><ele>101.0</ele><time>2026-04-18T09:43:35.987Z</time></trkpt><trkpt lat="45.3423133" lon="9.0594967"><ele>101.0</ele><time>2026-04-18T09:43:36.987Z</time></trkpt><trkpt lat="45.3423567" lon="9.059675"><ele>101.0</ele><time>2026-04-18T09:43:37.987Z</time></trkpt><trkpt lat="45.3424" lon="9.059865"><ele>101.0</ele><time>2026-04-18T09:43:38.987Z</time></trkpt><trkpt lat="45.342435" lon="9.06005"><ele>101.0</ele><time>2026-04-18T09:43:39.987Z</time></trkpt><trkpt lat="45.3424767" lon="9.0602283"><ele>101.0</ele><time>2026-04-18T09:43:40.987Z</time></trkpt><trkpt lat="45.3425133" lon="9.0604167"><ele>101.0</ele><time>2026-04-18T09:43:41.987Z</time></trkpt><trkpt lat="45.3425583" lon="9.0606033"><ele>100.75</ele><time>2026-04-18T09:43:42.987Z</time></trkpt><trkpt lat="45.3425967" lon="9.060785"><ele>100.5</ele><time>2026-04-18T09:43:43.987Z</time></trkpt><trkpt lat="45.3426367" lon="9.0609717"><ele>100.25</ele><time>2026-04-18T09:43:44.987Z</time></trkpt><trkpt lat="45.3426717" lon="9.061155"><ele>100.0</ele><time>2026-04-18T09:43:45.988Z</time></trkpt><trkpt lat="45.3427133" lon="9.061325"><ele>100.0</ele><time>2026-04-18T09:43:46.987Z</time></trkpt><trkpt lat="45.34276" lon="9.0614867"><ele>100.0</ele><time>2026-04-18T09:43:47.987Z</time></trkpt><trkpt lat="45.3428183" lon="9.0616217"><ele>100.0</ele><time>2026-04-18T09:43:48.987Z</time></trkpt><trkpt lat="45.342875" lon="9.0617383"><ele>100.0</ele><time>2026-04-18T09:43:49.988Z</time></trkpt><trkpt lat="45.342915" lon="9.0618483"><ele>100.0</ele><time>2026-04-18T09:43:50.987Z</time></trkpt><trkpt lat="45.3429233" lon="9.0619533"><ele>100.16666666666667</ele><time>2026-04-18T09:43:51.987Z</time></trkpt><trkpt lat="45.3429067" lon="9.06204"><ele>100.33333333333334</ele><time>2026-04-18T09:43:52.987Z</time></trkpt><trkpt lat="45.3428683" lon="9.0621183"><ele>100.5</ele><time>2026-04-18T09:43:53.987Z</time></trkpt><trkpt lat="45.3427933" lon="9.0621733"><ele>100.66666666666666</ele><time>2026-04-18T09:43:54.987Z</time></trkpt><trkpt lat="45.3426917" lon="9.06222"><ele>100.83333333333333</ele><time>2026-04-18T09:43:55.987Z</time></trkpt><trkpt lat="45.3425717" lon="9.0622567"><ele>101.0</ele><time>2026-04-18T09:43:56.987Z</time></trkpt><trkpt lat="45.34245" lon="9.0622833"><ele>101.0</ele><time>2026-04-18T09:43:57.987Z</time></trkpt><trkpt lat="45.342315" lon="9.0623217"><ele>101.0</ele><time>2026-04-18T09:43:58.987Z</time></trkpt><trkpt lat="45.3421767" lon="9.06237"><ele>101.0</ele><time>2026-04-18T09:43:59.987Z</time></trkpt><trkpt lat="45.342035" lon="9.0624167"><ele>101.0</ele><time>2026-04-18T09:44:00.987Z</time></trkpt><trkpt lat="45.341885" lon="9.06247"><ele>100.66666666666666</ele><time>2026-04-18T09:44:01.987Z</time></trkpt><trkpt lat="45.3417283" lon="9.0625267"><ele>100.33333333333334</ele><time>2026-04-18T09:44:02.987Z</time></trkpt><trkpt lat="45.3415633" lon="9.062585"><ele>100.0</ele><time>2026-04-18T09:44:03.987Z</time></trkpt><trkpt lat="45.3414017" lon="9.0626467"><ele>100.0</ele><time>2026-04-18T09:44:04.987Z</time></trkpt><trkpt lat="45.3412333" lon="9.06271"><ele>100.0</ele><time>2026-04-18T09:44:05.987Z</time></trkpt><trkpt lat="45.34106" lon="9.0627667"><ele>100.0</ele><time>2026-04-18T09:44:06.987Z</time></trkpt><trkpt lat="45.340885" lon="9.0628233"><ele>100.0</ele><time>2026-04-18T09:44:07.987Z</time></trkpt><trkpt lat="45.34071" lon="9.06288"><ele>100.0</ele><time>2026-04-18T09:44:08.987Z</time></trkpt><trkpt lat="45.34052" lon="9.0629267"><ele>100.0</ele><time>2026-04-18T09:44:09.987Z</time></trkpt><trkpt lat="45.3403317" lon="9.062985"><ele>100.0</ele><time>2026-04-18T09:44:10.987Z</time></trkpt><trkpt lat="45.3401467" lon="9.063055"><ele>100.0</ele><time>2026-04-18T09:44:11.987Z</time></trkpt><trkpt lat="45.339955" lon="9.0631233"><ele>100.0</ele><time>2026-04-18T09:44:12.987Z</time></trkpt><trkpt lat="45.3397617" lon="9.0632017"><ele>100.0</ele><time>2026-04-18T09:44:13.987Z</time></trkpt><trkpt lat="45.3395733" lon="9.06327"><ele>100.0</ele><time>2026-04-18T09:44:14.987Z</time></trkpt><trkpt lat="45.3393983" lon="9.0633317"><ele>100.0</ele><time>2026-04-18T09:44:15.987Z</time></trkpt><trkpt lat="45.33923" lon="9.063405"><ele>100.0</ele><time>2026-04-18T09:44:16.987Z</time></trkpt><trkpt lat="45.3390683" lon="9.0634983"><ele>100.0</ele><time>2026-04-18T09:44:17.987Z</time></trkpt><trkpt lat="45.3388967" lon="9.063615"><ele>100.0</ele><time>2026-04-18T09:44:18.988Z</time></trkpt><trkpt lat="45.3387317" lon="9.0637283"><ele>100.33333333333334</ele><time>2026-04-18T09:44:19.987Z</time></trkpt><trkpt lat="45.3385617" lon="9.063835"><ele>100.66666666666666</ele><time>2026-04-18T09:44:20.987Z</time></trkpt><trkpt lat="45.3383917" lon="9.063955"><ele>101.0</ele><time>2026-04-18T09:44:21.988Z</time></trkpt><trkpt lat="45.33822" lon="9.06406"><ele>100.33333333333333</ele><time>2026-04-18T09:44:22.987Z</time></trkpt><trkpt lat="45.338045" lon="9.0641617"><ele>99.66666666666666</ele><time>2026-04-18T09:44:23.987Z</time></trkpt><trkpt lat="45.337885" lon="9.0642633"><ele>99.0</ele><time>2026-04-18T09:44:24.987Z</time></trkpt><trkpt lat="45.3377267" lon="9.0643517"><ele>99.0</ele><time>2026-04-18T09:44:25.987Z</time></trkpt><trkpt lat="45.3375517" lon="9.0644283"><ele>99.0</ele><time>2026-04-18T09:44:26.987Z</time></trkpt><trkpt lat="45.3373667" lon="9.0644983"><ele>99.0</ele><time>2026-04-18T09:44:27.987Z</time></trkpt><trkpt lat="45.33718" lon="9.0645767"><ele>99.0</ele><time>2026-04-18T09:44:28.987Z</time></trkpt><trkpt lat="45.3369967" lon="9.064655"><ele>99.0</ele><time>2026-04-18T09:44:29.987Z</time></trkpt><trkpt lat="45.336815" lon="9.0647317"><ele>99.0</ele><time>2026-04-18T09:44:30.988Z</time></trkpt><trkpt lat="45.3366283" lon="9.0648117"><ele>99.0</ele><time>2026-04-18T09:44:31.987Z</time></trkpt><trkpt lat="45.3364417" lon="9.0648933"><ele>99.0</ele><time>2026-04-18T09:44:32.987Z</time></trkpt><trkpt lat="45.33625" lon="9.064985"><ele>99.0</ele><time>2026-04-18T09:44:33.987Z</time></trkpt><trkpt lat="45.3360617" lon="9.0650683"><ele>99.0</ele><time>2026-04-18T09:44:34.987Z</time></trkpt><trkpt lat="45.33588" lon="9.06514"><ele>99.0</ele><time>2026-04-18T09:44:35.987Z</time></trkpt><trkpt lat="45.3357017" lon="9.0652217"><ele>99.0</ele><time>2026-04-18T09:44:36.987Z</time></trkpt><trkpt lat="45.3355283" lon="9.0652917"><ele>99.0</ele><time>2026-04-18T09:44:37.987Z</time></trkpt><trkpt lat="45.335365" lon="9.0653633"><ele>99.0</ele><time>2026-04-18T09:44:38.987Z</time></trkpt><trkpt lat="45.335215" lon="9.065435"><ele>99.0</ele><time>2026-04-18T09:44:39.988Z</time></trkpt><trkpt lat="45.3350833" lon="9.0654917"><ele>99.0</ele><time>2026-04-18T09:44:40.987Z</time></trkpt><trkpt lat="45.3349567" lon="9.0655467"><ele>99.0</ele><time>2026-04-18T09:44:41.987Z</time></trkpt><trkpt lat="45.3348383" lon="9.0656"><ele>99.0</ele><time>2026-04-18T09:44:42.987Z</time></trkpt><trkpt lat="45.3347333" lon="9.0656433"><ele>99.0</ele><time>2026-04-18T09:44:43.987Z</time></trkpt><trkpt lat="45.334645" lon="9.0656867"><ele>99.0</ele><time>2026-04-18T09:44:44.987Z</time></trkpt><trkpt lat="45.3345517" lon="9.0657183"><ele>99.0</ele><time>2026-04-18T09:44:45.987Z</time></trkpt><trkpt lat="45.3344633" lon="9.0657517"><ele>99.0</ele><time>2026-04-18T09:44:46.987Z</time></trkpt><trkpt lat="45.3343667" lon="9.065795"><ele>99.0</ele><time>2026-04-18T09:44:47.987Z</time></trkpt><trkpt lat="45.3342683" lon="9.0658233"><ele>99.0</ele><time>2026-04-18T09:44:48.987Z</time></trkpt><trkpt lat="45.3341617" lon="9.0658633"><ele>99.0</ele><time>2026-04-18T09:44:49.987Z</time></trkpt><trkpt lat="45.3340667" lon="9.065905"><ele>99.0</ele><time>2026-04-18T09:44:50.987Z</time></trkpt><trkpt lat="45.3339667" lon="9.0659467"><ele>99.0</ele><time>2026-04-18T09:44:51.987Z</time></trkpt><trkpt lat="45.3338733" lon="9.06599"><ele>99.0</ele><time>2026-04-18T09:44:52.987Z</time></trkpt><trkpt lat="45.3337733" lon="9.06603"><ele>99.0</ele><time>2026-04-18T09:44:53.988Z</time></trkpt><trkpt lat="45.3336783" lon="9.0660717"><ele>99.0</ele><time>2026-04-18T09:44:54.987Z</time></trkpt><trkpt lat="45.33359" lon="9.0661067"><ele>99.0</ele><time>2026-04-18T09:44:55.988Z</time></trkpt><trkpt lat="45.3335117" lon="9.0661383"><ele>99.0</ele><time>2026-04-18T09:44:56.987Z</time></trkpt><trkpt lat="45.33344" lon="9.0661667"><ele>99.0</ele><time>2026-04-18T09:44:57.987Z</time></trkpt><trkpt lat="45.3333783" lon="9.0661883"><ele>99.0</ele><time>2026-04-18T09:44:58.987Z</time></trkpt><trkpt lat="45.3333133" lon="9.0662033"><ele>99.0</ele><time>2026-04-18T09:44:59.987Z</time></trkpt><trkpt lat="45.3332017" lon="9.0662167"><ele>99.0</ele><time>2026-04-18T09:45:01.987Z</time></trkpt><trkpt lat="45.3331317" lon="9.0661883"><ele>99.0</ele><time>2026-04-18T09:45:03.987Z</time></trkpt><trkpt lat="45.3330867" lon="9.06609"><ele>99.0</ele><time>2026-04-18T09:45:09.987Z</time></trkpt><trkpt lat="45.3330783" lon="9.0659267"><ele>99.0</ele><time>2026-04-18T09:45:11.987Z</time></trkpt><trkpt lat="45.33308" lon="9.0658"><ele>99.0</ele><time>2026-04-18T09:45:12.987Z</time></trkpt><trkpt lat="45.3330767" lon="9.0656583"><ele>99.25</ele><time>2026-04-18T09:45:13.987Z</time></trkpt><trkpt lat="45.3330783" lon="9.0655067"><ele>99.5</ele><time>2026-04-18T09:45:14.987Z</time></trkpt><trkpt lat="45.33307" lon="9.0653367"><ele>99.75</ele><time>2026-04-18T09:45:15.987Z</time></trkpt><trkpt lat="45.3330733" lon="9.0651633"><ele>100.0</ele><time>2026-04-18T09:45:16.987Z</time></trkpt><trkpt lat="45.333075" lon="9.0649717"><ele>100.0</ele><time>2026-04-18T09:45:17.987Z</time></trkpt><trkpt lat="45.3330733" lon="9.0647583"><ele>100.0</ele><time>2026-04-18T09:45:18.987Z</time></trkpt><trkpt lat="45.3330733" lon="9.06454"><ele>100.0</ele><time>2026-04-18T09:45:19.987Z</time></trkpt><trkpt lat="45.333065" lon="9.064315"><ele>99.33333333333334</ele><time>2026-04-18T09:45:20.987Z</time></trkpt><trkpt lat="45.33306" lon="9.0640783"><ele>98.66666666666666</ele><time>2026-04-18T09:45:21.987Z</time></trkpt><trkpt lat="45.3330633" lon="9.0638283"><ele>98.0</ele><time>2026-04-18T09:45:22.987Z</time></trkpt><trkpt lat="45.33306" lon="9.06359"><ele>98.66666666666666</ele><time>2026-04-18T09:45:23.987Z</time></trkpt><trkpt lat="45.3330517" lon="9.0633517"><ele>99.33333333333334</ele><time>2026-04-18T09:45:24.987Z</time></trkpt><trkpt lat="45.3330433" lon="9.06311"><ele>100.0</ele><time>2026-04-18T09:45:25.987Z</time></trkpt><trkpt lat="45.3330317" lon="9.0628683"><ele>100.0</ele><time>2026-04-18T09:45:26.987Z</time></trkpt><trkpt lat="45.3329983" lon="9.062625"><ele>100.0</ele><time>2026-04-18T09:45:27.987Z</time></trkpt><trkpt lat="45.3329567" lon="9.062385"><ele>100.0</ele><time>2026-04-18T09:45:28.987Z</time></trkpt><trkpt lat="45.33291" lon="9.06213"><ele>100.0</ele><time>2026-04-18T09:45:29.987Z</time></trkpt><trkpt lat="45.3328717" lon="9.0618683"><ele>100.0</ele><time>2026-04-18T09:45:30.987Z</time></trkpt><trkpt lat="45.33282" lon="9.0616233"><ele>100.0</ele><time>2026-04-18T09:45:31.987Z</time></trkpt><trkpt lat="45.33277" lon="9.061365"><ele>100.0</ele><time>2026-04-18T09:45:32.987Z</time></trkpt><trkpt lat="45.3327233" lon="9.061105"><ele>100.0</ele><time>2026-04-18T09:45:33.987Z</time></trkpt><trkpt lat="45.3326717" lon="9.060835"><ele>100.0</ele><time>2026-04-18T09:45:34.987Z</time></trkpt><trkpt lat="45.3326267" lon="9.0605583"><ele>100.0</ele><time>2026-04-18T09:45:35.987Z</time></trkpt><trkpt lat="45.332585" lon="9.0602817"><ele>100.0</ele><time>2026-04-18T09:45:36.987Z</time></trkpt><trkpt lat="45.3325433" lon="9.0600117"><ele>100.0</ele><time>2026-04-18T09:45:37.987Z</time></trkpt><trkpt lat="45.3324983" lon="9.05974"><ele>99.66666666666667</ele><time>2026-04-18T09:45:38.987Z</time></trkpt><trkpt lat="45.3324717" lon="9.0594633"><ele>99.33333333333334</ele><time>2026-04-18T09:45:39.987Z</time></trkpt><trkpt lat="45.332435" lon="9.0591917"><ele>99.0</ele><time>2026-04-18T09:45:40.988Z</time></trkpt><trkpt lat="45.3324017" lon="9.0589167"><ele>98.66666666666666</ele><time>2026-04-18T09:45:41.987Z</time></trkpt><trkpt lat="45.3323683" lon="9.0586483"><ele>98.33333333333333</ele><time>2026-04-18T09:45:42.987Z</time></trkpt><trkpt lat="45.33233" lon="9.0584"><ele>98.0</ele><time>2026-04-18T09:45:43.987Z</time></trkpt><trkpt lat="45.33227" lon="9.0581617"><ele>98.0</ele><time>2026-04-18T09:45:44.987Z</time></trkpt><trkpt lat="45.3321933" lon="9.0579483"><ele>98.0</ele><time>2026-04-18T09:45:45.987Z</time></trkpt><trkpt lat="45.3321033" lon="9.0577417"><ele>98.0</ele><time>2026-04-18T09:45:46.987Z</time></trkpt><trkpt lat="45.3320217" lon="9.057535"><ele>98.66666666666666</ele><time>2026-04-18T09:45:47.987Z</time></trkpt><trkpt lat="45.33195" lon="9.0573233"><ele>99.33333333333334</ele><time>2026-04-18T09:45:48.987Z</time></trkpt><trkpt lat="45.3319" lon="9.0570883"><ele>100.0</ele><time>2026-04-18T09:45:49.987Z</time></trkpt><trkpt lat="45.3318767" lon="9.0568317"><ele>101.33333333333334</ele><time>2026-04-18T09:45:50.987Z</time></trkpt><trkpt lat="45.331875" lon="9.0565667"><ele>102.66666666666666</ele><time>2026-04-18T09:45:51.987Z</time></trkpt><trkpt lat="45.3318783" lon="9.0563"><ele>104.0</ele><time>2026-04-18T09:45:52.987Z</time></trkpt><trkpt lat="45.3318717" lon="9.0560333"><ele>104.0</ele><time>2026-04-18T09:45:53.987Z</time></trkpt><trkpt lat="45.3318633" lon="9.0557683"><ele>104.0</ele><time>2026-04-18T09:45:54.987Z</time></trkpt><trkpt lat="45.33185" lon="9.0555067"><ele>104.0</ele><time>2026-04-18T09:45:55.987Z</time></trkpt><trkpt lat="45.3318433" lon="9.0552567"><ele>104.0</ele><time>2026-04-18T09:45:56.987Z</time></trkpt><trkpt lat="45.3318383" lon="9.055015"><ele>104.0</ele><time>2026-04-18T09:45:57.987Z</time></trkpt><trkpt lat="45.3318333" lon="9.05479"><ele>104.0</ele><time>2026-04-18T09:45:58.987Z</time></trkpt><trkpt lat="45.3318217" lon="9.0545633"><ele>103.0</ele><time>2026-04-18T09:45:59.987Z</time></trkpt><trkpt lat="45.3317917" lon="9.0543367"><ele>102.0</ele><time>2026-04-18T09:46:00.987Z</time></trkpt><trkpt lat="45.3317367" lon="9.054115"><ele>101.0</ele><time>2026-04-18T09:46:01.987Z</time></trkpt><trkpt lat="45.33167" lon="9.0538917"><ele>101.0</ele><time>2026-04-18T09:46:02.987Z</time></trkpt><trkpt lat="45.3315917" lon="9.05367"><ele>101.0</ele><time>2026-04-18T09:46:03.988Z</time></trkpt><trkpt lat="45.3315167" lon="9.0534517"><ele>101.0</ele><time>2026-04-18T09:46:04.987Z</time></trkpt><trkpt lat="45.3314417" lon="9.0532333"><ele>101.0</ele><time>2026-04-18T09:46:05.987Z</time></trkpt><trkpt lat="45.3313783" lon="9.0530333"><ele>101.0</ele><time>2026-04-18T09:46:06.987Z</time></trkpt><trkpt lat="45.3313217" lon="9.052845"><ele>101.0</ele><time>2026-04-18T09:46:07.987Z</time></trkpt><trkpt lat="45.3312717" lon="9.0526617"><ele>101.0</ele><time>2026-04-18T09:46:08.987Z</time></trkpt><trkpt lat="45.331235" lon="9.0524983"><ele>101.16666666666666</ele><time>2026-04-18T09:46:09.987Z</time></trkpt><trkpt lat="45.33123" lon="9.0523417"><ele>101.33333333333333</ele><time>2026-04-18T09:46:10.987Z</time></trkpt><trkpt lat="45.3312383" lon="9.052215"><ele>101.5</ele><time>2026-04-18T09:46:11.987Z</time></trkpt><trkpt lat="45.33125" lon="9.0521067"><ele>101.66666666666666</ele><time>2026-04-18T09:46:12.987Z</time></trkpt><trkpt lat="45.331265" lon="9.0520017"><ele>101.83333333333333</ele><time>2026-04-18T09:46:13.988Z</time></trkpt><trkpt lat="45.331275" lon="9.0518983"><ele>102.0</ele><time>2026-04-18T09:46:14.987Z</time></trkpt><trkpt lat="45.3312833" lon="9.0517833"><ele>102.0</ele><time>2026-04-18T09:46:15.987Z</time></trkpt><trkpt lat="45.331295" lon="9.0516533"><ele>102.0</ele><time>2026-04-18T09:46:16.987Z</time></trkpt><trkpt lat="45.331315" lon="9.0515117"><ele>102.0</ele><time>2026-04-18T09:46:17.987Z</time></trkpt><trkpt lat="45.33135" lon="9.0513617"><ele>102.0</ele><time>2026-04-18T09:46:18.987Z</time></trkpt><trkpt lat="45.3313983" lon="9.051205"><ele>102.0</ele><time>2026-04-18T09:46:19.987Z</time></trkpt><trkpt lat="45.3314617" lon="9.05104"><ele>102.0</ele><time>2026-04-18T09:46:20.987Z</time></trkpt><trkpt lat="45.3315317" lon="9.0508867"><ele>102.0</ele><time>2026-04-18T09:46:21.987Z</time></trkpt><trkpt lat="45.3316067" lon="9.0507317"><ele>102.0</ele><time>2026-04-18T09:46:22.987Z</time></trkpt><trkpt lat="45.331685" lon="9.0505717"><ele>102.0</ele><time>2026-04-18T09:46:23.987Z</time></trkpt><trkpt lat="45.3317683" lon="9.0504133"><ele>102.0</ele><time>2026-04-18T09:46:24.987Z</time></trkpt><trkpt lat="45.33184" lon="9.0502583"><ele>102.0</ele><time>2026-04-18T09:46:25.987Z</time></trkpt><trkpt lat="45.3319133" lon="9.0501117"><ele>102.0</ele><time>2026-04-18T09:46:26.988Z</time></trkpt><trkpt lat="45.331975" lon="9.049975"><ele>102.0</ele><time>2026-04-18T09:46:27.987Z</time></trkpt><trkpt lat="45.3320317" lon="9.0498517"><ele>101.8</ele><time>2026-04-18T09:46:28.987Z</time></trkpt><trkpt lat="45.3321" lon="9.04972"><ele>101.6</ele><time>2026-04-18T09:46:29.987Z</time></trkpt><trkpt lat="45.3321617" lon="9.0495983"><ele>101.39999999999999</ele><time>2026-04-18T09:46:30.988Z</time></trkpt><trkpt lat="45.332225" lon="9.0494767"><ele>101.19999999999999</ele><time>2026-04-18T09:46:31.987Z</time></trkpt><trkpt lat="45.3322983" lon="9.0493667"><ele>101.0</ele><time>2026-04-18T09:46:32.987Z</time></trkpt><trkpt lat="45.3323767" lon="9.0492683"><ele>100.99999999999999</ele><time>2026-04-18T09:46:33.987Z</time></trkpt><trkpt lat="45.3324467" lon="9.0491667"><ele>101.0</ele><time>2026-04-18T09:46:34.987Z</time></trkpt><trkpt lat="45.3325067" lon="9.0490683"><ele>101.0</ele><time>2026-04-18T09:46:35.987Z</time></trkpt><trkpt lat="45.33257" lon="9.0489867"><ele>101.0</ele><time>2026-04-18T09:46:36.987Z</time></trkpt><trkpt lat="45.332615" lon="9.0489133"><ele>100.99999999999999</ele><time>2026-04-18T09:46:37.987Z</time></trkpt><trkpt lat="45.3326667" lon="9.04885"><ele>101.0</ele><time>2026-04-18T09:46:38.987Z</time></trkpt><trkpt lat="45.3327483" lon="9.048735"><ele>100.99999999999999</ele><time>2026-04-18T09:46:40.987Z</time></trkpt><trkpt lat="45.3328683" lon="9.048645"><ele>101.0</ele><time>2026-04-18T09:46:42.987Z</time></trkpt><trkpt lat="45.332935" lon="9.048605"><ele>101.0</ele><time>2026-04-18T09:46:43.987Z</time></trkpt><trkpt lat="45.3330333" lon="9.0485383"><ele>101.0</ele><time>2026-04-18T09:46:45.987Z</time></trkpt><trkpt lat="45.3330933" lon="9.04851"><ele>100.99999999999999</ele><time>2026-04-18T09:46:47.987Z</time></trkpt><trkpt lat="45.3331517" lon="9.048475"><ele>101.0</ele><time>2026-04-18T09:47:11.987Z</time></trkpt><trkpt lat="45.3332767" lon="9.0484"><ele>101.4</ele><time>2026-04-18T09:47:13.987Z</time></trkpt><trkpt lat="45.333365" lon="9.0483583"><ele>101.8</ele><time>2026-04-18T09:47:14.987Z</time></trkpt><trkpt lat="45.3334567" lon="9.0483117"><ele>102.2</ele><time>2026-04-18T09:47:15.987Z</time></trkpt><trkpt lat="45.3335533" lon="9.0482683"><ele>102.60000000000001</ele><time>2026-04-18T09:47:16.987Z</time></trkpt><trkpt lat="45.3336667" lon="9.0482117"><ele>103.0</ele><time>2026-04-18T09:47:17.988Z</time></trkpt><trkpt lat="45.3338033" lon="9.0481517"><ele>102.33333333333334</ele><time>2026-04-18T09:47:18.987Z</time></trkpt><trkpt lat="45.3339433" lon="9.0480983"><ele>101.66666666666666</ele><time>2026-04-18T09:47:19.987Z</time></trkpt><trkpt lat="45.3340933" lon="9.0480417"><ele>101.0</ele><time>2026-04-18T09:47:20.987Z</time></trkpt><trkpt lat="45.33424" lon="9.0479567"><ele>101.0</ele><time>2026-04-18T09:47:21.987Z</time></trkpt><trkpt lat="45.3343983" lon="9.0478783"><ele>101.0</ele><time>2026-04-18T09:47:22.987Z</time></trkpt><trkpt lat="45.3345667" lon="9.0477917"><ele>101.0</ele><time>2026-04-18T09:47:23.987Z</time></trkpt><trkpt lat="45.3347283" lon="9.047715"><ele>101.0</ele><time>2026-04-18T09:47:24.987Z</time></trkpt><trkpt lat="45.3348983" lon="9.0476333"><ele>101.0</ele><time>2026-04-18T09:47:25.987Z</time></trkpt><trkpt lat="45.3350567" lon="9.0475467"><ele>101.0</ele><time>2026-04-18T09:47:26.987Z</time></trkpt><trkpt lat="45.3352267" lon="9.0474567"><ele>101.0</ele><time>2026-04-18T09:47:27.987Z</time></trkpt><trkpt lat="45.3353817" lon="9.0473717"><ele>101.0</ele><time>2026-04-18T09:47:28.987Z</time></trkpt><trkpt lat="45.3355517" lon="9.0472917"><ele>101.0</ele><time>2026-04-18T09:47:29.987Z</time></trkpt><trkpt lat="45.33571" lon="9.04721"><ele>101.0</ele><time>2026-04-18T09:47:30.987Z</time></trkpt><trkpt lat="45.3358817" lon="9.04713"><ele>101.0</ele><time>2026-04-18T09:47:31.987Z</time></trkpt><trkpt lat="45.3360583" lon="9.0470383"><ele>101.0</ele><time>2026-04-18T09:47:32.987Z</time></trkpt><trkpt lat="45.3362167" lon="9.0469417"><ele>101.0</ele><time>2026-04-18T09:47:33.987Z</time></trkpt><trkpt lat="45.33638" lon="9.0468533"><ele>101.0</ele><time>2026-04-18T09:47:34.987Z</time></trkpt><trkpt lat="45.3365617" lon="9.0467767"><ele>101.0</ele><time>2026-04-18T09:47:35.987Z</time></trkpt><trkpt lat="45.3367317" lon="9.046695"><ele>100.66666666666666</ele><time>2026-04-18T09:47:36.987Z</time></trkpt><trkpt lat="45.3368917" lon="9.0466"><ele>100.33333333333334</ele><time>2026-04-18T09:47:37.988Z</time></trkpt><trkpt lat="45.3370533" lon="9.0465117"><ele>100.0</ele><time>2026-04-18T09:47:38.987Z</time></trkpt><trkpt lat="45.3372317" lon="9.0464217"><ele>99.66666666666667</ele><time>2026-04-18T09:47:39.987Z</time></trkpt><trkpt lat="45.337405" lon="9.046345"><ele>99.33333333333334</ele><time>2026-04-18T09:47:40.987Z</time></trkpt><trkpt lat="45.3375783" lon="9.0462383"><ele>99.0</ele><time>2026-04-18T09:47:41.987Z</time></trkpt><trkpt lat="45.3377333" lon="9.0461383"><ele>99.0</ele><time>2026-04-18T09:47:42.987Z</time></trkpt><trkpt lat="45.337895" lon="9.0460083"><ele>99.0</ele><time>2026-04-18T09:47:43.987Z</time></trkpt><trkpt lat="45.33805" lon="9.0458583"><ele>99.0</ele><time>2026-04-18T09:47:44.988Z</time></trkpt><trkpt lat="45.3381867" lon="9.0456817"><ele>100.33333333333334</ele><time>2026-04-18T09:47:45.987Z</time></trkpt><trkpt lat="45.3383167" lon="9.0454983"><ele>101.66666666666667</ele><time>2026-04-18T09:47:46.987Z</time></trkpt><trkpt lat="45.3384533" lon="9.0453067"><ele>103.0</ele><time>2026-04-18T09:47:47.987Z</time></trkpt><trkpt lat="45.3385917" lon="9.045105"><ele>102.66666666666667</ele><time>2026-04-18T09:47:48.987Z</time></trkpt><trkpt lat="45.3387267" lon="9.0449117"><ele>102.33333333333334</ele><time>2026-04-18T09:47:49.987Z</time></trkpt><trkpt lat="45.33886" lon="9.0447183"><ele>102.0</ele><time>2026-04-18T09:47:50.987Z</time></trkpt><trkpt lat="45.3389933" lon="9.0445267"><ele>102.0</ele><time>2026-04-18T09:47:51.987Z</time></trkpt><trkpt lat="45.3391283" lon="9.0443333"><ele>102.0</ele><time>2026-04-18T09:47:52.987Z</time></trkpt><trkpt lat="45.3392667" lon="9.044135"><ele>102.0</ele><time>2026-04-18T09:47:53.987Z</time></trkpt><trkpt lat="45.3394083" lon="9.04394"><ele>102.33333333333334</ele><time>2026-04-18T09:47:54.988Z</time></trkpt><trkpt lat="45.3395517" lon="9.0437467"><ele>102.66666666666667</ele><time>2026-04-18T09:47:55.987Z</time></trkpt><trkpt lat="45.3396883" lon="9.0435483"><ele>103.0</ele><time>2026-04-18T09:47:56.987Z</time></trkpt><trkpt lat="45.33983" lon="9.0433483"><ele>102.33333333333334</ele><time>2026-04-18T09:47:57.987Z</time></trkpt><trkpt lat="45.3399783" lon="9.0431517"><ele>101.66666666666666</ele><time>2026-04-18T09:47:58.987Z</time></trkpt><trkpt lat="45.34012" lon="9.0429517"><ele>101.0</ele><time>2026-04-18T09:47:59.988Z</time></trkpt><trkpt lat="45.340255" lon="9.042745"><ele>101.0</ele><time>2026-04-18T09:48:00.987Z</time></trkpt><trkpt lat="45.3404" lon="9.0425433"><ele>101.0</ele><time>2026-04-18T09:48:01.987Z</time></trkpt><trkpt lat="45.34055" lon="9.0423317"><ele>101.0</ele><time>2026-04-18T09:48:02.987Z</time></trkpt><trkpt lat="45.340685" lon="9.0421233"><ele>101.33333333333333</ele><time>2026-04-18T09:48:03.987Z</time></trkpt><trkpt lat="45.3408367" lon="9.0419167"><ele>101.66666666666666</ele><time>2026-04-18T09:48:04.987Z</time></trkpt><trkpt lat="45.3409833" lon="9.041705"><ele>102.0</ele><time>2026-04-18T09:48:05.987Z</time></trkpt><trkpt lat="45.3411233" lon="9.0414967"><ele>102.0</ele><time>2026-04-18T09:48:06.987Z</time></trkpt><trkpt lat="45.341275" lon="9.041295"><ele>102.0</ele><time>2026-04-18T09:48:07.987Z</time></trkpt><trkpt lat="45.3414183" lon="9.0410967"><ele>102.0</ele><time>2026-04-18T09:48:08.987Z</time></trkpt><trkpt lat="45.3415617" lon="9.040895"><ele>102.33333333333334</ele><time>2026-04-18T09:48:09.987Z</time></trkpt><trkpt lat="45.3417017" lon="9.0406933"><ele>102.66666666666667</ele><time>2026-04-18T09:48:10.987Z</time></trkpt><trkpt lat="45.3418417" lon="9.0404917"><ele>103.0</ele><time>2026-04-18T09:48:11.987Z</time></trkpt><trkpt lat="45.3419917" lon="9.0402933"><ele>103.0</ele><time>2026-04-18T09:48:12.988Z</time></trkpt><trkpt lat="45.3421383" lon="9.040085"><ele>103.0</ele><time>2026-04-18T09:48:13.987Z</time></trkpt><trkpt lat="45.3422783" lon="9.0398833"><ele>103.0</ele><time>2026-04-18T09:48:14.988Z</time></trkpt><trkpt lat="45.342425" lon="9.0396817"><ele>102.66666666666667</ele><time>2026-04-18T09:48:15.987Z</time></trkpt><trkpt lat="45.3425617" lon="9.039485"><ele>102.33333333333334</ele><time>2026-04-18T09:48:16.987Z</time></trkpt><trkpt lat="45.3427083" lon="9.03928"><ele>102.0</ele><time>2026-04-18T09:48:17.987Z</time></trkpt><trkpt lat="45.3428567" lon="9.0390733"><ele>102.0</ele><time>2026-04-18T09:48:18.987Z</time></trkpt><trkpt lat="45.343005" lon="9.0388733"><ele>102.0</ele><time>2026-04-18T09:48:19.987Z</time></trkpt><trkpt lat="45.3431417" lon="9.0386717"><ele>102.0</ele><time>2026-04-18T09:48:20.987Z</time></trkpt><trkpt lat="45.3432767" lon="9.0384717"><ele>102.0</ele><time>2026-04-18T09:48:21.987Z</time></trkpt><trkpt lat="45.3434117" lon="9.0382667"><ele>102.0</ele><time>2026-04-18T09:48:22.987Z</time></trkpt><trkpt lat="45.3435517" lon="9.0380667"><ele>102.0</ele><time>2026-04-18T09:48:23.987Z</time></trkpt><trkpt lat="45.3436967" lon="9.0378683"><ele>102.0</ele><time>2026-04-18T09:48:24.987Z</time></trkpt><trkpt lat="45.3438267" lon="9.03767"><ele>102.0</ele><time>2026-04-18T09:48:25.987Z</time></trkpt><trkpt lat="45.3439633" lon="9.03748"><ele>102.0</ele><time>2026-04-18T09:48:26.987Z</time></trkpt><trkpt lat="45.3441067" lon="9.03729"><ele>102.66666666666666</ele><time>2026-04-18T09:48:27.987Z</time></trkpt><trkpt lat="45.344245" lon="9.037095"><ele>103.33333333333333</ele><time>2026-04-18T09:48:28.987Z</time></trkpt><trkpt lat="45.3443833" lon="9.0369017"><ele>104.0</ele><time>2026-04-18T09:48:29.987Z</time></trkpt><trkpt lat="45.344525" lon="9.03671"><ele>103.66666666666666</ele><time>2026-04-18T09:48:30.987Z</time></trkpt><trkpt lat="45.3446633" lon="9.03651"><ele>103.33333333333334</ele><time>2026-04-18T09:48:31.987Z</time></trkpt><trkpt lat="45.3448" lon="9.0363117"><ele>103.0</ele><time>2026-04-18T09:48:32.987Z</time></trkpt><trkpt lat="45.344935" lon="9.0361133"><ele>103.0</ele><time>2026-04-18T09:48:33.987Z</time></trkpt><trkpt lat="45.34507" lon="9.0359233"><ele>103.0</ele><time>2026-04-18T09:48:34.987Z</time></trkpt><trkpt lat="45.3452017" lon="9.0357317"><ele>103.0</ele><time>2026-04-18T09:48:35.987Z</time></trkpt><trkpt lat="45.345335" lon="9.0355483"><ele>103.0</ele><time>2026-04-18T09:48:36.988Z</time></trkpt><trkpt lat="45.3454667" lon="9.0353667"><ele>103.0</ele><time>2026-04-18T09:48:37.987Z</time></trkpt><trkpt lat="45.3455883" lon="9.0351967"><ele>103.0</ele><time>2026-04-18T09:48:38.987Z</time></trkpt><trkpt lat="45.3457017" lon="9.0350433"><ele>103.0</ele><time>2026-04-18T09:48:39.987Z</time></trkpt><trkpt lat="45.3458133" lon="9.0348883"><ele>103.0</ele><time>2026-04-18T09:48:40.987Z</time></trkpt><trkpt lat="45.3459217" lon="9.0347333"><ele>103.0</ele><time>2026-04-18T09:48:41.987Z</time></trkpt><trkpt lat="45.3460167" lon="9.03459"><ele>103.0</ele><time>2026-04-18T09:48:42.987Z</time></trkpt><trkpt lat="45.3461183" lon="9.034455"><ele>103.0</ele><time>2026-04-18T09:48:43.988Z</time></trkpt><trkpt lat="45.3462117" lon="9.0343183"><ele>103.0</ele><time>2026-04-18T09:48:44.987Z</time></trkpt><trkpt lat="45.3462983" lon="9.034195"><ele>103.0</ele><time>2026-04-18T09:48:45.987Z</time></trkpt><trkpt lat="45.3463867" lon="9.034065"><ele>103.0</ele><time>2026-04-18T09:48:46.988Z</time></trkpt><trkpt lat="45.34647" lon="9.0339517"><ele>103.0</ele><time>2026-04-18T09:48:47.987Z</time></trkpt><trkpt lat="45.3465533" lon="9.033845"><ele>103.0</ele><time>2026-04-18T09:48:48.987Z</time></trkpt><trkpt lat="45.3466317" lon="9.0337367"><ele>103.0</ele><time>2026-04-18T09:48:49.987Z</time></trkpt><trkpt lat="45.3467083" lon="9.0336217"><ele>103.0</ele><time>2026-04-18T09:48:50.987Z</time></trkpt><trkpt lat="45.346785" lon="9.033505"><ele>103.0</ele><time>2026-04-18T09:48:51.987Z</time></trkpt><trkpt lat="45.346855" lon="9.0333917"><ele>103.00000000000001</ele><time>2026-04-18T09:48:52.987Z</time></trkpt><trkpt lat="45.346925" lon="9.033285"><ele>103.0</ele><time>2026-04-18T09:48:53.987Z</time></trkpt><trkpt lat="45.3469883" lon="9.0331983"><ele>103.0</ele><time>2026-04-18T09:48:54.987Z</time></trkpt><trkpt lat="45.347045" lon="9.0331333"><ele>103.0</ele><time>2026-04-18T09:48:55.987Z</time></trkpt><trkpt lat="45.3471083" lon="9.0330483"><ele>103.00000000000001</ele><time>2026-04-18T09:48:57.987Z</time></trkpt><trkpt lat="45.347125" lon="9.03293"><ele>103.0</ele><time>2026-04-18T09:49:00.987Z</time></trkpt><trkpt lat="45.347205" lon="9.0328983"><ele>103.0</ele><time>2026-04-18T09:55:47.986Z</time></trkpt><trkpt lat="45.3472633" lon="9.032825"><ele>103.0</ele><time>2026-04-18T09:55:48.987Z</time></trkpt><trkpt lat="45.3473333" lon="9.0327383"><ele>103.0</ele><time>2026-04-18T09:55:49.986Z</time></trkpt><trkpt lat="45.3474033" lon="9.0326467"><ele>103.0</ele><time>2026-04-18T09:55:50.986Z</time></trkpt><trkpt lat="45.3474817" lon="9.0325333"><ele>103.0</ele><time>2026-04-18T09:55:51.986Z</time></trkpt><trkpt lat="45.3475667" lon="9.0324133"><ele>103.25</ele><time>2026-04-18T09:55:52.986Z</time></trkpt><trkpt lat="45.3476567" lon="9.0322867"><ele>103.5</ele><time>2026-04-18T09:55:53.986Z</time></trkpt><trkpt lat="45.3477517" lon="9.0321567"><ele>103.75</ele><time>2026-04-18T09:55:54.986Z</time></trkpt><trkpt lat="45.3478517" lon="9.03201"><ele>104.0</ele><time>2026-04-18T09:55:55.986Z</time></trkpt><trkpt lat="45.34796" lon="9.0318583"><ele>104.0</ele><time>2026-04-18T09:55:56.986Z</time></trkpt><trkpt lat="45.3480683" lon="9.0316967"><ele>104.0</ele><time>2026-04-18T09:55:57.987Z</time></trkpt><trkpt lat="45.3481817" lon="9.031535"><ele>104.0</ele><time>2026-04-18T09:55:58.986Z</time></trkpt><trkpt lat="45.3483" lon="9.031365"><ele>103.66666666666666</ele><time>2026-04-18T09:55:59.986Z</time></trkpt><trkpt lat="45.34842" lon="9.0312017"><ele>103.33333333333334</ele><time>2026-04-18T09:56:00.986Z</time></trkpt><trkpt lat="45.3485417" lon="9.03104"><ele>103.0</ele><time>2026-04-18T09:56:01.986Z</time></trkpt><trkpt lat="45.34866" lon="9.030875"><ele>103.33333333333334</ele><time>2026-04-18T09:56:02.986Z</time></trkpt><trkpt lat="45.3487717" lon="9.030725"><ele>103.66666666666666</ele><time>2026-04-18T09:56:03.986Z</time></trkpt><trkpt lat="45.34888" lon="9.0305717"><ele>104.0</ele><time>2026-04-18T09:56:04.987Z</time></trkpt><trkpt lat="45.348985" lon="9.0304167"><ele>104.33333333333333</ele><time>2026-04-18T09:56:05.987Z</time></trkpt><trkpt lat="45.3491033" lon="9.030265"><ele>104.66666666666666</ele><time>2026-04-18T09:56:06.987Z</time></trkpt><trkpt lat="45.349235" lon="9.0301233"><ele>105.0</ele><time>2026-04-18T09:56:07.986Z</time></trkpt><trkpt lat="45.34938" lon="9.02999"><ele>104.66666666666666</ele><time>2026-04-18T09:56:08.986Z</time></trkpt><trkpt lat="45.3495383" lon="9.02987"><ele>104.33333333333333</ele><time>2026-04-18T09:56:09.986Z</time></trkpt><trkpt lat="45.3497033" lon="9.0297717"><ele>104.0</ele><time>2026-04-18T09:56:10.986Z</time></trkpt><trkpt lat="45.3498733" lon="9.0296817"><ele>104.0</ele><time>2026-04-18T09:56:11.986Z</time></trkpt><trkpt lat="45.35004" lon="9.0296017"><ele>104.0</ele><time>2026-04-18T09:56:12.986Z</time></trkpt><trkpt lat="45.3502117" lon="9.02954"><ele>104.0</ele><time>2026-04-18T09:56:13.986Z</time></trkpt><trkpt lat="45.3503867" lon="9.0294933"><ele>104.33333333333333</ele><time>2026-04-18T09:56:14.986Z</time></trkpt><trkpt lat="45.3505633" lon="9.029465"><ele>104.66666666666666</ele><time>2026-04-18T09:56:15.986Z</time></trkpt><trkpt lat="45.350735" lon="9.0294567"><ele>105.0</ele><time>2026-04-18T09:56:16.986Z</time></trkpt><trkpt lat="45.350915" lon="9.0294517"><ele>105.0</ele><time>2026-04-18T09:56:17.986Z</time></trkpt><trkpt lat="45.3511017" lon="9.029455"><ele>105.0</ele><time>2026-04-18T09:56:18.986Z</time></trkpt><trkpt lat="45.3512883" lon="9.0294483"><ele>105.0</ele><time>2026-04-18T09:56:19.986Z</time></trkpt><trkpt lat="45.3514717" lon="9.029445"><ele>105.0</ele><time>2026-04-18T09:56:20.986Z</time></trkpt><trkpt lat="45.351665" lon="9.029445"><ele>105.0</ele><time>2026-04-18T09:56:21.986Z</time></trkpt><trkpt lat="45.3518533" lon="9.0294433"><ele>105.0</ele><time>2026-04-18T09:56:22.986Z</time></trkpt><trkpt lat="45.35203" lon="9.0294417"><ele>105.0</ele><time>2026-04-18T09:56:23.986Z</time></trkpt><trkpt lat="45.3522" lon="9.0294467"><ele>105.0</ele><time>2026-04-18T09:56:24.986Z</time></trkpt><trkpt lat="45.352365" lon="9.0294533"><ele>105.0</ele><time>2026-04-18T09:56:25.986Z</time></trkpt><trkpt lat="45.352515" lon="9.029455"><ele>104.75</ele><time>2026-04-18T09:56:26.986Z</time></trkpt><trkpt lat="45.3526467" lon="9.02946"><ele>104.5</ele><time>2026-04-18T09:56:27.987Z</time></trkpt><trkpt lat="45.3527617" lon="9.0294667"><ele>104.25</ele><time>2026-04-18T09:56:28.986Z</time></trkpt><trkpt lat="45.35287" lon="9.0294817"><ele>104.0</ele><time>2026-04-18T09:56:29.986Z</time></trkpt><trkpt lat="45.352965" lon="9.0295133"><ele>104.66666666666666</ele><time>2026-04-18T09:56:30.986Z</time></trkpt><trkpt lat="45.3530517" lon="9.0295733"><ele>105.33333333333333</ele><time>2026-04-18T09:56:31.986Z</time></trkpt><trkpt lat="45.35313" lon="9.0296333"><ele>106.0</ele><time>2026-04-18T09:56:32.987Z</time></trkpt><trkpt lat="45.3532083" lon="9.0297083"><ele>106.66666666666666</ele><time>2026-04-18T09:56:33.986Z</time></trkpt><trkpt lat="45.35328" lon="9.029765"><ele>107.33333333333333</ele><time>2026-04-18T09:56:34.987Z</time></trkpt><trkpt lat="45.3533533" lon="9.02979"><ele>108.0</ele><time>2026-04-18T09:56:35.986Z</time></trkpt><trkpt lat="45.3534233" lon="9.02979"><ele>108.0</ele><time>2026-04-18T09:56:36.986Z</time></trkpt><trkpt lat="45.353495" lon="9.0297517"><ele>108.0</ele><time>2026-04-18T09:56:37.986Z</time></trkpt><trkpt lat="45.3535533" lon="9.0296817"><ele>108.0</ele><time>2026-04-18T09:56:38.986Z</time></trkpt><trkpt lat="45.3536017" lon="9.029595"><ele>108.0</ele><time>2026-04-18T09:56:39.986Z</time></trkpt><trkpt lat="45.3536317" lon="9.0294983"><ele>108.0</ele><time>2026-04-18T09:56:40.986Z</time></trkpt><trkpt lat="45.353635" lon="9.0293933"><ele>108.0</ele><time>2026-04-18T09:56:41.986Z</time></trkpt><trkpt lat="45.35362" lon="9.02929"><ele>108.0</ele><time>2026-04-18T09:56:42.986Z</time></trkpt><trkpt lat="45.35358" lon="9.0291867"><ele>108.00000000000001</ele><time>2026-04-18T09:56:43.986Z</time></trkpt><trkpt lat="45.353515" lon="9.029085"><ele>108.00000000000001</ele><time>2026-04-18T09:56:44.987Z</time></trkpt><trkpt lat="45.3534283" lon="9.0289783"><ele>108.0</ele><time>2026-04-18T09:56:45.986Z</time></trkpt><trkpt lat="45.3533433" lon="9.0288417"><ele>108.0</ele><time>2026-04-18T09:56:46.986Z</time></trkpt><trkpt lat="45.3532833" lon="9.0286817"><ele>107.75</ele><time>2026-04-18T09:56:47.986Z</time></trkpt><trkpt lat="45.3532517" lon="9.02852"><ele>107.5</ele><time>2026-04-18T09:56:48.986Z</time></trkpt><trkpt lat="45.3532467" lon="9.0283467"><ele>107.25</ele><time>2026-04-18T09:56:49.986Z</time></trkpt><trkpt lat="45.353255" lon="9.0281617"><ele>107.0</ele><time>2026-04-18T09:56:50.987Z</time></trkpt><trkpt lat="45.3532533" lon="9.0279667"><ele>106.5</ele><time>2026-04-18T09:56:51.986Z</time></trkpt><trkpt lat="45.3532483" lon="9.0277667"><ele>106.0</ele><time>2026-04-18T09:56:52.986Z</time></trkpt><trkpt lat="45.3532483" lon="9.0275767"><ele>105.5</ele><time>2026-04-18T09:56:53.986Z</time></trkpt><trkpt lat="45.3532433" lon="9.02739"><ele>105.0</ele><time>2026-04-18T09:56:54.987Z</time></trkpt><trkpt lat="45.3532417" lon="9.0272067"><ele>105.0</ele><time>2026-04-18T09:56:55.986Z</time></trkpt><trkpt lat="45.353225" lon="9.0270333"><ele>105.0</ele><time>2026-04-18T09:56:56.986Z</time></trkpt><trkpt lat="45.3532083" lon="9.02686"><ele>105.0</ele><time>2026-04-18T09:56:57.986Z</time></trkpt><trkpt lat="45.353185" lon="9.0266933"><ele>105.0</ele><time>2026-04-18T09:56:58.986Z</time></trkpt><trkpt lat="45.3531567" lon="9.02652"><ele>104.75</ele><time>2026-04-18T09:56:59.986Z</time></trkpt><trkpt lat="45.3531283" lon="9.026345"><ele>104.5</ele><time>2026-04-18T09:57:00.986Z</time></trkpt><trkpt lat="45.35311" lon="9.0261817"><ele>104.25</ele><time>2026-04-18T09:57:01.986Z</time></trkpt><trkpt lat="45.3531" lon="9.0260133"><ele>104.0</ele><time>2026-04-18T09:57:02.986Z</time></trkpt><trkpt lat="45.3530917" lon="9.0258383"><ele>103.75</ele><time>2026-04-18T09:57:03.986Z</time></trkpt><trkpt lat="45.3530917" lon="9.025665"><ele>103.5</ele><time>2026-04-18T09:57:04.986Z</time></trkpt><trkpt lat="45.3530967" lon="9.025485"><ele>103.25</ele><time>2026-04-18T09:57:05.986Z</time></trkpt><trkpt lat="45.3531217" lon="9.0253117"><ele>103.0</ele><time>2026-04-18T09:57:06.986Z</time></trkpt><trkpt lat="45.353165" lon="9.0251467"><ele>103.0</ele><time>2026-04-18T09:57:07.986Z</time></trkpt><trkpt lat="45.35321" lon="9.0249967"><ele>103.0</ele><time>2026-04-18T09:57:08.986Z</time></trkpt><trkpt lat="45.3532483" lon="9.0248467"><ele>103.0</ele><time>2026-04-18T09:57:09.986Z</time></trkpt><trkpt lat="45.3532733" lon="9.0247083"><ele>103.0</ele><time>2026-04-18T09:57:10.986Z</time></trkpt><trkpt lat="45.3532817" lon="9.0245767"><ele>103.0</ele><time>2026-04-18T09:57:11.986Z</time></trkpt><trkpt lat="45.3533" lon="9.024465"><ele>103.16666666666667</ele><time>2026-04-18T09:57:12.986Z</time></trkpt><trkpt lat="45.3533133" lon="9.0243333"><ele>103.33333333333334</ele><time>2026-04-18T09:57:14.986Z</time></trkpt><trkpt lat="45.3533517" lon="9.024235"><ele>103.5</ele><time>2026-04-18T09:57:16.986Z</time></trkpt><trkpt lat="45.3534483" lon="9.0241433"><ele>103.66666666666666</ele><time>2026-04-18T09:57:18.986Z</time></trkpt><trkpt lat="45.3535133" lon="9.0241167"><ele>103.83333333333333</ele><time>2026-04-18T09:57:19.986Z</time></trkpt><trkpt lat="45.3535783" lon="9.0240833"><ele>104.0</ele><time>2026-04-18T09:57:20.986Z</time></trkpt><trkpt lat="45.3536267" lon="9.0240233"><ele>104.16666666666666</ele><time>2026-04-18T09:57:21.986Z</time></trkpt><trkpt lat="45.3536567" lon="9.0239417"><ele>104.33333333333333</ele><time>2026-04-18T09:57:22.986Z</time></trkpt><trkpt lat="45.35364" lon="9.023775"><ele>104.5</ele><time>2026-04-18T09:57:24.986Z</time></trkpt><trkpt lat="45.3536033" lon="9.0236833"><ele>104.66666666666666</ele><time>2026-04-18T09:57:25.986Z</time></trkpt><trkpt lat="45.3535617" lon="9.0235733"><ele>104.83333333333333</ele><time>2026-04-18T09:57:26.986Z</time></trkpt><trkpt lat="45.3535217" lon="9.0234533"><ele>105.0</ele><time>2026-04-18T09:57:27.986Z</time></trkpt><trkpt lat="45.353495" lon="9.02333"><ele>105.2</ele><time>2026-04-18T09:57:28.986Z</time></trkpt><trkpt lat="45.3534767" lon="9.0232017"><ele>105.4</ele><time>2026-04-18T09:57:29.986Z</time></trkpt><trkpt lat="45.3534683" lon="9.0230667"><ele>105.6</ele><time>2026-04-18T09:57:30.986Z</time></trkpt><trkpt lat="45.353465" lon="9.0229283"><ele>105.8</ele><time>2026-04-18T09:57:31.986Z</time></trkpt><trkpt lat="45.3534633" lon="9.0227967"><ele>106.0</ele><time>2026-04-18T09:57:32.986Z</time></trkpt><trkpt lat="45.3534617" lon="9.0226667"><ele>106.0</ele><time>2026-04-18T09:57:33.986Z</time></trkpt><trkpt lat="45.35345" lon="9.0225333"><ele>106.0</ele><time>2026-04-18T09:57:34.986Z</time></trkpt><trkpt lat="45.3534433" lon="9.0223883"><ele>106.0</ele><time>2026-04-18T09:57:35.986Z</time></trkpt><trkpt lat="45.3534367" lon="9.0222383"><ele>106.0</ele><time>2026-04-18T09:57:36.986Z</time></trkpt><trkpt lat="45.353425" lon="9.0220867"><ele>106.0</ele><time>2026-04-18T09:57:37.986Z</time></trkpt><trkpt lat="45.3534183" lon="9.0219317"><ele>106.0</ele><time>2026-04-18T09:57:38.986Z</time></trkpt><trkpt lat="45.3534133" lon="9.02178"><ele>106.0</ele><time>2026-04-18T09:57:39.986Z</time></trkpt><trkpt lat="45.3534083" lon="9.0216367"><ele>106.0</ele><time>2026-04-18T09:57:40.986Z</time></trkpt><trkpt lat="45.353405" lon="9.0215133"><ele>106.0</ele><time>2026-04-18T09:57:41.986Z</time></trkpt><trkpt lat="45.3534033" lon="9.02141"><ele>106.0</ele><time>2026-04-18T09:57:42.986Z</time></trkpt><trkpt lat="45.3534017" lon="9.0212833"><ele>105.83333333333334</ele><time>2026-04-18T09:57:44.986Z</time></trkpt><trkpt lat="45.3534033" lon="9.0211617"><ele>105.66666666666667</ele><time>2026-04-18T09:57:46.986Z</time></trkpt><trkpt lat="45.3534133" lon="9.021005"><ele>105.5</ele><time>2026-04-18T09:57:48.986Z</time></trkpt><trkpt lat="45.3534167" lon="9.02091"><ele>105.33333333333334</ele><time>2026-04-18T09:57:49.986Z</time></trkpt><trkpt lat="45.35342" lon="9.02081"><ele>105.16666666666667</ele><time>2026-04-18T09:57:50.986Z</time></trkpt><trkpt lat="45.3534283" lon="9.0207"><ele>105.0</ele><time>2026-04-18T09:57:51.986Z</time></trkpt><trkpt lat="45.3534333" lon="9.0205933"><ele>105.0</ele><time>2026-04-18T09:57:52.986Z</time></trkpt><trkpt lat="45.353435" lon="9.0204267"><ele>105.0</ele><time>2026-04-18T09:57:54.986Z</time></trkpt><trkpt lat="45.3534317" lon="9.0202283"><ele>105.0</ele><time>2026-04-18T09:57:56.986Z</time></trkpt><trkpt lat="45.353435" lon="9.0201"><ele>105.0</ele><time>2026-04-18T09:57:57.986Z</time></trkpt><trkpt lat="45.353445" lon="9.019955"><ele>105.0</ele><time>2026-04-18T09:57:58.986Z</time></trkpt><trkpt lat="45.3534517" lon="9.0198017"><ele>105.0</ele><time>2026-04-18T09:57:59.986Z</time></trkpt><trkpt lat="45.3534617" lon="9.0196533"><ele>105.0</ele><time>2026-04-18T09:58:00.986Z</time></trkpt><trkpt lat="45.353465" lon="9.0195017"><ele>105.0</ele><time>2026-04-18T09:58:01.986Z</time></trkpt><trkpt lat="45.3534683" lon="9.0193517"><ele>105.0</ele><time>2026-04-18T09:58:02.986Z</time></trkpt><trkpt lat="45.353465" lon="9.0192067"><ele>105.0</ele><time>2026-04-18T09:58:03.986Z</time></trkpt><trkpt lat="45.353475" lon="9.019035"><ele>105.0</ele><time>2026-04-18T09:58:04.986Z</time></trkpt><trkpt lat="45.3534833" lon="9.018855"><ele>105.0</ele><time>2026-04-18T09:58:05.986Z</time></trkpt><trkpt lat="45.3534833" lon="9.0186783"><ele>105.0</ele><time>2026-04-18T09:58:06.986Z</time></trkpt><trkpt lat="45.3534633" lon="9.0185017"><ele>105.0</ele><time>2026-04-18T09:58:07.986Z</time></trkpt><trkpt lat="45.3534317" lon="9.01833"><ele>105.25</ele><time>2026-04-18T09:58:08.987Z</time></trkpt><trkpt lat="45.35338" lon="9.0181767"><ele>105.5</ele><time>2026-04-18T09:58:09.987Z</time></trkpt><trkpt lat="45.3533117" lon="9.0180233"><ele>105.75</ele><time>2026-04-18T09:58:10.986Z</time></trkpt><trkpt lat="45.3532433" lon="9.0178667"><ele>106.0</ele><time>2026-04-18T09:58:11.986Z</time></trkpt><trkpt lat="45.3531833" lon="9.0176867"><ele>106.0</ele><time>2026-04-18T09:58:12.986Z</time></trkpt><trkpt lat="45.3531133" lon="9.0175283"><ele>106.0</ele><time>2026-04-18T09:58:13.986Z</time></trkpt><trkpt lat="45.35304" lon="9.017355"><ele>106.0</ele><time>2026-04-18T09:58:14.986Z</time></trkpt><trkpt lat="45.3529683" lon="9.0171967"><ele>106.0</ele><time>2026-04-18T09:58:15.986Z</time></trkpt><trkpt lat="45.35289" lon="9.0170333"><ele>106.0</ele><time>2026-04-18T09:58:16.986Z</time></trkpt><trkpt lat="45.3528167" lon="9.016865"><ele>106.0</ele><time>2026-04-18T09:58:17.986Z</time></trkpt><trkpt lat="45.3527483" lon="9.0167017"><ele>106.0</ele><time>2026-04-18T09:58:18.986Z</time></trkpt><trkpt lat="45.3526717" lon="9.0165417"><ele>106.0</ele><time>2026-04-18T09:58:19.986Z</time></trkpt><trkpt lat="45.3526017" lon="9.0163883"><ele>106.0</ele><time>2026-04-18T09:58:20.987Z</time></trkpt><trkpt lat="45.3525267" lon="9.0162333"><ele>106.0</ele><time>2026-04-18T09:58:21.986Z</time></trkpt><trkpt lat="45.35247" lon="9.0160683"><ele>106.0</ele><time>2026-04-18T09:58:22.986Z</time></trkpt><trkpt lat="45.3524117" lon="9.01592"><ele>106.0</ele><time>2026-04-18T09:58:23.986Z</time></trkpt><trkpt lat="45.352355" lon="9.0157733"><ele>106.0</ele><time>2026-04-18T09:58:24.986Z</time></trkpt><trkpt lat="45.352305" lon="9.0156517"><ele>106.0</ele><time>2026-04-18T09:58:25.986Z</time></trkpt><trkpt lat="45.3522567" lon="9.01554"><ele>106.0</ele><time>2026-04-18T09:58:26.986Z</time></trkpt><trkpt lat="45.3522083" lon="9.0154417"><ele>106.0</ele><time>2026-04-18T09:58:27.986Z</time></trkpt><trkpt lat="45.35217" lon="9.0153467"><ele>106.0</ele><time>2026-04-18T09:58:28.986Z</time></trkpt><trkpt lat="45.3521183" lon="9.0152267"><ele>106.00000000000001</ele><time>2026-04-18T09:58:30.986Z</time></trkpt><trkpt lat="45.3520867" lon="9.0151383"><ele>106.0</ele><time>2026-04-18T09:59:03.986Z</time></trkpt><trkpt lat="45.3520583" lon="9.0149967"><ele>106.0</ele><time>2026-04-18T09:59:05.986Z</time></trkpt><trkpt lat="45.3520517" lon="9.0149067"><ele>106.0</ele><time>2026-04-18T09:59:06.986Z</time></trkpt><trkpt lat="45.3520467" lon="9.0148167"><ele>106.00000000000001</ele><time>2026-04-18T09:59:07.986Z</time></trkpt><trkpt lat="45.3520267" lon="9.014715"><ele>106.0</ele><time>2026-04-18T09:59:09.986Z</time></trkpt><trkpt lat="45.35197" lon="9.0146367"><ele>106.0</ele><time>2026-04-18T10:02:37.985Z</time></trkpt><trkpt lat="45.3519067" lon="9.0145383"><ele>106.0</ele><time>2026-04-18T10:02:39.986Z</time></trkpt><trkpt lat="45.3518417" lon="9.01439"><ele>106.0</ele><time>2026-04-18T10:02:41.985Z</time></trkpt><trkpt lat="45.3518067" lon="9.014295"><ele>106.0</ele><time>2026-04-18T10:02:42.985Z</time></trkpt><trkpt lat="45.35177" lon="9.0141767"><ele>106.0</ele><time>2026-04-18T10:02:43.985Z</time></trkpt><trkpt lat="45.3517183" lon="9.0140517"><ele>105.8</ele><time>2026-04-18T10:02:44.985Z</time></trkpt><trkpt lat="45.35166" lon="9.0139283"><ele>105.6</ele><time>2026-04-18T10:02:45.985Z</time></trkpt><trkpt lat="45.35159" lon="9.013815"><ele>105.4</ele><time>2026-04-18T10:02:46.985Z</time></trkpt><trkpt lat="45.3515083" lon="9.0137283"><ele>105.2</ele><time>2026-04-18T10:02:47.985Z</time></trkpt><trkpt lat="45.3514267" lon="9.0136883"><ele>105.0</ele><time>2026-04-18T10:02:48.985Z</time></trkpt><trkpt lat="45.351335" lon="9.013685"><ele>105.0</ele><time>2026-04-18T10:02:49.985Z</time></trkpt><trkpt lat="45.3512367" lon="9.0137083"><ele>105.0</ele><time>2026-04-18T10:02:50.985Z</time></trkpt><trkpt lat="45.3511267" lon="9.0137283"><ele>105.0</ele><time>2026-04-18T10:02:51.985Z</time></trkpt><trkpt lat="45.3510083" lon="9.013745"><ele>105.0</ele><time>2026-04-18T10:02:52.985Z</time></trkpt><trkpt lat="45.350885" lon="9.0137617"><ele>105.0</ele><time>2026-04-18T10:02:53.985Z</time></trkpt><trkpt lat="45.3507567" lon="9.013765"><ele>105.0</ele><time>2026-04-18T10:02:54.986Z</time></trkpt><trkpt lat="45.3506283" lon="9.0137717"><ele>105.0</ele><time>2026-04-18T10:02:55.985Z</time></trkpt><trkpt lat="45.350505" lon="9.0137817"><ele>105.0</ele><time>2026-04-18T10:02:56.985Z</time></trkpt><trkpt lat="45.35038" lon="9.01379"><ele>105.0</ele><time>2026-04-18T10:02:57.985Z</time></trkpt><trkpt lat="45.3502517" lon="9.0138067"><ele>105.0</ele><time>2026-04-18T10:02:58.985Z</time></trkpt><trkpt lat="45.3501283" lon="9.0138117"><ele>105.0</ele><time>2026-04-18T10:02:59.985Z</time></trkpt><trkpt lat="45.3500033" lon="9.0138"><ele>105.0</ele><time>2026-04-18T10:03:00.985Z</time></trkpt><trkpt lat="45.3498817" lon="9.013795"><ele>105.0</ele><time>2026-04-18T10:03:01.985Z</time></trkpt><trkpt lat="45.3497517" lon="9.01379"><ele>105.0</ele><time>2026-04-18T10:03:02.985Z</time></trkpt><trkpt lat="45.3496233" lon="9.0137933"><ele>105.0</ele><time>2026-04-18T10:03:03.985Z</time></trkpt><trkpt lat="45.3494983" lon="9.01379"><ele>105.0</ele><time>2026-04-18T10:03:04.985Z</time></trkpt><trkpt lat="45.3493783" lon="9.013785"><ele>105.0</ele><time>2026-04-18T10:03:05.985Z</time></trkpt><trkpt lat="45.3492483" lon="9.0137833"><ele>105.0</ele><time>2026-04-18T10:03:06.985Z</time></trkpt><trkpt lat="45.34911" lon="9.0137867"><ele>105.0</ele><time>2026-04-18T10:03:07.985Z</time></trkpt><trkpt lat="45.348975" lon="9.01379"><ele>105.0</ele><time>2026-04-18T10:03:08.986Z</time></trkpt><trkpt lat="45.3488433" lon="9.0138017"><ele>104.75</ele><time>2026-04-18T10:03:09.985Z</time></trkpt><trkpt lat="45.3487133" lon="9.0138233"><ele>104.5</ele><time>2026-04-18T10:03:10.985Z</time></trkpt><trkpt lat="45.3485867" lon="9.0138533"><ele>104.25</ele><time>2026-04-18T10:03:11.985Z</time></trkpt><trkpt lat="45.348465" lon="9.0138767"><ele>104.0</ele><time>2026-04-18T10:03:12.985Z</time></trkpt><trkpt lat="45.3483533" lon="9.0138967"><ele>103.99999999999999</ele><time>2026-04-18T10:03:13.985Z</time></trkpt><trkpt lat="45.3482483" lon="9.0139083"><ele>104.0</ele><time>2026-04-18T10:03:14.986Z</time></trkpt><trkpt lat="45.3481517" lon="9.013925"><ele>104.0</ele><time>2026-04-18T10:03:15.985Z</time></trkpt><trkpt lat="45.3480633" lon="9.01394"><ele>104.0</ele><time>2026-04-18T10:03:16.986Z</time></trkpt><trkpt lat="45.34799" lon="9.01395"><ele>103.99999999999999</ele><time>2026-04-18T10:03:17.985Z</time></trkpt><trkpt lat="45.3479267" lon="9.0139417"><ele>104.0</ele><time>2026-04-18T10:03:18.985Z</time></trkpt><trkpt lat="45.34786" lon="9.0138483"><ele>104.16666666666666</ele><time>2026-04-18T10:03:20.985Z</time></trkpt><trkpt lat="45.34787" lon="9.013745"><ele>104.33333333333333</ele><time>2026-04-18T10:03:21.985Z</time></trkpt><trkpt lat="45.3478917" lon="9.013635"><ele>104.5</ele><time>2026-04-18T10:03:22.985Z</time></trkpt><trkpt lat="45.3479083" lon="9.01352"><ele>104.66666666666666</ele><time>2026-04-18T10:03:23.985Z</time></trkpt><trkpt lat="45.34792" lon="9.0133783"><ele>104.83333333333333</ele><time>2026-04-18T10:03:24.985Z</time></trkpt><trkpt lat="45.34792" lon="9.0132383"><ele>105.0</ele><time>2026-04-18T10:03:25.985Z</time></trkpt><trkpt lat="45.3479183" lon="9.0131"><ele>105.0</ele><time>2026-04-18T10:03:26.985Z</time></trkpt><trkpt lat="45.3479167" lon="9.0129517"><ele>105.0</ele><time>2026-04-18T10:03:27.985Z</time></trkpt><trkpt lat="45.3479133" lon="9.0127933"><ele>105.0</ele><time>2026-04-18T10:03:28.985Z</time></trkpt><trkpt lat="45.3479067" lon="9.0126333"><ele>105.0</ele><time>2026-04-18T10:03:29.985Z</time></trkpt><trkpt lat="45.34789" lon="9.0124717"><ele>105.0</ele><time>2026-04-18T10:03:30.985Z</time></trkpt><trkpt lat="45.347865" lon="9.0123117"><ele>104.75</ele><time>2026-04-18T10:03:31.985Z</time></trkpt><trkpt lat="45.3478183" lon="9.012155"><ele>104.5</ele><time>2026-04-18T10:03:32.985Z</time></trkpt><trkpt lat="45.3477583" lon="9.012025"><ele>104.25</ele><time>2026-04-18T10:03:33.985Z</time></trkpt><trkpt lat="45.3476733" lon="9.0119083"><ele>104.0</ele><time>2026-04-18T10:03:34.985Z</time></trkpt><trkpt lat="45.347595" lon="9.0118133"><ele>104.0</ele><time>2026-04-18T10:03:35.985Z</time></trkpt><trkpt lat="45.3475283" lon="9.0117283"><ele>104.0</ele><time>2026-04-18T10:03:36.985Z</time></trkpt><trkpt lat="45.3474783" lon="9.0116583"><ele>104.0</ele><time>2026-04-18T10:03:37.985Z</time></trkpt><trkpt lat="45.347415" lon="9.0115567"><ele>104.0</ele><time>2026-04-18T10:03:39.985Z</time></trkpt><trkpt lat="45.347305" lon="9.0114833"><ele>104.0</ele><time>2026-04-18T10:04:12.985Z</time></trkpt><trkpt lat="45.3472133" lon="9.011485"><ele>103.75</ele><time>2026-04-18T10:04:13.985Z</time></trkpt><trkpt lat="45.3471067" lon="9.0115033"><ele>103.5</ele><time>2026-04-18T10:04:14.985Z</time></trkpt><trkpt lat="45.3469883" lon="9.0115417"><ele>103.25</ele><time>2026-04-18T10:04:15.985Z</time></trkpt><trkpt lat="45.34686" lon="9.0115767"><ele>103.0</ele><time>2026-04-18T10:04:16.985Z</time></trkpt><trkpt lat="45.346735" lon="9.0116267"><ele>103.0</ele><time>2026-04-18T10:04:17.986Z</time></trkpt><trkpt lat="45.3466067" lon="9.0116817"><ele>103.0</ele><time>2026-04-18T10:04:18.985Z</time></trkpt><trkpt lat="45.3464717" lon="9.0117383"><ele>103.0</ele><time>2026-04-18T10:04:19.985Z</time></trkpt><trkpt lat="45.3463367" lon="9.0117967"><ele>103.0</ele><time>2026-04-18T10:04:20.985Z</time></trkpt><trkpt lat="45.3461983" lon="9.0118467"><ele>103.0</ele><time>2026-04-18T10:04:21.985Z</time></trkpt><trkpt lat="45.3460583" lon="9.0118933"><ele>103.0</ele><time>2026-04-18T10:04:22.985Z</time></trkpt><trkpt lat="45.345915" lon="9.01194"><ele>103.0</ele><time>2026-04-18T10:04:23.985Z</time></trkpt><trkpt lat="45.345775" lon="9.011985"><ele>103.0</ele><time>2026-04-18T10:04:24.985Z</time></trkpt><trkpt lat="45.3456467" lon="9.012015"><ele>103.25</ele><time>2026-04-18T10:04:25.985Z</time></trkpt><trkpt lat="45.3455267" lon="9.012075"><ele>103.5</ele><time>2026-04-18T10:04:26.985Z</time></trkpt><trkpt lat="45.34542" lon="9.0121233"><ele>103.75</ele><time>2026-04-18T10:04:27.985Z</time></trkpt><trkpt lat="45.3453067" lon="9.0121667"><ele>104.0</ele><time>2026-04-18T10:04:28.985Z</time></trkpt><trkpt lat="45.345195" lon="9.0122233"><ele>104.0</ele><time>2026-04-18T10:04:29.985Z</time></trkpt><trkpt lat="45.34509" lon="9.0123"><ele>104.0</ele><time>2026-04-18T10:04:30.985Z</time></trkpt><trkpt lat="45.34499" lon="9.0124"><ele>104.0</ele><time>2026-04-18T10:04:31.985Z</time></trkpt><trkpt lat="45.3448983" lon="9.0125167"><ele>104.0</ele><time>2026-04-18T10:04:32.985Z</time></trkpt><trkpt lat="45.3448267" lon="9.0126567"><ele>104.0</ele><time>2026-04-18T10:04:33.985Z</time></trkpt><trkpt lat="45.3447733" lon="9.01281"><ele>104.0</ele><time>2026-04-18T10:04:34.985Z</time></trkpt><trkpt lat="45.3447367" lon="9.0129817"><ele>104.0</ele><time>2026-04-18T10:04:35.985Z</time></trkpt><trkpt lat="45.344705" lon="9.0131433"><ele>104.0</ele><time>2026-04-18T10:04:36.985Z</time></trkpt><trkpt lat="45.344675" lon="9.0132983"><ele>103.80000000000001</ele><time>2026-04-18T10:04:37.985Z</time></trkpt><trkpt lat="45.3446317" lon="9.0134317"><ele>103.60000000000001</ele><time>2026-04-18T10:04:38.986Z</time></trkpt><trkpt lat="45.3445783" lon="9.0135333"><ele>103.4</ele><time>2026-04-18T10:04:39.985Z</time></trkpt><trkpt lat="45.344505" lon="9.0136067"><ele>103.2</ele><time>2026-04-18T10:04:40.985Z</time></trkpt><trkpt lat="45.3444217" lon="9.0136517"><ele>103.0</ele><time>2026-04-18T10:04:41.985Z</time></trkpt><trkpt lat="45.34433" lon="9.0136833"><ele>103.0</ele><time>2026-04-18T10:04:42.985Z</time></trkpt><trkpt lat="45.3442367" lon="9.0136767"><ele>103.0</ele><time>2026-04-18T10:04:43.985Z</time></trkpt><trkpt lat="45.3441483" lon="9.0136383"><ele>103.0</ele><time>2026-04-18T10:04:44.985Z</time></trkpt><trkpt lat="45.3440467" lon="9.013595"><ele>103.0</ele><time>2026-04-18T10:04:45.985Z</time></trkpt><trkpt lat="45.3439483" lon="9.0135583"><ele>103.0</ele><time>2026-04-18T10:04:46.985Z</time></trkpt><trkpt lat="45.3438383" lon="9.0135183"><ele>103.0</ele><time>2026-04-18T10:04:47.985Z</time></trkpt><trkpt lat="45.34373" lon="9.0134733"><ele>103.0</ele><time>2026-04-18T10:04:48.985Z</time></trkpt><trkpt lat="45.34363" lon="9.0134417"><ele>103.0</ele><time>2026-04-18T10:04:49.985Z</time></trkpt><trkpt lat="45.3435333" lon="9.0134067"><ele>103.0</ele><time>2026-04-18T10:04:50.985Z</time></trkpt><trkpt lat="45.34344" lon="9.0133667"><ele>103.0</ele><time>2026-04-18T10:04:51.986Z</time></trkpt><trkpt lat="45.3433383" lon="9.0133317"><ele>103.0</ele><time>2026-04-18T10:04:52.985Z</time></trkpt><trkpt lat="45.34323" lon="9.0132983"><ele>103.0</ele><time>2026-04-18T10:04:53.985Z</time></trkpt><trkpt lat="45.3431167" lon="9.0132533"><ele>103.0</ele><time>2026-04-18T10:04:54.984Z</time></trkpt><trkpt lat="45.3429983" lon="9.0131983"><ele>103.0</ele><time>2026-04-18T10:04:55.984Z</time></trkpt><trkpt lat="45.34288" lon="9.0131233"><ele>103.0</ele><time>2026-04-18T10:04:56.984Z</time></trkpt><trkpt lat="45.3427533" lon="9.0130483"><ele>103.0</ele><time>2026-04-18T10:04:57.984Z</time></trkpt><trkpt lat="45.34264" lon="9.012965"><ele>103.0</ele><time>2026-04-18T10:04:58.984Z</time></trkpt><trkpt lat="45.342525" lon="9.0128667"><ele>103.0</ele><time>2026-04-18T10:04:59.984Z</time></trkpt><trkpt lat="45.342415" lon="9.0127667"><ele>103.0</ele><time>2026-04-18T10:05:00.984Z</time></trkpt><trkpt lat="45.34231" lon="9.0126417"><ele>103.0</ele><time>2026-04-18T10:05:01.984Z</time></trkpt><trkpt lat="45.3422117" lon="9.0125083"><ele>103.0</ele><time>2026-04-18T10:05:02.984Z</time></trkpt><trkpt lat="45.3421117" lon="9.0123783"><ele>103.0</ele><time>2026-04-18T10:05:03.984Z</time></trkpt><trkpt lat="45.3420117" lon="9.0122533"><ele>103.25</ele><time>2026-04-18T10:05:04.984Z</time></trkpt><trkpt lat="45.3419133" lon="9.012145"><ele>103.5</ele><time>2026-04-18T10:05:05.984Z</time></trkpt><trkpt lat="45.3418083" lon="9.0120617"><ele>103.75</ele><time>2026-04-18T10:05:06.984Z</time></trkpt><trkpt lat="45.3417033" lon="9.0120133"><ele>104.0</ele><time>2026-04-18T10:05:07.984Z</time></trkpt><trkpt lat="45.3416067" lon="9.011995"><ele>104.0</ele><time>2026-04-18T10:05:08.984Z</time></trkpt><trkpt lat="45.341505" lon="9.0119967"><ele>104.0</ele><time>2026-04-18T10:05:09.984Z</time></trkpt><trkpt lat="45.341425" lon="9.0120067"><ele>104.0</ele><time>2026-04-18T10:05:10.984Z</time></trkpt><trkpt lat="45.34136" lon="9.0120383"><ele>104.0</ele><time>2026-04-18T10:05:11.984Z</time></trkpt><trkpt lat="45.3413083" lon="9.0121"><ele>104.0</ele><time>2026-04-18T10:05:12.984Z</time></trkpt><trkpt lat="45.341285" lon="9.0122933"><ele>104.0</ele><time>2026-04-18T10:05:14.984Z</time></trkpt><trkpt lat="45.34131" lon="9.01242"><ele>104.0</ele><time>2026-04-18T10:05:15.984Z</time></trkpt><trkpt lat="45.3413317" lon="9.01257"><ele>104.0</ele><time>2026-04-18T10:05:16.984Z</time></trkpt><trkpt lat="45.341355" lon="9.0127333"><ele>104.0</ele><time>2026-04-18T10:05:17.984Z</time></trkpt><trkpt lat="45.3413817" lon="9.0128933"><ele>104.0</ele><time>2026-04-18T10:05:18.984Z</time></trkpt><trkpt lat="45.3413983" lon="9.0130383"><ele>103.83333333333333</ele><time>2026-04-18T10:05:19.985Z</time></trkpt><trkpt lat="45.3414117" lon="9.0131633"><ele>103.66666666666666</ele><time>2026-04-18T10:05:20.984Z</time></trkpt><trkpt lat="45.3414317" lon="9.0132733"><ele>103.5</ele><time>2026-04-18T10:05:21.984Z</time></trkpt><trkpt lat="45.3414417" lon="9.0133717"><ele>103.33333333333334</ele><time>2026-04-18T10:05:22.984Z</time></trkpt><trkpt lat="45.3414467" lon="9.01347"><ele>103.16666666666667</ele><time>2026-04-18T10:05:23.984Z</time></trkpt><trkpt lat="45.341405" lon="9.0135867"><ele>103.0</ele><time>2026-04-18T10:05:25.984Z</time></trkpt><trkpt lat="45.34134" lon="9.0136133"><ele>103.0</ele><time>2026-04-18T10:05:26.984Z</time></trkpt><trkpt lat="45.3412567" lon="9.0136317"><ele>103.0</ele><time>2026-04-18T10:05:27.984Z</time></trkpt><trkpt lat="45.3411633" lon="9.0136467"><ele>103.0</ele><time>2026-04-18T10:05:28.984Z</time></trkpt><trkpt lat="45.341065" lon="9.0136667"><ele>103.0</ele><time>2026-04-18T10:05:29.984Z</time></trkpt><trkpt lat="45.3409683" lon="9.0136817"><ele>103.0</ele><time>2026-04-18T10:05:30.984Z</time></trkpt><trkpt lat="45.340885" lon="9.01369"><ele>103.00000000000001</ele><time>2026-04-18T10:05:31.984Z</time></trkpt><trkpt lat="45.34082" lon="9.01367"><ele>103.0</ele><time>2026-04-18T10:05:32.984Z</time></trkpt><trkpt lat="45.3407817" lon="9.0135433"><ele>103.0</ele><time>2026-04-18T10:05:34.984Z</time></trkpt><trkpt lat="45.3407933" lon="9.0134533"><ele>103.0</ele><time>2026-04-18T10:05:35.984Z</time></trkpt><trkpt lat="45.3407933" lon="9.0133567"><ele>103.00000000000001</ele><time>2026-04-18T10:05:36.984Z</time></trkpt><trkpt lat="45.3407933" lon="9.01325"><ele>103.0</ele><time>2026-04-18T10:05:37.984Z</time></trkpt><trkpt lat="45.340785" lon="9.0131367"><ele>103.00000000000001</ele><time>2026-04-18T10:05:38.984Z</time></trkpt><trkpt lat="45.34077" lon="9.013015"><ele>103.0</ele><time>2026-04-18T10:05:39.985Z</time></trkpt><trkpt lat="45.34076" lon="9.0128883"><ele>103.0</ele><time>2026-04-18T10:05:40.984Z</time></trkpt><trkpt lat="45.34075" lon="9.0127633"><ele>103.0</ele><time>2026-04-18T10:05:41.984Z</time></trkpt><trkpt lat="45.3407467" lon="9.0126433"><ele>103.00000000000001</ele><time>2026-04-18T10:05:42.984Z</time></trkpt><trkpt lat="45.34075" lon="9.0125233"><ele>103.0</ele><time>2026-04-18T10:05:43.984Z</time></trkpt><trkpt lat="45.34075" lon="9.01239"><ele>103.2</ele><time>2026-04-18T10:05:44.984Z</time></trkpt><trkpt lat="45.34074" lon="9.01225"><ele>103.4</ele><time>2026-04-18T10:05:45.984Z</time></trkpt><trkpt lat="45.3407183" lon="9.0121033"><ele>103.60000000000001</ele><time>2026-04-18T10:05:46.984Z</time></trkpt><trkpt lat="45.340695" lon="9.0119583"><ele>103.80000000000001</ele><time>2026-04-18T10:05:47.984Z</time></trkpt><trkpt lat="45.3406683" lon="9.0118183"><ele>104.0</ele><time>2026-04-18T10:05:48.983Z</time></trkpt><trkpt lat="45.340625" lon="9.0116867"><ele>103.80000000000001</ele><time>2026-04-18T10:05:49.984Z</time></trkpt><trkpt lat="45.3405633" lon="9.0115533"><ele>103.60000000000001</ele><time>2026-04-18T10:05:50.984Z</time></trkpt><trkpt lat="45.3404983" lon="9.0114267"><ele>103.4</ele><time>2026-04-18T10:05:51.984Z</time></trkpt><trkpt lat="45.340435" lon="9.0112983"><ele>103.2</ele><time>2026-04-18T10:05:52.984Z</time></trkpt><trkpt lat="45.3403783" lon="9.01118"><ele>103.0</ele><time>2026-04-18T10:05:53.984Z</time></trkpt><trkpt lat="45.340325" lon="9.01107"><ele>103.0</ele><time>2026-04-18T10:05:54.984Z</time></trkpt><trkpt lat="45.340275" lon="9.0109633"><ele>103.0</ele><time>2026-04-18T10:05:55.984Z</time></trkpt><trkpt lat="45.3402033" lon="9.0108633"><ele>103.0</ele><time>2026-04-18T10:05:56.984Z</time></trkpt><trkpt lat="45.340105" lon="9.010785"><ele>103.0</ele><time>2026-04-18T10:05:57.984Z</time></trkpt><trkpt lat="45.3399933" lon="9.0107233"><ele>103.0</ele><time>2026-04-18T10:05:58.984Z</time></trkpt><trkpt lat="45.33988" lon="9.0106617"><ele>103.0</ele><time>2026-04-18T10:05:59.984Z</time></trkpt><trkpt lat="45.33978" lon="9.010615"><ele>103.0</ele><time>2026-04-18T10:06:00.984Z</time></trkpt><trkpt lat="45.3396833" lon="9.01055"><ele>103.0</ele><time>2026-04-18T10:06:01.984Z</time></trkpt><trkpt lat="45.3396033" lon="9.0104417"><ele>103.0</ele><time>2026-04-18T10:06:02.984Z</time></trkpt><trkpt lat="45.3395467" lon="9.010315"><ele>103.0</ele><time>2026-04-18T10:06:03.984Z</time></trkpt><trkpt lat="45.3395083" lon="9.0101733"><ele>102.25</ele><time>2026-04-18T10:06:04.984Z</time></trkpt><trkpt lat="45.339475" lon="9.0100133"><ele>101.5</ele><time>2026-04-18T10:06:05.984Z</time></trkpt><trkpt lat="45.33944" lon="9.009845"><ele>100.75</ele><time>2026-04-18T10:06:06.984Z</time></trkpt><trkpt lat="45.3393983" lon="9.0096633"><ele>100.0</ele><time>2026-04-18T10:06:07.984Z</time></trkpt><trkpt lat="45.3393617" lon="9.0094817"><ele>100.0</ele><time>2026-04-18T10:06:08.984Z</time></trkpt><trkpt lat="45.33933" lon="9.0093"><ele>100.0</ele><time>2026-04-18T10:06:09.984Z</time></trkpt><trkpt lat="45.3392983" lon="9.0091217"><ele>100.0</ele><time>2026-04-18T10:06:10.984Z</time></trkpt><trkpt lat="45.3392683" lon="9.0089417"><ele>100.0</ele><time>2026-04-18T10:06:11.984Z</time></trkpt><trkpt lat="45.33924" lon="9.0087583"><ele>100.4</ele><time>2026-04-18T10:06:12.984Z</time></trkpt><trkpt lat="45.3392117" lon="9.0085833"><ele>100.8</ele><time>2026-04-18T10:06:13.985Z</time></trkpt><trkpt lat="45.339185" lon="9.0084317"><ele>101.19999999999999</ele><time>2026-04-18T10:06:14.984Z</time></trkpt><trkpt lat="45.3391567" lon="9.0082983"><ele>101.6</ele><time>2026-04-18T10:06:15.984Z</time></trkpt><trkpt lat="45.3391317" lon="9.0081733"><ele>102.0</ele><time>2026-04-18T10:06:16.984Z</time></trkpt><trkpt lat="45.33911" lon="9.008045"><ele>102.16666666666667</ele><time>2026-04-18T10:06:17.984Z</time></trkpt><trkpt lat="45.3390833" lon="9.0079167"><ele>102.33333333333334</ele><time>2026-04-18T10:06:18.984Z</time></trkpt><trkpt lat="45.3390567" lon="9.0077917"><ele>102.5</ele><time>2026-04-18T10:06:19.984Z</time></trkpt><trkpt lat="45.3390333" lon="9.0076733"><ele>102.66666666666667</ele><time>2026-04-18T10:06:20.984Z</time></trkpt><trkpt lat="45.3390133" lon="9.007575"><ele>102.83333333333334</ele><time>2026-04-18T10:06:21.984Z</time></trkpt><trkpt lat="45.338975" lon="9.007455"><ele>103.0</ele><time>2026-04-18T10:06:23.984Z</time></trkpt><trkpt lat="45.3389667" lon="9.0073367"><ele>103.00000000000001</ele><time>2026-04-18T10:06:25.984Z</time></trkpt><trkpt lat="45.33896" lon="9.00724"><ele>103.0</ele><time>2026-04-18T10:06:26.984Z</time></trkpt><trkpt lat="45.3389517" lon="9.007125"><ele>103.0</ele><time>2026-04-18T10:06:27.984Z</time></trkpt><trkpt lat="45.338945" lon="9.0070033"><ele>103.0</ele><time>2026-04-18T10:06:28.985Z</time></trkpt><trkpt lat="45.3389317" lon="9.0068767"><ele>103.00000000000001</ele><time>2026-04-18T10:06:29.984Z</time></trkpt><trkpt lat="45.338915" lon="9.006745"><ele>103.0</ele><time>2026-04-18T10:06:30.984Z</time></trkpt><trkpt lat="45.338905" lon="9.0066117"><ele>103.00000000000001</ele><time>2026-04-18T10:06:31.984Z</time></trkpt><trkpt lat="45.33889" lon="9.0064833"><ele>103.0</ele><time>2026-04-18T10:06:32.984Z</time></trkpt><trkpt lat="45.3388717" lon="9.0063517"><ele>103.0</ele><time>2026-04-18T10:06:33.984Z</time></trkpt><trkpt lat="45.3388517" lon="9.0062267"><ele>103.0</ele><time>2026-04-18T10:06:34.984Z</time></trkpt><trkpt lat="45.3388317" lon="9.0061183"><ele>103.00000000000001</ele><time>2026-04-18T10:06:35.984Z</time></trkpt><trkpt lat="45.3388117" lon="9.0060167"><ele>103.0</ele><time>2026-04-18T10:06:36.984Z</time></trkpt><trkpt lat="45.3387983" lon="9.005855"><ele>102.80000000000001</ele><time>2026-04-18T10:06:38.984Z</time></trkpt><trkpt lat="45.33886" lon="9.005735"><ele>102.6</ele><time>2026-04-18T10:06:40.984Z</time></trkpt><trkpt lat="45.3389783" lon="9.0056733"><ele>102.4</ele><time>2026-04-18T10:06:42.984Z</time></trkpt><trkpt lat="45.3390583" lon="9.005645"><ele>102.19999999999999</ele><time>2026-04-18T10:06:43.984Z</time></trkpt><trkpt lat="45.3391483" lon="9.005625"><ele>102.0</ele><time>2026-04-18T10:06:44.984Z</time></trkpt><trkpt lat="45.339235" lon="9.00561"><ele>102.0</ele><time>2026-04-18T10:06:45.984Z</time></trkpt><trkpt lat="45.3393117" lon="9.0055933"><ele>102.0</ele><time>2026-04-18T10:06:46.984Z</time></trkpt><trkpt lat="45.33938" lon="9.005575"><ele>102.0</ele><time>2026-04-18T10:06:47.984Z</time></trkpt><trkpt lat="45.3394433" lon="9.0055633"><ele>102.0</ele><time>2026-04-18T10:06:48.984Z</time></trkpt><trkpt lat="45.3395083" lon="9.0055483"><ele>102.0</ele><time>2026-04-18T10:06:49.984Z</time></trkpt><trkpt lat="45.3395783" lon="9.00553"><ele>102.0</ele><time>2026-04-18T10:06:50.984Z</time></trkpt><trkpt lat="45.33966" lon="9.0055083"><ele>102.0</ele><time>2026-04-18T10:06:51.984Z</time></trkpt><trkpt lat="45.3397533" lon="9.0054767"><ele>102.0</ele><time>2026-04-18T10:06:52.984Z</time></trkpt><trkpt lat="45.3398433" lon="9.005445"><ele>102.0</ele><time>2026-04-18T10:06:53.984Z</time></trkpt><trkpt lat="45.3399467" lon="9.0054217"><ele>102.0</ele><time>2026-04-18T10:06:54.984Z</time></trkpt><trkpt lat="45.3400467" lon="9.005395"><ele>102.0</ele><time>2026-04-18T10:06:55.984Z</time></trkpt><trkpt lat="45.3401533" lon="9.0053717"><ele>102.0</ele><time>2026-04-18T10:06:56.984Z</time></trkpt><trkpt lat="45.340245" lon="9.0053417"><ele>102.0</ele><time>2026-04-18T10:06:57.984Z</time></trkpt><trkpt lat="45.3403417" lon="9.0053083"><ele>102.0</ele><time>2026-04-18T10:06:58.984Z</time></trkpt><trkpt lat="45.340435" lon="9.0052817"><ele>102.0</ele><time>2026-04-18T10:06:59.984Z</time></trkpt><trkpt lat="45.3405133" lon="9.0052617"><ele>102.0</ele><time>2026-04-18T10:07:00.984Z</time></trkpt><trkpt lat="45.340585" lon="9.0052417"><ele>102.0</ele><time>2026-04-18T10:07:01.984Z</time></trkpt><trkpt lat="45.34068" lon="9.0051483"><ele>102.16666666666667</ele><time>2026-04-18T10:07:03.984Z</time></trkpt><trkpt lat="45.340705" lon="9.0050617"><ele>102.33333333333334</ele><time>2026-04-18T10:07:04.984Z</time></trkpt><trkpt lat="45.340715" lon="9.0049567"><ele>102.5</ele><time>2026-04-18T10:07:05.984Z</time></trkpt><trkpt lat="45.3407217" lon="9.0048317"><ele>102.66666666666667</ele><time>2026-04-18T10:07:06.985Z</time></trkpt><trkpt lat="45.340715" lon="9.0046967"><ele>102.83333333333334</ele><time>2026-04-18T10:07:07.984Z</time></trkpt><trkpt lat="45.340705" lon="9.0045833"><ele>103.0</ele><time>2026-04-18T10:07:08.984Z</time></trkpt><trkpt lat="45.340695" lon="9.0044683"><ele>103.0</ele><time>2026-04-18T10:07:09.985Z</time></trkpt><trkpt lat="45.34069" lon="9.00434"><ele>103.0</ele><time>2026-04-18T10:07:10.984Z</time></trkpt><trkpt lat="45.3406833" lon="9.004205"><ele>103.0</ele><time>2026-04-18T10:07:11.984Z</time></trkpt><trkpt lat="45.34067" lon="9.0040633"><ele>103.0</ele><time>2026-04-18T10:07:12.984Z</time></trkpt><trkpt lat="45.34065" lon="9.0039133"><ele>103.0</ele><time>2026-04-18T10:07:13.984Z</time></trkpt><trkpt lat="45.3406333" lon="9.00377"><ele>103.0</ele><time>2026-04-18T10:07:14.984Z</time></trkpt><trkpt lat="45.3406133" lon="9.0036217"><ele>103.0</ele><time>2026-04-18T10:07:15.984Z</time></trkpt><trkpt lat="45.3405867" lon="9.0034733"><ele>103.0</ele><time>2026-04-18T10:07:16.984Z</time></trkpt><trkpt lat="45.34057" lon="9.003315"><ele>103.0</ele><time>2026-04-18T10:07:17.984Z</time></trkpt><trkpt lat="45.3405533" lon="9.00316"><ele>103.0</ele><time>2026-04-18T10:07:18.984Z</time></trkpt><trkpt lat="45.3405333" lon="9.003"><ele>102.80000000000001</ele><time>2026-04-18T10:07:19.984Z</time></trkpt><trkpt lat="45.34052" lon="9.002845"><ele>102.6</ele><time>2026-04-18T10:07:20.984Z</time></trkpt><trkpt lat="45.340505" lon="9.0027067"><ele>102.4</ele><time>2026-04-18T10:07:21.984Z</time></trkpt><trkpt lat="45.3404717" lon="9.0025683"><ele>102.19999999999999</ele><time>2026-04-18T10:07:22.985Z</time></trkpt><trkpt lat="45.3404383" lon="9.002425"><ele>102.0</ele><time>2026-04-18T10:07:23.984Z</time></trkpt><trkpt lat="45.3403867" lon="9.0022867"><ele>102.0</ele><time>2026-04-18T10:07:24.984Z</time></trkpt><trkpt lat="45.34033" lon="9.0021433"><ele>102.0</ele><time>2026-04-18T10:07:25.984Z</time></trkpt><trkpt lat="45.3402833" lon="9.0020017"><ele>102.0</ele><time>2026-04-18T10:07:26.984Z</time></trkpt><trkpt lat="45.3402317" lon="9.0018583"><ele>102.0</ele><time>2026-04-18T10:07:27.984Z</time></trkpt><trkpt lat="45.3401933" lon="9.0017183"><ele>102.0</ele><time>2026-04-18T10:07:28.984Z</time></trkpt><trkpt lat="45.3401517" lon="9.0015683"><ele>101.75</ele><time>2026-04-18T10:07:29.984Z</time></trkpt><trkpt lat="45.3401117" lon="9.0014133"><ele>101.5</ele><time>2026-04-18T10:07:30.984Z</time></trkpt><trkpt lat="45.3400967" lon="9.0012617"><ele>101.25</ele><time>2026-04-18T10:07:31.985Z</time></trkpt><trkpt lat="45.3400783" lon="9.0011083"><ele>101.0</ele><time>2026-04-18T10:07:32.984Z</time></trkpt><trkpt lat="45.3400533" lon="9.00094"><ele>101.5</ele><time>2026-04-18T10:07:33.984Z</time></trkpt><trkpt lat="45.3400283" lon="9.00078"><ele>102.0</ele><time>2026-04-18T10:07:34.984Z</time></trkpt><trkpt lat="45.34001" lon="9.0006117"><ele>102.5</ele><time>2026-04-18T10:07:35.984Z</time></trkpt><trkpt lat="45.33998" lon="9.000445"><ele>103.0</ele><time>2026-04-18T10:07:36.984Z</time></trkpt><trkpt lat="45.33994" lon="9.0002783"><ele>103.0</ele><time>2026-04-18T10:07:37.984Z</time></trkpt><trkpt lat="45.3398933" lon="9.000105"><ele>103.0</ele><time>2026-04-18T10:07:38.984Z</time></trkpt><trkpt lat="45.339845" lon="8.99994"><ele>103.0</ele><time>2026-04-18T10:07:39.984Z</time></trkpt><trkpt lat="45.3398083" lon="8.99979"><ele>103.0</ele><time>2026-04-18T10:07:40.984Z</time></trkpt><trkpt lat="45.3397767" lon="8.9996483"><ele>103.0</ele><time>2026-04-18T10:07:41.984Z</time></trkpt><trkpt lat="45.33974" lon="8.9995017"><ele>103.0</ele><time>2026-04-18T10:07:42.984Z</time></trkpt><trkpt lat="45.3397017" lon="8.999355"><ele>103.0</ele><time>2026-04-18T10:07:43.985Z</time></trkpt><trkpt lat="45.3396483" lon="8.9992"><ele>103.0</ele><time>2026-04-18T10:07:44.984Z</time></trkpt><trkpt lat="45.3396017" lon="8.9990383"><ele>103.0</ele><time>2026-04-18T10:07:45.984Z</time></trkpt><trkpt lat="45.33956" lon="8.9988783"><ele>103.0</ele><time>2026-04-18T10:07:46.984Z</time></trkpt><trkpt lat="45.3395167" lon="8.9987217"><ele>103.0</ele><time>2026-04-18T10:07:47.984Z</time></trkpt><trkpt lat="45.3394767" lon="8.99858"><ele>103.0</ele><time>2026-04-18T10:07:48.984Z</time></trkpt><trkpt lat="45.3394333" lon="8.99844"><ele>102.83333333333334</ele><time>2026-04-18T10:07:49.984Z</time></trkpt><trkpt lat="45.3394" lon="8.9983133"><ele>102.66666666666667</ele><time>2026-04-18T10:07:50.984Z</time></trkpt><trkpt lat="45.339375" lon="8.9981867"><ele>102.5</ele><time>2026-04-18T10:07:51.984Z</time></trkpt><trkpt lat="45.33935" lon="8.9980633"><ele>102.33333333333334</ele><time>2026-04-18T10:07:52.984Z</time></trkpt><trkpt lat="45.3393267" lon="8.9979517"><ele>102.16666666666667</ele><time>2026-04-18T10:07:53.985Z</time></trkpt><trkpt lat="45.339305" lon="8.997845"><ele>102.0</ele><time>2026-04-18T10:07:54.984Z</time></trkpt><trkpt lat="45.3392933" lon="8.9977433"><ele>102.0</ele><time>2026-04-18T10:07:55.984Z</time></trkpt><trkpt lat="45.3392817" lon="8.99764"><ele>102.0</ele><time>2026-04-18T10:07:56.984Z</time></trkpt><trkpt lat="45.3392717" lon="8.9975383"><ele>102.0</ele><time>2026-04-18T10:07:57.984Z</time></trkpt><trkpt lat="45.3392517" lon="8.9974483"><ele>102.0</ele><time>2026-04-18T10:07:58.984Z</time></trkpt><trkpt lat="45.33921" lon="8.9973683"><ele>102.0</ele><time>2026-04-18T10:07:59.984Z</time></trkpt><trkpt lat="45.3391667" lon="8.9972983"><ele>102.0</ele><time>2026-04-18T10:08:00.984Z</time></trkpt><trkpt lat="45.3391233" lon="8.9972283"><ele>102.0</ele><time>2026-04-18T10:08:01.984Z</time></trkpt><trkpt lat="45.3390833" lon="8.9970933"><ele>102.19999999999999</ele><time>2026-04-18T10:08:03.984Z</time></trkpt><trkpt lat="45.3390933" lon="8.9969483"><ele>102.4</ele><time>2026-04-18T10:08:05.984Z</time></trkpt><trkpt lat="45.3391233" lon="8.996865"><ele>102.6</ele><time>2026-04-18T10:08:06.984Z</time></trkpt><trkpt lat="45.3392217" lon="8.9967433"><ele>102.80000000000001</ele><time>2026-04-18T10:08:08.984Z</time></trkpt><trkpt lat="45.3392917" lon="8.9966917"><ele>103.0</ele><time>2026-04-18T10:08:09.984Z</time></trkpt><trkpt lat="45.3393617" lon="8.996645"><ele>102.99999999999999</ele><time>2026-04-18T10:08:10.984Z</time></trkpt><trkpt lat="45.339425" lon="8.9966"><ele>103.0</ele><time>2026-04-18T10:08:11.984Z</time></trkpt><trkpt lat="45.3394767" lon="8.996535"><ele>103.0</ele><time>2026-04-18T10:08:12.985Z</time></trkpt><trkpt lat="45.3395183" lon="8.996445"><ele>103.0</ele><time>2026-04-18T10:08:13.984Z</time></trkpt><trkpt lat="45.3395433" lon="8.9963383"><ele>103.0</ele><time>2026-04-18T10:08:14.984Z</time></trkpt><trkpt lat="45.3395533" lon="8.9962267"><ele>102.99999999999999</ele><time>2026-04-18T10:08:15.984Z</time></trkpt><trkpt lat="45.3395667" lon="8.9961267"><ele>103.0</ele><time>2026-04-18T10:08:16.984Z</time></trkpt><trkpt lat="45.3395983" lon="8.9960283"><ele>103.00000000000001</ele><time>2026-04-18T10:08:17.984Z</time></trkpt><trkpt lat="45.3396417" lon="8.9959417"><ele>103.0</ele><time>2026-04-18T10:08:18.984Z</time></trkpt><trkpt lat="45.3396883" lon="8.9958633"><ele>103.0</ele><time>2026-04-18T10:08:19.984Z</time></trkpt><trkpt lat="45.3397317" lon="8.9957867"><ele>103.0</ele><time>2026-04-18T10:08:20.984Z</time></trkpt><trkpt lat="45.3397817" lon="8.9956567"><ele>103.00000000000001</ele><time>2026-04-18T10:08:22.984Z</time></trkpt><trkpt lat="45.3398117" lon="8.995505"><ele>103.0</ele><time>2026-04-18T10:08:24.984Z</time></trkpt><trkpt lat="45.3398417" lon="8.995385"><ele>103.0</ele><time>2026-04-18T10:08:25.984Z</time></trkpt><trkpt lat="45.3398767" lon="8.9952583"><ele>103.0</ele><time>2026-04-18T10:08:26.984Z</time></trkpt><trkpt lat="45.3399233" lon="8.99511"><ele>103.0</ele><time>2026-04-18T10:08:27.984Z</time></trkpt><trkpt lat="45.339975" lon="8.9949483"><ele>103.0</ele><time>2026-04-18T10:08:28.984Z</time></trkpt><trkpt lat="45.3400217" lon="8.9947917"><ele>103.0</ele><time>2026-04-18T10:08:29.984Z</time></trkpt><trkpt lat="45.34007" lon="8.9946317"><ele>103.0</ele><time>2026-04-18T10:08:30.984Z</time></trkpt><trkpt lat="45.3401133" lon="8.994485"><ele>103.0</ele><time>2026-04-18T10:08:31.984Z</time></trkpt><trkpt lat="45.34016" lon="8.9943483"><ele>103.0</ele><time>2026-04-18T10:08:32.984Z</time></trkpt><trkpt lat="45.340195" lon="8.9942167"><ele>103.0</ele><time>2026-04-18T10:08:33.984Z</time></trkpt><trkpt lat="45.3402367" lon="8.994095"><ele>103.0</ele><time>2026-04-18T10:08:34.984Z</time></trkpt><trkpt lat="45.34029" lon="8.9939867"><ele>103.0</ele><time>2026-04-18T10:08:35.984Z</time></trkpt><trkpt lat="45.34034" lon="8.9938933"><ele>103.0</ele><time>2026-04-18T10:08:36.984Z</time></trkpt><trkpt lat="45.3403817" lon="8.9937867"><ele>103.0</ele><time>2026-04-18T10:08:37.984Z</time></trkpt><trkpt lat="45.3404033" lon="8.9936583"><ele>103.0</ele><time>2026-04-18T10:08:38.984Z</time></trkpt><trkpt lat="45.3404183" lon="8.99351"><ele>103.0</ele><time>2026-04-18T10:08:39.984Z</time></trkpt><trkpt lat="45.3404333" lon="8.9933717"><ele>103.0</ele><time>2026-04-18T10:08:40.984Z</time></trkpt><trkpt lat="45.3404633" lon="8.993245"><ele>103.0</ele><time>2026-04-18T10:08:41.984Z</time></trkpt><trkpt lat="45.3405067" lon="8.993125"><ele>103.0</ele><time>2026-04-18T10:08:42.984Z</time></trkpt><trkpt lat="45.3405617" lon="8.9930183"><ele>103.0</ele><time>2026-04-18T10:08:43.984Z</time></trkpt><trkpt lat="45.3406233" lon="8.992925"><ele>103.16666666666667</ele><time>2026-04-18T10:08:44.984Z</time></trkpt><trkpt lat="45.340685" lon="8.992845"><ele>103.33333333333334</ele><time>2026-04-18T10:08:45.984Z</time></trkpt><trkpt lat="45.3407367" lon="8.992785"><ele>103.5</ele><time>2026-04-18T10:08:46.984Z</time></trkpt><trkpt lat="45.3408283" lon="8.9926917"><ele>103.66666666666666</ele><time>2026-04-18T10:08:48.984Z</time></trkpt><trkpt lat="45.3408833" lon="8.9926017"><ele>103.83333333333333</ele><time>2026-04-18T10:08:50.984Z</time></trkpt><trkpt lat="45.3409217" lon="8.99251"><ele>104.0</ele><time>2026-04-18T10:08:52.984Z</time></trkpt><trkpt lat="45.34098" lon="8.9923533"><ele>103.99999999999999</ele><time>2026-04-18T10:08:54.984Z</time></trkpt><trkpt lat="45.341015" lon="8.9922633"><ele>104.0</ele><time>2026-04-18T10:08:55.984Z</time></trkpt><trkpt lat="45.3410517" lon="8.9921617"><ele>104.0</ele><time>2026-04-18T10:08:56.984Z</time></trkpt><trkpt lat="45.34109" lon="8.9920467"><ele>104.0</ele><time>2026-04-18T10:08:57.985Z</time></trkpt><trkpt lat="45.3411317" lon="8.9919217"><ele>103.99999999999999</ele><time>2026-04-18T10:08:58.985Z</time></trkpt><trkpt lat="45.3411917" lon="8.9917983"><ele>104.0</ele><time>2026-04-18T10:08:59.984Z</time></trkpt><trkpt lat="45.341255" lon="8.991685"><ele>103.83333333333333</ele><time>2026-04-18T10:09:00.984Z</time></trkpt><trkpt lat="45.3413167" lon="8.99159"><ele>103.66666666666666</ele><time>2026-04-18T10:09:01.984Z</time></trkpt><trkpt lat="45.34138" lon="8.9915083"><ele>103.5</ele><time>2026-04-18T10:09:02.984Z</time></trkpt><trkpt lat="45.3414483" lon="8.9914467"><ele>103.33333333333334</ele><time>2026-04-18T10:09:03.984Z</time></trkpt><trkpt lat="45.3415283" lon="8.9914"><ele>103.16666666666667</ele><time>2026-04-18T10:09:04.984Z</time></trkpt><trkpt lat="45.3416217" lon="8.9913817"><ele>103.0</ele><time>2026-04-18T10:09:05.985Z</time></trkpt><trkpt lat="45.3417083" lon="8.99138"><ele>103.00000000000001</ele><time>2026-04-18T10:09:06.984Z</time></trkpt><trkpt lat="45.3417833" lon="8.99139"><ele>103.0</ele><time>2026-04-18T10:09:07.984Z</time></trkpt><trkpt lat="45.3418617" lon="8.9913917"><ele>103.0</ele><time>2026-04-18T10:09:09.984Z</time></trkpt><trkpt lat="45.3418917" lon="8.9913"><ele>103.0</ele><time>2026-04-18T10:09:11.984Z</time></trkpt><trkpt lat="45.3419083" lon="8.99119"><ele>103.00000000000001</ele><time>2026-04-18T10:09:13.984Z</time></trkpt><trkpt lat="45.3419933" lon="8.9911633"><ele>103.0</ele><time>2026-04-18T10:09:16.984Z</time></trkpt><trkpt lat="45.3420633" lon="8.9911567"><ele>103.00000000000001</ele><time>2026-04-18T10:09:18.985Z</time></trkpt><trkpt lat="45.3421283" lon="8.9911417"><ele>103.0</ele><time>2026-04-18T10:09:20.984Z</time></trkpt><trkpt lat="45.3420583" lon="8.9911367"><ele>103.0</ele><time>2026-04-18T10:09:58.984Z</time></trkpt><trkpt lat="45.3419833" lon="8.99115"><ele>103.0</ele><time>2026-04-18T10:10:01.984Z</time></trkpt><trkpt lat="45.3419167" lon="8.9911567"><ele>103.00000000000001</ele><time>2026-04-18T10:10:04.984Z</time></trkpt><trkpt lat="45.3418267" lon="8.9911817"><ele>103.0</ele><time>2026-04-18T10:10:33.984Z</time></trkpt><trkpt lat="45.3417183" lon="8.9912083"><ele>103.0</ele><time>2026-04-18T10:10:35.984Z</time></trkpt><trkpt lat="45.3416" lon="8.991225"><ele>103.0</ele><time>2026-04-18T10:10:37.984Z</time></trkpt><trkpt lat="45.3414933" lon="8.9912533"><ele>103.0</ele><time>2026-04-18T10:10:39.985Z</time></trkpt><trkpt lat="45.3413917" lon="8.991295"><ele>103.0</ele><time>2026-04-18T10:10:41.984Z</time></trkpt><trkpt lat="45.341305" lon="8.9913783"><ele>103.0</ele><time>2026-04-18T10:10:43.984Z</time></trkpt><trkpt lat="45.3412017" lon="8.9914983"><ele>103.00000000000001</ele><time>2026-04-18T10:10:45.984Z</time></trkpt><trkpt lat="45.341145" lon="8.99157"><ele>103.0</ele><time>2026-04-18T10:10:46.984Z</time></trkpt><trkpt lat="45.3410933" lon="8.9916367"><ele>103.0</ele><time>2026-04-18T10:10:47.984Z</time></trkpt><trkpt lat="45.3410317" lon="8.991695"><ele>103.0</ele><time>2026-04-18T10:10:48.984Z</time></trkpt><trkpt lat="45.340965" lon="8.9918283"><ele>103.00000000000001</ele><time>2026-04-18T10:10:50.984Z</time></trkpt><trkpt lat="45.3409183" lon="8.9919"><ele>103.0</ele><time>2026-04-18T10:10:51.984Z</time></trkpt><trkpt lat="45.3408917" lon="8.9919867"><ele>103.16666666666667</ele><time>2026-04-18T10:10:52.984Z</time></trkpt><trkpt lat="45.340835" lon="8.99213"><ele>103.33333333333334</ele><time>2026-04-18T10:10:54.984Z</time></trkpt><trkpt lat="45.3407933" lon="8.99221"><ele>103.5</ele><time>2026-04-18T10:10:56.984Z</time></trkpt><trkpt lat="45.3407383" lon="8.9922967"><ele>103.66666666666666</ele><time>2026-04-18T10:11:14.984Z</time></trkpt><trkpt lat="45.34069" lon="8.9923783"><ele>103.83333333333333</ele><time>2026-04-18T10:11:16.984Z</time></trkpt><trkpt lat="45.34064" lon="8.9924617"><ele>104.0</ele><time>2026-04-18T10:11:18.984Z</time></trkpt><trkpt lat="45.340585" lon="8.99255"><ele>103.99999999999999</ele><time>2026-04-18T10:11:20.985Z</time></trkpt><trkpt lat="45.3405567" lon="8.9926417"><ele>104.0</ele><time>2026-04-18T10:11:23.984Z</time></trkpt><trkpt lat="45.3404817" lon="8.992625"><ele>104.0</ele><time>2026-04-18T10:11:52.984Z</time></trkpt><trkpt lat="45.3403867" lon="8.9926467"><ele>104.0</ele><time>2026-04-18T10:11:54.984Z</time></trkpt><trkpt lat="45.3402583" lon="8.9926783"><ele>103.99999999999999</ele><time>2026-04-18T10:11:56.984Z</time></trkpt><trkpt lat="45.340195" lon="8.9926933"><ele>104.0</ele><time>2026-04-18T10:11:57.984Z</time></trkpt><trkpt lat="45.34013" lon="8.9927067"><ele>103.99999999999999</ele><time>2026-04-18T10:11:58.984Z</time></trkpt><trkpt lat="45.3400567" lon="8.9927217"><ele>104.0</ele><time>2026-04-18T10:11:59.984Z</time></trkpt><trkpt lat="45.33998" lon="8.9927383"><ele>104.0</ele><time>2026-04-18T10:12:00.984Z</time></trkpt><trkpt lat="45.3399017" lon="8.9927433"><ele>104.0</ele><time>2026-04-18T10:12:01.984Z</time></trkpt><trkpt lat="45.3398317" lon="8.9927583"><ele>103.99999999999999</ele><time>2026-04-18T10:12:02.984Z</time></trkpt><trkpt lat="45.33972" lon="8.9927517"><ele>104.0</ele><time>2026-04-18T10:12:04.984Z</time></trkpt><trkpt lat="45.339635" lon="8.992665"><ele>104.0</ele><time>2026-04-18T10:12:06.984Z</time></trkpt><trkpt lat="45.3395767" lon="8.99253"><ele>104.0</ele><time>2026-04-18T10:12:08.984Z</time></trkpt><trkpt lat="45.3395417" lon="8.9924233"><ele>104.0</ele><time>2026-04-18T10:12:10.984Z</time></trkpt><trkpt lat="45.3395217" lon="8.9923367"><ele>104.0</ele><time>2026-04-18T10:12:12.984Z</time></trkpt><trkpt lat="45.3394183" lon="8.9923133"><ele>104.0</ele><time>2026-04-18T10:12:15.985Z</time></trkpt><trkpt lat="45.3392833" lon="8.9923467"><ele>103.99999999999999</ele><time>2026-04-18T10:12:17.984Z</time></trkpt><trkpt lat="45.3392017" lon="8.9923567"><ele>104.0</ele><time>2026-04-18T10:12:18.984Z</time></trkpt><trkpt lat="45.339115" lon="8.9923617"><ele>104.0</ele><time>2026-04-18T10:12:19.984Z</time></trkpt><trkpt lat="45.339025" lon="8.9923633"><ele>104.0</ele><time>2026-04-18T10:12:20.985Z</time></trkpt><trkpt lat="45.33893" lon="8.9923633"><ele>103.99999999999999</ele><time>2026-04-18T10:12:21.984Z</time></trkpt><trkpt lat="45.338835" lon="8.992365"><ele>104.0</ele><time>2026-04-18T10:12:22.984Z</time></trkpt><trkpt lat="45.3387467" lon="8.9923683"><ele>104.0</ele><time>2026-04-18T10:12:23.984Z</time></trkpt><trkpt lat="45.3386567" lon="8.9923867"><ele>104.0</ele><time>2026-04-18T10:12:24.984Z</time></trkpt><trkpt lat="45.3385633" lon="8.9924217"><ele>104.0</ele><time>2026-04-18T10:12:25.985Z</time></trkpt><trkpt lat="45.3384583" lon="8.9924667"><ele>104.0</ele><time>2026-04-18T10:12:26.984Z</time></trkpt><trkpt lat="45.3383483" lon="8.99252"><ele>104.0</ele><time>2026-04-18T10:12:27.984Z</time></trkpt><trkpt lat="45.33824" lon="8.9925633"><ele>104.0</ele><time>2026-04-18T10:12:28.983Z</time></trkpt><trkpt lat="45.3381267" lon="8.992615"><ele>104.0</ele><time>2026-04-18T10:12:29.983Z</time></trkpt><trkpt lat="45.3380083" lon="8.99267"><ele>104.0</ele><time>2026-04-18T10:12:30.983Z</time></trkpt><trkpt lat="45.3378833" lon="8.9927283"><ele>104.0</ele><time>2026-04-18T10:12:31.983Z</time></trkpt><trkpt lat="45.337765" lon="8.9927883"><ele>104.0</ele><time>2026-04-18T10:12:32.983Z</time></trkpt><trkpt lat="45.3376583" lon="8.9928433"><ele>104.0</ele><time>2026-04-18T10:12:33.983Z</time></trkpt><trkpt lat="45.3375533" lon="8.9928883"><ele>104.0</ele><time>2026-04-18T10:12:34.983Z</time></trkpt><trkpt lat="45.3374433" lon="8.9929333"><ele>104.0</ele><time>2026-04-18T10:12:35.983Z</time></trkpt><trkpt lat="45.3373367" lon="8.9929867"><ele>104.0</ele><time>2026-04-18T10:12:36.983Z</time></trkpt><trkpt lat="45.3372267" lon="8.9930267"><ele>104.0</ele><time>2026-04-18T10:12:37.984Z</time></trkpt><trkpt lat="45.33712" lon="8.9930717"><ele>104.0</ele><time>2026-04-18T10:12:38.983Z</time></trkpt><trkpt lat="45.3370083" lon="8.993125"><ele>104.0</ele><time>2026-04-18T10:12:39.983Z</time></trkpt><trkpt lat="45.3368933" lon="8.9931767"><ele>104.0</ele><time>2026-04-18T10:12:40.983Z</time></trkpt><trkpt lat="45.3367617" lon="8.9932333"><ele>104.0</ele><time>2026-04-18T10:12:41.983Z</time></trkpt><trkpt lat="45.33663" lon="8.9932933"><ele>104.0</ele><time>2026-04-18T10:12:42.983Z</time></trkpt><trkpt lat="45.336505" lon="8.9933517"><ele>104.0</ele><time>2026-04-18T10:12:43.983Z</time></trkpt><trkpt lat="45.33638" lon="8.9933983"><ele>104.0</ele><time>2026-04-18T10:12:44.983Z</time></trkpt><trkpt lat="45.3362667" lon="8.99345"><ele>104.0</ele><time>2026-04-18T10:12:45.983Z</time></trkpt><trkpt lat="45.3361567" lon="8.99349"><ele>104.0</ele><time>2026-04-18T10:12:46.983Z</time></trkpt><trkpt lat="45.3360483" lon="8.9935433"><ele>104.0</ele><time>2026-04-18T10:12:47.983Z</time></trkpt><trkpt lat="45.3359367" lon="8.9935883"><ele>104.0</ele><time>2026-04-18T10:12:48.983Z</time></trkpt><trkpt lat="45.3358283" lon="8.99363"><ele>104.0</ele><time>2026-04-18T10:12:49.983Z</time></trkpt><trkpt lat="45.33574" lon="8.99368"><ele>104.0</ele><time>2026-04-18T10:12:50.983Z</time></trkpt><trkpt lat="45.3356583" lon="8.9937333"><ele>104.0</ele><time>2026-04-18T10:12:51.983Z</time></trkpt><trkpt lat="45.33559" lon="8.99379"><ele>104.0</ele><time>2026-04-18T10:12:52.983Z</time></trkpt><trkpt lat="45.3355083" lon="8.9938283"><ele>104.2</ele><time>2026-04-18T10:12:53.983Z</time></trkpt><trkpt lat="45.335415" lon="8.9938467"><ele>104.4</ele><time>2026-04-18T10:12:54.983Z</time></trkpt><trkpt lat="45.3353117" lon="8.993875"><ele>104.6</ele><time>2026-04-18T10:12:55.983Z</time></trkpt><trkpt lat="45.3351967" lon="8.9939033"><ele>104.8</ele><time>2026-04-18T10:12:56.983Z</time></trkpt><trkpt lat="45.3350867" lon="8.99394"><ele>105.0</ele><time>2026-04-18T10:12:57.983Z</time></trkpt><trkpt lat="45.3349667" lon="8.9939517"><ele>105.0</ele><time>2026-04-18T10:12:58.983Z</time></trkpt><trkpt lat="45.3348417" lon="8.9939567"><ele>105.0</ele><time>2026-04-18T10:12:59.984Z</time></trkpt><trkpt lat="45.3347267" lon="8.993975"><ele>105.0</ele><time>2026-04-18T10:13:00.983Z</time></trkpt><trkpt lat="45.33462" lon="8.994005"><ele>105.0</ele><time>2026-04-18T10:13:01.984Z</time></trkpt><trkpt lat="45.3345183" lon="8.9940417"><ele>104.6</ele><time>2026-04-18T10:13:02.983Z</time></trkpt><trkpt lat="45.3344133" lon="8.9940833"><ele>104.2</ele><time>2026-04-18T10:13:03.983Z</time></trkpt><trkpt lat="45.3343083" lon="8.99411"><ele>103.80000000000001</ele><time>2026-04-18T10:13:04.983Z</time></trkpt><trkpt lat="45.334225" lon="8.9941417"><ele>103.4</ele><time>2026-04-18T10:13:05.983Z</time></trkpt><trkpt lat="45.3341533" lon="8.9941717"><ele>103.0</ele><time>2026-04-18T10:13:06.983Z</time></trkpt><trkpt lat="45.334055" lon="8.9941983"><ele>103.0</ele><time>2026-04-18T10:13:08.983Z</time></trkpt><trkpt lat="45.334" lon="8.9941283"><ele>103.0</ele><time>2026-04-18T10:13:10.983Z</time></trkpt><trkpt lat="45.33395" lon="8.9939517"><ele>103.0</ele><time>2026-04-18T10:13:12.983Z</time></trkpt><trkpt lat="45.33392" lon="8.9938383"><ele>103.0</ele><time>2026-04-18T10:13:13.983Z</time></trkpt><trkpt lat="45.333885" lon="8.9937217"><ele>103.0</ele><time>2026-04-18T10:13:14.983Z</time></trkpt><trkpt lat="45.3338433" lon="8.9935983"><ele>102.80000000000001</ele><time>2026-04-18T10:13:15.983Z</time></trkpt><trkpt lat="45.3338" lon="8.9934633"><ele>102.6</ele><time>2026-04-18T10:13:16.983Z</time></trkpt><trkpt lat="45.3337533" lon="8.9933233"><ele>102.4</ele><time>2026-04-18T10:13:17.983Z</time></trkpt><trkpt lat="45.33371" lon="8.99318"><ele>102.19999999999999</ele><time>2026-04-18T10:13:18.983Z</time></trkpt><trkpt lat="45.333665" lon="8.99304"><ele>102.0</ele><time>2026-04-18T10:13:19.983Z</time></trkpt><trkpt lat="45.33362" lon="8.9928883"><ele>102.5</ele><time>2026-04-18T10:13:20.983Z</time></trkpt><trkpt lat="45.3335767" lon="8.9927317"><ele>103.0</ele><time>2026-04-18T10:13:21.983Z</time></trkpt><trkpt lat="45.3335317" lon="8.9925717"><ele>103.5</ele><time>2026-04-18T10:13:22.984Z</time></trkpt><trkpt lat="45.3334867" lon="8.9924033"><ele>104.0</ele><time>2026-04-18T10:13:23.983Z</time></trkpt><trkpt lat="45.3334433" lon="8.9922633"><ele>103.99999999999999</ele><time>2026-04-18T10:13:24.983Z</time></trkpt><trkpt lat="45.3334067" lon="8.99215"><ele>104.0</ele><time>2026-04-18T10:13:25.983Z</time></trkpt><trkpt lat="45.33338" lon="8.9920533"><ele>104.0</ele><time>2026-04-18T10:13:26.983Z</time></trkpt><trkpt lat="45.3333567" lon="8.99193"><ele>104.0</ele><time>2026-04-18T10:13:28.983Z</time></trkpt><trkpt lat="45.3333583" lon="8.9920283"><ele>103.99999999999999</ele><time>2026-04-18T10:13:34.983Z</time></trkpt><trkpt lat="45.3333917" lon="8.9921417"><ele>104.0</ele><time>2026-04-18T10:13:36.983Z</time></trkpt><trkpt lat="45.3333667" lon="8.9922283"><ele>104.0</ele><time>2026-04-18T10:13:38.983Z</time></trkpt><trkpt lat="45.3332817" lon="8.9922717"><ele>104.0</ele><time>2026-04-18T10:13:40.983Z</time></trkpt><trkpt lat="45.333165" lon="8.99231"><ele>104.0</ele><time>2026-04-18T10:13:42.983Z</time></trkpt><trkpt lat="45.3330883" lon="8.992345"><ele>104.0</ele><time>2026-04-18T10:13:43.983Z</time></trkpt><trkpt lat="45.3330017" lon="8.9923817"><ele>104.0</ele><time>2026-04-18T10:13:44.983Z</time></trkpt><trkpt lat="45.3329083" lon="8.992425"><ele>104.25</ele><time>2026-04-18T10:13:45.983Z</time></trkpt><trkpt lat="45.3328017" lon="8.9924733"><ele>104.5</ele><time>2026-04-18T10:13:46.983Z</time></trkpt><trkpt lat="45.3326883" lon="8.99252"><ele>104.75</ele><time>2026-04-18T10:13:47.984Z</time></trkpt><trkpt lat="45.332575" lon="8.99257"><ele>105.0</ele><time>2026-04-18T10:13:48.983Z</time></trkpt><trkpt lat="45.3324567" lon="8.99262"><ele>105.25</ele><time>2026-04-18T10:13:49.984Z</time></trkpt><trkpt lat="45.3323383" lon="8.992675"><ele>105.5</ele><time>2026-04-18T10:13:50.983Z</time></trkpt><trkpt lat="45.332225" lon="8.99274"><ele>105.75</ele><time>2026-04-18T10:13:51.983Z</time></trkpt><trkpt lat="45.3321083" lon="8.9927883"><ele>106.0</ele><time>2026-04-18T10:13:52.983Z</time></trkpt><trkpt lat="45.3319883" lon="8.99285"><ele>105.5</ele><time>2026-04-18T10:13:53.983Z</time></trkpt><trkpt lat="45.3318767" lon="8.9929"><ele>105.0</ele><time>2026-04-18T10:13:54.983Z</time></trkpt><trkpt lat="45.3317667" lon="8.992955"><ele>104.5</ele><time>2026-04-18T10:13:55.983Z</time></trkpt><trkpt lat="45.33166" lon="8.9930183"><ele>104.0</ele><time>2026-04-18T10:13:56.983Z</time></trkpt><trkpt lat="45.331555" lon="8.993065"><ele>104.0</ele><time>2026-04-18T10:13:57.983Z</time></trkpt><trkpt lat="45.33145" lon="8.9931133"><ele>104.0</ele><time>2026-04-18T10:13:58.983Z</time></trkpt><trkpt lat="45.3313467" lon="8.9931567"><ele>104.0</ele><time>2026-04-18T10:13:59.983Z</time></trkpt><trkpt lat="45.33125" lon="8.9931983"><ele>104.0</ele><time>2026-04-18T10:14:00.983Z</time></trkpt><trkpt lat="45.3311583" lon="8.9932333"><ele>104.0</ele><time>2026-04-18T10:14:01.983Z</time></trkpt><trkpt lat="45.33108" lon="8.9932667"><ele>103.83333333333333</ele><time>2026-04-18T10:14:02.983Z</time></trkpt><trkpt lat="45.3310017" lon="8.9933167"><ele>103.66666666666666</ele><time>2026-04-18T10:14:03.983Z</time></trkpt><trkpt lat="45.33093" lon="8.9933683"><ele>103.5</ele><time>2026-04-18T10:14:04.983Z</time></trkpt><trkpt lat="45.3308533" lon="8.99342"><ele>103.33333333333334</ele><time>2026-04-18T10:14:05.983Z</time></trkpt><trkpt lat="45.33078" lon="8.99346"><ele>103.16666666666667</ele><time>2026-04-18T10:14:06.983Z</time></trkpt><trkpt lat="45.3307067" lon="8.9935117"><ele>103.0</ele><time>2026-04-18T10:14:07.983Z</time></trkpt><trkpt lat="45.3306333" lon="8.9935833"><ele>103.5</ele><time>2026-04-18T10:14:08.983Z</time></trkpt><trkpt lat="45.3305533" lon="8.9936783"><ele>104.0</ele><time>2026-04-18T10:14:09.983Z</time></trkpt><trkpt lat="45.3304483" lon="8.9937983"><ele>104.5</ele><time>2026-04-18T10:14:10.983Z</time></trkpt><trkpt lat="45.3303317" lon="8.9939067"><ele>105.0</ele><time>2026-04-18T10:14:11.983Z</time></trkpt><trkpt lat="45.3302233" lon="8.9940117"><ele>105.0</ele><time>2026-04-18T10:14:12.983Z</time></trkpt><trkpt lat="45.33013" lon="8.9941067"><ele>105.0</ele><time>2026-04-18T10:14:13.983Z</time></trkpt><trkpt lat="45.3300517" lon="8.99419"><ele>105.0</ele><time>2026-04-18T10:14:14.983Z</time></trkpt><trkpt lat="45.3299717" lon="8.9942733"><ele>105.0</ele><time>2026-04-18T10:14:15.983Z</time></trkpt><trkpt lat="45.3298833" lon="8.994355"><ele>105.0</ele><time>2026-04-18T10:14:16.983Z</time></trkpt><trkpt lat="45.329795" lon="8.9944333"><ele>105.4</ele><time>2026-04-18T10:14:17.983Z</time></trkpt><trkpt lat="45.3297117" lon="8.99451"><ele>105.8</ele><time>2026-04-18T10:14:18.983Z</time></trkpt><trkpt lat="45.3296433" lon="8.9945917"><ele>106.19999999999999</ele><time>2026-04-18T10:14:19.983Z</time></trkpt><trkpt lat="45.329565" lon="8.9946683"><ele>106.6</ele><time>2026-04-18T10:14:20.983Z</time></trkpt><trkpt lat="45.3294817" lon="8.994745"><ele>107.0</ele><time>2026-04-18T10:14:21.983Z</time></trkpt><trkpt lat="45.3293917" lon="8.9948067"><ele>106.99999999999999</ele><time>2026-04-18T10:14:22.983Z</time></trkpt><trkpt lat="45.329305" lon="8.9948583"><ele>107.0</ele><time>2026-04-18T10:14:23.983Z</time></trkpt><trkpt lat="45.3292283" lon="8.9949"><ele>107.0</ele><time>2026-04-18T10:14:24.983Z</time></trkpt><trkpt lat="45.32915" lon="8.9949483"><ele>107.0</ele><time>2026-04-18T10:14:25.983Z</time></trkpt><trkpt lat="45.3290767" lon="8.9949883"><ele>106.99999999999999</ele><time>2026-04-18T10:14:26.983Z</time></trkpt><trkpt lat="45.3290083" lon="8.99504"><ele>107.0</ele><time>2026-04-18T10:14:27.983Z</time></trkpt><trkpt lat="45.3289433" lon="8.9951117"><ele>106.33333333333333</ele><time>2026-04-18T10:14:28.983Z</time></trkpt><trkpt lat="45.3288783" lon="8.99519"><ele>105.66666666666666</ele><time>2026-04-18T10:14:29.983Z</time></trkpt><trkpt lat="45.32882" lon="8.9952633"><ele>105.0</ele><time>2026-04-18T10:14:30.984Z</time></trkpt><trkpt lat="45.3287467" lon="8.9953317"><ele>104.33333333333334</ele><time>2026-04-18T10:14:31.983Z</time></trkpt><trkpt lat="45.3286733" lon="8.9954"><ele>103.66666666666667</ele><time>2026-04-18T10:14:32.983Z</time></trkpt><trkpt lat="45.32859" lon="8.9954717"><ele>103.0</ele><time>2026-04-18T10:14:33.983Z</time></trkpt><trkpt lat="45.3285" lon="8.99555"><ele>103.0</ele><time>2026-04-18T10:14:34.983Z</time></trkpt><trkpt lat="45.3284033" lon="8.995625"><ele>103.0</ele><time>2026-04-18T10:14:35.983Z</time></trkpt><trkpt lat="45.328305" lon="8.9957017"><ele>103.0</ele><time>2026-04-18T10:14:36.983Z</time></trkpt><trkpt lat="45.3282083" lon="8.9957833"><ele>103.0</ele><time>2026-04-18T10:14:37.984Z</time></trkpt><trkpt lat="45.3281117" lon="8.99587"><ele>103.0</ele><time>2026-04-18T10:14:38.983Z</time></trkpt><trkpt lat="45.3280167" lon="8.9959517"><ele>103.0</ele><time>2026-04-18T10:14:39.984Z</time></trkpt><trkpt lat="45.3279283" lon="8.9960333"><ele>103.0</ele><time>2026-04-18T10:14:40.983Z</time></trkpt><trkpt lat="45.3278467" lon="8.9961133"><ele>103.0</ele><time>2026-04-18T10:14:41.983Z</time></trkpt><trkpt lat="45.3277617" lon="8.99621"><ele>103.0</ele><time>2026-04-18T10:14:42.983Z</time></trkpt><trkpt lat="45.3276783" lon="8.9962967"><ele>103.0</ele><time>2026-04-18T10:14:43.983Z</time></trkpt><trkpt lat="45.3275933" lon="8.9963667"><ele>103.0</ele><time>2026-04-18T10:14:44.983Z</time></trkpt><trkpt lat="45.3275133" lon="8.9964383"><ele>103.0</ele><time>2026-04-18T10:14:45.983Z</time></trkpt><trkpt lat="45.32744" lon="8.9965167"><ele>103.0</ele><time>2026-04-18T10:14:46.983Z</time></trkpt><trkpt lat="45.327355" lon="8.9965917"><ele>103.0</ele><time>2026-04-18T10:14:47.983Z</time></trkpt><trkpt lat="45.32727" lon="8.9966617"><ele>103.0</ele><time>2026-04-18T10:14:48.983Z</time></trkpt><trkpt lat="45.32719" lon="8.9967267"><ele>103.16666666666667</ele><time>2026-04-18T10:14:49.983Z</time></trkpt><trkpt lat="45.3271033" lon="8.996785"><ele>103.33333333333334</ele><time>2026-04-18T10:14:50.983Z</time></trkpt><trkpt lat="45.3270167" lon="8.9968417"><ele>103.5</ele><time>2026-04-18T10:14:51.983Z</time></trkpt><trkpt lat="45.3269367" lon="8.9969"><ele>103.66666666666666</ele><time>2026-04-18T10:14:52.983Z</time></trkpt><trkpt lat="45.3268583" lon="8.9969583"><ele>103.83333333333333</ele><time>2026-04-18T10:14:53.983Z</time></trkpt><trkpt lat="45.3267883" lon="8.997"><ele>104.0</ele><time>2026-04-18T10:14:54.983Z</time></trkpt><trkpt lat="45.3267133" lon="8.997045"><ele>104.0</ele><time>2026-04-18T10:14:55.983Z</time></trkpt><trkpt lat="45.3266283" lon="8.997095"><ele>104.0</ele><time>2026-04-18T10:14:56.983Z</time></trkpt><trkpt lat="45.326545" lon="8.9971517"><ele>104.0</ele><time>2026-04-18T10:14:57.983Z</time></trkpt><trkpt lat="45.3264533" lon="8.997215"><ele>104.0</ele><time>2026-04-18T10:14:58.983Z</time></trkpt><trkpt lat="45.3263633" lon="8.99729"><ele>104.0</ele><time>2026-04-18T10:14:59.983Z</time></trkpt><trkpt lat="45.3262717" lon="8.997365"><ele>104.0</ele><time>2026-04-18T10:15:00.983Z</time></trkpt><trkpt lat="45.3261867" lon="8.9974367"><ele>104.0</ele><time>2026-04-18T10:15:01.983Z</time></trkpt><trkpt lat="45.3261033" lon="8.997505"><ele>104.0</ele><time>2026-04-18T10:15:02.983Z</time></trkpt><trkpt lat="45.3260117" lon="8.9975783"><ele>104.0</ele><time>2026-04-18T10:15:03.983Z</time></trkpt><trkpt lat="45.3259367" lon="8.9976517"><ele>104.0</ele><time>2026-04-18T10:15:04.983Z</time></trkpt><trkpt lat="45.32586" lon="8.9977217"><ele>103.99999999999999</ele><time>2026-04-18T10:15:05.983Z</time></trkpt><trkpt lat="45.325785" lon="8.997785"><ele>104.0</ele><time>2026-04-18T10:15:06.983Z</time></trkpt><trkpt lat="45.3257067" lon="8.9978533"><ele>104.0</ele><time>2026-04-18T10:15:07.983Z</time></trkpt><trkpt lat="45.3256317" lon="8.9979133"><ele>104.0</ele><time>2026-04-18T10:15:08.983Z</time></trkpt><trkpt lat="45.3255633" lon="8.997975"><ele>103.99999999999999</ele><time>2026-04-18T10:15:09.983Z</time></trkpt><trkpt lat="45.32548" lon="8.99805"><ele>104.0</ele><time>2026-04-18T10:15:10.983Z</time></trkpt><trkpt lat="45.3254083" lon="8.9981167"><ele>103.83333333333333</ele><time>2026-04-18T10:15:11.983Z</time></trkpt><trkpt lat="45.3253433" lon="8.9981883"><ele>103.66666666666666</ele><time>2026-04-18T10:15:12.983Z</time></trkpt><trkpt lat="45.325275" lon="8.9982667"><ele>103.5</ele><time>2026-04-18T10:15:13.983Z</time></trkpt><trkpt lat="45.3252183" lon="8.9983317"><ele>103.33333333333334</ele><time>2026-04-18T10:15:14.983Z</time></trkpt><trkpt lat="45.3251617" lon="8.9983933"><ele>103.16666666666667</ele><time>2026-04-18T10:15:15.983Z</time></trkpt><trkpt lat="45.3251067" lon="8.998475"><ele>103.0</ele><time>2026-04-18T10:15:16.983Z</time></trkpt><trkpt lat="45.3250533" lon="8.9985633"><ele>103.0</ele><time>2026-04-18T10:15:17.983Z</time></trkpt><trkpt lat="45.3249967" lon="8.99866"><ele>103.0</ele><time>2026-04-18T10:15:18.983Z</time></trkpt><trkpt lat="45.324925" lon="8.9987583"><ele>103.0</ele><time>2026-04-18T10:15:19.983Z</time></trkpt><trkpt lat="45.3248517" lon="8.9988467"><ele>103.0</ele><time>2026-04-18T10:15:20.983Z</time></trkpt><trkpt lat="45.32478" lon="8.998935"><ele>103.0</ele><time>2026-04-18T10:15:21.983Z</time></trkpt><trkpt lat="45.3247017" lon="8.9990217"><ele>103.0</ele><time>2026-04-18T10:15:22.984Z</time></trkpt><trkpt lat="45.3246217" lon="8.99912"><ele>103.0</ele><time>2026-04-18T10:15:23.983Z</time></trkpt><trkpt lat="45.324545" lon="8.9992267"><ele>103.0</ele><time>2026-04-18T10:15:24.983Z</time></trkpt><trkpt lat="45.3244717" lon="8.9993233"><ele>103.0</ele><time>2026-04-18T10:15:25.983Z</time></trkpt><trkpt lat="45.3244033" lon="8.9994083"><ele>103.0</ele><time>2026-04-18T10:15:26.983Z</time></trkpt><trkpt lat="45.3243283" lon="8.9995033"><ele>102.66666666666667</ele><time>2026-04-18T10:15:27.983Z</time></trkpt><trkpt lat="45.32426" lon="8.9996033"><ele>102.33333333333334</ele><time>2026-04-18T10:15:28.983Z</time></trkpt><trkpt lat="45.324195" lon="8.9996983"><ele>102.0</ele><time>2026-04-18T10:15:29.983Z</time></trkpt><trkpt lat="45.3241383" lon="8.9997817"><ele>101.66666666666666</ele><time>2026-04-18T10:15:30.983Z</time></trkpt><trkpt lat="45.3240833" lon="8.9998533"><ele>101.33333333333333</ele><time>2026-04-18T10:15:31.983Z</time></trkpt><trkpt lat="45.3240233" lon="8.9999617"><ele>101.0</ele><time>2026-04-18T10:15:33.983Z</time></trkpt><trkpt lat="45.3240533" lon="9.0001167"><ele>101.0</ele><time>2026-04-18T10:15:35.983Z</time></trkpt><trkpt lat="45.3240867" lon="9.0002367"><ele>101.0</ele><time>2026-04-18T10:15:36.984Z</time></trkpt><trkpt lat="45.3241183" lon="9.000375"><ele>101.0</ele><time>2026-04-18T10:15:37.983Z</time></trkpt><trkpt lat="45.3241483" lon="9.0005233"><ele>101.0</ele><time>2026-04-18T10:15:38.983Z</time></trkpt><trkpt lat="45.3241783" lon="9.00067"><ele>101.0</ele><time>2026-04-18T10:15:39.983Z</time></trkpt><trkpt lat="45.3242067" lon="9.0008117"><ele>101.19999999999999</ele><time>2026-04-18T10:15:40.983Z</time></trkpt><trkpt lat="45.3242333" lon="9.0009667"><ele>101.39999999999999</ele><time>2026-04-18T10:15:41.983Z</time></trkpt><trkpt lat="45.3242617" lon="9.0011067"><ele>101.6</ele><time>2026-04-18T10:15:42.983Z</time></trkpt><trkpt lat="45.324285" lon="9.001235"><ele>101.8</ele><time>2026-04-18T10:15:43.984Z</time></trkpt><trkpt lat="45.3243067" lon="9.001365"><ele>102.0</ele><time>2026-04-18T10:15:44.983Z</time></trkpt><trkpt lat="45.3243283" lon="9.0014917"><ele>102.0</ele><time>2026-04-18T10:15:45.983Z</time></trkpt><trkpt lat="45.324345" lon="9.0016183"><ele>102.0</ele><time>2026-04-18T10:15:46.983Z</time></trkpt><trkpt lat="45.3243683" lon="9.0017533"><ele>102.0</ele><time>2026-04-18T10:15:47.983Z</time></trkpt><trkpt lat="45.32439" lon="9.0018817"><ele>102.0</ele><time>2026-04-18T10:15:48.983Z</time></trkpt><trkpt lat="45.3244133" lon="9.00201"><ele>102.0</ele><time>2026-04-18T10:15:49.983Z</time></trkpt><trkpt lat="45.3244367" lon="9.0021433"><ele>102.0</ele><time>2026-04-18T10:15:50.983Z</time></trkpt><trkpt lat="45.324455" lon="9.0022833"><ele>102.0</ele><time>2026-04-18T10:15:51.983Z</time></trkpt><trkpt lat="45.324475" lon="9.0024283"><ele>102.0</ele><time>2026-04-18T10:15:52.984Z</time></trkpt><trkpt lat="45.3244933" lon="9.002575"><ele>102.0</ele><time>2026-04-18T10:15:53.983Z</time></trkpt><trkpt lat="45.32451" lon="9.0027167"><ele>102.0</ele><time>2026-04-18T10:15:54.983Z</time></trkpt><trkpt lat="45.3245283" lon="9.002845"><ele>102.0</ele><time>2026-04-18T10:15:55.983Z</time></trkpt><trkpt lat="45.3245483" lon="9.0029567"><ele>102.0</ele><time>2026-04-18T10:15:56.983Z</time></trkpt><trkpt lat="45.324565" lon="9.0030517"><ele>102.0</ele><time>2026-04-18T10:15:57.983Z</time></trkpt><trkpt lat="45.32459" lon="9.0032033"><ele>102.0</ele><time>2026-04-18T10:15:59.983Z</time></trkpt><trkpt lat="45.324605" lon="9.0033033"><ele>102.0</ele><time>2026-04-18T10:16:01.983Z</time></trkpt><trkpt lat="45.3246167" lon="9.0033967"><ele>102.0</ele><time>2026-04-18T10:16:13.983Z</time></trkpt><trkpt lat="45.3246433" lon="9.0035633"><ele>101.8</ele><time>2026-04-18T10:16:22.983Z</time></trkpt><trkpt lat="45.324665" lon="9.0037017"><ele>101.6</ele><time>2026-04-18T10:16:24.983Z</time></trkpt><trkpt lat="45.3246917" lon="9.0038833"><ele>101.39999999999999</ele><time>2026-04-18T10:16:26.983Z</time></trkpt><trkpt lat="45.32471" lon="9.0039917"><ele>101.19999999999999</ele><time>2026-04-18T10:16:27.983Z</time></trkpt><trkpt lat="45.32473" lon="9.0041117"><ele>101.0</ele><time>2026-04-18T10:16:28.983Z</time></trkpt><trkpt lat="45.3247517" lon="9.004235"><ele>101.0</ele><time>2026-04-18T10:16:29.983Z</time></trkpt><trkpt lat="45.324775" lon="9.0043417"><ele>101.0</ele><time>2026-04-18T10:16:30.983Z</time></trkpt><trkpt lat="45.3247983" lon="9.0044717"><ele>101.0</ele><time>2026-04-18T10:16:31.983Z</time></trkpt><trkpt lat="45.3248217" lon="9.0046033"><ele>101.0</ele><time>2026-04-18T10:16:32.984Z</time></trkpt><trkpt lat="45.3248467" lon="9.0047433"><ele>101.0</ele><time>2026-04-18T10:16:33.983Z</time></trkpt><trkpt lat="45.32487" lon="9.00489"><ele>101.0</ele><time>2026-04-18T10:16:34.983Z</time></trkpt><trkpt lat="45.3248933" lon="9.0050333"><ele>101.0</ele><time>2026-04-18T10:16:35.983Z</time></trkpt><trkpt lat="45.324905" lon="9.005165"><ele>101.0</ele><time>2026-04-18T10:16:36.983Z</time></trkpt><trkpt lat="45.32492" lon="9.005285"><ele>101.0</ele><time>2026-04-18T10:16:37.983Z</time></trkpt><trkpt lat="45.3249517" lon="9.0054083"><ele>101.0</ele><time>2026-04-18T10:16:38.983Z</time></trkpt><trkpt lat="45.3249767" lon="9.00554"><ele>101.0</ele><time>2026-04-18T10:16:39.983Z</time></trkpt><trkpt lat="45.3250017" lon="9.0056767"><ele>101.0</ele><time>2026-04-18T10:16:40.983Z</time></trkpt><trkpt lat="45.3250283" lon="9.0058117"><ele>101.0</ele><time>2026-04-18T10:16:41.983Z</time></trkpt><trkpt lat="45.3250617" lon="9.0059417"><ele>101.0</ele><time>2026-04-18T10:16:42.983Z</time></trkpt><trkpt lat="45.325095" lon="9.0060833"><ele>101.0</ele><time>2026-04-18T10:16:43.983Z</time></trkpt><trkpt lat="45.3251267" lon="9.0062333"><ele>101.0</ele><time>2026-04-18T10:16:44.984Z</time></trkpt><trkpt lat="45.3251583" lon="9.0063967"><ele>101.0</ele><time>2026-04-18T10:16:45.983Z</time></trkpt><trkpt lat="45.3251867" lon="9.0065633"><ele>101.0</ele><time>2026-04-18T10:16:46.983Z</time></trkpt><trkpt lat="45.3252183" lon="9.0067367"><ele>101.0</ele><time>2026-04-18T10:16:47.983Z</time></trkpt><trkpt lat="45.3252483" lon="9.0069233"><ele>101.25</ele><time>2026-04-18T10:16:48.983Z</time></trkpt><trkpt lat="45.3252733" lon="9.0071117"><ele>101.5</ele><time>2026-04-18T10:16:49.983Z</time></trkpt><trkpt lat="45.325295" lon="9.0073017"><ele>101.75</ele><time>2026-04-18T10:16:50.983Z</time></trkpt><trkpt lat="45.3253083" lon="9.0074817"><ele>102.0</ele><time>2026-04-18T10:16:51.983Z</time></trkpt><trkpt lat="45.325315" lon="9.0076383"><ele>102.0</ele><time>2026-04-18T10:16:52.983Z</time></trkpt><trkpt lat="45.3253167" lon="9.0077783"><ele>102.0</ele><time>2026-04-18T10:16:53.983Z</time></trkpt><trkpt lat="45.32532" lon="9.0079033"><ele>102.0</ele><time>2026-04-18T10:16:54.983Z</time></trkpt><trkpt lat="45.32533" lon="9.008015"><ele>102.0</ele><time>2026-04-18T10:16:55.983Z</time></trkpt><trkpt lat="45.32534" lon="9.008125"><ele>102.0</ele><time>2026-04-18T10:16:56.983Z</time></trkpt><trkpt lat="45.325355" lon="9.0082183"><ele>102.0</ele><time>2026-04-18T10:16:57.983Z</time></trkpt><trkpt lat="45.3253833" lon="9.0083117"><ele>102.0</ele><time>2026-04-18T10:16:58.983Z</time></trkpt><trkpt lat="45.325415" lon="9.008415"><ele>102.0</ele><time>2026-04-18T10:16:59.983Z</time></trkpt><trkpt lat="45.325465" lon="9.00852"><ele>102.0</ele><time>2026-04-18T10:17:00.983Z</time></trkpt><trkpt lat="45.3255233" lon="9.0086267"><ele>102.0</ele><time>2026-04-18T10:17:01.983Z</time></trkpt><trkpt lat="45.3255867" lon="9.0087383"><ele>102.0</ele><time>2026-04-18T10:17:02.983Z</time></trkpt><trkpt lat="45.3256433" lon="9.00886"><ele>102.0</ele><time>2026-04-18T10:17:03.983Z</time></trkpt><trkpt lat="45.325695" lon="9.0089733"><ele>102.0</ele><time>2026-04-18T10:17:04.983Z</time></trkpt><trkpt lat="45.32574" lon="9.0090783"><ele>102.0</ele><time>2026-04-18T10:17:05.983Z</time></trkpt><trkpt lat="45.325785" lon="9.0091983"><ele>102.0</ele><time>2026-04-18T10:17:06.983Z</time></trkpt><trkpt lat="45.32582" lon="9.00932"><ele>102.0</ele><time>2026-04-18T10:17:07.983Z</time></trkpt><trkpt lat="45.3258433" lon="9.0094533"><ele>102.0</ele><time>2026-04-18T10:17:08.983Z</time></trkpt><trkpt lat="45.32586" lon="9.0095783"><ele>102.0</ele><time>2026-04-18T10:17:09.983Z</time></trkpt><trkpt lat="45.3258783" lon="9.0097117"><ele>102.0</ele><time>2026-04-18T10:17:10.983Z</time></trkpt><trkpt lat="45.325895" lon="9.0098583"><ele>102.0</ele><time>2026-04-18T10:17:11.984Z</time></trkpt><trkpt lat="45.3259167" lon="9.0100033"><ele>102.0</ele><time>2026-04-18T10:17:12.983Z</time></trkpt><trkpt lat="45.325925" lon="9.0101233"><ele>102.0</ele><time>2026-04-18T10:17:13.983Z</time></trkpt><trkpt lat="45.3259417" lon="9.0102383"><ele>102.0</ele><time>2026-04-18T10:17:14.983Z</time></trkpt><trkpt lat="45.325965" lon="9.010405"><ele>102.0</ele><time>2026-04-18T10:17:16.983Z</time></trkpt><trkpt lat="45.3259517" lon="9.0105283"><ele>102.0</ele><time>2026-04-18T10:17:18.983Z</time></trkpt><trkpt lat="45.3258617" lon="9.01056"><ele>102.0</ele><time>2026-04-18T10:17:20.983Z</time></trkpt><trkpt lat="45.3257933" lon="9.0105717"><ele>102.0</ele><time>2026-04-18T10:17:21.984Z</time></trkpt><trkpt lat="45.3257133" lon="9.01059"><ele>102.0</ele><time>2026-04-18T10:17:22.983Z</time></trkpt><trkpt lat="45.3256317" lon="9.01062"><ele>102.0</ele><time>2026-04-18T10:17:23.983Z</time></trkpt><trkpt lat="45.32555" lon="9.010655"><ele>102.0</ele><time>2026-04-18T10:17:24.983Z</time></trkpt><trkpt lat="45.3254617" lon="9.0107017"><ele>102.0</ele><time>2026-04-18T10:17:25.983Z</time></trkpt><trkpt lat="45.32538" lon="9.0107683"><ele>102.0</ele><time>2026-04-18T10:17:26.983Z</time></trkpt><trkpt lat="45.3253083" lon="9.0108483"><ele>101.85714285714286</ele><time>2026-04-18T10:17:27.983Z</time></trkpt><trkpt lat="45.3252667" lon="9.010945"><ele>101.71428571428572</ele><time>2026-04-18T10:17:28.983Z</time></trkpt><trkpt lat="45.3252383" lon="9.011045"><ele>101.57142857142857</ele><time>2026-04-18T10:17:29.983Z</time></trkpt><trkpt lat="45.3252267" lon="9.011145"><ele>101.42857142857143</ele><time>2026-04-18T10:17:30.983Z</time></trkpt><trkpt lat="45.3252333" lon="9.0112433"><ele>101.28571428571428</ele><time>2026-04-18T10:17:31.983Z</time></trkpt><trkpt lat="45.32524" lon="9.0113333"><ele>101.14285714285714</ele><time>2026-04-18T10:17:32.983Z</time></trkpt><trkpt lat="45.3252533" lon="9.011435"><ele>101.0</ele><time>2026-04-18T10:17:33.983Z</time></trkpt><trkpt lat="45.3252767" lon="9.011695"><ele>101.0</ele><time>2026-04-18T10:17:35.983Z</time></trkpt><trkpt lat="45.325295" lon="9.011845"><ele>101.0</ele><time>2026-04-18T10:17:36.983Z</time></trkpt><trkpt lat="45.3253133" lon="9.0120017"><ele>101.0</ele><time>2026-04-18T10:17:37.984Z</time></trkpt><trkpt lat="45.325335" lon="9.0121617"><ele>101.0</ele><time>2026-04-18T10:17:38.983Z</time></trkpt><trkpt lat="45.3253567" lon="9.0123283"><ele>101.25</ele><time>2026-04-18T10:17:39.983Z</time></trkpt><trkpt lat="45.3253733" lon="9.01251"><ele>101.5</ele><time>2026-04-18T10:17:40.983Z</time></trkpt><trkpt lat="45.3253967" lon="9.01268"><ele>101.75</ele><time>2026-04-18T10:17:41.984Z</time></trkpt><trkpt lat="45.325425" lon="9.0128533"><ele>102.0</ele><time>2026-04-18T10:17:42.983Z</time></trkpt><trkpt lat="45.32545" lon="9.0130433"><ele>102.0</ele><time>2026-04-18T10:17:43.983Z</time></trkpt><trkpt lat="45.3254717" lon="9.0132267"><ele>102.0</ele><time>2026-04-18T10:17:44.983Z</time></trkpt><trkpt lat="45.32549" lon="9.0133983"><ele>102.0</ele><time>2026-04-18T10:17:45.983Z</time></trkpt><trkpt lat="45.3255067" lon="9.01355"><ele>102.0</ele><time>2026-04-18T10:17:46.983Z</time></trkpt><trkpt lat="45.3255283" lon="9.01366"><ele>102.0</ele><time>2026-04-18T10:17:47.983Z</time></trkpt><trkpt lat="45.3255267" lon="9.013795"><ele>102.19999999999999</ele><time>2026-04-18T10:17:49.983Z</time></trkpt><trkpt lat="45.325445" lon="9.0138483"><ele>102.4</ele><time>2026-04-18T10:17:51.983Z</time></trkpt><trkpt lat="45.3253617" lon="9.0138467"><ele>102.6</ele><time>2026-04-18T10:17:52.983Z</time></trkpt><trkpt lat="45.3252683" lon="9.0138667"><ele>102.80000000000001</ele><time>2026-04-18T10:17:53.983Z</time></trkpt><trkpt lat="45.32516" lon="9.013895"><ele>103.0</ele><time>2026-04-18T10:17:54.983Z</time></trkpt><trkpt lat="45.3250517" lon="9.01391"><ele>103.0</ele><time>2026-04-18T10:17:55.983Z</time></trkpt><trkpt lat="45.324945" lon="9.01393"><ele>103.0</ele><time>2026-04-18T10:17:56.983Z</time></trkpt><trkpt lat="45.3248417" lon="9.0139483"><ele>103.0</ele><time>2026-04-18T10:17:57.983Z</time></trkpt><trkpt lat="45.3247333" lon="9.0139617"><ele>103.0</ele><time>2026-04-18T10:17:58.983Z</time></trkpt><trkpt lat="45.3246283" lon="9.0139767"><ele>103.0</ele><time>2026-04-18T10:17:59.983Z</time></trkpt><trkpt lat="45.3245217" lon="9.0139967"><ele>103.0</ele><time>2026-04-18T10:18:00.983Z</time></trkpt><trkpt lat="45.32441" lon="9.0140083"><ele>103.0</ele><time>2026-04-18T10:18:01.983Z</time></trkpt><trkpt lat="45.3242967" lon="9.0140283"><ele>103.0</ele><time>2026-04-18T10:18:02.984Z</time></trkpt><trkpt lat="45.3241883" lon="9.014055"><ele>103.0</ele><time>2026-04-18T10:18:03.983Z</time></trkpt><trkpt lat="45.3240867" lon="9.0140717"><ele>103.0</ele><time>2026-04-18T10:18:04.983Z</time></trkpt><trkpt lat="45.324005" lon="9.0140783"><ele>103.00000000000001</ele><time>2026-04-18T10:18:05.983Z</time></trkpt><trkpt lat="45.323925" lon="9.0140883"><ele>103.0</ele><time>2026-04-18T10:18:06.983Z</time></trkpt><trkpt lat="45.3238483" lon="9.01411"><ele>103.0</ele><time>2026-04-18T10:18:07.983Z</time></trkpt><trkpt lat="45.32376" lon="9.0141267"><ele>103.0</ele><time>2026-04-18T10:18:08.983Z</time></trkpt><trkpt lat="45.3236817" lon="9.0141617"><ele>103.00000000000001</ele><time>2026-04-18T10:18:09.983Z</time></trkpt><trkpt lat="45.3235917" lon="9.0141967"><ele>103.0</ele><time>2026-04-18T10:18:10.983Z</time></trkpt><trkpt lat="45.3234917" lon="9.0142383"><ele>102.83333333333334</ele><time>2026-04-18T10:18:11.983Z</time></trkpt><trkpt lat="45.32339" lon="9.014275"><ele>102.66666666666667</ele><time>2026-04-18T10:18:12.983Z</time></trkpt><trkpt lat="45.323295" lon="9.014315"><ele>102.5</ele><time>2026-04-18T10:18:13.983Z</time></trkpt><trkpt lat="45.3232117" lon="9.014345"><ele>102.33333333333334</ele><time>2026-04-18T10:18:14.983Z</time></trkpt><trkpt lat="45.3231367" lon="9.014365"><ele>102.16666666666667</ele><time>2026-04-18T10:18:15.983Z</time></trkpt><trkpt lat="45.32306" lon="9.0143733"><ele>102.0</ele><time>2026-04-18T10:18:16.983Z</time></trkpt><trkpt lat="45.3229817" lon="9.0143883"><ele>102.0</ele><time>2026-04-18T10:18:17.983Z</time></trkpt><trkpt lat="45.322895" lon="9.0144167"><ele>102.0</ele><time>2026-04-18T10:18:18.983Z</time></trkpt><trkpt lat="45.3228083" lon="9.0144667"><ele>102.0</ele><time>2026-04-18T10:18:19.984Z</time></trkpt><trkpt lat="45.32273" lon="9.014535"><ele>102.0</ele><time>2026-04-18T10:18:20.983Z</time></trkpt><trkpt lat="45.32265" lon="9.0146017"><ele>102.0</ele><time>2026-04-18T10:18:21.983Z</time></trkpt><trkpt lat="45.322565" lon="9.01469"><ele>102.0</ele><time>2026-04-18T10:18:22.983Z</time></trkpt><trkpt lat="45.322485" lon="9.0147833"><ele>102.0</ele><time>2026-04-18T10:18:23.983Z</time></trkpt><trkpt lat="45.3224117" lon="9.0148717"><ele>102.0</ele><time>2026-04-18T10:18:24.983Z</time></trkpt><trkpt lat="45.322335" lon="9.0149633"><ele>102.0</ele><time>2026-04-18T10:18:25.983Z</time></trkpt><trkpt lat="45.322255" lon="9.015065"><ele>102.0</ele><time>2026-04-18T10:18:26.984Z</time></trkpt><trkpt lat="45.32217" lon="9.0151633"><ele>101.8</ele><time>2026-04-18T10:18:27.983Z</time></trkpt><trkpt lat="45.32209" lon="9.0152583"><ele>101.6</ele><time>2026-04-18T10:18:28.984Z</time></trkpt><trkpt lat="45.32202" lon="9.0153433"><ele>101.39999999999999</ele><time>2026-04-18T10:18:29.983Z</time></trkpt><trkpt lat="45.3219483" lon="9.0154433"><ele>101.19999999999999</ele><time>2026-04-18T10:18:30.983Z</time></trkpt><trkpt lat="45.3218683" lon="9.0155367"><ele>101.0</ele><time>2026-04-18T10:18:31.983Z</time></trkpt><trkpt lat="45.3217883" lon="9.0156417"><ele>101.0</ele><time>2026-04-18T10:18:32.983Z</time></trkpt><trkpt lat="45.32171" lon="9.01575"><ele>101.0</ele><time>2026-04-18T10:18:33.983Z</time></trkpt><trkpt lat="45.3216317" lon="9.01586"><ele>101.0</ele><time>2026-04-18T10:18:34.983Z</time></trkpt><trkpt lat="45.3215433" lon="9.0159783"><ele>101.0</ele><time>2026-04-18T10:18:35.983Z</time></trkpt><trkpt lat="45.3214533" lon="9.0160883"><ele>102.0</ele><time>2026-04-18T10:18:36.983Z</time></trkpt><trkpt lat="45.321365" lon="9.0162"><ele>103.0</ele><time>2026-04-18T10:18:37.983Z</time></trkpt><trkpt lat="45.32127" lon="9.0163017"><ele>104.0</ele><time>2026-04-18T10:18:38.983Z</time></trkpt><trkpt lat="45.3211667" lon="9.0164167"><ele>105.0</ele><time>2026-04-18T10:18:39.983Z</time></trkpt><trkpt lat="45.32105" lon="9.0165483"><ele>105.0</ele><time>2026-04-18T10:18:40.983Z</time></trkpt><trkpt lat="45.320935" lon="9.01668"><ele>105.0</ele><time>2026-04-18T10:18:41.983Z</time></trkpt><trkpt lat="45.3208117" lon="9.0168033"><ele>105.0</ele><time>2026-04-18T10:18:42.983Z</time></trkpt><trkpt lat="45.3206767" lon="9.0169167"><ele>105.75</ele><time>2026-04-18T10:18:43.983Z</time></trkpt><trkpt lat="45.3205367" lon="9.017025"><ele>106.5</ele><time>2026-04-18T10:18:44.983Z</time></trkpt><trkpt lat="45.3203983" lon="9.01711"><ele>107.25</ele><time>2026-04-18T10:18:45.983Z</time></trkpt><trkpt lat="45.320275" lon="9.01718"><ele>108.0</ele><time>2026-04-18T10:18:46.983Z</time></trkpt><trkpt lat="45.3201583" lon="9.017245"><ele>108.0</ele><time>2026-04-18T10:18:47.983Z</time></trkpt><trkpt lat="45.3200483" lon="9.0172983"><ele>108.0</ele><time>2026-04-18T10:18:48.983Z</time></trkpt><trkpt lat="45.319935" lon="9.0173533"><ele>108.0</ele><time>2026-04-18T10:18:49.983Z</time></trkpt><trkpt lat="45.31982" lon="9.0174133"><ele>108.0</ele><time>2026-04-18T10:18:50.983Z</time></trkpt><trkpt lat="45.3197117" lon="9.0174783"><ele>107.16666666666667</ele><time>2026-04-18T10:18:51.983Z</time></trkpt><trkpt lat="45.3196183" lon="9.0175383"><ele>106.33333333333334</ele><time>2026-04-18T10:18:52.983Z</time></trkpt><trkpt lat="45.3195283" lon="9.0175883"><ele>105.5</ele><time>2026-04-18T10:18:53.983Z</time></trkpt><trkpt lat="45.3194467" lon="9.01764"><ele>104.66666666666667</ele><time>2026-04-18T10:18:54.983Z</time></trkpt><trkpt lat="45.31938" lon="9.0176867"><ele>103.83333333333334</ele><time>2026-04-18T10:18:55.984Z</time></trkpt><trkpt lat="45.3193133" lon="9.0177167"><ele>103.0</ele><time>2026-04-18T10:18:56.983Z</time></trkpt><trkpt lat="45.319225" lon="9.0177533"><ele>103.00000000000001</ele><time>2026-04-18T10:18:58.983Z</time></trkpt><trkpt lat="45.3191483" lon="9.017785"><ele>103.0</ele><time>2026-04-18T10:19:01.983Z</time></trkpt><trkpt lat="45.31907" lon="9.0178383"><ele>103.0</ele><time>2026-04-18T10:19:03.983Z</time></trkpt><trkpt lat="45.318985" lon="9.0178783"><ele>103.0</ele><time>2026-04-18T10:19:05.983Z</time></trkpt><trkpt lat="45.3188917" lon="9.01793"><ele>103.00000000000001</ele><time>2026-04-18T10:19:07.983Z</time></trkpt><trkpt lat="45.3188283" lon="9.0179617"><ele>103.0</ele><time>2026-04-18T10:19:08.983Z</time></trkpt><trkpt lat="45.3187583" lon="9.018"><ele>102.4</ele><time>2026-04-18T10:19:09.983Z</time></trkpt><trkpt lat="45.3186817" lon="9.018045"><ele>101.80000000000001</ele><time>2026-04-18T10:19:10.983Z</time></trkpt><trkpt lat="45.3185983" lon="9.0180917"><ele>101.2</ele><time>2026-04-18T10:19:11.983Z</time></trkpt><trkpt lat="45.318515" lon="9.0181483"><ele>100.6</ele><time>2026-04-18T10:19:12.983Z</time></trkpt><trkpt lat="45.31842" lon="9.0182017"><ele>100.0</ele><time>2026-04-18T10:19:13.983Z</time></trkpt><trkpt lat="45.3183267" lon="9.018255"><ele>100.0</ele><time>2026-04-18T10:19:14.983Z</time></trkpt><trkpt lat="45.3182333" lon="9.0183083"><ele>100.0</ele><time>2026-04-18T10:19:15.983Z</time></trkpt><trkpt lat="45.3181417" lon="9.0183683"><ele>100.0</ele><time>2026-04-18T10:19:16.983Z</time></trkpt><trkpt lat="45.3180567" lon="9.0184283"><ele>100.0</ele><time>2026-04-18T10:19:17.983Z</time></trkpt><trkpt lat="45.3179733" lon="9.018495"><ele>100.0</ele><time>2026-04-18T10:19:18.983Z</time></trkpt><trkpt lat="45.317895" lon="9.0185717"><ele>99.8</ele><time>2026-04-18T10:19:19.983Z</time></trkpt><trkpt lat="45.3178117" lon="9.018655"><ele>99.6</ele><time>2026-04-18T10:19:20.983Z</time></trkpt><trkpt lat="45.3177233" lon="9.0187467"><ele>99.4</ele><time>2026-04-18T10:19:21.984Z</time></trkpt><trkpt lat="45.3176317" lon="9.0188383"><ele>99.2</ele><time>2026-04-18T10:19:22.983Z</time></trkpt><trkpt lat="45.31754" lon="9.0189417"><ele>99.0</ele><time>2026-04-18T10:19:23.983Z</time></trkpt><trkpt lat="45.3174533" lon="9.0190433"><ele>99.0</ele><time>2026-04-18T10:19:24.984Z</time></trkpt><trkpt lat="45.3173783" lon="9.0191333"><ele>99.0</ele><time>2026-04-18T10:19:25.983Z</time></trkpt><trkpt lat="45.3173083" lon="9.0192217"><ele>99.0</ele><time>2026-04-18T10:19:26.983Z</time></trkpt><trkpt lat="45.317235" lon="9.0192617"><ele>99.0</ele><time>2026-04-18T10:19:27.983Z</time></trkpt><trkpt lat="45.3171567" lon="9.0192617"><ele>99.0</ele><time>2026-04-18T10:19:28.983Z</time></trkpt><trkpt lat="45.3170817" lon="9.01925"><ele>99.0</ele><time>2026-04-18T10:19:29.983Z</time></trkpt><trkpt lat="45.3169783" lon="9.0192367"><ele>99.2</ele><time>2026-04-18T10:19:31.983Z</time></trkpt><trkpt lat="45.3168967" lon="9.0192917"><ele>99.4</ele><time>2026-04-18T10:19:34.983Z</time></trkpt><trkpt lat="45.3168233" lon="9.0192433"><ele>99.6</ele><time>2026-04-18T10:19:36.984Z</time></trkpt><trkpt lat="45.3167417" lon="9.0192167"><ele>99.8</ele><time>2026-04-18T10:19:38.983Z</time></trkpt><trkpt lat="45.31664" lon="9.019205"><ele>100.0</ele><time>2026-04-18T10:19:45.983Z</time></trkpt><trkpt lat="45.3165383" lon="9.01924"><ele>100.0</ele><time>2026-04-18T10:19:47.983Z</time></trkpt><trkpt lat="45.3164733" lon="9.0192667"><ele>100.0</ele><time>2026-04-18T10:19:48.983Z</time></trkpt><trkpt lat="45.3164" lon="9.0193083"><ele>100.0</ele><time>2026-04-18T10:19:49.983Z</time></trkpt><trkpt lat="45.3163133" lon="9.01936"><ele>100.0</ele><time>2026-04-18T10:19:50.983Z</time></trkpt><trkpt lat="45.3162183" lon="9.0194217"><ele>100.0</ele><time>2026-04-18T10:19:51.983Z</time></trkpt><trkpt lat="45.3161183" lon="9.0194883"><ele>99.8</ele><time>2026-04-18T10:19:52.983Z</time></trkpt><trkpt lat="45.316025" lon="9.0195617"><ele>99.6</ele><time>2026-04-18T10:19:53.983Z</time></trkpt><trkpt lat="45.3159267" lon="9.0196367"><ele>99.4</ele><time>2026-04-18T10:19:54.983Z</time></trkpt><trkpt lat="45.315835" lon="9.0197133"><ele>99.2</ele><time>2026-04-18T10:19:55.983Z</time></trkpt><trkpt lat="45.3157483" lon="9.0197867"><ele>99.0</ele><time>2026-04-18T10:19:56.983Z</time></trkpt><trkpt lat="45.315665" lon="9.0198483"><ele>99.0</ele><time>2026-04-18T10:19:57.983Z</time></trkpt><trkpt lat="45.3155783" lon="9.01991"><ele>99.0</ele><time>2026-04-18T10:19:58.983Z</time></trkpt><trkpt lat="45.315495" lon="9.019965"><ele>99.0</ele><time>2026-04-18T10:19:59.983Z</time></trkpt><trkpt lat="45.3154033" lon="9.0199883"><ele>99.0</ele><time>2026-04-18T10:20:00.983Z</time></trkpt><trkpt lat="45.315305" lon="9.0199933"><ele>99.0</ele><time>2026-04-18T10:20:01.983Z</time></trkpt><trkpt lat="45.3151983" lon="9.0199883"><ele>99.2</ele><time>2026-04-18T10:20:02.983Z</time></trkpt><trkpt lat="45.3151033" lon="9.0200217"><ele>99.4</ele><time>2026-04-18T10:20:03.983Z</time></trkpt><trkpt lat="45.3150117" lon="9.0200733"><ele>99.6</ele><time>2026-04-18T10:20:04.983Z</time></trkpt><trkpt lat="45.314925" lon="9.020145"><ele>99.8</ele><time>2026-04-18T10:20:05.983Z</time></trkpt><trkpt lat="45.31484" lon="9.0202"><ele>100.0</ele><time>2026-04-18T10:20:06.983Z</time></trkpt><trkpt lat="45.314775" lon="9.0202667"><ele>100.0</ele><time>2026-04-18T10:20:07.983Z</time></trkpt><trkpt lat="45.3147317" lon="9.0204233"><ele>100.0</ele><time>2026-04-18T10:20:09.983Z</time></trkpt><trkpt lat="45.314745" lon="9.0205183"><ele>100.0</ele><time>2026-04-18T10:20:10.983Z</time></trkpt><trkpt lat="45.3147833" lon="9.020625"><ele>100.0</ele><time>2026-04-18T10:20:11.983Z</time></trkpt><trkpt lat="45.314855" lon="9.0207317"><ele>100.0</ele><time>2026-04-18T10:20:12.983Z</time></trkpt><trkpt lat="45.31493" lon="9.0208483"><ele>100.0</ele><time>2026-04-18T10:20:13.983Z</time></trkpt><trkpt lat="45.315005" lon="9.0209583"><ele>100.0</ele><time>2026-04-18T10:20:14.983Z</time></trkpt><trkpt lat="45.3150783" lon="9.021075"><ele>100.0</ele><time>2026-04-18T10:20:15.983Z</time></trkpt><trkpt lat="45.3151433" lon="9.021185"><ele>100.0</ele><time>2026-04-18T10:20:16.983Z</time></trkpt><trkpt lat="45.3152083" lon="9.02128"><ele>100.0</ele><time>2026-04-18T10:20:17.983Z</time></trkpt><trkpt lat="45.31527" lon="9.0213733"><ele>100.00000000000001</ele><time>2026-04-18T10:20:18.983Z</time></trkpt><trkpt lat="45.3153283" lon="9.02146"><ele>100.0</ele><time>2026-04-18T10:20:19.983Z</time></trkpt><trkpt lat="45.3153583" lon="9.0215933"><ele>100.0</ele><time>2026-04-18T10:20:21.983Z</time></trkpt><trkpt lat="45.3153217" lon="9.0216667"><ele>100.0</ele><time>2026-04-18T10:20:22.983Z</time></trkpt><trkpt lat="45.3152517" lon="9.0217333"><ele>100.00000000000001</ele><time>2026-04-18T10:20:23.984Z</time></trkpt><trkpt lat="45.3151733" lon="9.02179"><ele>100.0</ele><time>2026-04-18T10:20:24.983Z</time></trkpt><trkpt lat="45.315115" lon="9.0218483"><ele>100.0</ele><time>2026-04-18T10:20:25.983Z</time></trkpt><trkpt lat="45.3150567" lon="9.0218967"><ele>100.0</ele><time>2026-04-18T10:20:26.983Z</time></trkpt><trkpt lat="45.3149583" lon="9.02199"><ele>100.0</ele><time>2026-04-18T10:20:28.983Z</time></trkpt><trkpt lat="45.314855" lon="9.022095"><ele>100.0</ele><time>2026-04-18T10:20:30.984Z</time></trkpt><trkpt lat="45.3147967" lon="9.0221633"><ele>100.0</ele><time>2026-04-18T10:20:31.983Z</time></trkpt><trkpt lat="45.314745" lon="9.022225"><ele>100.0</ele><time>2026-04-18T10:20:32.983Z</time></trkpt><trkpt lat="45.3146883" lon="9.0223"><ele>100.0</ele><time>2026-04-18T10:20:34.983Z</time></trkpt><trkpt lat="45.3146767" lon="9.02247"><ele>100.0</ele><time>2026-04-18T10:20:41.983Z</time></trkpt><trkpt lat="45.3147683" lon="9.022615"><ele>100.0</ele><time>2026-04-18T10:20:43.984Z</time></trkpt><trkpt lat="45.3148217" lon="9.0227083"><ele>100.0</ele><time>2026-04-18T10:20:44.983Z</time></trkpt><trkpt lat="45.314875" lon="9.0227917"><ele>100.00000000000001</ele><time>2026-04-18T10:20:45.983Z</time></trkpt><trkpt lat="45.3149233" lon="9.022875"><ele>100.0</ele><time>2026-04-18T10:20:46.983Z</time></trkpt><trkpt lat="45.3149633" lon="9.02297"><ele>100.0</ele><time>2026-04-18T10:20:47.983Z</time></trkpt><trkpt lat="45.3149833" lon="9.02307"><ele>100.0</ele><time>2026-04-18T10:20:48.983Z</time></trkpt><trkpt lat="45.3149817" lon="9.02316"><ele>100.00000000000001</ele><time>2026-04-18T10:20:49.984Z</time></trkpt><trkpt lat="45.3149" lon="9.0233183"><ele>100.0</ele><time>2026-04-18T10:20:51.983Z</time></trkpt><trkpt lat="45.3148433" lon="9.023405"><ele>100.0</ele><time>2026-04-18T10:20:52.983Z</time></trkpt><trkpt lat="45.314775" lon="9.0234917"><ele>100.0</ele><time>2026-04-18T10:20:53.983Z</time></trkpt><trkpt lat="45.31471" lon="9.0235933"><ele>100.0</ele><time>2026-04-18T10:20:54.983Z</time></trkpt><trkpt lat="45.314635" lon="9.023705"><ele>100.0</ele><time>2026-04-18T10:20:55.983Z</time></trkpt><trkpt lat="45.3145617" lon="9.0238067"><ele>100.0</ele><time>2026-04-18T10:20:56.983Z</time></trkpt><trkpt lat="45.314485" lon="9.0239083"><ele>100.00000000000001</ele><time>2026-04-18T10:20:57.983Z</time></trkpt><trkpt lat="45.3144183" lon="9.0239917"><ele>100.0</ele><time>2026-04-18T10:20:58.983Z</time></trkpt><trkpt lat="45.314355" lon="9.024065"><ele>100.0</ele><time>2026-04-18T10:20:59.983Z</time></trkpt><trkpt lat="45.3142967" lon="9.0241367"><ele>100.0</ele><time>2026-04-18T10:21:00.984Z</time></trkpt><trkpt lat="45.3142183" lon="9.024245"><ele>100.00000000000001</ele><time>2026-04-18T10:21:02.984Z</time></trkpt><trkpt lat="45.3141467" lon="9.0242817"><ele>100.0</ele><time>2026-04-18T10:21:06.983Z</time></trkpt><trkpt lat="45.31408" lon="9.02422"><ele>100.00000000000001</ele><time>2026-04-18T10:21:08.983Z</time></trkpt><trkpt lat="45.3140067" lon="9.0241083"><ele>100.0</ele><time>2026-04-18T10:21:10.983Z</time></trkpt><trkpt lat="45.3139617" lon="9.0240333"><ele>100.0</ele><time>2026-04-18T10:21:11.983Z</time></trkpt><trkpt lat="45.3139183" lon="9.0239633"><ele>100.0</ele><time>2026-04-18T10:21:12.983Z</time></trkpt><trkpt lat="45.3138183" lon="9.02388"><ele>100.00000000000001</ele><time>2026-04-18T10:21:14.983Z</time></trkpt><trkpt lat="45.3137533" lon="9.023895"><ele>100.0</ele><time>2026-04-18T10:21:15.983Z</time></trkpt><trkpt lat="45.3136967" lon="9.0239483"><ele>100.0</ele><time>2026-04-18T10:21:16.983Z</time></trkpt><trkpt lat="45.313635" lon="9.0240317"><ele>100.0</ele><time>2026-04-18T10:21:17.983Z</time></trkpt><trkpt lat="45.3135633" lon="9.0241267"><ele>100.0</ele><time>2026-04-18T10:21:18.983Z</time></trkpt><trkpt lat="45.31348" lon="9.0242383"><ele>100.0</ele><time>2026-04-18T10:21:19.983Z</time></trkpt><trkpt lat="45.3134" lon="9.0243417"><ele>100.0</ele><time>2026-04-18T10:21:20.983Z</time></trkpt><trkpt lat="45.3133183" lon="9.0244283"><ele>100.0</ele><time>2026-04-18T10:21:21.983Z</time></trkpt><trkpt lat="45.3132383" lon="9.0245217"><ele>100.0</ele><time>2026-04-18T10:21:22.983Z</time></trkpt><trkpt lat="45.3131533" lon="9.0246217"><ele>100.0</ele><time>2026-04-18T10:21:23.983Z</time></trkpt><trkpt lat="45.313065" lon="9.0247117"><ele>100.0</ele><time>2026-04-18T10:21:24.983Z</time></trkpt><trkpt lat="45.31299" lon="9.0248033"><ele>100.0</ele><time>2026-04-18T10:21:25.984Z</time></trkpt><trkpt lat="45.3129167" lon="9.0249017"><ele>100.0</ele><time>2026-04-18T10:21:26.984Z</time></trkpt><trkpt lat="45.3128333" lon="9.0250033"><ele>100.0</ele><time>2026-04-18T10:21:27.983Z</time></trkpt><trkpt lat="45.312745" lon="9.0250867"><ele>100.0</ele><time>2026-04-18T10:21:28.983Z</time></trkpt><trkpt lat="45.3126567" lon="9.025175"><ele>100.0</ele><time>2026-04-18T10:21:29.984Z</time></trkpt><trkpt lat="45.3125617" lon="9.0252533"><ele>100.0</ele><time>2026-04-18T10:21:30.983Z</time></trkpt><trkpt lat="45.312465" lon="9.02532"><ele>100.0</ele><time>2026-04-18T10:21:31.983Z</time></trkpt><trkpt lat="45.3123717" lon="9.02537"><ele>100.0</ele><time>2026-04-18T10:21:32.983Z</time></trkpt><trkpt lat="45.3122783" lon="9.025415"><ele>100.0</ele><time>2026-04-18T10:21:33.983Z</time></trkpt><trkpt lat="45.3121817" lon="9.025445"><ele>100.0</ele><time>2026-04-18T10:21:34.983Z</time></trkpt><trkpt lat="45.3120883" lon="9.0254717"><ele>100.0</ele><time>2026-04-18T10:21:35.983Z</time></trkpt><trkpt lat="45.3119917" lon="9.0254867"><ele>100.25</ele><time>2026-04-18T10:21:36.983Z</time></trkpt><trkpt lat="45.3118817" lon="9.0254733"><ele>100.5</ele><time>2026-04-18T10:21:37.983Z</time></trkpt><trkpt lat="45.3117833" lon="9.0254283"><ele>100.75</ele><time>2026-04-18T10:21:38.983Z</time></trkpt><trkpt lat="45.3116633" lon="9.0253367"><ele>101.0</ele><time>2026-04-18T10:21:39.983Z</time></trkpt><trkpt lat="45.3115433" lon="9.0252467"><ele>101.0</ele><time>2026-04-18T10:21:40.983Z</time></trkpt><trkpt lat="45.3114367" lon="9.02513"><ele>101.0</ele><time>2026-04-18T10:21:41.983Z</time></trkpt><trkpt lat="45.3113367" lon="9.0250433"><ele>101.0</ele><time>2026-04-18T10:21:42.983Z</time></trkpt><trkpt lat="45.311255" lon="9.0249583"><ele>101.0</ele><time>2026-04-18T10:21:43.983Z</time></trkpt><trkpt lat="45.3111633" lon="9.0248667"><ele>100.75</ele><time>2026-04-18T10:21:44.983Z</time></trkpt><trkpt lat="45.31106" lon="9.0247833"><ele>100.5</ele><time>2026-04-18T10:21:45.983Z</time></trkpt><trkpt lat="45.3109583" lon="9.0246917"><ele>100.25</ele><time>2026-04-18T10:21:46.983Z</time></trkpt><trkpt lat="45.3108567" lon="9.0246033"><ele>100.0</ele><time>2026-04-18T10:21:47.983Z</time></trkpt><trkpt lat="45.3107633" lon="9.0245217"><ele>100.0</ele><time>2026-04-18T10:21:48.983Z</time></trkpt><trkpt lat="45.3106867" lon="9.024445"><ele>100.0</ele><time>2026-04-18T10:21:49.983Z</time></trkpt><trkpt lat="45.31062" lon="9.0243883"><ele>100.0</ele><time>2026-04-18T10:21:50.983Z</time></trkpt><trkpt lat="45.31053" lon="9.0243317"><ele>100.0</ele><time>2026-04-18T10:21:52.983Z</time></trkpt><trkpt lat="45.31047" lon="9.0242317"><ele>100.0</ele><time>2026-04-18T10:21:56.983Z</time></trkpt><trkpt lat="45.3104117" lon="9.02412"><ele>100.00000000000001</ele><time>2026-04-18T10:21:58.984Z</time></trkpt><trkpt lat="45.3103717" lon="9.0240367"><ele>100.0</ele><time>2026-04-18T10:21:59.983Z</time></trkpt><trkpt lat="45.3103233" lon="9.0239533"><ele>100.0</ele><time>2026-04-18T10:22:00.983Z</time></trkpt><trkpt lat="45.3102683" lon="9.0238517"><ele>100.0</ele><time>2026-04-18T10:22:01.983Z</time></trkpt><trkpt lat="45.31021" lon="9.0237483"><ele>100.00000000000001</ele><time>2026-04-18T10:22:02.983Z</time></trkpt><trkpt lat="45.310155" lon="9.0236417"><ele>100.0</ele><time>2026-04-18T10:22:03.983Z</time></trkpt><trkpt lat="45.3100933" lon="9.02354"><ele>100.0</ele><time>2026-04-18T10:22:04.983Z</time></trkpt><trkpt lat="45.3100283" lon="9.0234217"><ele>100.0</ele><time>2026-04-18T10:22:05.984Z</time></trkpt><trkpt lat="45.3099617" lon="9.0233033"><ele>100.0</ele><time>2026-04-18T10:22:06.983Z</time></trkpt><trkpt lat="45.309895" lon="9.023185"><ele>100.0</ele><time>2026-04-18T10:22:07.983Z</time></trkpt><trkpt lat="45.309835" lon="9.02307"><ele>100.0</ele><time>2026-04-18T10:22:08.983Z</time></trkpt><trkpt lat="45.3097917" lon="9.0229767"><ele>100.00000000000001</ele><time>2026-04-18T10:22:09.983Z</time></trkpt><trkpt lat="45.3097383" lon="9.022875"><ele>100.0</ele><time>2026-04-18T10:22:11.983Z</time></trkpt><trkpt lat="45.3096367" lon="9.0228667"><ele>100.0</ele><time>2026-04-18T10:22:15.983Z</time></trkpt><trkpt lat="45.30958" lon="9.0229133"><ele>100.0</ele><time>2026-04-18T10:22:16.983Z</time></trkpt><trkpt lat="45.3095083" lon="9.0229783"><ele>100.00000000000001</ele><time>2026-04-18T10:22:17.983Z</time></trkpt><trkpt lat="45.3094267" lon="9.0230383"><ele>100.0</ele><time>2026-04-18T10:22:18.983Z</time></trkpt><trkpt lat="45.3093383" lon="9.0231167"><ele>100.0</ele><time>2026-04-18T10:22:19.983Z</time></trkpt><trkpt lat="45.309245" lon="9.023185"><ele>100.0</ele><time>2026-04-18T10:22:20.984Z</time></trkpt><trkpt lat="45.3091483" lon="9.0232567"><ele>100.0</ele><time>2026-04-18T10:22:21.983Z</time></trkpt><trkpt lat="45.3090583" lon="9.023335"><ele>100.0</ele><time>2026-04-18T10:22:22.983Z</time></trkpt><trkpt lat="45.3089667" lon="9.02342"><ele>100.0</ele><time>2026-04-18T10:22:23.983Z</time></trkpt><trkpt lat="45.30888" lon="9.0235033"><ele>100.0</ele><time>2026-04-18T10:22:24.983Z</time></trkpt><trkpt lat="45.308815" lon="9.0235717"><ele>100.0</ele><time>2026-04-18T10:22:25.983Z</time></trkpt><trkpt lat="45.30872" lon="9.023625"><ele>100.0</ele><time>2026-04-18T10:22:27.984Z</time></trkpt><trkpt lat="45.308665" lon="9.0235517"><ele>100.0</ele><time>2026-04-18T10:22:29.983Z</time></trkpt><trkpt lat="45.30861" lon="9.0233783"><ele>100.0</ele><time>2026-04-18T10:22:31.983Z</time></trkpt><trkpt lat="45.3085783" lon="9.0232667"><ele>100.00000000000001</ele><time>2026-04-18T10:22:32.983Z</time></trkpt><trkpt lat="45.308535" lon="9.0231617"><ele>100.0</ele><time>2026-04-18T10:22:33.983Z</time></trkpt><trkpt lat="45.308475" lon="9.0230467"><ele>100.0</ele><time>2026-04-18T10:22:34.984Z</time></trkpt><trkpt lat="45.308425" lon="9.0229367"><ele>100.0</ele><time>2026-04-18T10:22:35.984Z</time></trkpt><trkpt lat="45.3083883" lon="9.0228417"><ele>100.00000000000001</ele><time>2026-04-18T10:22:36.983Z</time></trkpt><trkpt lat="45.30834" lon="9.0227317"><ele>100.0</ele><time>2026-04-18T10:22:38.983Z</time></trkpt><trkpt lat="45.30831" lon="9.02264"><ele>100.0</ele><time>2026-04-18T10:22:45.983Z</time></trkpt><trkpt lat="45.3082267" lon="9.0225033"><ele>100.0</ele><time>2026-04-18T10:22:47.984Z</time></trkpt><trkpt lat="45.3081517" lon="9.0224217"><ele>100.0</ele><time>2026-04-18T10:22:48.983Z</time></trkpt><trkpt lat="45.3080833" lon="9.0223233"><ele>100.0</ele><time>2026-04-18T10:22:49.984Z</time></trkpt><trkpt lat="45.308" lon="9.0222317"><ele>100.0</ele><time>2026-04-18T10:22:50.983Z</time></trkpt><trkpt lat="45.3079233" lon="9.0221417"><ele>100.0</ele><time>2026-04-18T10:22:51.983Z</time></trkpt><trkpt lat="45.3078433" lon="9.0220433"><ele>100.0</ele><time>2026-04-18T10:22:52.983Z</time></trkpt><trkpt lat="45.3077667" lon="9.0219567"><ele>100.0</ele><time>2026-04-18T10:22:53.984Z</time></trkpt><trkpt lat="45.3077067" lon="9.021875"><ele>100.0</ele><time>2026-04-18T10:22:54.983Z</time></trkpt><trkpt lat="45.3076267" lon="9.0217783"><ele>100.0</ele><time>2026-04-18T10:22:56.983Z</time></trkpt><trkpt lat="45.30756" lon="9.0217733"><ele>100.00000000000001</ele><time>2026-04-18T10:22:58.983Z</time></trkpt><trkpt lat="45.3074967" lon="9.02186"><ele>100.0</ele><time>2026-04-18T10:23:00.984Z</time></trkpt><trkpt lat="45.307455" lon="9.0219383"><ele>100.0</ele><time>2026-04-18T10:23:01.983Z</time></trkpt><trkpt lat="45.307405" lon="9.0220333"><ele>100.0</ele><time>2026-04-18T10:23:02.983Z</time></trkpt><trkpt lat="45.3073567" lon="9.022115"><ele>100.00000000000001</ele><time>2026-04-18T10:23:03.983Z</time></trkpt><trkpt lat="45.3073133" lon="9.0221833"><ele>100.0</ele><time>2026-04-18T10:23:04.983Z</time></trkpt><trkpt lat="45.3072533" lon="9.0222683"><ele>100.0</ele><time>2026-04-18T10:23:06.984Z</time></trkpt><trkpt lat="45.3071617" lon="9.0222833"><ele>100.0</ele><time>2026-04-18T10:23:12.983Z</time></trkpt><trkpt lat="45.3070417" lon="9.0222033"><ele>100.0</ele><time>2026-04-18T10:23:14.983Z</time></trkpt><trkpt lat="45.3069567" lon="9.02214"><ele>100.0</ele><time>2026-04-18T10:23:15.983Z</time></trkpt><trkpt lat="45.3068717" lon="9.02208"><ele>100.0</ele><time>2026-04-18T10:23:16.983Z</time></trkpt><trkpt lat="45.3068" lon="9.022025"><ele>100.00000000000001</ele><time>2026-04-18T10:23:17.983Z</time></trkpt><trkpt lat="45.30673" lon="9.0219717"><ele>100.0</ele><time>2026-04-18T10:23:18.983Z</time></trkpt><trkpt lat="45.3066683" lon="9.0219217"><ele>100.0</ele><time>2026-04-18T10:23:19.983Z</time></trkpt><trkpt lat="45.3066033" lon="9.0218817"><ele>100.0</ele><time>2026-04-18T10:23:20.983Z</time></trkpt><trkpt lat="45.3065317" lon="9.0218383"><ele>100.00000000000001</ele><time>2026-04-18T10:23:21.983Z</time></trkpt><trkpt lat="45.3064617" lon="9.0217883"><ele>100.0</ele><time>2026-04-18T10:23:22.983Z</time></trkpt><trkpt lat="45.3063783" lon="9.02174"><ele>100.00000000000001</ele><time>2026-04-18T10:23:23.983Z</time></trkpt><trkpt lat="45.3063033" lon="9.02169"><ele>100.0</ele><time>2026-04-18T10:23:24.983Z</time></trkpt><trkpt lat="45.3062417" lon="9.0216333"><ele>100.0</ele><time>2026-04-18T10:23:25.983Z</time></trkpt><trkpt lat="45.30618" lon="9.02159"><ele>100.0</ele><time>2026-04-18T10:23:26.983Z</time></trkpt><trkpt lat="45.3061233" lon="9.0215483"><ele>100.00000000000001</ele><time>2026-04-18T10:23:27.983Z</time></trkpt><trkpt lat="45.306055" lon="9.0215133"><ele>100.0</ele><time>2026-04-18T10:23:29.983Z</time></trkpt><trkpt lat="45.3059683" lon="9.021485"><ele>99.83333333333334</ele><time>2026-04-18T10:23:35.983Z</time></trkpt><trkpt lat="45.305905" lon="9.0214567"><ele>99.66666666666667</ele><time>2026-04-18T10:23:36.983Z</time></trkpt><trkpt lat="45.305835" lon="9.0214167"><ele>99.5</ele><time>2026-04-18T10:23:37.983Z</time></trkpt><trkpt lat="45.305755" lon="9.021365"><ele>99.33333333333334</ele><time>2026-04-18T10:23:38.983Z</time></trkpt><trkpt lat="45.305675" lon="9.0213133"><ele>99.16666666666667</ele><time>2026-04-18T10:23:39.983Z</time></trkpt><trkpt lat="45.3055883" lon="9.021255"><ele>99.0</ele><time>2026-04-18T10:23:40.983Z</time></trkpt><trkpt lat="45.305495" lon="9.0211933"><ele>99.4</ele><time>2026-04-18T10:23:41.983Z</time></trkpt><trkpt lat="45.3053967" lon="9.021135"><ele>99.80000000000001</ele><time>2026-04-18T10:23:42.983Z</time></trkpt><trkpt lat="45.3052967" lon="9.02109"><ele>100.19999999999999</ele><time>2026-04-18T10:23:43.982Z</time></trkpt><trkpt lat="45.3052167" lon="9.02105"><ele>100.6</ele><time>2026-04-18T10:23:44.982Z</time></trkpt><trkpt lat="45.3051433" lon="9.0210117"><ele>101.0</ele><time>2026-04-18T10:23:45.982Z</time></trkpt><trkpt lat="45.30505" lon="9.0209467"><ele>101.0</ele><time>2026-04-18T10:23:47.982Z</time></trkpt><trkpt lat="45.3049733" lon="9.0209233"><ele>101.0</ele><time>2026-04-18T10:23:50.982Z</time></trkpt><trkpt lat="45.3049083" lon="9.0209267"><ele>101.0</ele><time>2026-04-18T10:23:52.982Z</time></trkpt><trkpt lat="45.3047833" lon="9.0208883"><ele>101.0</ele><time>2026-04-18T10:23:54.982Z</time></trkpt><trkpt lat="45.3046917" lon="9.02085"><ele>101.0</ele><time>2026-04-18T10:23:55.982Z</time></trkpt><trkpt lat="45.3045933" lon="9.0208033"><ele>100.5</ele><time>2026-04-18T10:23:56.982Z</time></trkpt><trkpt lat="45.3044867" lon="9.0207383"><ele>100.0</ele><time>2026-04-18T10:23:57.982Z</time></trkpt><trkpt lat="45.3043883" lon="9.0206633"><ele>99.5</ele><time>2026-04-18T10:23:58.982Z</time></trkpt><trkpt lat="45.3042717" lon="9.020595"><ele>99.0</ele><time>2026-04-18T10:23:59.982Z</time></trkpt><trkpt lat="45.3041533" lon="9.0205217"><ele>99.0</ele><time>2026-04-18T10:24:00.982Z</time></trkpt><trkpt lat="45.3040383" lon="9.0204317"><ele>99.0</ele><time>2026-04-18T10:24:01.982Z</time></trkpt><trkpt lat="45.3039317" lon="9.0203467"><ele>99.0</ele><time>2026-04-18T10:24:02.982Z</time></trkpt><trkpt lat="45.3038367" lon="9.020285"><ele>99.0</ele><time>2026-04-18T10:24:03.982Z</time></trkpt><trkpt lat="45.3037583" lon="9.020225"><ele>99.0</ele><time>2026-04-18T10:24:04.982Z</time></trkpt><trkpt lat="45.3036917" lon="9.0201767"><ele>98.83333333333333</ele><time>2026-04-18T10:24:05.982Z</time></trkpt><trkpt lat="45.303625" lon="9.0201317"><ele>98.66666666666666</ele><time>2026-04-18T10:24:06.982Z</time></trkpt><trkpt lat="45.303555" lon="9.0200817"><ele>98.5</ele><time>2026-04-18T10:24:07.983Z</time></trkpt><trkpt lat="45.3034817" lon="9.0200317"><ele>98.33333333333333</ele><time>2026-04-18T10:24:08.982Z</time></trkpt><trkpt lat="45.303405" lon="9.019975"><ele>98.16666666666666</ele><time>2026-04-18T10:24:09.982Z</time></trkpt><trkpt lat="45.3033233" lon="9.0199167"><ele>98.0</ele><time>2026-04-18T10:24:10.982Z</time></trkpt><trkpt lat="45.303235" lon="9.01985"><ele>98.0</ele><time>2026-04-18T10:24:11.982Z</time></trkpt><trkpt lat="45.3031417" lon="9.019785"><ele>98.0</ele><time>2026-04-18T10:24:12.982Z</time></trkpt><trkpt lat="45.3030467" lon="9.0197083"><ele>98.0</ele><time>2026-04-18T10:24:13.982Z</time></trkpt><trkpt lat="45.30295" lon="9.0196383"><ele>98.0</ele><time>2026-04-18T10:24:14.983Z</time></trkpt><trkpt lat="45.3028533" lon="9.0195667"><ele>98.0</ele><time>2026-04-18T10:24:15.983Z</time></trkpt><trkpt lat="45.302755" lon="9.0194917"><ele>98.0</ele><time>2026-04-18T10:24:16.982Z</time></trkpt><trkpt lat="45.3026483" lon="9.0194183"><ele>98.0</ele><time>2026-04-18T10:24:17.982Z</time></trkpt><trkpt lat="45.3025383" lon="9.0193533"><ele>98.0</ele><time>2026-04-18T10:24:18.983Z</time></trkpt><trkpt lat="45.3024367" lon="9.01929"><ele>98.0</ele><time>2026-04-18T10:24:19.982Z</time></trkpt><trkpt lat="45.302345" lon="9.0192417"><ele>98.0</ele><time>2026-04-18T10:24:20.982Z</time></trkpt><trkpt lat="45.3022633" lon="9.0191933"><ele>97.80000000000001</ele><time>2026-04-18T10:24:21.982Z</time></trkpt><trkpt lat="45.3021767" lon="9.019145"><ele>97.6</ele><time>2026-04-18T10:24:22.982Z</time></trkpt><trkpt lat="45.3020817" lon="9.01911"><ele>97.4</ele><time>2026-04-18T10:24:23.982Z</time></trkpt><trkpt lat="45.3019917" lon="9.01906"><ele>97.19999999999999</ele><time>2026-04-18T10:24:24.982Z</time></trkpt><trkpt lat="45.3019067" lon="9.0190033"><ele>97.0</ele><time>2026-04-18T10:24:25.982Z</time></trkpt><trkpt lat="45.3018183" lon="9.0189417"><ele>97.0</ele><time>2026-04-18T10:24:26.982Z</time></trkpt><trkpt lat="45.3017317" lon="9.018875"><ele>97.0</ele><time>2026-04-18T10:24:27.982Z</time></trkpt><trkpt lat="45.3016417" lon="9.0188033"><ele>97.0</ele><time>2026-04-18T10:24:28.982Z</time></trkpt><trkpt lat="45.30155" lon="9.0187283"><ele>97.0</ele><time>2026-04-18T10:24:29.982Z</time></trkpt><trkpt lat="45.3014533" lon="9.0186567"><ele>97.0</ele><time>2026-04-18T10:24:30.982Z</time></trkpt><trkpt lat="45.3013467" lon="9.0185917"><ele>97.25</ele><time>2026-04-18T10:24:31.982Z</time></trkpt><trkpt lat="45.301235" lon="9.01854"><ele>97.5</ele><time>2026-04-18T10:24:32.982Z</time></trkpt><trkpt lat="45.3011233" lon="9.018485"><ele>97.75</ele><time>2026-04-18T10:24:33.982Z</time></trkpt><trkpt lat="45.301015" lon="9.0184383"><ele>98.0</ele><time>2026-04-18T10:24:34.982Z</time></trkpt><trkpt lat="45.300905" lon="9.0184"><ele>98.0</ele><time>2026-04-18T10:24:35.982Z</time></trkpt><trkpt lat="45.300795" lon="9.0183667"><ele>98.0</ele><time>2026-04-18T10:24:36.982Z</time></trkpt><trkpt lat="45.300685" lon="9.0183367"><ele>98.0</ele><time>2026-04-18T10:24:37.982Z</time></trkpt><trkpt lat="45.30057" lon="9.0183017"><ele>98.0</ele><time>2026-04-18T10:24:38.983Z</time></trkpt><trkpt lat="45.3004517" lon="9.0182633"><ele>97.5</ele><time>2026-04-18T10:24:39.982Z</time></trkpt><trkpt lat="45.3003417" lon="9.0182167"><ele>97.0</ele><time>2026-04-18T10:24:40.982Z</time></trkpt><trkpt lat="45.300225" lon="9.01816"><ele>96.5</ele><time>2026-04-18T10:24:41.982Z</time></trkpt><trkpt lat="45.3001117" lon="9.0181"><ele>96.0</ele><time>2026-04-18T10:24:42.982Z</time></trkpt><trkpt lat="45.2999967" lon="9.0180267"><ele>96.0</ele><time>2026-04-18T10:24:43.982Z</time></trkpt><trkpt lat="45.2998883" lon="9.0179367"><ele>96.0</ele><time>2026-04-18T10:24:44.982Z</time></trkpt><trkpt lat="45.299785" lon="9.0178583"><ele>96.0</ele><time>2026-04-18T10:24:45.982Z</time></trkpt><trkpt lat="45.29969" lon="9.0177833"><ele>96.0</ele><time>2026-04-18T10:24:46.982Z</time></trkpt><trkpt lat="45.2996033" lon="9.0177033"><ele>96.0</ele><time>2026-04-18T10:24:47.982Z</time></trkpt><trkpt lat="45.2995167" lon="9.0176367"><ele>96.0</ele><time>2026-04-18T10:24:48.982Z</time></trkpt><trkpt lat="45.299425" lon="9.01757"><ele>96.0</ele><time>2026-04-18T10:24:49.982Z</time></trkpt><trkpt lat="45.29933" lon="9.0175167"><ele>96.0</ele><time>2026-04-18T10:24:50.982Z</time></trkpt><trkpt lat="45.2992267" lon="9.0174483"><ele>96.0</ele><time>2026-04-18T10:24:51.982Z</time></trkpt><trkpt lat="45.2991167" lon="9.017375"><ele>96.0</ele><time>2026-04-18T10:24:52.982Z</time></trkpt><trkpt lat="45.29901" lon="9.0172933"><ele>96.0</ele><time>2026-04-18T10:24:53.982Z</time></trkpt><trkpt lat="45.2989" lon="9.01723"><ele>96.0</ele><time>2026-04-18T10:24:54.982Z</time></trkpt><trkpt lat="45.2987883" lon="9.0171667"><ele>96.0</ele><time>2026-04-18T10:24:55.983Z</time></trkpt><trkpt lat="45.2986733" lon="9.0171067"><ele>95.5</ele><time>2026-04-18T10:24:56.982Z</time></trkpt><trkpt lat="45.2985583" lon="9.0170433"><ele>95.0</ele><time>2026-04-18T10:24:57.982Z</time></trkpt><trkpt lat="45.29844" lon="9.0169883"><ele>94.5</ele><time>2026-04-18T10:24:58.982Z</time></trkpt><trkpt lat="45.298325" lon="9.0169217"><ele>94.0</ele><time>2026-04-18T10:24:59.982Z</time></trkpt><trkpt lat="45.2982033" lon="9.0168483"><ele>94.0</ele><time>2026-04-18T10:25:00.983Z</time></trkpt><trkpt lat="45.2980867" lon="9.0167683"><ele>94.0</ele><time>2026-04-18T10:25:01.982Z</time></trkpt><trkpt lat="45.2979767" lon="9.0166833"><ele>94.0</ele><time>2026-04-18T10:25:02.982Z</time></trkpt><trkpt lat="45.2978683" lon="9.0165883"><ele>94.0</ele><time>2026-04-18T10:25:03.982Z</time></trkpt><trkpt lat="45.2977633" lon="9.0165017"><ele>94.6</ele><time>2026-04-18T10:25:04.982Z</time></trkpt><trkpt lat="45.29767" lon="9.0164067"><ele>95.2</ele><time>2026-04-18T10:25:05.982Z</time></trkpt><trkpt lat="45.2975817" lon="9.016325"><ele>95.8</ele><time>2026-04-18T10:25:06.982Z</time></trkpt><trkpt lat="45.297495" lon="9.01624"><ele>96.39999999999999</ele><time>2026-04-18T10:25:07.982Z</time></trkpt><trkpt lat="45.2974067" lon="9.0161467"><ele>97.0</ele><time>2026-04-18T10:25:08.982Z</time></trkpt><trkpt lat="45.2973233" lon="9.0160667"><ele>97.0</ele><time>2026-04-18T10:25:09.982Z</time></trkpt><trkpt lat="45.2972383" lon="9.0159783"><ele>97.0</ele><time>2026-04-18T10:25:10.982Z</time></trkpt><trkpt lat="45.29716" lon="9.0158933"><ele>97.0</ele><time>2026-04-18T10:25:11.982Z</time></trkpt><trkpt lat="45.2970817" lon="9.0158133"><ele>97.0</ele><time>2026-04-18T10:25:12.982Z</time></trkpt><trkpt lat="45.2970017" lon="9.01573"><ele>97.0</ele><time>2026-04-18T10:25:13.982Z</time></trkpt><trkpt lat="45.2969233" lon="9.0156567"><ele>97.0</ele><time>2026-04-18T10:25:14.982Z</time></trkpt><trkpt lat="45.2968333" lon="9.015575"><ele>97.0</ele><time>2026-04-18T10:25:15.982Z</time></trkpt><trkpt lat="45.296745" lon="9.0154967"><ele>97.0</ele><time>2026-04-18T10:25:16.982Z</time></trkpt><trkpt lat="45.2966567" lon="9.0154117"><ele>97.0</ele><time>2026-04-18T10:25:17.982Z</time></trkpt><trkpt lat="45.2965683" lon="9.0153233"><ele>97.0</ele><time>2026-04-18T10:25:18.982Z</time></trkpt><trkpt lat="45.296485" lon="9.0152417"><ele>97.0</ele><time>2026-04-18T10:25:19.982Z</time></trkpt><trkpt lat="45.2964" lon="9.0151633"><ele>97.0</ele><time>2026-04-18T10:25:20.982Z</time></trkpt><trkpt lat="45.29631" lon="9.0150783"><ele>97.0</ele><time>2026-04-18T10:25:21.982Z</time></trkpt><trkpt lat="45.2962233" lon="9.015005"><ele>97.0</ele><time>2026-04-18T10:25:22.982Z</time></trkpt><trkpt lat="45.2961333" lon="9.01492"><ele>97.0</ele><time>2026-04-18T10:25:23.982Z</time></trkpt><trkpt lat="45.29605" lon="9.0148467"><ele>97.0</ele><time>2026-04-18T10:25:24.982Z</time></trkpt><trkpt lat="45.2959617" lon="9.0147717"><ele>97.0</ele><time>2026-04-18T10:25:25.982Z</time></trkpt><trkpt lat="45.2958783" lon="9.0147067"><ele>97.0</ele><time>2026-04-18T10:25:26.982Z</time></trkpt><trkpt lat="45.2957933" lon="9.014655"><ele>97.0</ele><time>2026-04-18T10:25:27.982Z</time></trkpt><trkpt lat="45.29571" lon="9.0146117"><ele>97.0</ele><time>2026-04-18T10:25:28.982Z</time></trkpt><trkpt lat="45.2956267" lon="9.0145567"><ele>96.8</ele><time>2026-04-18T10:25:29.982Z</time></trkpt><trkpt lat="45.2955417" lon="9.0144983"><ele>96.6</ele><time>2026-04-18T10:25:30.982Z</time></trkpt><trkpt lat="45.2954583" lon="9.0144083"><ele>96.39999999999999</ele><time>2026-04-18T10:25:31.982Z</time></trkpt><trkpt lat="45.295365" lon="9.0143233"><ele>96.19999999999999</ele><time>2026-04-18T10:25:32.982Z</time></trkpt><trkpt lat="45.2952683" lon="9.0142483"><ele>96.0</ele><time>2026-04-18T10:25:33.982Z</time></trkpt><trkpt lat="45.2951783" lon="9.0141683"><ele>96.0</ele><time>2026-04-18T10:25:34.982Z</time></trkpt><trkpt lat="45.2951017" lon="9.0141017"><ele>96.0</ele><time>2026-04-18T10:25:35.982Z</time></trkpt><trkpt lat="45.2950333" lon="9.0140417"><ele>96.0</ele><time>2026-04-18T10:25:36.983Z</time></trkpt><trkpt lat="45.29497" lon="9.013975"><ele>96.0</ele><time>2026-04-18T10:25:37.982Z</time></trkpt><trkpt lat="45.2949067" lon="9.013915"><ele>96.0</ele><time>2026-04-18T10:25:38.983Z</time></trkpt><trkpt lat="45.2948433" lon="9.0138517"><ele>96.0</ele><time>2026-04-18T10:25:39.982Z</time></trkpt><trkpt lat="45.2947883" lon="9.013795"><ele>96.0</ele><time>2026-04-18T10:25:40.982Z</time></trkpt><trkpt lat="45.2947367" lon="9.0137433"><ele>96.0</ele><time>2026-04-18T10:25:41.982Z</time></trkpt><trkpt lat="45.29468" lon="9.0136783"><ele>96.0</ele><time>2026-04-18T10:25:42.983Z</time></trkpt><trkpt lat="45.2946233" lon="9.01361"><ele>96.0</ele><time>2026-04-18T10:25:43.982Z</time></trkpt><trkpt lat="45.29456" lon="9.01354"><ele>96.0</ele><time>2026-04-18T10:25:44.982Z</time></trkpt><trkpt lat="45.294495" lon="9.0134683"><ele>96.0</ele><time>2026-04-18T10:25:45.982Z</time></trkpt><trkpt lat="45.294435" lon="9.0133983"><ele>96.0</ele><time>2026-04-18T10:25:46.982Z</time></trkpt><trkpt lat="45.2943683" lon="9.0133317"><ele>96.0</ele><time>2026-04-18T10:25:47.982Z</time></trkpt><trkpt lat="45.2942967" lon="9.0132633"><ele>96.0</ele><time>2026-04-18T10:25:48.982Z</time></trkpt><trkpt lat="45.29423" lon="9.0131933"><ele>96.0</ele><time>2026-04-18T10:25:49.982Z</time></trkpt><trkpt lat="45.2941683" lon="9.01313"><ele>96.0</ele><time>2026-04-18T10:25:50.982Z</time></trkpt><trkpt lat="45.29411" lon="9.0130617"><ele>96.0</ele><time>2026-04-18T10:25:51.982Z</time></trkpt><trkpt lat="45.2940383" lon="9.0129867"><ele>95.8</ele><time>2026-04-18T10:25:52.982Z</time></trkpt><trkpt lat="45.293965" lon="9.012915"><ele>95.6</ele><time>2026-04-18T10:25:53.982Z</time></trkpt><trkpt lat="45.2938933" lon="9.0128367"><ele>95.4</ele><time>2026-04-18T10:25:54.982Z</time></trkpt><trkpt lat="45.2938133" lon="9.0127683"><ele>95.2</ele><time>2026-04-18T10:25:55.982Z</time></trkpt><trkpt lat="45.29373" lon="9.0126867"><ele>95.0</ele><time>2026-04-18T10:25:56.982Z</time></trkpt><trkpt lat="45.293645" lon="9.0126083"><ele>95.2</ele><time>2026-04-18T10:25:57.982Z</time></trkpt><trkpt lat="45.2935633" lon="9.01252"><ele>95.4</ele><time>2026-04-18T10:25:58.982Z</time></trkpt><trkpt lat="45.2934783" lon="9.0124417"><ele>95.6</ele><time>2026-04-18T10:25:59.982Z</time></trkpt><trkpt lat="45.2933933" lon="9.0123583"><ele>95.8</ele><time>2026-04-18T10:26:00.982Z</time></trkpt><trkpt lat="45.293305" lon="9.0122683"><ele>96.0</ele><time>2026-04-18T10:26:01.982Z</time></trkpt><trkpt lat="45.2932167" lon="9.0121883"><ele>96.0</ele><time>2026-04-18T10:26:02.982Z</time></trkpt><trkpt lat="45.29312" lon="9.0121183"><ele>96.0</ele><time>2026-04-18T10:26:03.982Z</time></trkpt><trkpt lat="45.29303" lon="9.012045"><ele>96.0</ele><time>2026-04-18T10:26:04.982Z</time></trkpt><trkpt lat="45.2929533" lon="9.0119683"><ele>96.0</ele><time>2026-04-18T10:26:05.982Z</time></trkpt><trkpt lat="45.2928833" lon="9.0119133"><ele>96.0</ele><time>2026-04-18T10:26:06.982Z</time></trkpt><trkpt lat="45.292815" lon="9.0118567"><ele>96.0</ele><time>2026-04-18T10:26:07.982Z</time></trkpt><trkpt lat="45.2927567" lon="9.01181"><ele>96.0</ele><time>2026-04-18T10:26:08.982Z</time></trkpt><trkpt lat="45.2926683" lon="9.011745"><ele>96.0</ele><time>2026-04-18T10:26:10.982Z</time></trkpt><trkpt lat="45.2926117" lon="9.0116867"><ele>96.0</ele><time>2026-04-18T10:26:12.982Z</time></trkpt><trkpt lat="45.2925433" lon="9.0116283"><ele>96.0</ele><time>2026-04-18T10:26:14.982Z</time></trkpt><trkpt lat="45.2924583" lon="9.0115417"><ele>96.0</ele><time>2026-04-18T10:26:16.982Z</time></trkpt><trkpt lat="45.2923767" lon="9.0114467"><ele>96.0</ele><time>2026-04-18T10:26:18.982Z</time></trkpt><trkpt lat="45.292285" lon="9.0113383"><ele>96.0</ele><time>2026-04-18T10:26:20.982Z</time></trkpt><trkpt lat="45.29223" lon="9.0112783"><ele>96.0</ele><time>2026-04-18T10:26:21.982Z</time></trkpt><trkpt lat="45.2921683" lon="9.01123"><ele>96.0</ele><time>2026-04-18T10:26:22.982Z</time></trkpt><trkpt lat="45.2921067" lon="9.0111783"><ele>96.0</ele><time>2026-04-18T10:26:23.982Z</time></trkpt><trkpt lat="45.2920483" lon="9.0111433"><ele>96.0</ele><time>2026-04-18T10:26:24.983Z</time></trkpt><trkpt lat="45.29199" lon="9.0111083"><ele>96.5</ele><time>2026-04-18T10:26:25.982Z</time></trkpt><trkpt lat="45.291875" lon="9.0110517"><ele>97.0</ele><time>2026-04-18T10:26:27.982Z</time></trkpt><trkpt lat="45.2917667" lon="9.011"><ele>97.5</ele><time>2026-04-18T10:26:29.982Z</time></trkpt><trkpt lat="45.2916483" lon="9.01095"><ele>98.0</ele><time>2026-04-18T10:26:31.982Z</time></trkpt><trkpt lat="45.2915367" lon="9.0108783"><ele>98.0</ele><time>2026-04-18T10:26:33.982Z</time></trkpt><trkpt lat="45.2914267" lon="9.0108233"><ele>98.0</ele><time>2026-04-18T10:26:35.982Z</time></trkpt><trkpt lat="45.29137" lon="9.01078"><ele>98.0</ele><time>2026-04-18T10:26:36.982Z</time></trkpt><trkpt lat="45.2912767" lon="9.010705"><ele>98.0</ele><time>2026-04-18T10:26:38.982Z</time></trkpt><trkpt lat="45.2912" lon="9.01062"><ele>98.0</ele><time>2026-04-18T10:26:40.982Z</time></trkpt><trkpt lat="45.2910983" lon="9.0105167"><ele>98.0</ele><time>2026-04-18T10:26:42.982Z</time></trkpt><trkpt lat="45.2910367" lon="9.0104617"><ele>98.0</ele><time>2026-04-18T10:26:43.982Z</time></trkpt><trkpt lat="45.29098" lon="9.0104083"><ele>98.0</ele><time>2026-04-18T10:26:44.983Z</time></trkpt><trkpt lat="45.2909167" lon="9.0103633"><ele>98.0</ele><time>2026-04-18T10:26:45.983Z</time></trkpt><trkpt lat="45.2908517" lon="9.01033"><ele>98.0</ele><time>2026-04-18T10:26:46.982Z</time></trkpt><trkpt lat="45.290795" lon="9.0102883"><ele>98.0</ele><time>2026-04-18T10:26:47.982Z</time></trkpt><trkpt lat="45.290735" lon="9.010245"><ele>98.0</ele><time>2026-04-18T10:26:48.982Z</time></trkpt><trkpt lat="45.2906667" lon="9.0101883"><ele>97.99999999999999</ele><time>2026-04-18T10:26:49.982Z</time></trkpt><trkpt lat="45.290605" lon="9.01014"><ele>98.0</ele><time>2026-04-18T10:26:50.982Z</time></trkpt><trkpt lat="45.2905467" lon="9.01009"><ele>98.0</ele><time>2026-04-18T10:26:51.982Z</time></trkpt><trkpt lat="45.2904817" lon="9.010025"><ele>98.0</ele><time>2026-04-18T10:26:52.982Z</time></trkpt><trkpt lat="45.29042" lon="9.00997"><ele>97.99999999999999</ele><time>2026-04-18T10:26:53.982Z</time></trkpt><trkpt lat="45.29037" lon="9.009915"><ele>98.0</ele><time>2026-04-18T10:26:54.982Z</time></trkpt><trkpt lat="45.2902783" lon="9.0097967"><ele>98.2</ele><time>2026-04-18T10:26:56.982Z</time></trkpt><trkpt lat="45.2901883" lon="9.0096867"><ele>98.4</ele><time>2026-04-18T10:26:58.982Z</time></trkpt><trkpt lat="45.2901417" lon="9.0095817"><ele>98.60000000000001</ele><time>2026-04-18T10:27:00.982Z</time></trkpt><trkpt lat="45.2901767" lon="9.0094483"><ele>98.80000000000001</ele><time>2026-04-18T10:27:02.982Z</time></trkpt><trkpt lat="45.2902167" lon="9.009365"><ele>99.0</ele><time>2026-04-18T10:27:03.982Z</time></trkpt><trkpt lat="45.2902633" lon="9.0092667"><ele>99.0</ele><time>2026-04-18T10:27:04.982Z</time></trkpt><trkpt lat="45.290315" lon="9.00917"><ele>99.0</ele><time>2026-04-18T10:27:05.983Z</time></trkpt><trkpt lat="45.2903733" lon="9.009055"><ele>99.0</ele><time>2026-04-18T10:27:06.982Z</time></trkpt><trkpt lat="45.290445" lon="9.0089233"><ele>99.0</ele><time>2026-04-18T10:27:07.983Z</time></trkpt><trkpt lat="45.2905117" lon="9.0087833"><ele>99.0</ele><time>2026-04-18T10:27:08.982Z</time></trkpt><trkpt lat="45.29059" lon="9.0086433"><ele>98.75</ele><time>2026-04-18T10:27:09.982Z</time></trkpt><trkpt lat="45.290665" lon="9.0085017"><ele>98.5</ele><time>2026-04-18T10:27:10.982Z</time></trkpt><trkpt lat="45.2907417" lon="9.0083633"><ele>98.25</ele><time>2026-04-18T10:27:11.982Z</time></trkpt><trkpt lat="45.2908183" lon="9.0082183"><ele>98.0</ele><time>2026-04-18T10:27:12.983Z</time></trkpt><trkpt lat="45.2908933" lon="9.0080767"><ele>98.0</ele><time>2026-04-18T10:27:13.982Z</time></trkpt><trkpt lat="45.2909517" lon="9.0079367"><ele>98.0</ele><time>2026-04-18T10:27:14.982Z</time></trkpt><trkpt lat="45.2910133" lon="9.0078117"><ele>98.0</ele><time>2026-04-18T10:27:15.982Z</time></trkpt><trkpt lat="45.291085" lon="9.007695"><ele>98.0</ele><time>2026-04-18T10:27:16.982Z</time></trkpt><trkpt lat="45.2911533" lon="9.0075783"><ele>98.0</ele><time>2026-04-18T10:27:17.982Z</time></trkpt><trkpt lat="45.29121" lon="9.0074617"><ele>97.99999999999999</ele><time>2026-04-18T10:27:18.982Z</time></trkpt><trkpt lat="45.2912667" lon="9.007355"><ele>98.0</ele><time>2026-04-18T10:27:19.982Z</time></trkpt><trkpt lat="45.29132" lon="9.0072633"><ele>98.0</ele><time>2026-04-18T10:27:20.982Z</time></trkpt><trkpt lat="45.29137" lon="9.0071917"><ele>98.0</ele><time>2026-04-18T10:27:21.982Z</time></trkpt><trkpt lat="45.2914383" lon="9.007135"><ele>97.99999999999999</ele><time>2026-04-18T10:27:22.982Z</time></trkpt><trkpt lat="45.2915167" lon="9.0071"><ele>98.0</ele><time>2026-04-18T10:27:23.982Z</time></trkpt><trkpt lat="45.29159" lon="9.00707"><ele>97.99999999999999</ele><time>2026-04-18T10:27:24.982Z</time></trkpt><trkpt lat="45.29167" lon="9.0070517"><ele>98.0</ele><time>2026-04-18T10:27:25.982Z</time></trkpt><trkpt lat="45.2917433" lon="9.007075"><ele>98.0</ele><time>2026-04-18T10:27:26.982Z</time></trkpt><trkpt lat="45.29182" lon="9.0071117"><ele>98.0</ele><time>2026-04-18T10:27:27.982Z</time></trkpt><trkpt lat="45.2919067" lon="9.0071633"><ele>97.99999999999999</ele><time>2026-04-18T10:27:28.983Z</time></trkpt><trkpt lat="45.292" lon="9.0072283"><ele>98.0</ele><time>2026-04-18T10:27:29.982Z</time></trkpt><trkpt lat="45.2921033" lon="9.0072917"><ele>98.0</ele><time>2026-04-18T10:27:30.982Z</time></trkpt><trkpt lat="45.2922117" lon="9.0073567"><ele>98.0</ele><time>2026-04-18T10:27:31.982Z</time></trkpt><trkpt lat="45.2923233" lon="9.0074217"><ele>98.0</ele><time>2026-04-18T10:27:32.982Z</time></trkpt><trkpt lat="45.2924417" lon="9.00748"><ele>98.0</ele><time>2026-04-18T10:27:33.982Z</time></trkpt><trkpt lat="45.2925667" lon="9.0075467"><ele>96.66666666666666</ele><time>2026-04-18T10:27:34.982Z</time></trkpt><trkpt lat="45.2926967" lon="9.0076267"><ele>95.33333333333333</ele><time>2026-04-18T10:27:35.982Z</time></trkpt><trkpt lat="45.2928367" lon="9.00771"><ele>94.0</ele><time>2026-04-18T10:27:36.982Z</time></trkpt><trkpt lat="45.2929817" lon="9.007805"><ele>94.66666666666666</ele><time>2026-04-18T10:27:37.982Z</time></trkpt><trkpt lat="45.2931217" lon="9.0079067"><ele>95.33333333333333</ele><time>2026-04-18T10:27:38.983Z</time></trkpt><trkpt lat="45.2932583" lon="9.0080017"><ele>96.0</ele><time>2026-04-18T10:27:39.982Z</time></trkpt><trkpt lat="45.2933883" lon="9.0080933"><ele>96.0</ele><time>2026-04-18T10:27:40.982Z</time></trkpt><trkpt lat="45.29351" lon="9.0081783"><ele>96.0</ele><time>2026-04-18T10:27:41.982Z</time></trkpt><trkpt lat="45.2936317" lon="9.00825"><ele>96.0</ele><time>2026-04-18T10:27:42.982Z</time></trkpt><trkpt lat="45.2937617" lon="9.0083233"><ele>96.0</ele><time>2026-04-18T10:27:43.982Z</time></trkpt><trkpt lat="45.2938867" lon="9.0083933"><ele>96.0</ele><time>2026-04-18T10:27:44.982Z</time></trkpt><trkpt lat="45.2940133" lon="9.0084833"><ele>96.0</ele><time>2026-04-18T10:27:45.982Z</time></trkpt><trkpt lat="45.29415" lon="9.0085783"><ele>96.0</ele><time>2026-04-18T10:27:46.982Z</time></trkpt><trkpt lat="45.29429" lon="9.0086717"><ele>96.0</ele><time>2026-04-18T10:27:47.982Z</time></trkpt><trkpt lat="45.294435" lon="9.008755"><ele>96.0</ele><time>2026-04-18T10:27:48.982Z</time></trkpt><trkpt lat="45.29459" lon="9.008835"><ele>96.0</ele><time>2026-04-18T10:27:49.982Z</time></trkpt><trkpt lat="45.2947417" lon="9.0089067"><ele>96.0</ele><time>2026-04-18T10:27:50.982Z</time></trkpt><trkpt lat="45.2948983" lon="9.0089783"><ele>96.33333333333334</ele><time>2026-04-18T10:27:51.982Z</time></trkpt><trkpt lat="45.2950583" lon="9.00906"><ele>96.66666666666667</ele><time>2026-04-18T10:27:52.982Z</time></trkpt><trkpt lat="45.295205" lon="9.009145"><ele>97.0</ele><time>2026-04-18T10:27:53.982Z</time></trkpt><trkpt lat="45.2953517" lon="9.0092233"><ele>97.0</ele><time>2026-04-18T10:27:54.982Z</time></trkpt><trkpt lat="45.295495" lon="9.0092933"><ele>97.0</ele><time>2026-04-18T10:27:55.983Z</time></trkpt><trkpt lat="45.2956467" lon="9.0093767"><ele>97.0</ele><time>2026-04-18T10:27:56.982Z</time></trkpt><trkpt lat="45.295805" lon="9.0094733"><ele>96.66666666666667</ele><time>2026-04-18T10:27:57.982Z</time></trkpt><trkpt lat="45.295965" lon="9.00958"><ele>96.33333333333334</ele><time>2026-04-18T10:27:58.982Z</time></trkpt><trkpt lat="45.29612" lon="9.0096733"><ele>96.0</ele><time>2026-04-18T10:27:59.982Z</time></trkpt><trkpt lat="45.2962817" lon="9.0097683"><ele>96.0</ele><time>2026-04-18T10:28:00.982Z</time></trkpt><trkpt lat="45.2964367" lon="9.0098683"><ele>96.0</ele><time>2026-04-18T10:28:01.982Z</time></trkpt><trkpt lat="45.2965933" lon="9.00997"><ele>96.0</ele><time>2026-04-18T10:28:02.982Z</time></trkpt><trkpt lat="45.2967567" lon="9.01007"><ele>96.0</ele><time>2026-04-18T10:28:03.982Z</time></trkpt><trkpt lat="45.2969083" lon="9.01017"><ele>96.0</ele><time>2026-04-18T10:28:04.982Z</time></trkpt><trkpt lat="45.29705" lon="9.01026"><ele>96.0</ele><time>2026-04-18T10:28:05.982Z</time></trkpt><trkpt lat="45.297185" lon="9.0103433"><ele>96.0</ele><time>2026-04-18T10:28:06.982Z</time></trkpt><trkpt lat="45.2973233" lon="9.0104267"><ele>96.0</ele><time>2026-04-18T10:28:07.982Z</time></trkpt><trkpt lat="45.29746" lon="9.0105"><ele>96.0</ele><time>2026-04-18T10:28:08.982Z</time></trkpt><trkpt lat="45.2975867" lon="9.0105767"><ele>96.0</ele><time>2026-04-18T10:28:09.982Z</time></trkpt><trkpt lat="45.2977033" lon="9.0106517"><ele>96.0</ele><time>2026-04-18T10:28:10.982Z</time></trkpt><trkpt lat="45.2978167" lon="9.010725"><ele>96.0</ele><time>2026-04-18T10:28:11.982Z</time></trkpt><trkpt lat="45.29793" lon="9.010795"><ele>96.0</ele><time>2026-04-18T10:28:12.982Z</time></trkpt><trkpt lat="45.2980417" lon="9.0108717"><ele>96.0</ele><time>2026-04-18T10:28:13.982Z</time></trkpt><trkpt lat="45.2981567" lon="9.0109567"><ele>96.25</ele><time>2026-04-18T10:28:14.982Z</time></trkpt><trkpt lat="45.2982733" lon="9.0110383"><ele>96.5</ele><time>2026-04-18T10:28:15.982Z</time></trkpt><trkpt lat="45.2983917" lon="9.01111"><ele>96.75</ele><time>2026-04-18T10:28:16.982Z</time></trkpt><trkpt lat="45.2985067" lon="9.0111817"><ele>97.0</ele><time>2026-04-18T10:28:17.982Z</time></trkpt><trkpt lat="45.2986283" lon="9.01125"><ele>97.0</ele><time>2026-04-18T10:28:18.983Z</time></trkpt><trkpt lat="45.2987417" lon="9.0113233"><ele>97.0</ele><time>2026-04-18T10:28:19.982Z</time></trkpt><trkpt lat="45.2988533" lon="9.0113783"><ele>97.0</ele><time>2026-04-18T10:28:20.982Z</time></trkpt><trkpt lat="45.2989617" lon="9.0114383"><ele>97.0</ele><time>2026-04-18T10:28:21.982Z</time></trkpt><trkpt lat="45.2990617" lon="9.0115"><ele>97.0</ele><time>2026-04-18T10:28:22.982Z</time></trkpt><trkpt lat="45.299165" lon="9.0115633"><ele>97.0</ele><time>2026-04-18T10:28:23.982Z</time></trkpt><trkpt lat="45.2992717" lon="9.0116317"><ele>97.0</ele><time>2026-04-18T10:28:24.982Z</time></trkpt><trkpt lat="45.299375" lon="9.011695"><ele>97.0</ele><time>2026-04-18T10:28:25.982Z</time></trkpt><trkpt lat="45.29947" lon="9.0117533"><ele>97.0</ele><time>2026-04-18T10:28:26.982Z</time></trkpt><trkpt lat="45.2995583" lon="9.0118033"><ele>97.0</ele><time>2026-04-18T10:28:27.982Z</time></trkpt><trkpt lat="45.299645" lon="9.0118633"><ele>97.0</ele><time>2026-04-18T10:28:28.982Z</time></trkpt><trkpt lat="45.2997317" lon="9.0119267"><ele>97.0</ele><time>2026-04-18T10:28:29.982Z</time></trkpt><trkpt lat="45.29982" lon="9.0119867"><ele>97.0</ele><time>2026-04-18T10:28:30.982Z</time></trkpt><trkpt lat="45.2999067" lon="9.0120433"><ele>97.0</ele><time>2026-04-18T10:28:31.982Z</time></trkpt><trkpt lat="45.3" lon="9.0120917"><ele>97.19999999999999</ele><time>2026-04-18T10:28:32.983Z</time></trkpt><trkpt lat="45.3000967" lon="9.012125"><ele>97.4</ele><time>2026-04-18T10:28:33.982Z</time></trkpt><trkpt lat="45.3001867" lon="9.012165"><ele>97.6</ele><time>2026-04-18T10:28:34.982Z</time></trkpt><trkpt lat="45.300285" lon="9.0122133"><ele>97.80000000000001</ele><time>2026-04-18T10:28:35.982Z</time></trkpt><trkpt lat="45.3003883" lon="9.01227"><ele>98.0</ele><time>2026-04-18T10:28:36.982Z</time></trkpt><trkpt lat="45.3004883" lon="9.0123217"><ele>98.0</ele><time>2026-04-18T10:28:37.982Z</time></trkpt><trkpt lat="45.3005883" lon="9.0123833"><ele>98.0</ele><time>2026-04-18T10:28:38.982Z</time></trkpt><trkpt lat="45.30069" lon="9.01245"><ele>98.0</ele><time>2026-04-18T10:28:39.982Z</time></trkpt><trkpt lat="45.300795" lon="9.012515"><ele>98.0</ele><time>2026-04-18T10:28:40.982Z</time></trkpt><trkpt lat="45.300905" lon="9.0125833"><ele>98.0</ele><time>2026-04-18T10:28:41.982Z</time></trkpt><trkpt lat="45.30102" lon="9.01266"><ele>98.0</ele><time>2026-04-18T10:28:42.982Z</time></trkpt><trkpt lat="45.3011517" lon="9.01273"><ele>98.0</ele><time>2026-04-18T10:28:43.982Z</time></trkpt><trkpt lat="45.3012783" lon="9.0128133"><ele>98.0</ele><time>2026-04-18T10:28:44.982Z</time></trkpt><trkpt lat="45.301405" lon="9.01291"><ele>98.5</ele><time>2026-04-18T10:28:45.982Z</time></trkpt><trkpt lat="45.3015417" lon="9.0130033"><ele>99.0</ele><time>2026-04-18T10:28:46.982Z</time></trkpt><trkpt lat="45.301685" lon="9.013085"><ele>99.5</ele><time>2026-04-18T10:28:47.982Z</time></trkpt><trkpt lat="45.3018133" lon="9.013165"><ele>100.0</ele><time>2026-04-18T10:28:48.982Z</time></trkpt><trkpt lat="45.3019333" lon="9.0132433"><ele>100.0</ele><time>2026-04-18T10:28:49.982Z</time></trkpt><trkpt lat="45.302055" lon="9.0133183"><ele>100.0</ele><time>2026-04-18T10:28:50.983Z</time></trkpt><trkpt lat="45.3021833" lon="9.0133967"><ele>100.0</ele><time>2026-04-18T10:28:51.982Z</time></trkpt><trkpt lat="45.3023133" lon="9.0134767"><ele>100.0</ele><time>2026-04-18T10:28:52.982Z</time></trkpt><trkpt lat="45.3024383" lon="9.013555"><ele>99.75</ele><time>2026-04-18T10:28:53.982Z</time></trkpt><trkpt lat="45.302555" lon="9.0136233"><ele>99.5</ele><time>2026-04-18T10:28:54.982Z</time></trkpt><trkpt lat="45.3026783" lon="9.01369"><ele>99.25</ele><time>2026-04-18T10:28:55.982Z</time></trkpt><trkpt lat="45.3028167" lon="9.0137633"><ele>99.0</ele><time>2026-04-18T10:28:56.983Z</time></trkpt><trkpt lat="45.30296" lon="9.0138367"><ele>98.33333333333334</ele><time>2026-04-18T10:28:57.982Z</time></trkpt><trkpt lat="45.303105" lon="9.0139133"><ele>97.66666666666667</ele><time>2026-04-18T10:28:58.982Z</time></trkpt><trkpt lat="45.3032533" lon="9.0140033"><ele>97.0</ele><time>2026-04-18T10:28:59.982Z</time></trkpt><trkpt lat="45.3034067" lon="9.01409"><ele>97.5</ele><time>2026-04-18T10:29:00.982Z</time></trkpt><trkpt lat="45.303545" lon="9.0141767"><ele>98.0</ele><time>2026-04-18T10:29:01.982Z</time></trkpt><trkpt lat="45.3036717" lon="9.014255"><ele>98.5</ele><time>2026-04-18T10:29:02.982Z</time></trkpt><trkpt lat="45.3037967" lon="9.0143283"><ele>99.0</ele><time>2026-04-18T10:29:03.982Z</time></trkpt><trkpt lat="45.30392" lon="9.01441"><ele>99.25</ele><time>2026-04-18T10:29:04.982Z</time></trkpt><trkpt lat="45.3040433" lon="9.01449"><ele>99.5</ele><time>2026-04-18T10:29:05.982Z</time></trkpt><trkpt lat="45.3041633" lon="9.0145767"><ele>99.75</ele><time>2026-04-18T10:29:06.982Z</time></trkpt><trkpt lat="45.3042783" lon="9.0146633"><ele>100.0</ele><time>2026-04-18T10:29:07.982Z</time></trkpt><trkpt lat="45.3043917" lon="9.014745"><ele>100.0</ele><time>2026-04-18T10:29:08.982Z</time></trkpt><trkpt lat="45.3045083" lon="9.0148267"><ele>100.0</ele><time>2026-04-18T10:29:09.983Z</time></trkpt><trkpt lat="45.30462" lon="9.01491"><ele>100.0</ele><time>2026-04-18T10:29:10.982Z</time></trkpt><trkpt lat="45.30473" lon="9.014995"><ele>100.0</ele><time>2026-04-18T10:29:11.982Z</time></trkpt><trkpt lat="45.304835" lon="9.0150783"><ele>99.8</ele><time>2026-04-18T10:29:12.982Z</time></trkpt><trkpt lat="45.3049333" lon="9.0151517"><ele>99.6</ele><time>2026-04-18T10:29:13.982Z</time></trkpt><trkpt lat="45.30503" lon="9.0152083"><ele>99.4</ele><time>2026-04-18T10:29:14.982Z</time></trkpt><trkpt lat="45.3051217" lon="9.015255"><ele>99.2</ele><time>2026-04-18T10:29:15.982Z</time></trkpt><trkpt lat="45.3052117" lon="9.0152967"><ele>99.0</ele><time>2026-04-18T10:29:16.982Z</time></trkpt><trkpt lat="45.305305" lon="9.0153383"><ele>99.0</ele><time>2026-04-18T10:29:17.982Z</time></trkpt><trkpt lat="45.305395" lon="9.0153917"><ele>99.0</ele><time>2026-04-18T10:29:18.982Z</time></trkpt><trkpt lat="45.3054883" lon="9.0154533"><ele>99.0</ele><time>2026-04-18T10:29:19.982Z</time></trkpt><trkpt lat="45.30558" lon="9.0154983"><ele>99.0</ele><time>2026-04-18T10:29:20.982Z</time></trkpt><trkpt lat="45.3056633" lon="9.0155367"><ele>99.0</ele><time>2026-04-18T10:29:21.983Z</time></trkpt><trkpt lat="45.3057517" lon="9.0155833"><ele>99.4</ele><time>2026-04-18T10:29:22.982Z</time></trkpt><trkpt lat="45.30584" lon="9.01563"><ele>99.80000000000001</ele><time>2026-04-18T10:29:23.982Z</time></trkpt><trkpt lat="45.3059333" lon="9.0156817"><ele>100.19999999999999</ele><time>2026-04-18T10:29:24.982Z</time></trkpt><trkpt lat="45.306035" lon="9.0157283"><ele>100.6</ele><time>2026-04-18T10:29:25.982Z</time></trkpt><trkpt lat="45.3061267" lon="9.0157667"><ele>101.0</ele><time>2026-04-18T10:29:26.982Z</time></trkpt><trkpt lat="45.3062017" lon="9.0158117"><ele>100.99999999999999</ele><time>2026-04-18T10:29:27.982Z</time></trkpt><trkpt lat="45.306275" lon="9.0158517"><ele>101.0</ele><time>2026-04-18T10:29:28.982Z</time></trkpt><trkpt lat="45.3063533" lon="9.01589"><ele>101.0</ele><time>2026-04-18T10:29:29.982Z</time></trkpt><trkpt lat="45.3064383" lon="9.0159317"><ele>101.0</ele><time>2026-04-18T10:29:30.982Z</time></trkpt><trkpt lat="45.3065133" lon="9.0159833"><ele>100.99999999999999</ele><time>2026-04-18T10:29:31.982Z</time></trkpt><trkpt lat="45.306595" lon="9.01603"><ele>101.0</ele><time>2026-04-18T10:29:32.982Z</time></trkpt><trkpt lat="45.3066717" lon="9.0160833"><ele>101.0</ele><time>2026-04-18T10:29:33.982Z</time></trkpt><trkpt lat="45.30676" lon="9.0161433"><ele>101.0</ele><time>2026-04-18T10:29:34.982Z</time></trkpt><trkpt lat="45.3068467" lon="9.0162083"><ele>101.0</ele><time>2026-04-18T10:29:35.982Z</time></trkpt><trkpt lat="45.306945" lon="9.01628"><ele>101.0</ele><time>2026-04-18T10:29:36.982Z</time></trkpt><trkpt lat="45.3070417" lon="9.0163567"><ele>101.0</ele><time>2026-04-18T10:29:37.982Z</time></trkpt><trkpt lat="45.30714" lon="9.0164267"><ele>101.0</ele><time>2026-04-18T10:29:38.982Z</time></trkpt><trkpt lat="45.30724" lon="9.0165083"><ele>101.0</ele><time>2026-04-18T10:29:39.982Z</time></trkpt><trkpt lat="45.3073383" lon="9.0165883"><ele>101.0</ele><time>2026-04-18T10:29:40.982Z</time></trkpt><trkpt lat="45.3074433" lon="9.01667"><ele>101.0</ele><time>2026-04-18T10:29:41.982Z</time></trkpt><trkpt lat="45.3075467" lon="9.0167433"><ele>100.6</ele><time>2026-04-18T10:29:42.982Z</time></trkpt><trkpt lat="45.307645" lon="9.0168283"><ele>100.19999999999999</ele><time>2026-04-18T10:29:43.982Z</time></trkpt><trkpt lat="45.307735" lon="9.0168983"><ele>99.80000000000001</ele><time>2026-04-18T10:29:44.983Z</time></trkpt><trkpt lat="45.3078067" lon="9.0169433"><ele>99.4</ele><time>2026-04-18T10:29:45.982Z</time></trkpt><trkpt lat="45.3078917" lon="9.01702"><ele>99.0</ele><time>2026-04-18T10:29:47.982Z</time></trkpt><trkpt lat="45.307885" lon="9.0171533"><ele>99.0</ele><time>2026-04-18T10:29:49.982Z</time></trkpt><trkpt lat="45.307855" lon="9.0172483"><ele>99.0</ele><time>2026-04-18T10:29:50.982Z</time></trkpt><trkpt lat="45.3078183" lon="9.017345"><ele>99.0</ele><time>2026-04-18T10:29:51.982Z</time></trkpt><trkpt lat="45.30776" lon="9.017455"><ele>99.0</ele><time>2026-04-18T10:29:52.982Z</time></trkpt><trkpt lat="45.3076717" lon="9.0175783"><ele>99.0</ele><time>2026-04-18T10:29:53.982Z</time></trkpt><trkpt lat="45.3075867" lon="9.01772"><ele>99.0</ele><time>2026-04-18T10:29:54.982Z</time></trkpt><trkpt lat="45.3074017" lon="9.0180333"><ele>99.0</ele><time>2026-04-18T10:29:56.982Z</time></trkpt><trkpt lat="45.3073183" lon="9.0181817"><ele>99.0</ele><time>2026-04-18T10:29:57.983Z</time></trkpt><trkpt lat="45.3072567" lon="9.018345"><ele>99.25</ele><time>2026-04-18T10:29:58.982Z</time></trkpt><trkpt lat="45.3071917" lon="9.0185"><ele>99.5</ele><time>2026-04-18T10:29:59.982Z</time></trkpt><trkpt lat="45.3071333" lon="9.018655"><ele>99.75</ele><time>2026-04-18T10:30:00.982Z</time></trkpt><trkpt lat="45.307065" lon="9.018795"><ele>100.0</ele><time>2026-04-18T10:30:01.982Z</time></trkpt><trkpt lat="45.307015" lon="9.0189383"><ele>100.0</ele><time>2026-04-18T10:30:02.983Z</time></trkpt><trkpt lat="45.30696" lon="9.0190767"><ele>100.0</ele><time>2026-04-18T10:30:03.982Z</time></trkpt><trkpt lat="45.3069033" lon="9.0192167"><ele>100.0</ele><time>2026-04-18T10:30:04.982Z</time></trkpt><trkpt lat="45.3068467" lon="9.019345"><ele>100.0</ele><time>2026-04-18T10:30:05.983Z</time></trkpt><trkpt lat="45.3067867" lon="9.01948"><ele>100.0</ele><time>2026-04-18T10:30:06.982Z</time></trkpt><trkpt lat="45.3067283" lon="9.0196117"><ele>100.00000000000001</ele><time>2026-04-18T10:30:07.982Z</time></trkpt><trkpt lat="45.306675" lon="9.0197267"><ele>100.0</ele><time>2026-04-18T10:30:08.982Z</time></trkpt><trkpt lat="45.3066267" lon="9.0198383"><ele>100.0</ele><time>2026-04-18T10:30:09.982Z</time></trkpt><trkpt lat="45.3065833" lon="9.0199533"><ele>100.0</ele><time>2026-04-18T10:30:10.982Z</time></trkpt><trkpt lat="45.3065383" lon="9.0200567"><ele>100.00000000000001</ele><time>2026-04-18T10:30:11.982Z</time></trkpt><trkpt lat="45.306495" lon="9.0201533"><ele>100.0</ele><time>2026-04-18T10:30:12.983Z</time></trkpt><trkpt lat="45.306455" lon="9.0202517"><ele>100.0</ele><time>2026-04-18T10:30:13.982Z</time></trkpt><trkpt lat="45.3064133" lon="9.0203317"><ele>100.0</ele><time>2026-04-18T10:30:14.982Z</time></trkpt><trkpt lat="45.3063733" lon="9.0204067"><ele>100.0</ele><time>2026-04-18T10:30:15.982Z</time></trkpt><trkpt lat="45.3063017" lon="9.020575"><ele>100.0</ele><time>2026-04-18T10:30:17.982Z</time></trkpt><trkpt lat="45.30626" lon="9.0206917"><ele>100.0</ele><time>2026-04-18T10:30:18.982Z</time></trkpt><trkpt lat="45.3062133" lon="9.0208067"><ele>99.83333333333334</ele><time>2026-04-18T10:30:19.982Z</time></trkpt><trkpt lat="45.306175" lon="9.020925"><ele>99.66666666666667</ele><time>2026-04-18T10:30:20.982Z</time></trkpt><trkpt lat="45.306135" lon="9.02102"><ele>99.5</ele><time>2026-04-18T10:30:21.982Z</time></trkpt><trkpt lat="45.3060933" lon="9.02111"><ele>99.33333333333334</ele><time>2026-04-18T10:30:22.982Z</time></trkpt><trkpt lat="45.3060533" lon="9.0212117"><ele>99.16666666666667</ele><time>2026-04-18T10:30:23.982Z</time></trkpt><trkpt lat="45.3060133" lon="9.02132"><ele>99.0</ele><time>2026-04-18T10:30:24.982Z</time></trkpt><trkpt lat="45.30597" lon="9.0214333"><ele>99.0</ele><time>2026-04-18T10:30:25.982Z</time></trkpt><trkpt lat="45.3059233" lon="9.0215467"><ele>99.0</ele><time>2026-04-18T10:30:26.982Z</time></trkpt><trkpt lat="45.305875" lon="9.0216667"><ele>99.0</ele><time>2026-04-18T10:30:27.982Z</time></trkpt><trkpt lat="45.30582" lon="9.0217733"><ele>99.0</ele><time>2026-04-18T10:30:28.982Z</time></trkpt><trkpt lat="45.30577" lon="9.0218933"><ele>99.0</ele><time>2026-04-18T10:30:29.982Z</time></trkpt><trkpt lat="45.305715" lon="9.02202"><ele>99.0</ele><time>2026-04-18T10:30:30.982Z</time></trkpt><trkpt lat="45.3056567" lon="9.0221517"><ele>99.0</ele><time>2026-04-18T10:30:31.982Z</time></trkpt><trkpt lat="45.3056" lon="9.0222933"><ele>99.0</ele><time>2026-04-18T10:30:32.982Z</time></trkpt><trkpt lat="45.305545" lon="9.0224283"><ele>99.0</ele><time>2026-04-18T10:30:33.982Z</time></trkpt><trkpt lat="45.3054917" lon="9.0225683"><ele>99.0</ele><time>2026-04-18T10:30:34.982Z</time></trkpt><trkpt lat="45.3054333" lon="9.0227133"><ele>99.0</ele><time>2026-04-18T10:30:35.982Z</time></trkpt><trkpt lat="45.3053767" lon="9.0228567"><ele>99.0</ele><time>2026-04-18T10:30:36.982Z</time></trkpt><trkpt lat="45.3053233" lon="9.0229983"><ele>99.0</ele><time>2026-04-18T10:30:37.982Z</time></trkpt><trkpt lat="45.3052667" lon="9.02313"><ele>99.0</ele><time>2026-04-18T10:30:38.982Z</time></trkpt><trkpt lat="45.30522" lon="9.0232517"><ele>99.0</ele><time>2026-04-18T10:30:39.982Z</time></trkpt><trkpt lat="45.305165" lon="9.0233683"><ele>99.0</ele><time>2026-04-18T10:30:40.982Z</time></trkpt><trkpt lat="45.30512" lon="9.0234817"><ele>99.0</ele><time>2026-04-18T10:30:41.982Z</time></trkpt><trkpt lat="45.3050733" lon="9.023595"><ele>99.0</ele><time>2026-04-18T10:30:42.982Z</time></trkpt><trkpt lat="45.3050333" lon="9.0236983"><ele>99.0</ele><time>2026-04-18T10:30:43.982Z</time></trkpt><trkpt lat="45.305" lon="9.0238017"><ele>99.0</ele><time>2026-04-18T10:30:44.982Z</time></trkpt><trkpt lat="45.304985" lon="9.02389"><ele>99.0</ele><time>2026-04-18T10:30:45.982Z</time></trkpt><trkpt lat="45.3049733" lon="9.02405"><ele>99.0</ele><time>2026-04-18T10:30:47.982Z</time></trkpt><trkpt lat="45.3049767" lon="9.0242133"><ele>99.0</ele><time>2026-04-18T10:30:49.983Z</time></trkpt><trkpt lat="45.3049767" lon="9.024305"><ele>99.0</ele><time>2026-04-18T10:30:50.982Z</time></trkpt><trkpt lat="45.3049733" lon="9.0244067"><ele>99.0</ele><time>2026-04-18T10:30:51.982Z</time></trkpt><trkpt lat="45.3049333" lon="9.0245617"><ele>99.0</ele><time>2026-04-18T10:30:53.982Z</time></trkpt><trkpt lat="45.3048517" lon="9.0246583"><ele>99.0</ele><time>2026-04-18T10:30:55.982Z</time></trkpt><trkpt lat="45.3047683" lon="9.024735"><ele>99.0</ele><time>2026-04-18T10:30:57.982Z</time></trkpt><trkpt lat="45.304705" lon="9.0247733"><ele>99.0</ele><time>2026-04-18T10:30:59.982Z</time></trkpt><trkpt lat="45.3046317" lon="9.0248217"><ele>99.0</ele><time>2026-04-18T10:31:02.982Z</time></trkpt><trkpt lat="45.3045567" lon="9.02487"><ele>99.0</ele><time>2026-04-18T10:31:04.982Z</time></trkpt><trkpt lat="45.304495" lon="9.0249"><ele>99.0</ele><time>2026-04-18T10:31:05.982Z</time></trkpt><trkpt lat="45.304415" lon="9.0249283"><ele>98.80000000000001</ele><time>2026-04-18T10:31:06.982Z</time></trkpt><trkpt lat="45.3043233" lon="9.024955"><ele>98.60000000000001</ele><time>2026-04-18T10:31:07.982Z</time></trkpt><trkpt lat="45.3042183" lon="9.024985"><ele>98.4</ele><time>2026-04-18T10:31:08.982Z</time></trkpt><trkpt lat="45.3041083" lon="9.0250283"><ele>98.2</ele><time>2026-04-18T10:31:09.982Z</time></trkpt><trkpt lat="45.3039983" lon="9.0250833"><ele>98.0</ele><time>2026-04-18T10:31:10.983Z</time></trkpt><trkpt lat="45.303875" lon="9.0251433"><ele>98.0</ele><time>2026-04-18T10:31:11.982Z</time></trkpt><trkpt lat="45.303745" lon="9.0252033"><ele>98.0</ele><time>2026-04-18T10:31:12.982Z</time></trkpt><trkpt lat="45.30361" lon="9.02527"><ele>98.0</ele><time>2026-04-18T10:31:13.982Z</time></trkpt><trkpt lat="45.3034733" lon="9.0253567"><ele>98.0</ele><time>2026-04-18T10:31:14.982Z</time></trkpt><trkpt lat="45.3033367" lon="9.0254483"><ele>98.0</ele><time>2026-04-18T10:31:15.982Z</time></trkpt><trkpt lat="45.30321" lon="9.0255517"><ele>98.0</ele><time>2026-04-18T10:31:16.982Z</time></trkpt><trkpt lat="45.3030717" lon="9.02566"><ele>98.0</ele><time>2026-04-18T10:31:17.982Z</time></trkpt><trkpt lat="45.3029317" lon="9.0257733"><ele>98.0</ele><time>2026-04-18T10:31:18.982Z</time></trkpt><trkpt lat="45.3027933" lon="9.0258817"><ele>98.0</ele><time>2026-04-18T10:31:19.982Z</time></trkpt><trkpt lat="45.3026617" lon="9.026005"><ele>98.0</ele><time>2026-04-18T10:31:20.982Z</time></trkpt><trkpt lat="45.3025383" lon="9.0261367"><ele>98.0</ele><time>2026-04-18T10:31:21.982Z</time></trkpt><trkpt lat="45.3024183" lon="9.0262717"><ele>98.0</ele><time>2026-04-18T10:31:22.982Z</time></trkpt><trkpt lat="45.3022933" lon="9.02639"><ele>98.0</ele><time>2026-04-18T10:31:23.982Z</time></trkpt><trkpt lat="45.3021717" lon="9.0265233"><ele>97.75</ele><time>2026-04-18T10:31:24.982Z</time></trkpt><trkpt lat="45.3020533" lon="9.0266433"><ele>97.5</ele><time>2026-04-18T10:31:25.982Z</time></trkpt><trkpt lat="45.3019333" lon="9.026765"><ele>97.25</ele><time>2026-04-18T10:31:26.983Z</time></trkpt><trkpt lat="45.30181" lon="9.0268717"><ele>97.0</ele><time>2026-04-18T10:31:27.983Z</time></trkpt><trkpt lat="45.3016783" lon="9.0269667"><ele>97.0</ele><time>2026-04-18T10:31:28.982Z</time></trkpt><trkpt lat="45.301545" lon="9.0270383"><ele>97.0</ele><time>2026-04-18T10:31:29.983Z</time></trkpt><trkpt lat="45.30141" lon="9.0270967"><ele>97.0</ele><time>2026-04-18T10:31:30.982Z</time></trkpt><trkpt lat="45.30128" lon="9.0271167"><ele>97.0</ele><time>2026-04-18T10:31:31.982Z</time></trkpt><trkpt lat="45.3011517" lon="9.0271217"><ele>97.0</ele><time>2026-04-18T10:31:32.982Z</time></trkpt><trkpt lat="45.3010383" lon="9.0271183"><ele>97.0</ele><time>2026-04-18T10:31:33.982Z</time></trkpt><trkpt lat="45.300935" lon="9.0271167"><ele>97.0</ele><time>2026-04-18T10:31:34.982Z</time></trkpt><trkpt lat="45.3008333" lon="9.0271283"><ele>97.0</ele><time>2026-04-18T10:31:35.982Z</time></trkpt><trkpt lat="45.3007217" lon="9.0271367"><ele>97.0</ele><time>2026-04-18T10:31:36.982Z</time></trkpt><trkpt lat="45.3006067" lon="9.0271667"><ele>96.8</ele><time>2026-04-18T10:31:37.982Z</time></trkpt><trkpt lat="45.3004883" lon="9.02721"><ele>96.6</ele><time>2026-04-18T10:31:38.982Z</time></trkpt><trkpt lat="45.30038" lon="9.0272517"><ele>96.39999999999999</ele><time>2026-04-18T10:31:39.982Z</time></trkpt><trkpt lat="45.300285" lon="9.0272817"><ele>96.19999999999999</ele><time>2026-04-18T10:31:40.982Z</time></trkpt><trkpt lat="45.3002033" lon="9.0273"><ele>96.0</ele><time>2026-04-18T10:31:41.982Z</time></trkpt><trkpt lat="45.30014" lon="9.0273133"><ele>96.0</ele><time>2026-04-18T10:31:42.983Z</time></trkpt><trkpt lat="45.3000783" lon="9.027295"><ele>96.0</ele><time>2026-04-18T10:31:44.982Z</time></trkpt><trkpt lat="45.300045" lon="9.0272"><ele>96.0</ele><time>2026-04-18T10:31:46.982Z</time></trkpt><trkpt lat="45.3000067" lon="9.02701"><ele>96.0</ele><time>2026-04-18T10:31:48.982Z</time></trkpt><trkpt lat="45.2999833" lon="9.0268967"><ele>96.0</ele><time>2026-04-18T10:31:49.982Z</time></trkpt><trkpt lat="45.2999517" lon="9.0267717"><ele>96.0</ele><time>2026-04-18T10:31:50.982Z</time></trkpt><trkpt lat="45.2999183" lon="9.026645"><ele>96.0</ele><time>2026-04-18T10:31:51.982Z</time></trkpt><trkpt lat="45.2998817" lon="9.0265067"><ele>96.0</ele><time>2026-04-18T10:31:52.982Z</time></trkpt><trkpt lat="45.2998467" lon="9.026365"><ele>96.0</ele><time>2026-04-18T10:31:53.982Z</time></trkpt><trkpt lat="45.2998" lon="9.0262283"><ele>96.0</ele><time>2026-04-18T10:31:54.982Z</time></trkpt><trkpt lat="45.29976" lon="9.026095"><ele>96.66666666666667</ele><time>2026-04-18T10:31:55.982Z</time></trkpt><trkpt lat="45.29972" lon="9.0259617"><ele>97.33333333333334</ele><time>2026-04-18T10:31:56.982Z</time></trkpt><trkpt lat="45.2996817" lon="9.0258333"><ele>98.0</ele><time>2026-04-18T10:31:57.982Z</time></trkpt><trkpt lat="45.2996483" lon="9.0257117"><ele>98.66666666666667</ele><time>2026-04-18T10:31:58.982Z</time></trkpt><trkpt lat="45.2996183" lon="9.0256"><ele>99.33333333333334</ele><time>2026-04-18T10:31:59.983Z</time></trkpt><trkpt lat="45.2995933" lon="9.0255067"><ele>100.0</ele><time>2026-04-18T10:32:00.982Z</time></trkpt><trkpt lat="45.2995333" lon="9.0254"><ele>100.2</ele><time>2026-04-18T10:32:02.982Z</time></trkpt><trkpt lat="45.2994217" lon="9.0253767"><ele>100.4</ele><time>2026-04-18T10:32:04.982Z</time></trkpt><trkpt lat="45.2993133" lon="9.0253817"><ele>100.6</ele><time>2026-04-18T10:32:06.982Z</time></trkpt><trkpt lat="45.2992383" lon="9.02533"><ele>100.8</ele><time>2026-04-18T10:32:08.982Z</time></trkpt><trkpt lat="45.29916" lon="9.0251967"><ele>101.0</ele><time>2026-04-18T10:32:10.982Z</time></trkpt><trkpt lat="45.2991167" lon="9.0251183"><ele>100.99999999999999</ele><time>2026-04-18T10:32:11.982Z</time></trkpt><trkpt lat="45.2990783" lon="9.025035"><ele>101.0</ele><time>2026-04-18T10:32:12.982Z</time></trkpt><trkpt lat="45.2990417" lon="9.0249467"><ele>101.0</ele><time>2026-04-18T10:32:13.982Z</time></trkpt><trkpt lat="45.2990017" lon="9.024865"><ele>101.0</ele><time>2026-04-18T10:32:14.982Z</time></trkpt><trkpt lat="45.2989533" lon="9.0247917"><ele>100.99999999999999</ele><time>2026-04-18T10:32:15.982Z</time></trkpt><trkpt lat="45.298855" lon="9.024675"><ele>101.0</ele><time>2026-04-18T10:32:17.982Z</time></trkpt><trkpt lat="45.2987917" lon="9.02462"><ele>101.33333333333333</ele><time>2026-04-18T10:32:18.982Z</time></trkpt><trkpt lat="45.2987117" lon="9.0245667"><ele>101.66666666666666</ele><time>2026-04-18T10:32:19.982Z</time></trkpt><trkpt lat="45.2986267" lon="9.0245267"><ele>102.0</ele><time>2026-04-18T10:32:20.982Z</time></trkpt><trkpt lat="45.2985433" lon="9.0244817"><ele>102.33333333333334</ele><time>2026-04-18T10:32:21.982Z</time></trkpt><trkpt lat="45.29846" lon="9.0244417"><ele>102.66666666666667</ele><time>2026-04-18T10:32:22.982Z</time></trkpt><trkpt lat="45.2983817" lon="9.02441"><ele>103.0</ele><time>2026-04-18T10:32:23.982Z</time></trkpt><trkpt lat="45.2983017" lon="9.0243967"><ele>102.99999999999999</ele><time>2026-04-18T10:32:24.982Z</time></trkpt><trkpt lat="45.2982283" lon="9.024405"><ele>103.0</ele><time>2026-04-18T10:32:25.982Z</time></trkpt><trkpt lat="45.2981567" lon="9.0244217"><ele>103.0</ele><time>2026-04-18T10:32:26.983Z</time></trkpt><trkpt lat="45.2980783" lon="9.0244567"><ele>103.0</ele><time>2026-04-18T10:32:27.983Z</time></trkpt><trkpt lat="45.2980133" lon="9.0244967"><ele>103.0</ele><time>2026-04-18T10:32:28.982Z</time></trkpt><trkpt lat="45.2979467" lon="9.0245383"><ele>102.99999999999999</ele><time>2026-04-18T10:32:29.982Z</time></trkpt><trkpt lat="45.297885" lon="9.0245717"><ele>103.0</ele><time>2026-04-18T10:32:30.982Z</time></trkpt><trkpt lat="45.29779" lon="9.0246083"><ele>102.33333333333334</ele><time>2026-04-18T10:32:32.982Z</time></trkpt><trkpt lat="45.2976983" lon="9.02458"><ele>101.66666666666667</ele><time>2026-04-18T10:32:35.982Z</time></trkpt><trkpt lat="45.297635" lon="9.0244567"><ele>101.0</ele><time>2026-04-18T10:32:37.982Z</time></trkpt><trkpt lat="45.2975983" lon="9.0243833"><ele>100.33333333333334</ele><time>2026-04-18T10:32:38.982Z</time></trkpt><trkpt lat="45.2975533" lon="9.0243"><ele>99.66666666666667</ele><time>2026-04-18T10:32:39.982Z</time></trkpt><trkpt lat="45.2975067" lon="9.024215"><ele>99.0</ele><time>2026-04-18T10:32:40.982Z</time></trkpt><trkpt lat="45.2974567" lon="9.024125"><ele>98.83333333333333</ele><time>2026-04-18T10:32:41.982Z</time></trkpt><trkpt lat="45.297405" lon="9.0240367"><ele>98.66666666666666</ele><time>2026-04-18T10:32:42.982Z</time></trkpt><trkpt lat="45.297355" lon="9.0239467"><ele>98.5</ele><time>2026-04-18T10:32:43.982Z</time></trkpt><trkpt lat="45.2973117" lon="9.0238533"><ele>98.33333333333333</ele><time>2026-04-18T10:32:44.982Z</time></trkpt><trkpt lat="45.2972733" lon="9.02377"><ele>98.16666666666666</ele><time>2026-04-18T10:32:45.982Z</time></trkpt><trkpt lat="45.2972267" lon="9.0236933"><ele>98.0</ele><time>2026-04-18T10:32:46.982Z</time></trkpt><trkpt lat="45.297155" lon="9.02358"><ele>97.99999999999999</ele><time>2026-04-18T10:32:48.982Z</time></trkpt><trkpt lat="45.297065" lon="9.0235733"><ele>98.0</ele><time>2026-04-18T10:32:51.982Z</time></trkpt><trkpt lat="45.2969983" lon="9.023555"><ele>98.0</ele><time>2026-04-18T10:32:53.982Z</time></trkpt><trkpt lat="45.29694" lon="9.0234417"><ele>98.0</ele><time>2026-04-18T10:32:55.983Z</time></trkpt><trkpt lat="45.2969017" lon="9.023355"><ele>97.99999999999999</ele><time>2026-04-18T10:32:56.982Z</time></trkpt><trkpt lat="45.29686" lon="9.0232533"><ele>98.0</ele><time>2026-04-18T10:32:57.982Z</time></trkpt><trkpt lat="45.2968233" lon="9.0231667"><ele>97.83333333333333</ele><time>2026-04-18T10:32:58.982Z</time></trkpt><trkpt lat="45.2967967" lon="9.023085"><ele>97.66666666666666</ele><time>2026-04-18T10:32:59.982Z</time></trkpt><trkpt lat="45.29678" lon="9.0229633"><ele>97.5</ele><time>2026-04-18T10:33:01.982Z</time></trkpt><trkpt lat="45.2967" lon="9.022955"><ele>97.33333333333334</ele><time>2026-04-18T10:33:04.982Z</time></trkpt><trkpt lat="45.2965967" lon="9.0230433"><ele>97.16666666666667</ele><time>2026-04-18T10:33:06.982Z</time></trkpt><trkpt lat="45.2965267" lon="9.0231033"><ele>97.0</ele><time>2026-04-18T10:33:07.982Z</time></trkpt><trkpt lat="45.29645" lon="9.0231683"><ele>97.0</ele><time>2026-04-18T10:33:08.982Z</time></trkpt><trkpt lat="45.2963717" lon="9.023235"><ele>97.0</ele><time>2026-04-18T10:33:09.982Z</time></trkpt><trkpt lat="45.2962817" lon="9.02328"><ele>97.0</ele><time>2026-04-18T10:33:10.982Z</time></trkpt><trkpt lat="45.2961883" lon="9.0233167"><ele>97.0</ele><time>2026-04-18T10:33:11.982Z</time></trkpt><trkpt lat="45.2960833" lon="9.0233533"><ele>97.0</ele><time>2026-04-18T10:33:12.982Z</time></trkpt><trkpt lat="45.295975" lon="9.02339"><ele>97.0</ele><time>2026-04-18T10:33:13.983Z</time></trkpt><trkpt lat="45.2958617" lon="9.02343"><ele>97.0</ele><time>2026-04-18T10:33:14.982Z</time></trkpt><trkpt lat="45.295745" lon="9.023475"><ele>97.0</ele><time>2026-04-18T10:33:15.982Z</time></trkpt><trkpt lat="45.2956317" lon="9.0235217"><ele>97.0</ele><time>2026-04-18T10:33:16.982Z</time></trkpt><trkpt lat="45.2955217" lon="9.023565"><ele>97.19999999999999</ele><time>2026-04-18T10:33:17.982Z</time></trkpt><trkpt lat="45.2954183" lon="9.0236117"><ele>97.4</ele><time>2026-04-18T10:33:18.982Z</time></trkpt><trkpt lat="45.295315" lon="9.02366"><ele>97.6</ele><time>2026-04-18T10:33:19.982Z</time></trkpt><trkpt lat="45.2952083" lon="9.0237233"><ele>97.80000000000001</ele><time>2026-04-18T10:33:20.982Z</time></trkpt><trkpt lat="45.2951017" lon="9.02379"><ele>98.0</ele><time>2026-04-18T10:33:21.982Z</time></trkpt><trkpt lat="45.294995" lon="9.0238533"><ele>98.0</ele><time>2026-04-18T10:33:22.982Z</time></trkpt><trkpt lat="45.2948833" lon="9.0239033"><ele>98.0</ele><time>2026-04-18T10:33:23.982Z</time></trkpt><trkpt lat="45.2947733" lon="9.023945"><ele>98.0</ele><time>2026-04-18T10:33:24.982Z</time></trkpt><trkpt lat="45.2946617" lon="9.0239617"><ele>98.0</ele><time>2026-04-18T10:33:25.982Z</time></trkpt><trkpt lat="45.2945467" lon="9.023975"><ele>97.75</ele><time>2026-04-18T10:33:26.982Z</time></trkpt><trkpt lat="45.294425" lon="9.0239983"><ele>97.5</ele><time>2026-04-18T10:33:27.982Z</time></trkpt><trkpt lat="45.294305" lon="9.0240267"><ele>97.25</ele><time>2026-04-18T10:33:28.982Z</time></trkpt><trkpt lat="45.2941783" lon="9.024045"><ele>97.0</ele><time>2026-04-18T10:33:29.982Z</time></trkpt><trkpt lat="45.2940533" lon="9.0240483"><ele>97.0</ele><time>2026-04-18T10:33:30.982Z</time></trkpt><trkpt lat="45.2939333" lon="9.02405"><ele>97.0</ele><time>2026-04-18T10:33:31.982Z</time></trkpt><trkpt lat="45.2938133" lon="9.024055"><ele>97.0</ele><time>2026-04-18T10:33:32.983Z</time></trkpt><trkpt lat="45.2936917" lon="9.0240583"><ele>97.0</ele><time>2026-04-18T10:33:33.982Z</time></trkpt><trkpt lat="45.2935717" lon="9.02406"><ele>97.0</ele><time>2026-04-18T10:33:34.982Z</time></trkpt><trkpt lat="45.2934617" lon="9.0240567"><ele>97.0</ele><time>2026-04-18T10:33:35.982Z</time></trkpt><trkpt lat="45.2933583" lon="9.0240617"><ele>97.0</ele><time>2026-04-18T10:33:36.982Z</time></trkpt><trkpt lat="45.2932667" lon="9.0240767"><ele>97.0</ele><time>2026-04-18T10:33:37.982Z</time></trkpt><trkpt lat="45.2931733" lon="9.0240767"><ele>97.0</ele><time>2026-04-18T10:33:38.982Z</time></trkpt><trkpt lat="45.2930833" lon="9.02408"><ele>96.66666666666667</ele><time>2026-04-18T10:33:39.982Z</time></trkpt><trkpt lat="45.293005" lon="9.0240933"><ele>96.33333333333334</ele><time>2026-04-18T10:33:40.982Z</time></trkpt><trkpt lat="45.2929333" lon="9.024105"><ele>96.0</ele><time>2026-04-18T10:33:41.982Z</time></trkpt><trkpt lat="45.2928683" lon="9.0241233"><ele>95.66666666666667</ele><time>2026-04-18T10:33:42.982Z</time></trkpt><trkpt lat="45.292805" lon="9.0241317"><ele>95.33333333333334</ele><time>2026-04-18T10:33:43.982Z</time></trkpt><trkpt lat="45.2926883" lon="9.0241483"><ele>95.0</ele><time>2026-04-18T10:33:45.982Z</time></trkpt><trkpt lat="45.292585" lon="9.0241767"><ele>95.0</ele><time>2026-04-18T10:33:47.982Z</time></trkpt><trkpt lat="45.2924717" lon="9.024195"><ele>95.0</ele><time>2026-04-18T10:33:49.982Z</time></trkpt><trkpt lat="45.2924067" lon="9.0242067"><ele>95.0</ele><time>2026-04-18T10:33:50.982Z</time></trkpt><trkpt lat="45.2923367" lon="9.0242183"><ele>95.0</ele><time>2026-04-18T10:33:51.982Z</time></trkpt><trkpt lat="45.2922633" lon="9.0242317"><ele>95.0</ele><time>2026-04-18T10:33:52.982Z</time></trkpt><trkpt lat="45.2921867" lon="9.0242433"><ele>95.0</ele><time>2026-04-18T10:33:53.982Z</time></trkpt><trkpt lat="45.2921083" lon="9.0242533"><ele>95.0</ele><time>2026-04-18T10:33:54.982Z</time></trkpt><trkpt lat="45.2920233" lon="9.0242667"><ele>95.0</ele><time>2026-04-18T10:33:55.982Z</time></trkpt><trkpt lat="45.2919433" lon="9.0242717"><ele>95.0</ele><time>2026-04-18T10:33:56.982Z</time></trkpt><trkpt lat="45.2918633" lon="9.0242783"><ele>95.0</ele><time>2026-04-18T10:33:57.982Z</time></trkpt><trkpt lat="45.291785" lon="9.024285"><ele>95.0</ele><time>2026-04-18T10:33:58.982Z</time></trkpt><trkpt lat="45.2917183" lon="9.024295"><ele>95.0</ele><time>2026-04-18T10:33:59.982Z</time></trkpt><trkpt lat="45.2916433" lon="9.02428"><ele>95.0</ele><time>2026-04-18T10:34:00.982Z</time></trkpt><trkpt lat="45.2915617" lon="9.0242517"><ele>95.0</ele><time>2026-04-18T10:34:01.982Z</time></trkpt><trkpt lat="45.2914767" lon="9.02423"><ele>95.0</ele><time>2026-04-18T10:34:02.982Z</time></trkpt><trkpt lat="45.2913833" lon="9.0242033"><ele>95.0</ele><time>2026-04-18T10:34:03.982Z</time></trkpt><trkpt lat="45.2912883" lon="9.0241767"><ele>95.0</ele><time>2026-04-18T10:34:04.982Z</time></trkpt><trkpt lat="45.2911917" lon="9.0241517"><ele>95.16666666666667</ele><time>2026-04-18T10:34:05.983Z</time></trkpt><trkpt lat="45.291095" lon="9.0241233"><ele>95.33333333333334</ele><time>2026-04-18T10:34:06.982Z</time></trkpt><trkpt lat="45.2910067" lon="9.02409"><ele>95.5</ele><time>2026-04-18T10:34:07.982Z</time></trkpt><trkpt lat="45.290935" lon="9.0240533"><ele>95.66666666666667</ele><time>2026-04-18T10:34:08.982Z</time></trkpt><trkpt lat="45.2908717" lon="9.0240067"><ele>95.83333333333333</ele><time>2026-04-18T10:34:09.982Z</time></trkpt><trkpt lat="45.2908167" lon="9.0239367"><ele>96.0</ele><time>2026-04-18T10:34:10.983Z</time></trkpt><trkpt lat="45.2907583" lon="9.0238617"><ele>96.0</ele><time>2026-04-18T10:34:11.982Z</time></trkpt><trkpt lat="45.2906983" lon="9.0237767"><ele>96.0</ele><time>2026-04-18T10:34:12.982Z</time></trkpt><trkpt lat="45.290635" lon="9.0236767"><ele>96.0</ele><time>2026-04-18T10:34:13.982Z</time></trkpt><trkpt lat="45.29057" lon="9.0235717"><ele>96.0</ele><time>2026-04-18T10:34:14.982Z</time></trkpt><trkpt lat="45.2905" lon="9.02346"><ele>96.0</ele><time>2026-04-18T10:34:15.982Z</time></trkpt><trkpt lat="45.2904283" lon="9.0233467"><ele>95.8</ele><time>2026-04-18T10:34:16.982Z</time></trkpt><trkpt lat="45.2903633" lon="9.023235"><ele>95.6</ele><time>2026-04-18T10:34:17.982Z</time></trkpt><trkpt lat="45.2902967" lon="9.02312"><ele>95.4</ele><time>2026-04-18T10:34:18.982Z</time></trkpt><trkpt lat="45.2902317" lon="9.0229917"><ele>95.2</ele><time>2026-04-18T10:34:19.982Z</time></trkpt><trkpt lat="45.2901717" lon="9.0228583"><ele>95.0</ele><time>2026-04-18T10:34:20.982Z</time></trkpt><trkpt lat="45.2901333" lon="9.022725"><ele>95.0</ele><time>2026-04-18T10:34:21.983Z</time></trkpt><trkpt lat="45.2900917" lon="9.0225833"><ele>95.0</ele><time>2026-04-18T10:34:22.983Z</time></trkpt><trkpt lat="45.29004" lon="9.02243"><ele>95.0</ele><time>2026-04-18T10:34:23.983Z</time></trkpt><trkpt lat="45.2899917" lon="9.0222683"><ele>95.0</ele><time>2026-04-18T10:34:24.982Z</time></trkpt><trkpt lat="45.2899433" lon="9.0221117"><ele>95.2</ele><time>2026-04-18T10:34:25.982Z</time></trkpt><trkpt lat="45.289895" lon="9.02197"><ele>95.4</ele><time>2026-04-18T10:34:26.982Z</time></trkpt><trkpt lat="45.28985" lon="9.0218433"><ele>95.6</ele><time>2026-04-18T10:34:27.982Z</time></trkpt><trkpt lat="45.2898033" lon="9.0217183"><ele>95.8</ele><time>2026-04-18T10:34:28.982Z</time></trkpt><trkpt lat="45.2897567" lon="9.0215883"><ele>96.0</ele><time>2026-04-18T10:34:29.983Z</time></trkpt><trkpt lat="45.2897083" lon="9.0214517"><ele>96.0</ele><time>2026-04-18T10:34:30.982Z</time></trkpt><trkpt lat="45.2896633" lon="9.0213133"><ele>96.0</ele><time>2026-04-18T10:34:31.982Z</time></trkpt><trkpt lat="45.2896133" lon="9.0211667"><ele>96.0</ele><time>2026-04-18T10:34:32.983Z</time></trkpt><trkpt lat="45.2895633" lon="9.0210333"><ele>96.0</ele><time>2026-04-18T10:34:33.982Z</time></trkpt><trkpt lat="45.289515" lon="9.0209017"><ele>96.0</ele><time>2026-04-18T10:34:34.982Z</time></trkpt><trkpt lat="45.28947" lon="9.0207667"><ele>96.0</ele><time>2026-04-18T10:34:35.982Z</time></trkpt><trkpt lat="45.2894167" lon="9.02063"><ele>96.0</ele><time>2026-04-18T10:34:36.983Z</time></trkpt><trkpt lat="45.2893717" lon="9.02049"><ele>96.0</ele><time>2026-04-18T10:34:37.982Z</time></trkpt><trkpt lat="45.2893267" lon="9.020365"><ele>96.0</ele><time>2026-04-18T10:34:38.982Z</time></trkpt><trkpt lat="45.2892733" lon="9.0202433"><ele>96.0</ele><time>2026-04-18T10:34:39.983Z</time></trkpt><trkpt lat="45.289215" lon="9.020135"><ele>96.0</ele><time>2026-04-18T10:34:40.982Z</time></trkpt><trkpt lat="45.2891533" lon="9.020035"><ele>96.0</ele><time>2026-04-18T10:34:41.982Z</time></trkpt><trkpt lat="45.2890917" lon="9.0199383"><ele>96.0</ele><time>2026-04-18T10:34:42.982Z</time></trkpt><trkpt lat="45.2890233" lon="9.01985"><ele>96.0</ele><time>2026-04-18T10:34:43.982Z</time></trkpt><trkpt lat="45.28896" lon="9.0197933"><ele>96.0</ele><time>2026-04-18T10:34:44.983Z</time></trkpt><trkpt lat="45.2888917" lon="9.019765"><ele>96.0</ele><time>2026-04-18T10:34:45.982Z</time></trkpt><trkpt lat="45.2888017" lon="9.0197517"><ele>95.6</ele><time>2026-04-18T10:34:46.982Z</time></trkpt><trkpt lat="45.2887" lon="9.019755"><ele>95.19999999999999</ele><time>2026-04-18T10:34:47.982Z</time></trkpt><trkpt lat="45.2885933" lon="9.0197617"><ele>94.80000000000001</ele><time>2026-04-18T10:34:48.983Z</time></trkpt><trkpt lat="45.288485" lon="9.0197667"><ele>94.4</ele><time>2026-04-18T10:34:49.982Z</time></trkpt><trkpt lat="45.2883767" lon="9.019775"><ele>94.0</ele><time>2026-04-18T10:34:50.983Z</time></trkpt><trkpt lat="45.288265" lon="9.0197817"><ele>94.0</ele><time>2026-04-18T10:34:51.982Z</time></trkpt><trkpt lat="45.2881483" lon="9.019785"><ele>94.0</ele><time>2026-04-18T10:34:52.982Z</time></trkpt><trkpt lat="45.2880317" lon="9.0197833"><ele>94.0</ele><time>2026-04-18T10:34:53.982Z</time></trkpt><trkpt lat="45.2879183" lon="9.019785"><ele>94.0</ele><time>2026-04-18T10:34:54.982Z</time></trkpt><trkpt lat="45.2878083" lon="9.0197833"><ele>94.2</ele><time>2026-04-18T10:34:55.982Z</time></trkpt><trkpt lat="45.2877" lon="9.019785"><ele>94.4</ele><time>2026-04-18T10:34:56.982Z</time></trkpt><trkpt lat="45.2875933" lon="9.0197783"><ele>94.6</ele><time>2026-04-18T10:34:57.982Z</time></trkpt><trkpt lat="45.2874833" lon="9.01977"><ele>94.8</ele><time>2026-04-18T10:34:58.982Z</time></trkpt><trkpt lat="45.2873717" lon="9.0197467"><ele>95.0</ele><time>2026-04-18T10:34:59.982Z</time></trkpt><trkpt lat="45.2872633" lon="9.0197217"><ele>95.0</ele><time>2026-04-18T10:35:00.982Z</time></trkpt><trkpt lat="45.2871533" lon="9.0196967"><ele>95.0</ele><time>2026-04-18T10:35:01.982Z</time></trkpt><trkpt lat="45.2870467" lon="9.0196667"><ele>95.0</ele><time>2026-04-18T10:35:02.982Z</time></trkpt><trkpt lat="45.2869383" lon="9.0196317"><ele>95.0</ele><time>2026-04-18T10:35:03.982Z</time></trkpt><trkpt lat="45.2868333" lon="9.0195983"><ele>95.0</ele><time>2026-04-18T10:35:04.982Z</time></trkpt><trkpt lat="45.2867283" lon="9.0195617"><ele>95.0</ele><time>2026-04-18T10:35:05.983Z</time></trkpt><trkpt lat="45.28663" lon="9.0195267"><ele>95.0</ele><time>2026-04-18T10:35:06.982Z</time></trkpt><trkpt lat="45.2865433" lon="9.0194983"><ele>95.0</ele><time>2026-04-18T10:35:07.982Z</time></trkpt><trkpt lat="45.2864583" lon="9.01947"><ele>95.0</ele><time>2026-04-18T10:35:08.982Z</time></trkpt><trkpt lat="45.286385" lon="9.0194667"><ele>95.0</ele><time>2026-04-18T10:35:09.982Z</time></trkpt><trkpt lat="45.28631" lon="9.01948"><ele>95.0</ele><time>2026-04-18T10:35:10.982Z</time></trkpt><trkpt lat="45.2862217" lon="9.0195717"><ele>95.0</ele><time>2026-04-18T10:35:12.982Z</time></trkpt><trkpt lat="45.2861817" lon="9.0196517"><ele>95.0</ele><time>2026-04-18T10:35:13.982Z</time></trkpt><trkpt lat="45.286135" lon="9.0197617"><ele>95.0</ele><time>2026-04-18T10:35:14.982Z</time></trkpt><trkpt lat="45.2860817" lon="9.0198767"><ele>95.0</ele><time>2026-04-18T10:35:15.982Z</time></trkpt><trkpt lat="45.28602" lon="9.0199867"><ele>95.0</ele><time>2026-04-18T10:35:16.982Z</time></trkpt><trkpt lat="45.2859467" lon="9.0200917"><ele>95.2</ele><time>2026-04-18T10:35:17.982Z</time></trkpt><trkpt lat="45.28587" lon="9.0202"><ele>95.4</ele><time>2026-04-18T10:35:18.982Z</time></trkpt><trkpt lat="45.2857833" lon="9.020315"><ele>95.6</ele><time>2026-04-18T10:35:19.982Z</time></trkpt><trkpt lat="45.2857083" lon="9.0204317"><ele>95.8</ele><time>2026-04-18T10:35:20.982Z</time></trkpt><trkpt lat="45.2856383" lon="9.0205383"><ele>96.0</ele><time>2026-04-18T10:35:21.982Z</time></trkpt><trkpt lat="45.2855767" lon="9.02062"><ele>96.0</ele><time>2026-04-18T10:35:22.982Z</time></trkpt><trkpt lat="45.2855033" lon="9.0207133"><ele>96.0</ele><time>2026-04-18T10:35:24.982Z</time></trkpt><trkpt lat="45.285455" lon="9.020775"><ele>96.0</ele><time>2026-04-18T10:35:26.982Z</time></trkpt><trkpt lat="45.2854" lon="9.0208633"><ele>96.0</ele><time>2026-04-18T10:35:29.982Z</time></trkpt><trkpt lat="45.2854383" lon="9.0207817"><ele>96.0</ele><time>2026-04-18T10:35:40.982Z</time></trkpt><trkpt lat="45.28552" lon="9.0207117"><ele>96.0</ele><time>2026-04-18T10:35:42.982Z</time></trkpt><trkpt lat="45.2855933" lon="9.0206067"><ele>96.5</ele><time>2026-04-18T10:35:44.982Z</time></trkpt><trkpt lat="45.28568" lon="9.02048"><ele>97.0</ele><time>2026-04-18T10:35:46.983Z</time></trkpt><trkpt lat="45.2857283" lon="9.02041"><ele>97.5</ele><time>2026-04-18T10:35:47.982Z</time></trkpt><trkpt lat="45.28578" lon="9.0203333"><ele>98.0</ele><time>2026-04-18T10:35:48.982Z</time></trkpt><trkpt lat="45.2858317" lon="9.02026"><ele>98.5</ele><time>2026-04-18T10:35:49.982Z</time></trkpt><trkpt lat="45.2858783" lon="9.0201967"><ele>99.0</ele><time>2026-04-18T10:35:50.982Z</time></trkpt><trkpt lat="45.2859283" lon="9.0201317"><ele>99.0</ele><time>2026-04-18T10:35:51.982Z</time></trkpt><trkpt lat="45.2859783" lon="9.02007"><ele>99.0</ele><time>2026-04-18T10:35:52.982Z</time></trkpt><trkpt lat="45.2860233" lon="9.0200033"><ele>99.0</ele><time>2026-04-18T10:35:53.982Z</time></trkpt><trkpt lat="45.2860667" lon="9.01993"><ele>99.0</ele><time>2026-04-18T10:35:54.982Z</time></trkpt><trkpt lat="45.2861417" lon="9.0198067"><ele>99.0</ele><time>2026-04-18T10:35:56.982Z</time></trkpt><trkpt lat="45.2861983" lon="9.019695"><ele>99.0</ele><time>2026-04-18T10:35:58.982Z</time></trkpt><trkpt lat="45.28622" lon="9.01961"><ele>98.33333333333333</ele><time>2026-04-18T10:36:00.982Z</time></trkpt><trkpt lat="45.2861633" lon="9.019535"><ele>97.66666666666667</ele><time>2026-04-18T10:36:35.981Z</time></trkpt><trkpt lat="45.2860683" lon="9.019465"><ele>97.0</ele><time>2026-04-18T10:36:37.981Z</time></trkpt><trkpt lat="45.28597" lon="9.01937"><ele>96.33333333333334</ele><time>2026-04-18T10:36:39.981Z</time></trkpt><trkpt lat="45.2859167" lon="9.0193183"><ele>95.66666666666667</ele><time>2026-04-18T10:36:40.981Z</time></trkpt><trkpt lat="45.285855" lon="9.0192567"><ele>95.0</ele><time>2026-04-18T10:36:41.981Z</time></trkpt><trkpt lat="45.2857967" lon="9.01919"><ele>95.0</ele><time>2026-04-18T10:36:42.981Z</time></trkpt><trkpt lat="45.28573" lon="9.019115"><ele>95.0</ele><time>2026-04-18T10:36:43.981Z</time></trkpt><trkpt lat="45.2856583" lon="9.0190383"><ele>95.0</ele><time>2026-04-18T10:36:44.981Z</time></trkpt><trkpt lat="45.2855733" lon="9.01896"><ele>95.0</ele><time>2026-04-18T10:36:45.981Z</time></trkpt><trkpt lat="45.2854983" lon="9.0188783"><ele>95.0</ele><time>2026-04-18T10:36:46.982Z</time></trkpt><trkpt lat="45.2854233" lon="9.0187933"><ele>95.0</ele><time>2026-04-18T10:36:47.981Z</time></trkpt><trkpt lat="45.28535" lon="9.0187133"><ele>95.0</ele><time>2026-04-18T10:36:48.981Z</time></trkpt><trkpt lat="45.2852783" lon="9.0186183"><ele>95.0</ele><time>2026-04-18T10:36:49.981Z</time></trkpt><trkpt lat="45.28522" lon="9.0185383"><ele>95.0</ele><time>2026-04-18T10:36:50.981Z</time></trkpt><trkpt lat="45.2851717" lon="9.01845"><ele>95.0</ele><time>2026-04-18T10:36:51.981Z</time></trkpt><trkpt lat="45.28512" lon="9.018355"><ele>95.0</ele><time>2026-04-18T10:36:52.981Z</time></trkpt><trkpt lat="45.2850633" lon="9.0182583"><ele>95.0</ele><time>2026-04-18T10:36:53.981Z</time></trkpt><trkpt lat="45.2850133" lon="9.0181517"><ele>95.0</ele><time>2026-04-18T10:36:54.982Z</time></trkpt><trkpt lat="45.2849583" lon="9.018035"><ele>95.0</ele><time>2026-04-18T10:36:55.982Z</time></trkpt><trkpt lat="45.2849133" lon="9.0179133"><ele>95.0</ele><time>2026-04-18T10:36:56.981Z</time></trkpt><trkpt lat="45.2848517" lon="9.0177967"><ele>95.0</ele><time>2026-04-18T10:36:57.981Z</time></trkpt><trkpt lat="45.284785" lon="9.0176933"><ele>95.0</ele><time>2026-04-18T10:36:58.981Z</time></trkpt><trkpt lat="45.284715" lon="9.01759"><ele>95.0</ele><time>2026-04-18T10:36:59.981Z</time></trkpt><trkpt lat="45.2846483" lon="9.0174883"><ele>95.0</ele><time>2026-04-18T10:37:00.981Z</time></trkpt><trkpt lat="45.2845883" lon="9.0173933"><ele>95.0</ele><time>2026-04-18T10:37:01.981Z</time></trkpt><trkpt lat="45.28452" lon="9.0173083"><ele>95.0</ele><time>2026-04-18T10:37:02.981Z</time></trkpt><trkpt lat="45.2844483" lon="9.0172217"><ele>95.0</ele><time>2026-04-18T10:37:03.981Z</time></trkpt><trkpt lat="45.284385" lon="9.01714"><ele>95.0</ele><time>2026-04-18T10:37:04.982Z</time></trkpt><trkpt lat="45.2843183" lon="9.0170467"><ele>95.0</ele><time>2026-04-18T10:37:05.981Z</time></trkpt><trkpt lat="45.28426" lon="9.0169583"><ele>95.0</ele><time>2026-04-18T10:37:06.981Z</time></trkpt><trkpt lat="45.2842033" lon="9.0168767"><ele>95.0</ele><time>2026-04-18T10:37:07.981Z</time></trkpt><trkpt lat="45.284155" lon="9.0167983"><ele>95.0</ele><time>2026-04-18T10:37:08.981Z</time></trkpt><trkpt lat="45.28411" lon="9.0167317"><ele>95.0</ele><time>2026-04-18T10:37:09.982Z</time></trkpt><trkpt lat="45.2840633" lon="9.0166667"><ele>95.0</ele><time>2026-04-18T10:37:10.981Z</time></trkpt><trkpt lat="45.284015" lon="9.0165917"><ele>95.0</ele><time>2026-04-18T10:37:11.981Z</time></trkpt><trkpt lat="45.2839667" lon="9.0165217"><ele>95.0</ele><time>2026-04-18T10:37:12.981Z</time></trkpt><trkpt lat="45.2839117" lon="9.016445"><ele>95.0</ele><time>2026-04-18T10:37:13.982Z</time></trkpt><trkpt lat="45.28385" lon="9.01637"><ele>95.0</ele><time>2026-04-18T10:37:14.981Z</time></trkpt><trkpt lat="45.2837783" lon="9.0163"><ele>95.4</ele><time>2026-04-18T10:37:15.981Z</time></trkpt><trkpt lat="45.2837067" lon="9.0162267"><ele>95.8</ele><time>2026-04-18T10:37:16.981Z</time></trkpt><trkpt lat="45.28363" lon="9.016145"><ele>96.19999999999999</ele><time>2026-04-18T10:37:17.981Z</time></trkpt><trkpt lat="45.2835533" lon="9.0160667"><ele>96.6</ele><time>2026-04-18T10:37:18.981Z</time></trkpt><trkpt lat="45.2834683" lon="9.0159917"><ele>97.0</ele><time>2026-04-18T10:37:19.981Z</time></trkpt><trkpt lat="45.2833817" lon="9.0159167"><ele>97.0</ele><time>2026-04-18T10:37:20.981Z</time></trkpt><trkpt lat="45.2832917" lon="9.0158433"><ele>97.0</ele><time>2026-04-18T10:37:21.981Z</time></trkpt><trkpt lat="45.2832117" lon="9.0157617"><ele>97.0</ele><time>2026-04-18T10:37:22.981Z</time></trkpt><trkpt lat="45.2831367" lon="9.0156917"><ele>97.0</ele><time>2026-04-18T10:37:23.981Z</time></trkpt><trkpt lat="45.283065" lon="9.0156167"><ele>97.0</ele><time>2026-04-18T10:37:24.981Z</time></trkpt><trkpt lat="45.282985" lon="9.015545"><ele>96.83333333333334</ele><time>2026-04-18T10:37:25.981Z</time></trkpt><trkpt lat="45.2829083" lon="9.0154733"><ele>96.66666666666667</ele><time>2026-04-18T10:37:26.981Z</time></trkpt><trkpt lat="45.2828367" lon="9.0154"><ele>96.5</ele><time>2026-04-18T10:37:27.981Z</time></trkpt><trkpt lat="45.2827633" lon="9.015335"><ele>96.33333333333334</ele><time>2026-04-18T10:37:28.981Z</time></trkpt><trkpt lat="45.2826983" lon="9.015275"><ele>96.16666666666667</ele><time>2026-04-18T10:37:29.981Z</time></trkpt><trkpt lat="45.28264" lon="9.0152067"><ele>96.0</ele><time>2026-04-18T10:37:30.981Z</time></trkpt><trkpt lat="45.2825817" lon="9.0151267"><ele>96.0</ele><time>2026-04-18T10:37:31.981Z</time></trkpt><trkpt lat="45.2825267" lon="9.0150367"><ele>96.0</ele><time>2026-04-18T10:37:32.981Z</time></trkpt><trkpt lat="45.282475" lon="9.0149333"><ele>96.0</ele><time>2026-04-18T10:37:33.981Z</time></trkpt><trkpt lat="45.2824117" lon="9.01484"><ele>96.0</ele><time>2026-04-18T10:37:34.981Z</time></trkpt><trkpt lat="45.2823317" lon="9.014755"><ele>96.0</ele><time>2026-04-18T10:37:35.981Z</time></trkpt><trkpt lat="45.2822517" lon="9.0146717"><ele>96.0</ele><time>2026-04-18T10:37:36.981Z</time></trkpt><trkpt lat="45.2821783" lon="9.0145933"><ele>96.0</ele><time>2026-04-18T10:37:37.981Z</time></trkpt><trkpt lat="45.2821133" lon="9.0145333"><ele>96.0</ele><time>2026-04-18T10:37:38.981Z</time></trkpt><trkpt lat="45.282055" lon="9.0144733"><ele>96.0</ele><time>2026-04-18T10:37:39.981Z</time></trkpt><trkpt lat="45.282" lon="9.01441"><ele>96.0</ele><time>2026-04-18T10:37:40.981Z</time></trkpt><trkpt lat="45.2819417" lon="9.0143433"><ele>96.0</ele><time>2026-04-18T10:37:41.981Z</time></trkpt><trkpt lat="45.2818867" lon="9.0142717"><ele>96.0</ele><time>2026-04-18T10:37:42.981Z</time></trkpt><trkpt lat="45.281825" lon="9.0142083"><ele>96.0</ele><time>2026-04-18T10:37:43.982Z</time></trkpt><trkpt lat="45.2817633" lon="9.014135"><ele>96.0</ele><time>2026-04-18T10:37:44.982Z</time></trkpt><trkpt lat="45.2817" lon="9.0140817"><ele>96.0</ele><time>2026-04-18T10:37:45.981Z</time></trkpt><trkpt lat="45.2816483" lon="9.014005"><ele>96.0</ele><time>2026-04-18T10:37:46.981Z</time></trkpt><trkpt lat="45.281565" lon="9.01391"><ele>96.0</ele><time>2026-04-18T10:37:48.981Z</time></trkpt><trkpt lat="45.2814583" lon="9.0139267"><ele>96.19999999999999</ele><time>2026-04-18T10:37:50.981Z</time></trkpt><trkpt lat="45.2813783" lon="9.0140617"><ele>96.39999999999999</ele><time>2026-04-18T10:37:52.981Z</time></trkpt><trkpt lat="45.2813283" lon="9.0141517"><ele>96.6</ele><time>2026-04-18T10:37:53.981Z</time></trkpt><trkpt lat="45.2812717" lon="9.0142533"><ele>96.8</ele><time>2026-04-18T10:37:54.981Z</time></trkpt><trkpt lat="45.2812183" lon="9.014345"><ele>97.0</ele><time>2026-04-18T10:37:55.981Z</time></trkpt><trkpt lat="45.2811733" lon="9.014435"><ele>96.66666666666667</ele><time>2026-04-18T10:37:56.981Z</time></trkpt><trkpt lat="45.2811283" lon="9.01452"><ele>96.33333333333334</ele><time>2026-04-18T10:37:57.981Z</time></trkpt><trkpt lat="45.2810767" lon="9.0146167"><ele>96.0</ele><time>2026-04-18T10:37:58.981Z</time></trkpt><trkpt lat="45.2810317" lon="9.014695"><ele>95.66666666666667</ele><time>2026-04-18T10:37:59.981Z</time></trkpt><trkpt lat="45.2809917" lon="9.01478"><ele>95.33333333333334</ele><time>2026-04-18T10:38:00.981Z</time></trkpt><trkpt lat="45.280925" lon="9.0148767"><ele>95.0</ele><time>2026-04-18T10:38:02.982Z</time></trkpt><trkpt lat="45.2808483" lon="9.014845"><ele>95.0</ele><time>2026-04-18T10:38:05.981Z</time></trkpt><trkpt lat="45.2807633" lon="9.01475"><ele>95.0</ele><time>2026-04-18T10:38:07.981Z</time></trkpt><trkpt lat="45.28066" lon="9.014695"><ele>95.0</ele><time>2026-04-18T10:38:09.981Z</time></trkpt><trkpt lat="45.28055" lon="9.01475"><ele>95.0</ele><time>2026-04-18T10:38:11.981Z</time></trkpt><trkpt lat="45.2804867" lon="9.0148133"><ele>95.0</ele><time>2026-04-18T10:38:12.981Z</time></trkpt><trkpt lat="45.2804283" lon="9.01487"><ele>95.6</ele><time>2026-04-18T10:38:13.982Z</time></trkpt><trkpt lat="45.2803233" lon="9.0149083"><ele>96.2</ele><time>2026-04-18T10:38:15.981Z</time></trkpt><trkpt lat="45.28021" lon="9.0148167"><ele>96.80000000000001</ele><time>2026-04-18T10:38:17.981Z</time></trkpt><trkpt lat="45.2801383" lon="9.0147333"><ele>97.4</ele><time>2026-04-18T10:38:18.981Z</time></trkpt><trkpt lat="45.2800633" lon="9.0146417"><ele>98.0</ele><time>2026-04-18T10:38:19.981Z</time></trkpt><trkpt lat="45.2799783" lon="9.0145567"><ele>98.0</ele><time>2026-04-18T10:38:20.981Z</time></trkpt><trkpt lat="45.2798967" lon="9.0144633"><ele>98.0</ele><time>2026-04-18T10:38:21.981Z</time></trkpt><trkpt lat="45.2798133" lon="9.0143717"><ele>98.0</ele><time>2026-04-18T10:38:22.981Z</time></trkpt><trkpt lat="45.27974" lon="9.014285"><ele>98.0</ele><time>2026-04-18T10:38:23.981Z</time></trkpt><trkpt lat="45.2796617" lon="9.0141983"><ele>98.0</ele><time>2026-04-18T10:38:24.981Z</time></trkpt><trkpt lat="45.279585" lon="9.014105"><ele>97.4</ele><time>2026-04-18T10:38:25.982Z</time></trkpt><trkpt lat="45.279505" lon="9.0140217"><ele>96.80000000000001</ele><time>2026-04-18T10:38:26.981Z</time></trkpt><trkpt lat="45.2794167" lon="9.01393"><ele>96.2</ele><time>2026-04-18T10:38:27.981Z</time></trkpt><trkpt lat="45.2793317" lon="9.0138417"><ele>95.6</ele><time>2026-04-18T10:38:28.981Z</time></trkpt><trkpt lat="45.2792567" lon="9.0137517"><ele>95.0</ele><time>2026-04-18T10:38:29.981Z</time></trkpt><trkpt lat="45.27918" lon="9.0136783"><ele>95.0</ele><time>2026-04-18T10:38:30.981Z</time></trkpt><trkpt lat="45.2791083" lon="9.01361"><ele>95.0</ele><time>2026-04-18T10:38:31.981Z</time></trkpt><trkpt lat="45.2790383" lon="9.013555"><ele>95.0</ele><time>2026-04-18T10:38:32.981Z</time></trkpt><trkpt lat="45.27897" lon="9.013515"><ele>95.0</ele><time>2026-04-18T10:38:33.981Z</time></trkpt><trkpt lat="45.2788683" lon="9.0134917"><ele>95.0</ele><time>2026-04-18T10:38:35.981Z</time></trkpt><trkpt lat="45.278785" lon="9.0134533"><ele>95.0</ele><time>2026-04-18T10:39:37.982Z</time></trkpt><trkpt lat="45.27874" lon="9.0133683"><ele>95.0</ele><time>2026-04-18T10:39:40.981Z</time></trkpt><trkpt lat="45.2787333" lon="9.013265"><ele>95.0</ele><time>2026-04-18T10:39:46.981Z</time></trkpt><trkpt lat="45.2787583" lon="9.0131617"><ele>95.0</ele><time>2026-04-18T10:39:53.981Z</time></trkpt><trkpt lat="45.2788233" lon="9.0131267"><ele>95.0</ele><time>2026-04-18T10:39:55.981Z</time></trkpt><trkpt lat="45.278875" lon="9.01306"><ele>95.0</ele><time>2026-04-18T10:39:58.981Z</time></trkpt><trkpt lat="45.2788317" lon="9.0129667"><ele>95.0</ele><time>2026-04-18T10:40:03.981Z</time></trkpt><trkpt lat="45.2787633" lon="9.012865"><ele>95.0</ele><time>2026-04-18T10:40:06.981Z</time></trkpt><trkpt lat="45.2787083" lon="9.012795"><ele>95.0</ele><time>2026-04-18T10:40:09.981Z</time></trkpt><trkpt lat="45.27865" lon="9.0127333"><ele>95.0</ele><time>2026-04-18T10:40:33.981Z</time></trkpt><trkpt lat="45.2785467" lon="9.0126283"><ele>95.0</ele><time>2026-04-18T10:40:35.981Z</time></trkpt><trkpt lat="45.27848" lon="9.012565"><ele>95.0</ele><time>2026-04-18T10:40:36.981Z</time></trkpt><trkpt lat="45.2784133" lon="9.0124917"><ele>95.0</ele><time>2026-04-18T10:40:37.981Z</time></trkpt><trkpt lat="45.278345" lon="9.0124183"><ele>94.8</ele><time>2026-04-18T10:40:38.981Z</time></trkpt><trkpt lat="45.2782667" lon="9.0123383"><ele>94.6</ele><time>2026-04-18T10:40:39.981Z</time></trkpt><trkpt lat="45.27818" lon="9.0122617"><ele>94.4</ele><time>2026-04-18T10:40:40.981Z</time></trkpt><trkpt lat="45.278095" lon="9.01218"><ele>94.2</ele><time>2026-04-18T10:40:41.981Z</time></trkpt><trkpt lat="45.27801" lon="9.0120917"><ele>94.0</ele><time>2026-04-18T10:40:42.981Z</time></trkpt><trkpt lat="45.2779167" lon="9.0120033"><ele>93.80000000000001</ele><time>2026-04-18T10:40:43.981Z</time></trkpt><trkpt lat="45.2778267" lon="9.011915"><ele>93.60000000000001</ele><time>2026-04-18T10:40:44.981Z</time></trkpt><trkpt lat="45.277745" lon="9.011835"><ele>93.4</ele><time>2026-04-18T10:40:45.981Z</time></trkpt><trkpt lat="45.2776683" lon="9.0117533"><ele>93.2</ele><time>2026-04-18T10:40:46.981Z</time></trkpt><trkpt lat="45.2775967" lon="9.0116717"><ele>93.0</ele><time>2026-04-18T10:40:47.981Z</time></trkpt><trkpt lat="45.2775183" lon="9.0115983"><ele>93.0</ele><time>2026-04-18T10:40:48.981Z</time></trkpt><trkpt lat="45.2774417" lon="9.0115333"><ele>93.0</ele><time>2026-04-18T10:40:49.982Z</time></trkpt><trkpt lat="45.2773683" lon="9.0114633"><ele>93.0</ele><time>2026-04-18T10:40:50.981Z</time></trkpt><trkpt lat="45.2773067" lon="9.0113967"><ele>93.0</ele><time>2026-04-18T10:40:51.981Z</time></trkpt><trkpt lat="45.2772433" lon="9.011335"><ele>93.0</ele><time>2026-04-18T10:40:52.981Z</time></trkpt><trkpt lat="45.2771783" lon="9.0112633"><ele>93.0</ele><time>2026-04-18T10:40:53.981Z</time></trkpt><trkpt lat="45.2771033" lon="9.0111783"><ele>92.80000000000001</ele><time>2026-04-18T10:40:54.981Z</time></trkpt><trkpt lat="45.2770283" lon="9.0111033"><ele>92.6</ele><time>2026-04-18T10:40:55.981Z</time></trkpt><trkpt lat="45.2769467" lon="9.011025"><ele>92.4</ele><time>2026-04-18T10:40:56.981Z</time></trkpt><trkpt lat="45.276865" lon="9.01094"><ele>92.19999999999999</ele><time>2026-04-18T10:40:57.982Z</time></trkpt><trkpt lat="45.2767833" lon="9.01086"><ele>92.0</ele><time>2026-04-18T10:40:58.981Z</time></trkpt><trkpt lat="45.2767117" lon="9.0107917"><ele>92.33333333333334</ele><time>2026-04-18T10:40:59.981Z</time></trkpt><trkpt lat="45.2766517" lon="9.010735"><ele>92.66666666666667</ele><time>2026-04-18T10:41:00.981Z</time></trkpt><trkpt lat="45.2765633" lon="9.0106267"><ele>93.0</ele><time>2026-04-18T10:41:02.981Z</time></trkpt><trkpt lat="45.276495" lon="9.0105483"><ele>93.33333333333333</ele><time>2026-04-18T10:41:04.981Z</time></trkpt><trkpt lat="45.2764133" lon="9.01047"><ele>93.66666666666666</ele><time>2026-04-18T10:41:06.981Z</time></trkpt><trkpt lat="45.2763433" lon="9.0104383"><ele>94.0</ele><time>2026-04-18T10:41:08.981Z</time></trkpt><trkpt lat="45.276295" lon="9.0104983"><ele>94.16666666666666</ele><time>2026-04-18T10:41:10.981Z</time></trkpt><trkpt lat="45.2762367" lon="9.0106317"><ele>94.33333333333333</ele><time>2026-04-18T10:41:12.981Z</time></trkpt><trkpt lat="45.2762033" lon="9.010715"><ele>94.5</ele><time>2026-04-18T10:41:13.981Z</time></trkpt><trkpt lat="45.27616" lon="9.0108033"><ele>94.66666666666667</ele><time>2026-04-18T10:41:14.981Z</time></trkpt><trkpt lat="45.276115" lon="9.010895"><ele>94.83333333333334</ele><time>2026-04-18T10:41:15.982Z</time></trkpt><trkpt lat="45.2760667" lon="9.0109967"><ele>95.0</ele><time>2026-04-18T10:41:16.981Z</time></trkpt><trkpt lat="45.2760133" lon="9.0111033"><ele>95.0</ele><time>2026-04-18T10:41:17.981Z</time></trkpt><trkpt lat="45.2759583" lon="9.0112083"><ele>95.0</ele><time>2026-04-18T10:41:18.981Z</time></trkpt><trkpt lat="45.2759117" lon="9.01131"><ele>95.0</ele><time>2026-04-18T10:41:19.981Z</time></trkpt><trkpt lat="45.275865" lon="9.0114183"><ele>95.0</ele><time>2026-04-18T10:41:20.981Z</time></trkpt><trkpt lat="45.2758183" lon="9.0115283"><ele>95.0</ele><time>2026-04-18T10:41:21.981Z</time></trkpt><trkpt lat="45.2757667" lon="9.0116333"><ele>95.0</ele><time>2026-04-18T10:41:22.981Z</time></trkpt><trkpt lat="45.275715" lon="9.0117367"><ele>95.0</ele><time>2026-04-18T10:41:23.981Z</time></trkpt><trkpt lat="45.2756633" lon="9.0118483"><ele>95.0</ele><time>2026-04-18T10:41:24.981Z</time></trkpt><trkpt lat="45.2756117" lon="9.0119567"><ele>95.0</ele><time>2026-04-18T10:41:25.982Z</time></trkpt><trkpt lat="45.2755667" lon="9.0120667"><ele>95.0</ele><time>2026-04-18T10:41:26.981Z</time></trkpt><trkpt lat="45.275515" lon="9.012175"><ele>95.0</ele><time>2026-04-18T10:41:27.982Z</time></trkpt><trkpt lat="45.2754633" lon="9.0122883"><ele>95.0</ele><time>2026-04-18T10:41:28.981Z</time></trkpt><trkpt lat="45.27541" lon="9.0124133"><ele>95.0</ele><time>2026-04-18T10:41:29.981Z</time></trkpt><trkpt lat="45.2753483" lon="9.0125383"><ele>95.0</ele><time>2026-04-18T10:41:30.981Z</time></trkpt><trkpt lat="45.275285" lon="9.012665"><ele>95.0</ele><time>2026-04-18T10:41:31.981Z</time></trkpt><trkpt lat="45.27523" lon="9.012785"><ele>95.0</ele><time>2026-04-18T10:41:32.982Z</time></trkpt><trkpt lat="45.2751833" lon="9.0128983"><ele>95.0</ele><time>2026-04-18T10:41:33.981Z</time></trkpt><trkpt lat="45.2751333" lon="9.0130067"><ele>95.0</ele><time>2026-04-18T10:41:34.982Z</time></trkpt><trkpt lat="45.275085" lon="9.0131117"><ele>95.0</ele><time>2026-04-18T10:41:35.981Z</time></trkpt><trkpt lat="45.27503" lon="9.01322"><ele>95.0</ele><time>2026-04-18T10:41:36.981Z</time></trkpt><trkpt lat="45.27498" lon="9.0133183"><ele>95.0</ele><time>2026-04-18T10:41:37.981Z</time></trkpt><trkpt lat="45.27493" lon="9.0134117"><ele>95.0</ele><time>2026-04-18T10:41:38.981Z</time></trkpt><trkpt lat="45.27489" lon="9.0134983"><ele>95.0</ele><time>2026-04-18T10:41:39.981Z</time></trkpt><trkpt lat="45.2748583" lon="9.01358"><ele>95.0</ele><time>2026-04-18T10:41:40.981Z</time></trkpt><trkpt lat="45.2748183" lon="9.0136767"><ele>95.0</ele><time>2026-04-18T10:41:41.981Z</time></trkpt><trkpt lat="45.2747767" lon="9.0137767"><ele>95.0</ele><time>2026-04-18T10:41:42.981Z</time></trkpt><trkpt lat="45.2747267" lon="9.0138867"><ele>95.0</ele><time>2026-04-18T10:41:43.981Z</time></trkpt><trkpt lat="45.2746683" lon="9.0140067"><ele>95.0</ele><time>2026-04-18T10:41:44.981Z</time></trkpt><trkpt lat="45.2746033" lon="9.0141233"><ele>95.2</ele><time>2026-04-18T10:41:45.981Z</time></trkpt><trkpt lat="45.27454" lon="9.0142517"><ele>95.4</ele><time>2026-04-18T10:41:46.981Z</time></trkpt><trkpt lat="45.2744783" lon="9.01438"><ele>95.6</ele><time>2026-04-18T10:41:47.981Z</time></trkpt><trkpt lat="45.27442" lon="9.0145017"><ele>95.8</ele><time>2026-04-18T10:41:48.981Z</time></trkpt><trkpt lat="45.2743667" lon="9.01462"><ele>96.0</ele><time>2026-04-18T10:41:49.981Z</time></trkpt><trkpt lat="45.2743117" lon="9.0147367"><ele>96.0</ele><time>2026-04-18T10:41:50.981Z</time></trkpt><trkpt lat="45.27426" lon="9.01484"><ele>96.0</ele><time>2026-04-18T10:41:51.981Z</time></trkpt><trkpt lat="45.2742083" lon="9.0149283"><ele>96.0</ele><time>2026-04-18T10:41:52.981Z</time></trkpt><trkpt lat="45.2741467" lon="9.0150033"><ele>96.0</ele><time>2026-04-18T10:41:53.981Z</time></trkpt><trkpt lat="45.2740817" lon="9.0150517"><ele>96.0</ele><time>2026-04-18T10:41:54.982Z</time></trkpt><trkpt lat="45.2740083" lon="9.0150817"><ele>96.0</ele><time>2026-04-18T10:41:55.981Z</time></trkpt><trkpt lat="45.2739383" lon="9.01511"><ele>96.33333333333333</ele><time>2026-04-18T10:41:56.981Z</time></trkpt><trkpt lat="45.2738583" lon="9.0151217"><ele>96.66666666666666</ele><time>2026-04-18T10:41:57.981Z</time></trkpt><trkpt lat="45.2737717" lon="9.01512"><ele>97.0</ele><time>2026-04-18T10:41:58.981Z</time></trkpt><trkpt lat="45.2736933" lon="9.0151"><ele>97.33333333333333</ele><time>2026-04-18T10:41:59.981Z</time></trkpt><trkpt lat="45.2736133" lon="9.0150833"><ele>97.66666666666666</ele><time>2026-04-18T10:42:00.981Z</time></trkpt><trkpt lat="45.2735417" lon="9.015065"><ele>98.0</ele><time>2026-04-18T10:42:01.981Z</time></trkpt><trkpt lat="45.2734583" lon="9.01504"><ele>98.0</ele><time>2026-04-18T10:42:02.981Z</time></trkpt><trkpt lat="45.273355" lon="9.0149917"><ele>98.0</ele><time>2026-04-18T10:42:03.981Z</time></trkpt><trkpt lat="45.2732417" lon="9.0149333"><ele>98.0</ele><time>2026-04-18T10:42:04.981Z</time></trkpt><trkpt lat="45.2731283" lon="9.0148667"><ele>98.0</ele><time>2026-04-18T10:42:05.981Z</time></trkpt><trkpt lat="45.2730167" lon="9.0148"><ele>98.0</ele><time>2026-04-18T10:42:06.981Z</time></trkpt><trkpt lat="45.2728933" lon="9.0147117"><ele>98.0</ele><time>2026-04-18T10:42:07.981Z</time></trkpt><trkpt lat="45.2727617" lon="9.01463"><ele>98.0</ele><time>2026-04-18T10:42:08.982Z</time></trkpt><trkpt lat="45.2726367" lon="9.014545"><ele>98.0</ele><time>2026-04-18T10:42:09.981Z</time></trkpt><trkpt lat="45.272505" lon="9.01446"><ele>98.0</ele><time>2026-04-18T10:42:10.981Z</time></trkpt><trkpt lat="45.2723683" lon="9.014375"><ele>98.0</ele><time>2026-04-18T10:42:11.981Z</time></trkpt><trkpt lat="45.2722317" lon="9.01429"><ele>98.0</ele><time>2026-04-18T10:42:12.981Z</time></trkpt><trkpt lat="45.272095" lon="9.0142"><ele>98.0</ele><time>2026-04-18T10:42:13.981Z</time></trkpt><trkpt lat="45.2719483" lon="9.0141083"><ele>97.0</ele><time>2026-04-18T10:42:14.981Z</time></trkpt><trkpt lat="45.2718067" lon="9.0140167"><ele>96.0</ele><time>2026-04-18T10:42:15.981Z</time></trkpt><trkpt lat="45.2716567" lon="9.013915"><ele>95.0</ele><time>2026-04-18T10:42:16.981Z</time></trkpt><trkpt lat="45.271505" lon="9.013815"><ele>94.33333333333334</ele><time>2026-04-18T10:42:17.981Z</time></trkpt><trkpt lat="45.2713467" lon="9.0137117"><ele>93.66666666666667</ele><time>2026-04-18T10:42:18.981Z</time></trkpt><trkpt lat="45.2711917" lon="9.0136083"><ele>93.0</ele><time>2026-04-18T10:42:19.981Z</time></trkpt><trkpt lat="45.27104" lon="9.0135117"><ele>93.0</ele><time>2026-04-18T10:42:20.981Z</time></trkpt><trkpt lat="45.2708883" lon="9.0134183"><ele>93.0</ele><time>2026-04-18T10:42:21.981Z</time></trkpt><trkpt lat="45.270735" lon="9.0133133"><ele>93.0</ele><time>2026-04-18T10:42:22.981Z</time></trkpt><trkpt lat="45.2705817" lon="9.0132017"><ele>93.33333333333333</ele><time>2026-04-18T10:42:23.981Z</time></trkpt><trkpt lat="45.2704283" lon="9.013095"><ele>93.66666666666666</ele><time>2026-04-18T10:42:24.981Z</time></trkpt><trkpt lat="45.2702717" lon="9.012985"><ele>94.0</ele><time>2026-04-18T10:42:25.981Z</time></trkpt><trkpt lat="45.2701117" lon="9.01288"><ele>94.0</ele><time>2026-04-18T10:42:26.981Z</time></trkpt><trkpt lat="45.2699517" lon="9.0127767"><ele>94.0</ele><time>2026-04-18T10:42:27.981Z</time></trkpt><trkpt lat="45.26979" lon="9.01267"><ele>94.0</ele><time>2026-04-18T10:42:28.981Z</time></trkpt><trkpt lat="45.269625" lon="9.0125583"><ele>93.66666666666666</ele><time>2026-04-18T10:42:29.981Z</time></trkpt><trkpt lat="45.2694617" lon="9.0124467"><ele>93.33333333333333</ele><time>2026-04-18T10:42:30.982Z</time></trkpt><trkpt lat="45.2693017" lon="9.01234"><ele>93.0</ele><time>2026-04-18T10:42:31.981Z</time></trkpt><trkpt lat="45.269145" lon="9.012245"><ele>93.0</ele><time>2026-04-18T10:42:32.981Z</time></trkpt><trkpt lat="45.2689883" lon="9.0121417"><ele>93.0</ele><time>2026-04-18T10:42:33.981Z</time></trkpt><trkpt lat="45.2688417" lon="9.0120433"><ele>93.0</ele><time>2026-04-18T10:42:34.981Z</time></trkpt><trkpt lat="45.2687" lon="9.0119467"><ele>93.25</ele><time>2026-04-18T10:42:35.981Z</time></trkpt><trkpt lat="45.2685633" lon="9.011855"><ele>93.5</ele><time>2026-04-18T10:42:36.981Z</time></trkpt><trkpt lat="45.2684383" lon="9.0117683"><ele>93.75</ele><time>2026-04-18T10:42:37.981Z</time></trkpt><trkpt lat="45.2683167" lon="9.01169"><ele>94.0</ele><time>2026-04-18T10:42:38.981Z</time></trkpt><trkpt lat="45.2682033" lon="9.0116183"><ele>94.0</ele><time>2026-04-18T10:42:39.981Z</time></trkpt><trkpt lat="45.2680983" lon="9.0115517"><ele>94.0</ele><time>2026-04-18T10:42:40.981Z</time></trkpt><trkpt lat="45.2680133" lon="9.0114967"><ele>94.0</ele><time>2026-04-18T10:42:41.981Z</time></trkpt><trkpt lat="45.267945" lon="9.0114483"><ele>94.0</ele><time>2026-04-18T10:42:42.981Z</time></trkpt><trkpt lat="45.26788" lon="9.0113933"><ele>94.0</ele><time>2026-04-18T10:42:43.981Z</time></trkpt><trkpt lat="45.2678217" lon="9.011295"><ele>94.0</ele><time>2026-04-18T10:42:45.981Z</time></trkpt><trkpt lat="45.2678883" lon="9.0111683"><ele>94.0</ele><time>2026-04-18T10:42:48.981Z</time></trkpt><trkpt lat="45.2679917" lon="9.011055"><ele>94.0</ele><time>2026-04-18T10:42:50.981Z</time></trkpt><trkpt lat="45.26806" lon="9.0109867"><ele>94.0</ele><time>2026-04-18T10:42:51.981Z</time></trkpt><trkpt lat="45.268135" lon="9.0109117"><ele>94.0</ele><time>2026-04-18T10:42:52.981Z</time></trkpt><trkpt lat="45.2682083" lon="9.01083"><ele>94.4</ele><time>2026-04-18T10:42:53.981Z</time></trkpt><trkpt lat="45.2682817" lon="9.010745"><ele>94.80000000000001</ele><time>2026-04-18T10:42:54.981Z</time></trkpt><trkpt lat="45.2683483" lon="9.01066"><ele>95.19999999999999</ele><time>2026-04-18T10:42:55.982Z</time></trkpt><trkpt lat="45.2683983" lon="9.010585"><ele>95.6</ele><time>2026-04-18T10:42:56.981Z</time></trkpt><trkpt lat="45.268455" lon="9.0104433"><ele>96.0</ele><time>2026-04-18T10:42:58.981Z</time></trkpt><trkpt lat="45.26845" lon="9.0102817"><ele>95.99999999999999</ele><time>2026-04-18T10:43:00.981Z</time></trkpt><trkpt lat="45.2684433" lon="9.010185"><ele>96.0</ele><time>2026-04-18T10:43:01.981Z</time></trkpt><trkpt lat="45.26843" lon="9.0100883"><ele>96.0</ele><time>2026-04-18T10:43:02.982Z</time></trkpt><trkpt lat="45.2684217" lon="9.0099883"><ele>96.0</ele><time>2026-04-18T10:43:03.982Z</time></trkpt><trkpt lat="45.2684117" lon="9.0098833"><ele>96.0</ele><time>2026-04-18T10:43:04.981Z</time></trkpt><trkpt lat="45.2683983" lon="9.009775"><ele>95.99999999999999</ele><time>2026-04-18T10:43:05.981Z</time></trkpt><trkpt lat="45.2683917" lon="9.00966"><ele>96.0</ele><time>2026-04-18T10:43:06.981Z</time></trkpt><trkpt lat="45.26838" lon="9.0095433"><ele>95.8</ele><time>2026-04-18T10:43:07.981Z</time></trkpt><trkpt lat="45.26837" lon="9.0094233"><ele>95.6</ele><time>2026-04-18T10:43:08.981Z</time></trkpt><trkpt lat="45.26836" lon="9.0092867"><ele>95.4</ele><time>2026-04-18T10:43:09.981Z</time></trkpt><trkpt lat="45.2683483" lon="9.0091533"><ele>95.2</ele><time>2026-04-18T10:43:10.981Z</time></trkpt><trkpt lat="45.2683367" lon="9.0090233"><ele>95.0</ele><time>2026-04-18T10:43:11.981Z</time></trkpt><trkpt lat="45.2683267" lon="9.0088983"><ele>95.0</ele><time>2026-04-18T10:43:12.981Z</time></trkpt><trkpt lat="45.2683133" lon="9.0087683"><ele>95.0</ele><time>2026-04-18T10:43:13.981Z</time></trkpt><trkpt lat="45.2683033" lon="9.008635"><ele>95.0</ele><time>2026-04-18T10:43:14.981Z</time></trkpt><trkpt lat="45.2682917" lon="9.0085017"><ele>95.0</ele><time>2026-04-18T10:43:15.981Z</time></trkpt><trkpt lat="45.268285" lon="9.00836"><ele>95.0</ele><time>2026-04-18T10:43:16.981Z</time></trkpt><trkpt lat="45.2682717" lon="9.00822"><ele>95.0</ele><time>2026-04-18T10:43:17.981Z</time></trkpt><trkpt lat="45.2682567" lon="9.0080933"><ele>95.0</ele><time>2026-04-18T10:43:18.981Z</time></trkpt><trkpt lat="45.2682433" lon="9.007975"><ele>95.0</ele><time>2026-04-18T10:43:19.981Z</time></trkpt><trkpt lat="45.268235" lon="9.0078617"><ele>95.0</ele><time>2026-04-18T10:43:20.981Z</time></trkpt><trkpt lat="45.2682283" lon="9.0077483"><ele>95.0</ele><time>2026-04-18T10:43:21.981Z</time></trkpt><trkpt lat="45.26822" lon="9.0076333"><ele>95.0</ele><time>2026-04-18T10:43:22.981Z</time></trkpt><trkpt lat="45.2682117" lon="9.0075133"><ele>94.83333333333334</ele><time>2026-04-18T10:43:23.981Z</time></trkpt><trkpt lat="45.2681983" lon="9.0073883"><ele>94.66666666666667</ele><time>2026-04-18T10:43:24.981Z</time></trkpt><trkpt lat="45.26819" lon="9.0072567"><ele>94.5</ele><time>2026-04-18T10:43:25.981Z</time></trkpt><trkpt lat="45.2681783" lon="9.0071333"><ele>94.33333333333333</ele><time>2026-04-18T10:43:26.982Z</time></trkpt><trkpt lat="45.2681683" lon="9.0070117"><ele>94.16666666666666</ele><time>2026-04-18T10:43:27.981Z</time></trkpt><trkpt lat="45.2681583" lon="9.0068933"><ele>94.0</ele><time>2026-04-18T10:43:28.981Z</time></trkpt><trkpt lat="45.2681433" lon="9.006775"><ele>94.16666666666666</ele><time>2026-04-18T10:43:29.981Z</time></trkpt><trkpt lat="45.268135" lon="9.0066533"><ele>94.33333333333333</ele><time>2026-04-18T10:43:30.982Z</time></trkpt><trkpt lat="45.2681233" lon="9.006535"><ele>94.5</ele><time>2026-04-18T10:43:31.981Z</time></trkpt><trkpt lat="45.2681133" lon="9.0064117"><ele>94.66666666666667</ele><time>2026-04-18T10:43:32.982Z</time></trkpt><trkpt lat="45.2680983" lon="9.0062983"><ele>94.83333333333334</ele><time>2026-04-18T10:43:33.981Z</time></trkpt><trkpt lat="45.2680883" lon="9.0061833"><ele>95.0</ele><time>2026-04-18T10:43:34.982Z</time></trkpt><trkpt lat="45.2680767" lon="9.0060533"><ele>95.14285714285714</ele><time>2026-04-18T10:43:35.981Z</time></trkpt><trkpt lat="45.2680733" lon="9.0059333"><ele>95.28571428571429</ele><time>2026-04-18T10:43:36.981Z</time></trkpt><trkpt lat="45.2680617" lon="9.00582"><ele>95.42857142857142</ele><time>2026-04-18T10:43:37.981Z</time></trkpt><trkpt lat="45.2680517" lon="9.00572"><ele>95.57142857142857</ele><time>2026-04-18T10:43:38.981Z</time></trkpt><trkpt lat="45.268045" lon="9.005625"><ele>95.71428571428571</ele><time>2026-04-18T10:43:39.981Z</time></trkpt><trkpt lat="45.2680383" lon="9.0055333"><ele>95.85714285714285</ele><time>2026-04-18T10:43:40.981Z</time></trkpt><trkpt lat="45.2680333" lon="9.0054417"><ele>96.0</ele><time>2026-04-18T10:43:41.981Z</time></trkpt><trkpt lat="45.2680217" lon="9.0053533"><ele>95.99999999999999</ele><time>2026-04-18T10:43:42.981Z</time></trkpt><trkpt lat="45.2680167" lon="9.0052517"><ele>96.0</ele><time>2026-04-18T10:43:43.981Z</time></trkpt><trkpt lat="45.26801" lon="9.0051533"><ele>96.0</ele><time>2026-04-18T10:43:44.981Z</time></trkpt><trkpt lat="45.268" lon="9.0050517"><ele>96.0</ele><time>2026-04-18T10:43:45.981Z</time></trkpt><trkpt lat="45.267985" lon="9.004945"><ele>96.0</ele><time>2026-04-18T10:43:46.981Z</time></trkpt><trkpt lat="45.2679783" lon="9.004835"><ele>95.99999999999999</ele><time>2026-04-18T10:43:47.981Z</time></trkpt><trkpt lat="45.2679683" lon="9.0047367"><ele>96.0</ele><time>2026-04-18T10:43:48.981Z</time></trkpt><trkpt lat="45.267955" lon="9.0046483"><ele>96.0</ele><time>2026-04-18T10:43:49.981Z</time></trkpt><trkpt lat="45.26793" lon="9.0045233"><ele>96.0</ele><time>2026-04-18T10:43:51.981Z</time></trkpt><trkpt lat="45.26792" lon="9.0044217"><ele>96.0</ele><time>2026-04-18T10:44:02.981Z</time></trkpt><trkpt lat="45.267945" lon="9.004315"><ele>96.0</ele><time>2026-04-18T10:44:04.981Z</time></trkpt><trkpt lat="45.268005" lon="9.0042017"><ele>96.0</ele><time>2026-04-18T10:44:06.981Z</time></trkpt><trkpt lat="45.2680867" lon="9.004065"><ele>95.99999999999999</ele><time>2026-04-18T10:44:08.981Z</time></trkpt><trkpt lat="45.2681333" lon="9.0039917"><ele>96.0</ele><time>2026-04-18T10:44:09.981Z</time></trkpt><trkpt lat="45.2681767" lon="9.0039217"><ele>96.0</ele><time>2026-04-18T10:44:10.981Z</time></trkpt><trkpt lat="45.268225" lon="9.0038433"><ele>96.0</ele><time>2026-04-18T10:44:11.981Z</time></trkpt><trkpt lat="45.2682717" lon="9.0037667"><ele>96.0</ele><time>2026-04-18T10:44:12.981Z</time></trkpt><trkpt lat="45.2683133" lon="9.003685"><ele>95.99999999999999</ele><time>2026-04-18T10:44:13.981Z</time></trkpt><trkpt lat="45.26836" lon="9.0036033"><ele>96.0</ele><time>2026-04-18T10:44:14.982Z</time></trkpt><trkpt lat="45.2684083" lon="9.003525"><ele>96.0</ele><time>2026-04-18T10:44:15.981Z</time></trkpt><trkpt lat="45.2684917" lon="9.0034017"><ele>96.0</ele><time>2026-04-18T10:44:17.981Z</time></trkpt><trkpt lat="45.2685667" lon="9.0032667"><ele>96.0</ele><time>2026-04-18T10:44:19.981Z</time></trkpt><trkpt lat="45.26861" lon="9.0031917"><ele>96.0</ele><time>2026-04-18T10:44:20.981Z</time></trkpt><trkpt lat="45.2686483" lon="9.00311"><ele>96.0</ele><time>2026-04-18T10:44:21.981Z</time></trkpt><trkpt lat="45.2687033" lon="9.0029617"><ele>95.8</ele><time>2026-04-18T10:44:23.981Z</time></trkpt><trkpt lat="45.268755" lon="9.00279"><ele>95.6</ele><time>2026-04-18T10:44:25.981Z</time></trkpt><trkpt lat="45.2687783" lon="9.0026883"><ele>95.4</ele><time>2026-04-18T10:44:26.981Z</time></trkpt><trkpt lat="45.2687983" lon="9.0025917"><ele>95.2</ele><time>2026-04-18T10:44:27.981Z</time></trkpt><trkpt lat="45.2688167" lon="9.0024417"><ele>95.0</ele><time>2026-04-18T10:44:29.981Z</time></trkpt><trkpt lat="45.2688233" lon="9.0023483"><ele>94.83333333333334</ele><time>2026-04-18T10:44:31.981Z</time></trkpt><trkpt lat="45.26876" lon="9.0022383"><ele>94.66666666666667</ele><time>2026-04-18T10:44:34.981Z</time></trkpt><trkpt lat="45.26868" lon="9.0021817"><ele>94.5</ele><time>2026-04-18T10:44:36.981Z</time></trkpt><trkpt lat="45.2686367" lon="9.0021117"><ele>94.33333333333333</ele><time>2026-04-18T10:44:38.981Z</time></trkpt><trkpt lat="45.2686767" lon="9.0019967"><ele>94.16666666666666</ele><time>2026-04-18T10:44:42.981Z</time></trkpt><trkpt lat="45.2687567" lon="9.0019067"><ele>94.0</ele><time>2026-04-18T10:44:44.981Z</time></trkpt><trkpt lat="45.2688133" lon="9.001855"><ele>94.0</ele><time>2026-04-18T10:44:45.981Z</time></trkpt><trkpt lat="45.2688783" lon="9.0017967"><ele>94.0</ele><time>2026-04-18T10:44:46.981Z</time></trkpt><trkpt lat="45.2689467" lon="9.0017383"><ele>94.0</ele><time>2026-04-18T10:44:47.981Z</time></trkpt><trkpt lat="45.2690233" lon="9.0016767"><ele>94.0</ele><time>2026-04-18T10:44:48.981Z</time></trkpt><trkpt lat="45.2690983" lon="9.0016117"><ele>94.0</ele><time>2026-04-18T10:44:49.981Z</time></trkpt><trkpt lat="45.2691733" lon="9.001545"><ele>94.0</ele><time>2026-04-18T10:44:50.981Z</time></trkpt><trkpt lat="45.269245" lon="9.0014783"><ele>94.6</ele><time>2026-04-18T10:44:51.981Z</time></trkpt><trkpt lat="45.2693133" lon="9.001405"><ele>95.2</ele><time>2026-04-18T10:44:52.981Z</time></trkpt><trkpt lat="45.2693633" lon="9.0013133"><ele>95.8</ele><time>2026-04-18T10:44:53.981Z</time></trkpt><trkpt lat="45.2694033" lon="9.0012033"><ele>96.39999999999999</ele><time>2026-04-18T10:44:54.981Z</time></trkpt><trkpt lat="45.2694517" lon="9.0010817"><ele>97.0</ele><time>2026-04-18T10:44:55.981Z</time></trkpt><trkpt lat="45.2694983" lon="9.0009433"><ele>96.5</ele><time>2026-04-18T10:44:56.981Z</time></trkpt><trkpt lat="45.269555" lon="9.0008017"><ele>96.0</ele><time>2026-04-18T10:44:57.981Z</time></trkpt><trkpt lat="45.2696133" lon="9.0006533"><ele>95.5</ele><time>2026-04-18T10:44:58.981Z</time></trkpt><trkpt lat="45.269675" lon="9.0004967"><ele>95.0</ele><time>2026-04-18T10:44:59.981Z</time></trkpt><trkpt lat="45.26974" lon="9.00033"><ele>95.0</ele><time>2026-04-18T10:45:00.981Z</time></trkpt><trkpt lat="45.269815" lon="9.0001533"><ele>95.0</ele><time>2026-04-18T10:45:01.981Z</time></trkpt><trkpt lat="45.2698883" lon="8.9999633"><ele>95.0</ele><time>2026-04-18T10:45:02.982Z</time></trkpt><trkpt lat="45.2699567" lon="8.999765"><ele>95.0</ele><time>2026-04-18T10:45:03.981Z</time></trkpt><trkpt lat="45.27003" lon="8.9995667"><ele>95.0</ele><time>2026-04-18T10:45:04.981Z</time></trkpt><trkpt lat="45.270105" lon="8.9993783"><ele>95.0</ele><time>2026-04-18T10:45:05.981Z</time></trkpt><trkpt lat="45.27017" lon="8.9991933"><ele>95.0</ele><time>2026-04-18T10:45:06.981Z</time></trkpt><trkpt lat="45.2702433" lon="8.9990033"><ele>95.0</ele><time>2026-04-18T10:45:07.981Z</time></trkpt><trkpt lat="45.2703183" lon="8.998815"><ele>95.0</ele><time>2026-04-18T10:45:08.981Z</time></trkpt><trkpt lat="45.270395" lon="8.9986117"><ele>95.0</ele><time>2026-04-18T10:45:09.981Z</time></trkpt><trkpt lat="45.2704767" lon="8.9984067"><ele>95.0</ele><time>2026-04-18T10:45:10.981Z</time></trkpt><trkpt lat="45.2705583" lon="8.9981933"><ele>95.0</ele><time>2026-04-18T10:45:11.981Z</time></trkpt><trkpt lat="45.27064" lon="8.997985"><ele>95.0</ele><time>2026-04-18T10:45:12.981Z</time></trkpt><trkpt lat="45.2707217" lon="8.9977817"><ele>95.0</ele><time>2026-04-18T10:45:13.981Z</time></trkpt><trkpt lat="45.2707983" lon="8.997595"><ele>95.0</ele><time>2026-04-18T10:45:14.982Z</time></trkpt><trkpt lat="45.27087" lon="8.9974133"><ele>95.0</ele><time>2026-04-18T10:45:15.981Z</time></trkpt><trkpt lat="45.2709367" lon="8.9972383"><ele>95.0</ele><time>2026-04-18T10:45:16.981Z</time></trkpt><trkpt lat="45.2710017" lon="8.9970683"><ele>95.0</ele><time>2026-04-18T10:45:17.981Z</time></trkpt><trkpt lat="45.271065" lon="8.996905"><ele>95.0</ele><time>2026-04-18T10:45:18.981Z</time></trkpt><trkpt lat="45.2711267" lon="8.9967567"><ele>95.16666666666667</ele><time>2026-04-18T10:45:19.981Z</time></trkpt><trkpt lat="45.271185" lon="8.996615"><ele>95.33333333333334</ele><time>2026-04-18T10:45:20.981Z</time></trkpt><trkpt lat="45.2712333" lon="8.9965"><ele>95.5</ele><time>2026-04-18T10:45:21.981Z</time></trkpt><trkpt lat="45.27127" lon="8.996415"><ele>95.66666666666667</ele><time>2026-04-18T10:45:22.981Z</time></trkpt><trkpt lat="45.2712833" lon="8.996315"><ele>95.83333333333333</ele><time>2026-04-18T10:45:23.981Z</time></trkpt><trkpt lat="45.2712717" lon="8.9962067"><ele>96.0</ele><time>2026-04-18T10:45:24.981Z</time></trkpt><trkpt lat="45.2712233" lon="8.9961"><ele>96.0</ele><time>2026-04-18T10:45:25.981Z</time></trkpt><trkpt lat="45.27115" lon="8.9960017"><ele>96.0</ele><time>2026-04-18T10:45:26.981Z</time></trkpt><trkpt lat="45.2710833" lon="8.9959133"><ele>96.0</ele><time>2026-04-18T10:45:27.982Z</time></trkpt><trkpt lat="45.2710417" lon="8.9958233"><ele>96.0</ele><time>2026-04-18T10:45:28.982Z</time></trkpt><trkpt lat="45.27103" lon="8.99571"><ele>96.0</ele><time>2026-04-18T10:45:29.981Z</time></trkpt><trkpt lat="45.271045" lon="8.9955767"><ele>96.0</ele><time>2026-04-18T10:45:30.981Z</time></trkpt><trkpt lat="45.2710583" lon="8.9954483"><ele>96.0</ele><time>2026-04-18T10:45:31.981Z</time></trkpt><trkpt lat="45.2710683" lon="8.995335"><ele>96.0</ele><time>2026-04-18T10:45:32.981Z</time></trkpt><trkpt lat="45.2710767" lon="8.9952417"><ele>96.0</ele><time>2026-04-18T10:45:33.981Z</time></trkpt><trkpt lat="45.2710167" lon="8.9951033"><ele>96.0</ele><time>2026-04-18T10:45:35.981Z</time></trkpt><trkpt lat="45.2709217" lon="8.99506"><ele>96.0</ele><time>2026-04-18T10:45:37.981Z</time></trkpt><trkpt lat="45.27085" lon="8.99507"><ele>96.0</ele><time>2026-04-18T10:45:38.981Z</time></trkpt><trkpt lat="45.2707733" lon="8.9950933"><ele>96.0</ele><time>2026-04-18T10:45:39.981Z</time></trkpt><trkpt lat="45.2707" lon="8.995135"><ele>96.0</ele><time>2026-04-18T10:45:40.981Z</time></trkpt><trkpt lat="45.270625" lon="8.9951917"><ele>96.0</ele><time>2026-04-18T10:45:41.981Z</time></trkpt><trkpt lat="45.2705483" lon="8.995275"><ele>96.0</ele><time>2026-04-18T10:45:42.981Z</time></trkpt><trkpt lat="45.2704783" lon="8.9953833"><ele>96.0</ele><time>2026-04-18T10:45:43.981Z</time></trkpt><trkpt lat="45.2704133" lon="8.99549"><ele>96.0</ele><time>2026-04-18T10:45:44.981Z</time></trkpt><trkpt lat="45.27037" lon="8.9955967"><ele>96.0</ele><time>2026-04-18T10:45:45.981Z</time></trkpt><trkpt lat="45.27033" lon="8.995695"><ele>96.0</ele><time>2026-04-18T10:45:46.981Z</time></trkpt><trkpt lat="45.2702833" lon="8.995775"><ele>96.0</ele><time>2026-04-18T10:45:47.981Z</time></trkpt><trkpt lat="45.2701883" lon="8.995845"><ele>96.0</ele><time>2026-04-18T10:45:49.982Z</time></trkpt><trkpt lat="45.2700783" lon="8.9958467"><ele>96.0</ele><time>2026-04-18T10:45:51.981Z</time></trkpt><trkpt lat="45.27002" lon="8.9958117"><ele>96.0</ele><time>2026-04-18T10:45:52.981Z</time></trkpt><trkpt lat="45.2699567" lon="8.9957533"><ele>96.0</ele><time>2026-04-18T10:45:53.982Z</time></trkpt><trkpt lat="45.2698783" lon="8.9956917"><ele>96.0</ele><time>2026-04-18T10:45:54.981Z</time></trkpt><trkpt lat="45.2697883" lon="8.995625"><ele>96.0</ele><time>2026-04-18T10:45:55.981Z</time></trkpt><trkpt lat="45.2697033" lon="8.995555"><ele>96.0</ele><time>2026-04-18T10:45:56.981Z</time></trkpt><trkpt lat="45.269625" lon="8.995485"><ele>96.19999999999999</ele><time>2026-04-18T10:45:57.981Z</time></trkpt><trkpt lat="45.2695633" lon="8.9954317"><ele>96.39999999999999</ele><time>2026-04-18T10:45:58.981Z</time></trkpt><trkpt lat="45.2694583" lon="8.9954"><ele>96.6</ele><time>2026-04-18T10:46:00.981Z</time></trkpt><trkpt lat="45.2693533" lon="8.9954733"><ele>96.8</ele><time>2026-04-18T10:46:02.981Z</time></trkpt><trkpt lat="45.2692967" lon="8.99559"><ele>97.0</ele><time>2026-04-18T10:46:04.982Z</time></trkpt><trkpt lat="45.269255" lon="8.995665"><ele>97.00000000000001</ele><time>2026-04-18T10:46:06.981Z</time></trkpt><trkpt lat="45.269205" lon="8.9957283"><ele>97.0</ele><time>2026-04-18T10:46:08.98Z</time></trkpt><trkpt lat="45.2691417" lon="8.9958083"><ele>97.0</ele><time>2026-04-18T10:46:10.98Z</time></trkpt><trkpt lat="45.26907" lon="8.9958933"><ele>97.0</ele><time>2026-04-18T10:46:12.98Z</time></trkpt><trkpt lat="45.2689967" lon="8.99599"><ele>97.00000000000001</ele><time>2026-04-18T10:46:14.98Z</time></trkpt><trkpt lat="45.2689217" lon="8.996085"><ele>97.0</ele><time>2026-04-18T10:46:16.98Z</time></trkpt><trkpt lat="45.2688467" lon="8.9961733"><ele>97.0</ele><time>2026-04-18T10:46:18.98Z</time></trkpt><trkpt lat="45.2687583" lon="8.99627"><ele>97.0</ele><time>2026-04-18T10:46:20.98Z</time></trkpt><trkpt lat="45.2686533" lon="8.99632"><ele>97.0</ele><time>2026-04-18T10:46:22.98Z</time></trkpt><trkpt lat="45.2685433" lon="8.9963717"><ele>97.0</ele><time>2026-04-18T10:46:24.98Z</time></trkpt><trkpt lat="45.2684717" lon="8.99651"><ele>97.0</ele><time>2026-04-18T10:46:26.98Z</time></trkpt><trkpt lat="45.2684433" lon="8.99661"><ele>97.0</ele><time>2026-04-18T10:46:27.98Z</time></trkpt><trkpt lat="45.2684017" lon="8.996725"><ele>97.0</ele><time>2026-04-18T10:46:28.98Z</time></trkpt><trkpt lat="45.268365" lon="8.9968467"><ele>97.0</ele><time>2026-04-18T10:46:29.98Z</time></trkpt><trkpt lat="45.26832" lon="8.9969717"><ele>97.0</ele><time>2026-04-18T10:46:30.98Z</time></trkpt><trkpt lat="45.2682717" lon="8.9971"><ele>97.00000000000001</ele><time>2026-04-18T10:46:31.98Z</time></trkpt><trkpt lat="45.2682333" lon="8.997225"><ele>97.0</ele><time>2026-04-18T10:46:32.98Z</time></trkpt><trkpt lat="45.268195" lon="8.99734"><ele>97.0</ele><time>2026-04-18T10:46:33.98Z</time></trkpt><trkpt lat="45.2681583" lon="8.9974367"><ele>97.0</ele><time>2026-04-18T10:46:34.98Z</time></trkpt><trkpt lat="45.2681233" lon="8.9975217"><ele>97.00000000000001</ele><time>2026-04-18T10:46:35.98Z</time></trkpt><trkpt lat="45.2680467" lon="8.9976133"><ele>97.0</ele><time>2026-04-18T10:46:37.98Z</time></trkpt><trkpt lat="45.267975" lon="8.9975833"><ele>97.0</ele><time>2026-04-18T10:46:39.98Z</time></trkpt><trkpt lat="45.2678967" lon="8.9975217"><ele>97.0</ele><time>2026-04-18T10:46:41.98Z</time></trkpt><trkpt lat="45.2678133" lon="8.9974517"><ele>97.0</ele><time>2026-04-18T10:46:43.98Z</time></trkpt><trkpt lat="45.2677133" lon="8.99737"><ele>97.0</ele><time>2026-04-18T10:46:45.98Z</time></trkpt><trkpt lat="45.26762" lon="8.997285"><ele>97.0</ele><time>2026-04-18T10:46:47.98Z</time></trkpt><trkpt lat="45.267515" lon="8.9971983"><ele>97.00000000000001</ele><time>2026-04-18T10:46:49.981Z</time></trkpt><trkpt lat="45.26746" lon="8.9971533"><ele>97.0</ele><time>2026-04-18T10:46:50.98Z</time></trkpt><trkpt lat="45.26736" lon="8.997065"><ele>97.0</ele><time>2026-04-18T10:46:52.98Z</time></trkpt><trkpt lat="45.2673" lon="8.997015"><ele>97.0</ele><time>2026-04-18T10:46:53.98Z</time></trkpt><trkpt lat="45.2672383" lon="8.9969683"><ele>97.00000000000001</ele><time>2026-04-18T10:46:54.98Z</time></trkpt><trkpt lat="45.2671733" lon="8.9969183"><ele>97.0</ele><time>2026-04-18T10:46:55.981Z</time></trkpt><trkpt lat="45.2671067" lon="8.9968517"><ele>96.66666666666667</ele><time>2026-04-18T10:46:56.98Z</time></trkpt><trkpt lat="45.2670333" lon="8.9968017"><ele>96.33333333333334</ele><time>2026-04-18T10:46:57.98Z</time></trkpt><trkpt lat="45.2669633" lon="8.9967383"><ele>96.0</ele><time>2026-04-18T10:46:58.98Z</time></trkpt><trkpt lat="45.2668983" lon="8.996675"><ele>95.66666666666667</ele><time>2026-04-18T10:46:59.98Z</time></trkpt><trkpt lat="45.26684" lon="8.9966233"><ele>95.33333333333334</ele><time>2026-04-18T10:47:00.98Z</time></trkpt><trkpt lat="45.26675" lon="8.99656"><ele>95.0</ele><time>2026-04-18T10:47:02.981Z</time></trkpt><trkpt lat="45.266665" lon="8.9966217"><ele>94.8</ele><time>2026-04-18T10:47:04.98Z</time></trkpt><trkpt lat="45.2666017" lon="8.9967667"><ele>94.6</ele><time>2026-04-18T10:47:06.98Z</time></trkpt><trkpt lat="45.2665567" lon="8.9968683"><ele>94.4</ele><time>2026-04-18T10:47:07.981Z</time></trkpt><trkpt lat="45.26651" lon="8.9969667"><ele>94.2</ele><time>2026-04-18T10:47:08.98Z</time></trkpt><trkpt lat="45.266465" lon="8.997065"><ele>94.0</ele><time>2026-04-18T10:47:09.98Z</time></trkpt><trkpt lat="45.2664183" lon="8.99717"><ele>94.0</ele><time>2026-04-18T10:47:10.98Z</time></trkpt><trkpt lat="45.266365" lon="8.9972817"><ele>94.0</ele><time>2026-04-18T10:47:11.98Z</time></trkpt><trkpt lat="45.2663033" lon="8.9973967"><ele>94.0</ele><time>2026-04-18T10:47:12.98Z</time></trkpt><trkpt lat="45.2662417" lon="8.99751"><ele>94.0</ele><time>2026-04-18T10:47:13.98Z</time></trkpt><trkpt lat="45.2661833" lon="8.9976217"><ele>94.0</ele><time>2026-04-18T10:47:14.98Z</time></trkpt><trkpt lat="45.2661283" lon="8.99773"><ele>94.16666666666666</ele><time>2026-04-18T10:47:15.98Z</time></trkpt><trkpt lat="45.2660717" lon="8.9978417"><ele>94.33333333333333</ele><time>2026-04-18T10:47:16.98Z</time></trkpt><trkpt lat="45.266015" lon="8.9979567"><ele>94.5</ele><time>2026-04-18T10:47:17.98Z</time></trkpt><trkpt lat="45.2659617" lon="8.9980517"><ele>94.66666666666667</ele><time>2026-04-18T10:47:18.98Z</time></trkpt><trkpt lat="45.2659083" lon="8.9981467"><ele>94.83333333333334</ele><time>2026-04-18T10:47:19.98Z</time></trkpt><trkpt lat="45.265865" lon="8.9982383"><ele>95.0</ele><time>2026-04-18T10:47:20.98Z</time></trkpt><trkpt lat="45.2658267" lon="8.9983317"><ele>95.0</ele><time>2026-04-18T10:47:21.98Z</time></trkpt><trkpt lat="45.265775" lon="8.9984217"><ele>95.0</ele><time>2026-04-18T10:47:22.98Z</time></trkpt><trkpt lat="45.265725" lon="8.9985067"><ele>95.0</ele><time>2026-04-18T10:47:23.98Z</time></trkpt><trkpt lat="45.2656733" lon="8.9986"><ele>95.0</ele><time>2026-04-18T10:47:24.98Z</time></trkpt><trkpt lat="45.2656217" lon="8.998695"><ele>95.0</ele><time>2026-04-18T10:47:25.98Z</time></trkpt><trkpt lat="45.2655733" lon="8.9987967"><ele>95.0</ele><time>2026-04-18T10:47:26.98Z</time></trkpt><trkpt lat="45.265525" lon="8.9988967"><ele>95.0</ele><time>2026-04-18T10:47:27.98Z</time></trkpt><trkpt lat="45.2654683" lon="8.9990017"><ele>95.0</ele><time>2026-04-18T10:47:28.98Z</time></trkpt><trkpt lat="45.2654217" lon="8.9990933"><ele>95.0</ele><time>2026-04-18T10:47:29.98Z</time></trkpt><trkpt lat="45.2653767" lon="8.9991783"><ele>95.0</ele><time>2026-04-18T10:47:30.981Z</time></trkpt><trkpt lat="45.2653333" lon="8.999265"><ele>95.0</ele><time>2026-04-18T10:47:31.98Z</time></trkpt><trkpt lat="45.265285" lon="8.9993567"><ele>95.0</ele><time>2026-04-18T10:47:32.98Z</time></trkpt><trkpt lat="45.2652317" lon="8.9994467"><ele>95.0</ele><time>2026-04-18T10:47:33.98Z</time></trkpt><trkpt lat="45.2651767" lon="8.999545"><ele>95.0</ele><time>2026-04-18T10:47:34.98Z</time></trkpt><trkpt lat="45.26513" lon="8.9996267"><ele>95.0</ele><time>2026-04-18T10:47:35.98Z</time></trkpt><trkpt lat="45.2650917" lon="8.9997017"><ele>95.0</ele><time>2026-04-18T10:47:36.98Z</time></trkpt><trkpt lat="45.2650367" lon="8.9997583"><ele>95.0</ele><time>2026-04-18T10:47:38.98Z</time></trkpt><trkpt lat="45.2649933" lon="8.9998283"><ele>95.0</ele><time>2026-04-18T10:47:42.98Z</time></trkpt><trkpt lat="45.2649417" lon="8.9999533"><ele>95.0</ele><time>2026-04-18T10:47:45.98Z</time></trkpt><trkpt lat="45.2648917" lon="9.0000583"><ele>95.0</ele><time>2026-04-18T10:47:47.98Z</time></trkpt><trkpt lat="45.2648417" lon="9.0001483"><ele>95.0</ele><time>2026-04-18T10:47:49.98Z</time></trkpt><trkpt lat="45.2647967" lon="9.000255"><ele>95.0</ele><time>2026-04-18T10:47:51.98Z</time></trkpt><trkpt lat="45.2647383" lon="9.0003633"><ele>95.0</ele><time>2026-04-18T10:47:53.98Z</time></trkpt><trkpt lat="45.2646783" lon="9.00048"><ele>95.0</ele><time>2026-04-18T10:47:55.98Z</time></trkpt><trkpt lat="45.2646233" lon="9.0005983"><ele>95.0</ele><time>2026-04-18T10:47:57.98Z</time></trkpt><trkpt lat="45.2645417" lon="9.0007433"><ele>95.0</ele><time>2026-04-18T10:47:59.98Z</time></trkpt><trkpt lat="45.2644917" lon="9.00081"><ele>95.0</ele><time>2026-04-18T10:48:00.98Z</time></trkpt><trkpt lat="45.2644433" lon="9.0008933"><ele>95.0</ele><time>2026-04-18T10:48:01.98Z</time></trkpt><trkpt lat="45.264395" lon="9.000985"><ele>95.4</ele><time>2026-04-18T10:48:02.98Z</time></trkpt><trkpt lat="45.2643383" lon="9.0010833"><ele>95.8</ele><time>2026-04-18T10:48:03.98Z</time></trkpt><trkpt lat="45.2642817" lon="9.0011983"><ele>96.19999999999999</ele><time>2026-04-18T10:48:04.98Z</time></trkpt><trkpt lat="45.2642133" lon="9.0013367"><ele>96.6</ele><time>2026-04-18T10:48:05.98Z</time></trkpt><trkpt lat="45.26415" lon="9.0014817"><ele>97.0</ele><time>2026-04-18T10:48:06.981Z</time></trkpt><trkpt lat="45.2640783" lon="9.001615"><ele>97.0</ele><time>2026-04-18T10:48:07.98Z</time></trkpt><trkpt lat="45.2640033" lon="9.0017583"><ele>97.0</ele><time>2026-04-18T10:48:08.98Z</time></trkpt><trkpt lat="45.263935" lon="9.0019117"><ele>97.0</ele><time>2026-04-18T10:48:09.98Z</time></trkpt><trkpt lat="45.2638617" lon="9.0020617"><ele>97.0</ele><time>2026-04-18T10:48:10.98Z</time></trkpt><trkpt lat="45.2637933" lon="9.0022167"><ele>96.6</ele><time>2026-04-18T10:48:11.98Z</time></trkpt><trkpt lat="45.26373" lon="9.002345"><ele>96.19999999999999</ele><time>2026-04-18T10:48:12.98Z</time></trkpt><trkpt lat="45.2636733" lon="9.0024767"><ele>95.8</ele><time>2026-04-18T10:48:13.98Z</time></trkpt><trkpt lat="45.2636283" lon="9.0025867"><ele>95.4</ele><time>2026-04-18T10:48:14.98Z</time></trkpt><trkpt lat="45.2635633" lon="9.00266"><ele>95.0</ele><time>2026-04-18T10:48:15.98Z</time></trkpt><trkpt lat="45.2634883" lon="9.00271"><ele>95.0</ele><time>2026-04-18T10:48:16.98Z</time></trkpt><trkpt lat="45.263415" lon="9.002765"><ele>95.0</ele><time>2026-04-18T10:48:17.98Z</time></trkpt><trkpt lat="45.2633467" lon="9.0028483"><ele>95.0</ele><time>2026-04-18T10:48:18.98Z</time></trkpt><trkpt lat="45.2632833" lon="9.0029467"><ele>95.0</ele><time>2026-04-18T10:48:19.98Z</time></trkpt><trkpt lat="45.26322" lon="9.003055"><ele>95.0</ele><time>2026-04-18T10:48:20.98Z</time></trkpt><trkpt lat="45.26315" lon="9.003165"><ele>94.2</ele><time>2026-04-18T10:48:21.98Z</time></trkpt><trkpt lat="45.2630833" lon="9.0032717"><ele>93.4</ele><time>2026-04-18T10:48:22.98Z</time></trkpt><trkpt lat="45.2630167" lon="9.003375"><ele>92.6</ele><time>2026-04-18T10:48:23.98Z</time></trkpt><trkpt lat="45.26295" lon="9.0034783"><ele>91.8</ele><time>2026-04-18T10:48:24.98Z</time></trkpt><trkpt lat="45.2628883" lon="9.003575"><ele>91.0</ele><time>2026-04-18T10:48:25.98Z</time></trkpt><trkpt lat="45.2628333" lon="9.0036717"><ele>91.0</ele><time>2026-04-18T10:48:26.981Z</time></trkpt><trkpt lat="45.2627683" lon="9.0037583"><ele>91.0</ele><time>2026-04-18T10:48:27.98Z</time></trkpt><trkpt lat="45.2627" lon="9.0038233"><ele>91.0</ele><time>2026-04-18T10:48:28.98Z</time></trkpt><trkpt lat="45.2626433" lon="9.003875"><ele>91.0</ele><time>2026-04-18T10:48:29.98Z</time></trkpt><trkpt lat="45.2625583" lon="9.0039883"><ele>91.0</ele><time>2026-04-18T10:48:31.98Z</time></trkpt><trkpt lat="45.2624967" lon="9.00412"><ele>91.33333333333333</ele><time>2026-04-18T10:48:33.98Z</time></trkpt><trkpt lat="45.2624567" lon="9.00419"><ele>91.66666666666666</ele><time>2026-04-18T10:48:34.98Z</time></trkpt><trkpt lat="45.2624133" lon="9.0042617"><ele>92.0</ele><time>2026-04-18T10:48:35.981Z</time></trkpt><trkpt lat="45.26237" lon="9.0043317"><ele>92.33333333333333</ele><time>2026-04-18T10:48:36.98Z</time></trkpt><trkpt lat="45.2623267" lon="9.0044117"><ele>92.66666666666667</ele><time>2026-04-18T10:48:37.98Z</time></trkpt><trkpt lat="45.26227" lon="9.0045117"><ele>93.0</ele><time>2026-04-18T10:48:38.98Z</time></trkpt><trkpt lat="45.26221" lon="9.0046167"><ele>92.2</ele><time>2026-04-18T10:48:39.98Z</time></trkpt><trkpt lat="45.2621567" lon="9.0047333"><ele>91.4</ele><time>2026-04-18T10:48:40.98Z</time></trkpt><trkpt lat="45.2620933" lon="9.0048633"><ele>90.60000000000001</ele><time>2026-04-18T10:48:41.98Z</time></trkpt><trkpt lat="45.26203" lon="9.0049867"><ele>89.80000000000001</ele><time>2026-04-18T10:48:42.98Z</time></trkpt><trkpt lat="45.2619567" lon="9.0051067"><ele>89.0</ele><time>2026-04-18T10:48:43.98Z</time></trkpt><trkpt lat="45.2618683" lon="9.0052317"><ele>89.0</ele><time>2026-04-18T10:48:44.98Z</time></trkpt><trkpt lat="45.2617733" lon="9.0053433"><ele>89.0</ele><time>2026-04-18T10:48:45.98Z</time></trkpt><trkpt lat="45.26167" lon="9.0054367"><ele>89.0</ele><time>2026-04-18T10:48:46.98Z</time></trkpt><trkpt lat="45.261575" lon="9.0055233"><ele>89.0</ele><time>2026-04-18T10:48:47.98Z</time></trkpt><trkpt lat="45.2614733" lon="9.0056117"><ele>88.25</ele><time>2026-04-18T10:48:48.98Z</time></trkpt><trkpt lat="45.2613783" lon="9.0057067"><ele>87.5</ele><time>2026-04-18T10:48:49.981Z</time></trkpt><trkpt lat="45.261285" lon="9.0058067"><ele>86.75</ele><time>2026-04-18T10:48:50.98Z</time></trkpt><trkpt lat="45.2612033" lon="9.0059017"><ele>86.0</ele><time>2026-04-18T10:48:51.98Z</time></trkpt><trkpt lat="45.2611233" lon="9.00602"><ele>86.0</ele><time>2026-04-18T10:48:52.98Z</time></trkpt><trkpt lat="45.26104" lon="9.0061383"><ele>86.0</ele><time>2026-04-18T10:48:53.981Z</time></trkpt><trkpt lat="45.2609667" lon="9.006255"><ele>86.0</ele><time>2026-04-18T10:48:54.98Z</time></trkpt><trkpt lat="45.2608983" lon="9.0063833"><ele>86.0</ele><time>2026-04-18T10:48:55.98Z</time></trkpt><trkpt lat="45.260835" lon="9.0064917"><ele>86.0</ele><time>2026-04-18T10:48:56.98Z</time></trkpt><trkpt lat="45.2607783" lon="9.0065667"><ele>86.0</ele><time>2026-04-18T10:48:57.98Z</time></trkpt><trkpt lat="45.2607133" lon="9.0066583"><ele>86.0</ele><time>2026-04-18T10:48:59.98Z</time></trkpt><trkpt lat="45.2607817" lon="9.0066017"><ele>86.0</ele><time>2026-04-18T10:49:09.98Z</time></trkpt><trkpt lat="45.26084" lon="9.0064967"><ele>86.0</ele><time>2026-04-18T10:49:11.98Z</time></trkpt><trkpt lat="45.260895" lon="9.00642"><ele>86.0</ele><time>2026-04-18T10:49:12.98Z</time></trkpt><trkpt lat="45.2609667" lon="9.00632"><ele>86.0</ele><time>2026-04-18T10:49:13.98Z</time></trkpt><trkpt lat="45.2610333" lon="9.0062017"><ele>86.0</ele><time>2026-04-18T10:49:14.981Z</time></trkpt><trkpt lat="45.261115" lon="9.0060833"><ele>86.0</ele><time>2026-04-18T10:49:15.98Z</time></trkpt><trkpt lat="45.2612" lon="9.0059567"><ele>86.0</ele><time>2026-04-18T10:49:16.98Z</time></trkpt><trkpt lat="45.2612833" lon="9.0058317"><ele>86.0</ele><time>2026-04-18T10:49:17.98Z</time></trkpt><trkpt lat="45.2613817" lon="9.0057233"><ele>86.75</ele><time>2026-04-18T10:49:18.98Z</time></trkpt><trkpt lat="45.261485" lon="9.005605"><ele>87.5</ele><time>2026-04-18T10:49:19.98Z</time></trkpt><trkpt lat="45.2615833" lon="9.0055017"><ele>88.25</ele><time>2026-04-18T10:49:20.98Z</time></trkpt><trkpt lat="45.2616767" lon="9.0054167"><ele>89.0</ele><time>2026-04-18T10:49:21.98Z</time></trkpt><trkpt lat="45.26177" lon="9.0053317"><ele>89.0</ele><time>2026-04-18T10:49:22.98Z</time></trkpt><trkpt lat="45.26186" lon="9.0052383"><ele>89.0</ele><time>2026-04-18T10:49:23.98Z</time></trkpt><trkpt lat="45.2619417" lon="9.0051317"><ele>89.0</ele><time>2026-04-18T10:49:24.98Z</time></trkpt><trkpt lat="45.26202" lon="9.0050133"><ele>89.0</ele><time>2026-04-18T10:49:25.98Z</time></trkpt><trkpt lat="45.26209" lon="9.0048967"><ele>89.0</ele><time>2026-04-18T10:49:26.98Z</time></trkpt><trkpt lat="45.2621617" lon="9.004765"><ele>88.6</ele><time>2026-04-18T10:49:27.981Z</time></trkpt><trkpt lat="45.262235" lon="9.0046483"><ele>88.2</ele><time>2026-04-18T10:49:28.98Z</time></trkpt><trkpt lat="45.262305" lon="9.0045117"><ele>87.8</ele><time>2026-04-18T10:49:29.98Z</time></trkpt><trkpt lat="45.26237" lon="9.0043817"><ele>87.39999999999999</ele><time>2026-04-18T10:49:30.98Z</time></trkpt><trkpt lat="45.2624267" lon="9.0042633"><ele>87.0</ele><time>2026-04-18T10:49:31.98Z</time></trkpt><trkpt lat="45.2624833" lon="9.0041533"><ele>87.66666666666667</ele><time>2026-04-18T10:49:32.98Z</time></trkpt><trkpt lat="45.2625333" lon="9.0040567"><ele>88.33333333333333</ele><time>2026-04-18T10:49:33.98Z</time></trkpt><trkpt lat="45.2625733" lon="9.0039867"><ele>89.0</ele><time>2026-04-18T10:49:34.981Z</time></trkpt><trkpt lat="45.2626133" lon="9.0039167"><ele>89.66666666666666</ele><time>2026-04-18T10:49:35.981Z</time></trkpt><trkpt lat="45.262695" lon="9.003835"><ele>90.33333333333333</ele><time>2026-04-18T10:49:37.981Z</time></trkpt><trkpt lat="45.2627717" lon="9.00381"><ele>91.0</ele><time>2026-04-18T10:49:39.98Z</time></trkpt><trkpt lat="45.262685" lon="9.0037733"><ele>91.0</ele><time>2026-04-18T10:55:32.98Z</time></trkpt><trkpt lat="45.2626217" lon="9.0038533"><ele>91.0</ele><time>2026-04-18T10:55:34.98Z</time></trkpt><trkpt lat="45.2625567" lon="9.0039533"><ele>91.0</ele><time>2026-04-18T10:55:36.98Z</time></trkpt><trkpt lat="45.262515" lon="9.0040233"><ele>91.0</ele><time>2026-04-18T10:55:37.98Z</time></trkpt><trkpt lat="45.26248" lon="9.0041067"><ele>91.0</ele><time>2026-04-18T10:55:38.981Z</time></trkpt><trkpt lat="45.2624417" lon="9.0042083"><ele>91.0</ele><time>2026-04-18T10:55:39.98Z</time></trkpt><trkpt lat="45.2623883" lon="9.004295"><ele>91.4</ele><time>2026-04-18T10:55:40.98Z</time></trkpt><trkpt lat="45.2623483" lon="9.0044033"><ele>91.8</ele><time>2026-04-18T10:55:41.979Z</time></trkpt><trkpt lat="45.2623" lon="9.00451"><ele>92.2</ele><time>2026-04-18T10:55:42.979Z</time></trkpt><trkpt lat="45.2622317" lon="9.0046217"><ele>92.60000000000001</ele><time>2026-04-18T10:55:43.979Z</time></trkpt><trkpt lat="45.2621717" lon="9.0047317"><ele>93.0</ele><time>2026-04-18T10:55:44.979Z</time></trkpt><trkpt lat="45.2621083" lon="9.0048433"><ele>92.2</ele><time>2026-04-18T10:55:45.979Z</time></trkpt><trkpt lat="45.262035" lon="9.0049633"><ele>91.4</ele><time>2026-04-18T10:55:46.979Z</time></trkpt><trkpt lat="45.2619633" lon="9.005075"><ele>90.60000000000001</ele><time>2026-04-18T10:55:47.979Z</time></trkpt><trkpt lat="45.2618917" lon="9.005185"><ele>89.80000000000001</ele><time>2026-04-18T10:55:48.979Z</time></trkpt><trkpt lat="45.26181" lon="9.0052867"><ele>89.0</ele><time>2026-04-18T10:55:49.98Z</time></trkpt><trkpt lat="45.2617217" lon="9.00538"><ele>89.0</ele><time>2026-04-18T10:55:50.979Z</time></trkpt><trkpt lat="45.26163" lon="9.0054633"><ele>89.0</ele><time>2026-04-18T10:55:51.979Z</time></trkpt><trkpt lat="45.26154" lon="9.005545"><ele>89.0</ele><time>2026-04-18T10:55:52.979Z</time></trkpt><trkpt lat="45.26144" lon="9.0056283"><ele>89.0</ele><time>2026-04-18T10:55:53.979Z</time></trkpt><trkpt lat="45.26135" lon="9.0057183"><ele>89.0</ele><time>2026-04-18T10:55:54.979Z</time></trkpt><trkpt lat="45.2612583" lon="9.0058233"><ele>88.25</ele><time>2026-04-18T10:55:55.979Z</time></trkpt><trkpt lat="45.2611717" lon="9.00594"><ele>87.5</ele><time>2026-04-18T10:55:56.979Z</time></trkpt><trkpt lat="45.26109" lon="9.0060617"><ele>86.75</ele><time>2026-04-18T10:55:57.979Z</time></trkpt><trkpt lat="45.261015" lon="9.0061733"><ele>86.0</ele><time>2026-04-18T10:55:58.979Z</time></trkpt><trkpt lat="45.26094" lon="9.0062933"><ele>86.0</ele><time>2026-04-18T10:55:59.979Z</time></trkpt><trkpt lat="45.2608917" lon="9.0064017"><ele>86.0</ele><time>2026-04-18T10:56:00.979Z</time></trkpt><trkpt lat="45.2608283" lon="9.0065067"><ele>86.0</ele><time>2026-04-18T10:56:01.979Z</time></trkpt><trkpt lat="45.2607633" lon="9.0066083"><ele>86.0</ele><time>2026-04-18T10:56:02.979Z</time></trkpt><trkpt lat="45.2606933" lon="9.0067217"><ele>86.0</ele><time>2026-04-18T10:56:03.979Z</time></trkpt><trkpt lat="45.2606167" lon="9.0068433"><ele>84.5</ele><time>2026-04-18T10:56:04.979Z</time></trkpt><trkpt lat="45.2605317" lon="9.006975"><ele>83.0</ele><time>2026-04-18T10:56:05.979Z</time></trkpt><trkpt lat="45.2604533" lon="9.007115"><ele>81.5</ele><time>2026-04-18T10:56:06.979Z</time></trkpt><trkpt lat="45.2603783" lon="9.0072733"><ele>80.0</ele><time>2026-04-18T10:56:07.979Z</time></trkpt><trkpt lat="45.2603" lon="9.0074333"><ele>82.0</ele><time>2026-04-18T10:56:08.979Z</time></trkpt><trkpt lat="45.26023" lon="9.00759"><ele>84.0</ele><time>2026-04-18T10:56:09.979Z</time></trkpt><trkpt lat="45.26016" lon="9.00776"><ele>86.0</ele><time>2026-04-18T10:56:10.979Z</time></trkpt><trkpt lat="45.2600817" lon="9.007945"><ele>88.0</ele><time>2026-04-18T10:56:11.979Z</time></trkpt><trkpt lat="45.2600067" lon="9.008135"><ele>88.0</ele><time>2026-04-18T10:56:12.979Z</time></trkpt><trkpt lat="45.2599283" lon="9.008305"><ele>88.0</ele><time>2026-04-18T10:56:13.979Z</time></trkpt><trkpt lat="45.2598567" lon="9.0084583"><ele>88.0</ele><time>2026-04-18T10:56:14.979Z</time></trkpt><trkpt lat="45.2597917" lon="9.0085983"><ele>88.0</ele><time>2026-04-18T10:56:15.979Z</time></trkpt><trkpt lat="45.2597317" lon="9.0087333"><ele>88.33333333333333</ele><time>2026-04-18T10:56:16.979Z</time></trkpt><trkpt lat="45.259675" lon="9.00886"><ele>88.66666666666666</ele><time>2026-04-18T10:56:17.979Z</time></trkpt><trkpt lat="45.2596217" lon="9.0089783"><ele>89.0</ele><time>2026-04-18T10:56:18.979Z</time></trkpt><trkpt lat="45.2595783" lon="9.0090717"><ele>89.33333333333333</ele><time>2026-04-18T10:56:19.979Z</time></trkpt><trkpt lat="45.2595417" lon="9.0091567"><ele>89.66666666666667</ele><time>2026-04-18T10:56:20.979Z</time></trkpt><trkpt lat="45.2594983" lon="9.0092317"><ele>90.0</ele><time>2026-04-18T10:56:21.979Z</time></trkpt><trkpt lat="45.2594483" lon="9.0092867"><ele>90.2</ele><time>2026-04-18T10:56:22.979Z</time></trkpt><trkpt lat="45.25938" lon="9.0093333"><ele>90.4</ele><time>2026-04-18T10:56:23.979Z</time></trkpt><trkpt lat="45.25929" lon="9.0093717"><ele>90.6</ele><time>2026-04-18T10:56:24.979Z</time></trkpt><trkpt lat="45.2591917" lon="9.0094167"><ele>90.8</ele><time>2026-04-18T10:56:25.979Z</time></trkpt><trkpt lat="45.2590883" lon="9.009475"><ele>91.0</ele><time>2026-04-18T10:56:26.979Z</time></trkpt><trkpt lat="45.258985" lon="9.0095583"><ele>91.0</ele><time>2026-04-18T10:56:27.979Z</time></trkpt><trkpt lat="45.25888" lon="9.0096667"><ele>91.0</ele><time>2026-04-18T10:56:28.98Z</time></trkpt><trkpt lat="45.2587683" lon="9.0097917"><ele>91.0</ele><time>2026-04-18T10:56:29.979Z</time></trkpt><trkpt lat="45.258645" lon="9.0099167"><ele>91.0</ele><time>2026-04-18T10:56:30.979Z</time></trkpt><trkpt lat="45.25851" lon="9.0100533"><ele>91.0</ele><time>2026-04-18T10:56:31.979Z</time></trkpt><trkpt lat="45.2583783" lon="9.010195"><ele>91.0</ele><time>2026-04-18T10:56:32.979Z</time></trkpt><trkpt lat="45.2582433" lon="9.0103317"><ele>91.0</ele><time>2026-04-18T10:56:33.979Z</time></trkpt><trkpt lat="45.258115" lon="9.0104633"><ele>90.66666666666666</ele><time>2026-04-18T10:56:34.979Z</time></trkpt><trkpt lat="45.2579917" lon="9.0105867"><ele>90.33333333333333</ele><time>2026-04-18T10:56:35.979Z</time></trkpt><trkpt lat="45.2578633" lon="9.0107183"><ele>90.0</ele><time>2026-04-18T10:56:36.979Z</time></trkpt><trkpt lat="45.2577383" lon="9.0108417"><ele>90.0</ele><time>2026-04-18T10:56:37.979Z</time></trkpt><trkpt lat="45.257615" lon="9.0109717"><ele>90.0</ele><time>2026-04-18T10:56:38.979Z</time></trkpt><trkpt lat="45.2574967" lon="9.011105"><ele>90.0</ele><time>2026-04-18T10:56:39.979Z</time></trkpt><trkpt lat="45.2573817" lon="9.0112183"><ele>90.0</ele><time>2026-04-18T10:56:40.979Z</time></trkpt><trkpt lat="45.257275" lon="9.011325"><ele>89.5</ele><time>2026-04-18T10:56:41.979Z</time></trkpt><trkpt lat="45.2571683" lon="9.011415"><ele>89.0</ele><time>2026-04-18T10:56:42.979Z</time></trkpt><trkpt lat="45.2570667" lon="9.0114917"><ele>88.5</ele><time>2026-04-18T10:56:43.979Z</time></trkpt><trkpt lat="45.25696" lon="9.0115983"><ele>88.0</ele><time>2026-04-18T10:56:44.979Z</time></trkpt><trkpt lat="45.2568717" lon="9.01175"><ele>88.0</ele><time>2026-04-18T10:56:45.979Z</time></trkpt><trkpt lat="45.256785" lon="9.011935"><ele>88.0</ele><time>2026-04-18T10:56:46.979Z</time></trkpt><trkpt lat="45.256695" lon="9.012115"><ele>88.0</ele><time>2026-04-18T10:56:47.979Z</time></trkpt><trkpt lat="45.2565917" lon="9.0122967"><ele>88.0</ele><time>2026-04-18T10:56:48.979Z</time></trkpt><trkpt lat="45.2565033" lon="9.0124617"><ele>88.0</ele><time>2026-04-18T10:56:49.979Z</time></trkpt><trkpt lat="45.2564133" lon="9.0126183"><ele>88.0</ele><time>2026-04-18T10:56:50.98Z</time></trkpt><trkpt lat="45.2563183" lon="9.01278"><ele>88.0</ele><time>2026-04-18T10:56:51.979Z</time></trkpt><trkpt lat="45.25624" lon="9.01292"><ele>88.0</ele><time>2026-04-18T10:56:52.979Z</time></trkpt><trkpt lat="45.256155" lon="9.01305"><ele>88.0</ele><time>2026-04-18T10:56:53.979Z</time></trkpt><trkpt lat="45.25605" lon="9.01317"><ele>88.0</ele><time>2026-04-18T10:56:54.979Z</time></trkpt><trkpt lat="45.2559433" lon="9.0132683"><ele>88.0</ele><time>2026-04-18T10:56:55.979Z</time></trkpt><trkpt lat="45.2558267" lon="9.013365"><ele>87.75</ele><time>2026-04-18T10:56:56.979Z</time></trkpt><trkpt lat="45.255695" lon="9.0134517"><ele>87.5</ele><time>2026-04-18T10:56:57.979Z</time></trkpt><trkpt lat="45.2555833" lon="9.01351"><ele>87.25</ele><time>2026-04-18T10:56:58.979Z</time></trkpt><trkpt lat="45.255485" lon="9.0135567"><ele>87.0</ele><time>2026-04-18T10:56:59.979Z</time></trkpt><trkpt lat="45.2553983" lon="9.0136"><ele>87.0</ele><time>2026-04-18T10:57:00.979Z</time></trkpt><trkpt lat="45.2553033" lon="9.013655"><ele>87.0</ele><time>2026-04-18T10:57:01.98Z</time></trkpt><trkpt lat="45.2552183" lon="9.0137067"><ele>87.0</ele><time>2026-04-18T10:57:02.979Z</time></trkpt><trkpt lat="45.2551417" lon="9.0137533"><ele>87.0</ele><time>2026-04-18T10:57:03.979Z</time></trkpt><trkpt lat="45.25506" lon="9.0138033"><ele>87.0</ele><time>2026-04-18T10:57:04.98Z</time></trkpt><trkpt lat="45.2549933" lon="9.0138333"><ele>87.0</ele><time>2026-04-18T10:57:05.979Z</time></trkpt><trkpt lat="45.25493" lon="9.0138533"><ele>87.0</ele><time>2026-04-18T10:57:06.979Z</time></trkpt><trkpt lat="45.25483" lon="9.0138933"><ele>87.0</ele><time>2026-04-18T10:57:08.979Z</time></trkpt><trkpt lat="45.254725" lon="9.0139383"><ele>87.0</ele><time>2026-04-18T10:57:10.979Z</time></trkpt><trkpt lat="45.25461" lon="9.0139667"><ele>87.0</ele><time>2026-04-18T10:57:12.979Z</time></trkpt><trkpt lat="45.2545467" lon="9.0139633"><ele>87.0</ele><time>2026-04-18T10:57:13.979Z</time></trkpt><trkpt lat="45.2544783" lon="9.0139417"><ele>87.0</ele><time>2026-04-18T10:57:14.979Z</time></trkpt><trkpt lat="45.2544033" lon="9.0138983"><ele>87.0</ele><time>2026-04-18T10:57:15.979Z</time></trkpt><trkpt lat="45.2543183" lon="9.0138467"><ele>87.0</ele><time>2026-04-18T10:57:16.979Z</time></trkpt><trkpt lat="45.2542233" lon="9.0137833"><ele>87.0</ele><time>2026-04-18T10:57:17.979Z</time></trkpt><trkpt lat="45.25412" lon="9.01372"><ele>87.0</ele><time>2026-04-18T10:57:18.979Z</time></trkpt><trkpt lat="45.2540133" lon="9.0136533"><ele>89.0</ele><time>2026-04-18T10:57:19.979Z</time></trkpt><trkpt lat="45.2539117" lon="9.0135817"><ele>91.0</ele><time>2026-04-18T10:57:20.979Z</time></trkpt><trkpt lat="45.253805" lon="9.0135167"><ele>93.0</ele><time>2026-04-18T10:57:21.979Z</time></trkpt><trkpt lat="45.2537017" lon="9.0134467"><ele>95.0</ele><time>2026-04-18T10:57:22.98Z</time></trkpt><trkpt lat="45.2535967" lon="9.0133817"><ele>94.25</ele><time>2026-04-18T10:57:23.979Z</time></trkpt><trkpt lat="45.2534967" lon="9.0133167"><ele>93.5</ele><time>2026-04-18T10:57:24.979Z</time></trkpt><trkpt lat="45.2534033" lon="9.0132517"><ele>92.75</ele><time>2026-04-18T10:57:25.979Z</time></trkpt><trkpt lat="45.2533117" lon="9.0132067"><ele>92.0</ele><time>2026-04-18T10:57:26.979Z</time></trkpt><trkpt lat="45.2531583" lon="9.013195"><ele>92.19999999999999</ele><time>2026-04-18T10:57:28.979Z</time></trkpt><trkpt lat="45.2530583" lon="9.0131933"><ele>92.4</ele><time>2026-04-18T10:57:29.979Z</time></trkpt><trkpt lat="45.252965" lon="9.0132217"><ele>92.6</ele><time>2026-04-18T10:57:30.98Z</time></trkpt><trkpt lat="45.2528783" lon="9.0132683"><ele>92.80000000000001</ele><time>2026-04-18T10:57:31.979Z</time></trkpt><trkpt lat="45.2527817" lon="9.0133433"><ele>93.0</ele><time>2026-04-18T10:57:32.979Z</time></trkpt><trkpt lat="45.2526833" lon="9.0134217"><ele>93.0</ele><time>2026-04-18T10:57:33.979Z</time></trkpt><trkpt lat="45.2525833" lon="9.0134833"><ele>93.0</ele><time>2026-04-18T10:57:34.979Z</time></trkpt><trkpt lat="45.252485" lon="9.01353"><ele>93.0</ele><time>2026-04-18T10:57:35.979Z</time></trkpt><trkpt lat="45.2523883" lon="9.0135483"><ele>93.0</ele><time>2026-04-18T10:57:36.979Z</time></trkpt><trkpt lat="45.2522767" lon="9.0135367"><ele>93.0</ele><time>2026-04-18T10:57:37.979Z</time></trkpt><trkpt lat="45.2521583" lon="9.01351"><ele>92.5</ele><time>2026-04-18T10:57:38.979Z</time></trkpt><trkpt lat="45.2520367" lon="9.013475"><ele>92.0</ele><time>2026-04-18T10:57:39.979Z</time></trkpt><trkpt lat="45.251915" lon="9.01344"><ele>91.5</ele><time>2026-04-18T10:57:40.979Z</time></trkpt><trkpt lat="45.2517983" lon="9.0133867"><ele>91.0</ele><time>2026-04-18T10:57:41.979Z</time></trkpt><trkpt lat="45.251675" lon="9.013315"><ele>91.0</ele><time>2026-04-18T10:57:42.979Z</time></trkpt><trkpt lat="45.2515567" lon="9.0132417"><ele>91.0</ele><time>2026-04-18T10:57:43.979Z</time></trkpt><trkpt lat="45.2514517" lon="9.0131583"><ele>91.0</ele><time>2026-04-18T10:57:44.979Z</time></trkpt><trkpt lat="45.25134" lon="9.0130733"><ele>91.0</ele><time>2026-04-18T10:57:45.979Z</time></trkpt><trkpt lat="45.251235" lon="9.012995"><ele>90.66666666666666</ele><time>2026-04-18T10:57:46.979Z</time></trkpt><trkpt lat="45.25115" lon="9.012915"><ele>90.33333333333333</ele><time>2026-04-18T10:57:47.979Z</time></trkpt><trkpt lat="45.2510783" lon="9.012835"><ele>90.0</ele><time>2026-04-18T10:57:48.979Z</time></trkpt><trkpt lat="45.25101" lon="9.012765"><ele>89.66666666666667</ele><time>2026-04-18T10:57:49.979Z</time></trkpt><trkpt lat="45.2509433" lon="9.0127233"><ele>89.33333333333334</ele><time>2026-04-18T10:57:50.979Z</time></trkpt><trkpt lat="45.2508767" lon="9.0127067"><ele>89.0</ele><time>2026-04-18T10:57:51.979Z</time></trkpt><trkpt lat="45.2508117" lon="9.012705"><ele>89.0</ele><time>2026-04-18T10:57:52.979Z</time></trkpt><trkpt lat="45.2507467" lon="9.0127033"><ele>89.0</ele><time>2026-04-18T10:57:53.979Z</time></trkpt><trkpt lat="45.2506717" lon="9.0126983"><ele>89.0</ele><time>2026-04-18T10:57:54.979Z</time></trkpt><trkpt lat="45.2505917" lon="9.0126917"><ele>89.0</ele><time>2026-04-18T10:57:55.979Z</time></trkpt><trkpt lat="45.2505167" lon="9.0126967"><ele>89.0</ele><time>2026-04-18T10:57:56.979Z</time></trkpt><trkpt lat="45.250435" lon="9.012705"><ele>89.0</ele><time>2026-04-18T10:57:57.979Z</time></trkpt><trkpt lat="45.2503567" lon="9.0127183"><ele>88.42857142857142</ele><time>2026-04-18T10:57:58.979Z</time></trkpt><trkpt lat="45.2502883" lon="9.0127583"><ele>87.85714285714286</ele><time>2026-04-18T10:57:59.979Z</time></trkpt><trkpt lat="45.2502217" lon="9.012815"><ele>87.28571428571428</ele><time>2026-04-18T10:58:00.979Z</time></trkpt><trkpt lat="45.2501667" lon="9.0128767"><ele>86.71428571428571</ele><time>2026-04-18T10:58:01.979Z</time></trkpt><trkpt lat="45.25011" lon="9.0129517"><ele>86.14285714285714</ele><time>2026-04-18T10:58:02.979Z</time></trkpt><trkpt lat="45.2500583" lon="9.0130333"><ele>85.57142857142857</ele><time>2026-04-18T10:58:03.979Z</time></trkpt><trkpt lat="45.2500133" lon="9.0131083"><ele>85.0</ele><time>2026-04-18T10:58:04.979Z</time></trkpt><trkpt lat="45.2499683" lon="9.01318"><ele>85.0</ele><time>2026-04-18T10:58:05.979Z</time></trkpt><trkpt lat="45.2499217" lon="9.0132433"><ele>85.0</ele><time>2026-04-18T10:58:06.979Z</time></trkpt><trkpt lat="45.2498667" lon="9.0133183"><ele>85.0</ele><time>2026-04-18T10:58:08.979Z</time></trkpt><trkpt lat="45.2498733" lon="9.0134217"><ele>85.0</ele><time>2026-04-18T10:58:12.979Z</time></trkpt><trkpt lat="45.24996" lon="9.0135017"><ele>85.0</ele><time>2026-04-18T10:58:46.979Z</time></trkpt><trkpt lat="45.250015" lon="9.01356"><ele>85.0</ele><time>2026-04-18T10:58:47.979Z</time></trkpt><trkpt lat="45.2500683" lon="9.0136283"><ele>85.2</ele><time>2026-04-18T10:58:48.979Z</time></trkpt><trkpt lat="45.2501267" lon="9.01371"><ele>85.4</ele><time>2026-04-18T10:58:49.98Z</time></trkpt><trkpt lat="45.2501817" lon="9.0138083"><ele>85.6</ele><time>2026-04-18T10:58:50.979Z</time></trkpt><trkpt lat="45.2502333" lon="9.01392"><ele>85.8</ele><time>2026-04-18T10:58:51.979Z</time></trkpt><trkpt lat="45.25028" lon="9.01405"><ele>86.0</ele><time>2026-04-18T10:58:52.979Z</time></trkpt><trkpt lat="45.2503267" lon="9.014185"><ele>86.0</ele><time>2026-04-18T10:58:53.979Z</time></trkpt><trkpt lat="45.2503733" lon="9.0143117"><ele>86.0</ele><time>2026-04-18T10:58:54.979Z</time></trkpt><trkpt lat="45.2504267" lon="9.0144483"><ele>86.0</ele><time>2026-04-18T10:58:55.979Z</time></trkpt><trkpt lat="45.2504817" lon="9.0145933"><ele>86.0</ele><time>2026-04-18T10:58:56.979Z</time></trkpt><trkpt lat="45.2505367" lon="9.0147317"><ele>86.0</ele><time>2026-04-18T10:58:57.979Z</time></trkpt><trkpt lat="45.2505883" lon="9.014875"><ele>85.75</ele><time>2026-04-18T10:58:58.979Z</time></trkpt><trkpt lat="45.2506417" lon="9.0150183"><ele>85.5</ele><time>2026-04-18T10:58:59.979Z</time></trkpt><trkpt lat="45.2506967" lon="9.0151683"><ele>85.25</ele><time>2026-04-18T10:59:00.979Z</time></trkpt><trkpt lat="45.2507483" lon="9.01532"><ele>85.0</ele><time>2026-04-18T10:59:01.979Z</time></trkpt><trkpt lat="45.2508033" lon="9.0154683"><ele>85.0</ele><time>2026-04-18T10:59:02.979Z</time></trkpt><trkpt lat="45.2508517" lon="9.0156083"><ele>85.0</ele><time>2026-04-18T10:59:03.98Z</time></trkpt><trkpt lat="45.250905" lon="9.0157517"><ele>85.0</ele><time>2026-04-18T10:59:04.979Z</time></trkpt><trkpt lat="45.2509583" lon="9.0158867"><ele>85.0</ele><time>2026-04-18T10:59:05.979Z</time></trkpt><trkpt lat="45.2510167" lon="9.0160283"><ele>85.0</ele><time>2026-04-18T10:59:06.979Z</time></trkpt><trkpt lat="45.2510717" lon="9.0161783"><ele>85.0</ele><time>2026-04-18T10:59:07.98Z</time></trkpt><trkpt lat="45.2511233" lon="9.0163233"><ele>85.0</ele><time>2026-04-18T10:59:08.979Z</time></trkpt><trkpt lat="45.2511783" lon="9.0164633"><ele>85.0</ele><time>2026-04-18T10:59:09.979Z</time></trkpt><trkpt lat="45.2512283" lon="9.016605"><ele>85.0</ele><time>2026-04-18T10:59:10.979Z</time></trkpt><trkpt lat="45.251275" lon="9.01675"><ele>85.0</ele><time>2026-04-18T10:59:11.979Z</time></trkpt><trkpt lat="45.2513283" lon="9.01689"><ele>85.0</ele><time>2026-04-18T10:59:12.98Z</time></trkpt><trkpt lat="45.2513817" lon="9.0170283"><ele>85.0</ele><time>2026-04-18T10:59:13.979Z</time></trkpt><trkpt lat="45.2514317" lon="9.017175"><ele>85.0</ele><time>2026-04-18T10:59:14.979Z</time></trkpt><trkpt lat="45.2514783" lon="9.0173117"><ele>85.0</ele><time>2026-04-18T10:59:15.979Z</time></trkpt><trkpt lat="45.2515267" lon="9.0174417"><ele>85.8</ele><time>2026-04-18T10:59:16.979Z</time></trkpt><trkpt lat="45.2515817" lon="9.0175733"><ele>86.6</ele><time>2026-04-18T10:59:17.979Z</time></trkpt><trkpt lat="45.2516283" lon="9.0177083"><ele>87.4</ele><time>2026-04-18T10:59:18.979Z</time></trkpt><trkpt lat="45.251675" lon="9.0178383"><ele>88.2</ele><time>2026-04-18T10:59:19.979Z</time></trkpt><trkpt lat="45.2517267" lon="9.0179517"><ele>89.0</ele><time>2026-04-18T10:59:20.979Z</time></trkpt><trkpt lat="45.2517783" lon="9.01807"><ele>89.0</ele><time>2026-04-18T10:59:21.98Z</time></trkpt><trkpt lat="45.2518317" lon="9.0181783"><ele>89.0</ele><time>2026-04-18T10:59:22.979Z</time></trkpt><trkpt lat="45.2518883" lon="9.0182817"><ele>89.0</ele><time>2026-04-18T10:59:23.98Z</time></trkpt><trkpt lat="45.2519517" lon="9.0183867"><ele>89.0</ele><time>2026-04-18T10:59:24.979Z</time></trkpt><trkpt lat="45.2520167" lon="9.0184933"><ele>89.0</ele><time>2026-04-18T10:59:25.979Z</time></trkpt><trkpt lat="45.2520833" lon="9.0186017"><ele>89.0</ele><time>2026-04-18T10:59:26.979Z</time></trkpt><trkpt lat="45.2521567" lon="9.0187117"><ele>89.0</ele><time>2026-04-18T10:59:27.979Z</time></trkpt><trkpt lat="45.2522267" lon="9.0188233"><ele>89.0</ele><time>2026-04-18T10:59:28.979Z</time></trkpt><trkpt lat="45.2522917" lon="9.0189417"><ele>89.0</ele><time>2026-04-18T10:59:29.979Z</time></trkpt><trkpt lat="45.2523533" lon="9.01906"><ele>89.0</ele><time>2026-04-18T10:59:30.979Z</time></trkpt><trkpt lat="45.2524183" lon="9.0191767"><ele>89.0</ele><time>2026-04-18T10:59:31.979Z</time></trkpt><trkpt lat="45.2524867" lon="9.0192983"><ele>89.0</ele><time>2026-04-18T10:59:32.979Z</time></trkpt><trkpt lat="45.2525467" lon="9.0194133"><ele>89.0</ele><time>2026-04-18T10:59:33.979Z</time></trkpt><trkpt lat="45.2526083" lon="9.0195333"><ele>89.0</ele><time>2026-04-18T10:59:34.979Z</time></trkpt><trkpt lat="45.2526717" lon="9.019655"><ele>89.0</ele><time>2026-04-18T10:59:35.979Z</time></trkpt><trkpt lat="45.2527317" lon="9.0197683"><ele>89.0</ele><time>2026-04-18T10:59:36.979Z</time></trkpt><trkpt lat="45.2527933" lon="9.01988"><ele>89.0</ele><time>2026-04-18T10:59:37.979Z</time></trkpt><trkpt lat="45.2528633" lon="9.0199833"><ele>89.0</ele><time>2026-04-18T10:59:38.979Z</time></trkpt><trkpt lat="45.252935" lon="9.0200733"><ele>89.0</ele><time>2026-04-18T10:59:39.979Z</time></trkpt><trkpt lat="45.2530133" lon="9.02016"><ele>89.0</ele><time>2026-04-18T10:59:40.979Z</time></trkpt><trkpt lat="45.2531017" lon="9.0202417"><ele>89.0</ele><time>2026-04-18T10:59:41.979Z</time></trkpt><trkpt lat="45.2531983" lon="9.0203283"><ele>89.0</ele><time>2026-04-18T10:59:42.979Z</time></trkpt><trkpt lat="45.2532983" lon="9.0203967"><ele>89.0</ele><time>2026-04-18T10:59:43.979Z</time></trkpt><trkpt lat="45.2534017" lon="9.0204633"><ele>89.0</ele><time>2026-04-18T10:59:44.979Z</time></trkpt><trkpt lat="45.253505" lon="9.02054"><ele>89.0</ele><time>2026-04-18T10:59:45.979Z</time></trkpt><trkpt lat="45.25361" lon="9.020625"><ele>89.0</ele><time>2026-04-18T10:59:46.979Z</time></trkpt><trkpt lat="45.2537083" lon="9.0206933"><ele>89.0</ele><time>2026-04-18T10:59:47.979Z</time></trkpt><trkpt lat="45.2538017" lon="9.0207633"><ele>89.0</ele><time>2026-04-18T10:59:48.979Z</time></trkpt><trkpt lat="45.2538967" lon="9.020825"><ele>89.0</ele><time>2026-04-18T10:59:49.979Z</time></trkpt><trkpt lat="45.2539867" lon="9.0208833"><ele>89.2</ele><time>2026-04-18T10:59:50.979Z</time></trkpt><trkpt lat="45.254075" lon="9.0209367"><ele>89.4</ele><time>2026-04-18T10:59:51.979Z</time></trkpt><trkpt lat="45.254155" lon="9.0209983"><ele>89.6</ele><time>2026-04-18T10:59:52.979Z</time></trkpt><trkpt lat="45.2542283" lon="9.0210467"><ele>89.8</ele><time>2026-04-18T10:59:53.979Z</time></trkpt><trkpt lat="45.25429" lon="9.0210917"><ele>90.0</ele><time>2026-04-18T10:59:54.979Z</time></trkpt><trkpt lat="45.2543617" lon="9.0212283"><ele>90.0</ele><time>2026-04-18T10:59:56.979Z</time></trkpt><trkpt lat="45.25434" lon="9.0214"><ele>90.0</ele><time>2026-04-18T10:59:58.979Z</time></trkpt><trkpt lat="45.2542917" lon="9.0214967"><ele>90.0</ele><time>2026-04-18T10:59:59.979Z</time></trkpt><trkpt lat="45.25424" lon="9.0216"><ele>90.0</ele><time>2026-04-18T11:00:00.979Z</time></trkpt><trkpt lat="45.2541817" lon="9.0217067"><ele>90.0</ele><time>2026-04-18T11:00:01.979Z</time></trkpt><trkpt lat="45.2541217" lon="9.0218167"><ele>89.8</ele><time>2026-04-18T11:00:02.979Z</time></trkpt><trkpt lat="45.25407" lon="9.0219333"><ele>89.6</ele><time>2026-04-18T11:00:03.979Z</time></trkpt><trkpt lat="45.2540183" lon="9.022045"><ele>89.4</ele><time>2026-04-18T11:00:04.98Z</time></trkpt><trkpt lat="45.2539667" lon="9.0221633"><ele>89.2</ele><time>2026-04-18T11:00:05.98Z</time></trkpt><trkpt lat="45.2539117" lon="9.0222833"><ele>89.0</ele><time>2026-04-18T11:00:06.979Z</time></trkpt><trkpt lat="45.2538533" lon="9.0224067"><ele>89.0</ele><time>2026-04-18T11:00:07.979Z</time></trkpt><trkpt lat="45.2537983" lon="9.0225217"><ele>89.0</ele><time>2026-04-18T11:00:08.979Z</time></trkpt><trkpt lat="45.25374" lon="9.0226333"><ele>89.0</ele><time>2026-04-18T11:00:09.979Z</time></trkpt><trkpt lat="45.2536783" lon="9.0227367"><ele>89.0</ele><time>2026-04-18T11:00:10.979Z</time></trkpt><trkpt lat="45.2536217" lon="9.0228417"><ele>89.0</ele><time>2026-04-18T11:00:11.979Z</time></trkpt><trkpt lat="45.25357" lon="9.022935"><ele>89.0</ele><time>2026-04-18T11:00:12.979Z</time></trkpt><trkpt lat="45.2535233" lon="9.0230217"><ele>89.0</ele><time>2026-04-18T11:00:13.979Z</time></trkpt><trkpt lat="45.25344" lon="9.02316"><ele>89.0</ele><time>2026-04-18T11:00:15.979Z</time></trkpt><trkpt lat="45.2533967" lon="9.0232317"><ele>89.0</ele><time>2026-04-18T11:00:16.979Z</time></trkpt><trkpt lat="45.253325" lon="9.02334"><ele>89.0</ele><time>2026-04-18T11:00:18.979Z</time></trkpt><trkpt lat="45.2532417" lon="9.0233667"><ele>89.2</ele><time>2026-04-18T11:00:20.979Z</time></trkpt><trkpt lat="45.25311" lon="9.0233233"><ele>89.4</ele><time>2026-04-18T11:00:22.979Z</time></trkpt><trkpt lat="45.2530133" lon="9.0233"><ele>89.6</ele><time>2026-04-18T11:00:23.979Z</time></trkpt><trkpt lat="45.2529083" lon="9.02329"><ele>89.8</ele><time>2026-04-18T11:00:24.98Z</time></trkpt><trkpt lat="45.2527983" lon="9.02328"><ele>90.0</ele><time>2026-04-18T11:00:25.979Z</time></trkpt><trkpt lat="45.2526767" lon="9.0232683"><ele>89.5</ele><time>2026-04-18T11:00:26.979Z</time></trkpt><trkpt lat="45.2525433" lon="9.0232517"><ele>89.0</ele><time>2026-04-18T11:00:27.979Z</time></trkpt><trkpt lat="45.2524" lon="9.0232383"><ele>88.5</ele><time>2026-04-18T11:00:28.979Z</time></trkpt><trkpt lat="45.2522483" lon="9.0232267"><ele>88.0</ele><time>2026-04-18T11:00:29.979Z</time></trkpt><trkpt lat="45.25208" lon="9.02322"><ele>88.0</ele><time>2026-04-18T11:00:30.979Z</time></trkpt><trkpt lat="45.2519017" lon="9.023205"><ele>88.0</ele><time>2026-04-18T11:00:31.979Z</time></trkpt><trkpt lat="45.2517233" lon="9.023195"><ele>88.0</ele><time>2026-04-18T11:00:32.98Z</time></trkpt><trkpt lat="45.2515433" lon="9.0231833"><ele>87.66666666666666</ele><time>2026-04-18T11:00:33.979Z</time></trkpt><trkpt lat="45.25136" lon="9.0231767"><ele>87.33333333333333</ele><time>2026-04-18T11:00:34.979Z</time></trkpt><trkpt lat="45.2511683" lon="9.0231633"><ele>87.0</ele><time>2026-04-18T11:00:35.979Z</time></trkpt><trkpt lat="45.2509733" lon="9.02315"><ele>87.0</ele><time>2026-04-18T11:00:36.979Z</time></trkpt><trkpt lat="45.2507833" lon="9.0231317"><ele>87.0</ele><time>2026-04-18T11:00:37.979Z</time></trkpt><trkpt lat="45.25059" lon="9.0231133"><ele>87.0</ele><time>2026-04-18T11:00:38.979Z</time></trkpt><trkpt lat="45.2504017" lon="9.0230983"><ele>87.66666666666667</ele><time>2026-04-18T11:00:39.979Z</time></trkpt><trkpt lat="45.2502167" lon="9.0230883"><ele>88.33333333333334</ele><time>2026-04-18T11:00:40.979Z</time></trkpt><trkpt lat="45.250035" lon="9.02308"><ele>89.0</ele><time>2026-04-18T11:00:41.979Z</time></trkpt><trkpt lat="45.2498633" lon="9.0230617"><ele>89.66666666666667</ele><time>2026-04-18T11:00:42.979Z</time></trkpt><trkpt lat="45.2496883" lon="9.0230467"><ele>90.33333333333333</ele><time>2026-04-18T11:00:43.979Z</time></trkpt><trkpt lat="45.2495167" lon="9.023035"><ele>91.0</ele><time>2026-04-18T11:00:44.979Z</time></trkpt><trkpt lat="45.2493517" lon="9.0230117"><ele>91.0</ele><time>2026-04-18T11:00:45.979Z</time></trkpt><trkpt lat="45.249195" lon="9.0229917"><ele>91.0</ele><time>2026-04-18T11:00:46.979Z</time></trkpt><trkpt lat="45.2490333" lon="9.0229767"><ele>91.0</ele><time>2026-04-18T11:00:47.979Z</time></trkpt><trkpt lat="45.248875" lon="9.02296"><ele>91.0</ele><time>2026-04-18T11:00:48.979Z</time></trkpt><trkpt lat="45.2487183" lon="9.0229533"><ele>91.0</ele><time>2026-04-18T11:00:49.979Z</time></trkpt><trkpt lat="45.2485533" lon="9.0229467"><ele>91.0</ele><time>2026-04-18T11:00:50.979Z</time></trkpt><trkpt lat="45.2483867" lon="9.0229417"><ele>91.0</ele><time>2026-04-18T11:00:51.979Z</time></trkpt><trkpt lat="45.24822" lon="9.02293"><ele>91.0</ele><time>2026-04-18T11:00:52.979Z</time></trkpt><trkpt lat="45.2480567" lon="9.0229183"><ele>91.0</ele><time>2026-04-18T11:00:53.979Z</time></trkpt><trkpt lat="45.2478933" lon="9.022905"><ele>90.66666666666666</ele><time>2026-04-18T11:00:54.98Z</time></trkpt><trkpt lat="45.2477283" lon="9.0229"><ele>90.33333333333333</ele><time>2026-04-18T11:00:55.98Z</time></trkpt><trkpt lat="45.24756" lon="9.0228917"><ele>90.0</ele><time>2026-04-18T11:00:56.979Z</time></trkpt><trkpt lat="45.2473967" lon="9.0228733"><ele>88.0</ele><time>2026-04-18T11:00:57.979Z</time></trkpt><trkpt lat="45.24723" lon="9.0228567"><ele>86.0</ele><time>2026-04-18T11:00:58.979Z</time></trkpt><trkpt lat="45.2470583" lon="9.0228467"><ele>84.0</ele><time>2026-04-18T11:00:59.979Z</time></trkpt><trkpt lat="45.246885" lon="9.02284"><ele>84.0</ele><time>2026-04-18T11:01:00.979Z</time></trkpt><trkpt lat="45.2467083" lon="9.0228267"><ele>84.0</ele><time>2026-04-18T11:01:01.979Z</time></trkpt><trkpt lat="45.246535" lon="9.0228283"><ele>84.0</ele><time>2026-04-18T11:01:02.979Z</time></trkpt><trkpt lat="45.2463567" lon="9.02281"><ele>83.33333333333333</ele><time>2026-04-18T11:01:03.979Z</time></trkpt><trkpt lat="45.2461833" lon="9.0227933"><ele>82.66666666666666</ele><time>2026-04-18T11:01:04.979Z</time></trkpt><trkpt lat="45.246005" lon="9.0227783"><ele>82.0</ele><time>2026-04-18T11:01:05.979Z</time></trkpt><trkpt lat="45.2458267" lon="9.0227667"><ele>82.0</ele><time>2026-04-18T11:01:06.979Z</time></trkpt><trkpt lat="45.2456483" lon="9.0227533"><ele>82.0</ele><time>2026-04-18T11:01:07.979Z</time></trkpt><trkpt lat="45.24547" lon="9.0227417"><ele>82.0</ele><time>2026-04-18T11:01:08.979Z</time></trkpt><trkpt lat="45.24529" lon="9.02273"><ele>82.33333333333333</ele><time>2026-04-18T11:01:09.979Z</time></trkpt><trkpt lat="45.245115" lon="9.022715"><ele>82.66666666666667</ele><time>2026-04-18T11:01:10.979Z</time></trkpt><trkpt lat="45.2449433" lon="9.0227033"><ele>83.0</ele><time>2026-04-18T11:01:11.979Z</time></trkpt><trkpt lat="45.2447667" lon="9.0226867"><ele>82.33333333333334</ele><time>2026-04-18T11:01:12.979Z</time></trkpt><trkpt lat="45.24459" lon="9.0226767"><ele>81.66666666666667</ele><time>2026-04-18T11:01:13.979Z</time></trkpt><trkpt lat="45.2444167" lon="9.0226683"><ele>81.0</ele><time>2026-04-18T11:01:14.979Z</time></trkpt><trkpt lat="45.2442433" lon="9.0226567"><ele>81.0</ele><time>2026-04-18T11:01:15.979Z</time></trkpt><trkpt lat="45.2440683" lon="9.0226417"><ele>81.0</ele><time>2026-04-18T11:01:16.98Z</time></trkpt><trkpt lat="45.243905" lon="9.0226283"><ele>81.0</ele><time>2026-04-18T11:01:17.979Z</time></trkpt><trkpt lat="45.2437533" lon="9.022625"><ele>81.0</ele><time>2026-04-18T11:01:18.979Z</time></trkpt><trkpt lat="45.2436017" lon="9.0226167"><ele>81.0</ele><time>2026-04-18T11:01:19.98Z</time></trkpt><trkpt lat="45.2434583" lon="9.0226067"><ele>81.0</ele><time>2026-04-18T11:01:20.979Z</time></trkpt><trkpt lat="45.2433233" lon="9.0225967"><ele>81.0</ele><time>2026-04-18T11:01:21.979Z</time></trkpt><trkpt lat="45.2431917" lon="9.0225667"><ele>79.75</ele><time>2026-04-18T11:01:22.979Z</time></trkpt><trkpt lat="45.2430683" lon="9.0225117"><ele>78.5</ele><time>2026-04-18T11:01:23.979Z</time></trkpt><trkpt lat="45.242955" lon="9.022435"><ele>77.25</ele><time>2026-04-18T11:01:24.979Z</time></trkpt><trkpt lat="45.2428467" lon="9.022315"><ele>76.0</ele><time>2026-04-18T11:01:25.98Z</time></trkpt><trkpt lat="45.24275" lon="9.0221683"><ele>76.0</ele><time>2026-04-18T11:01:26.979Z</time></trkpt><trkpt lat="45.2426517" lon="9.02202"><ele>76.0</ele><time>2026-04-18T11:01:27.979Z</time></trkpt><trkpt lat="45.2425567" lon="9.0218517"><ele>76.0</ele><time>2026-04-18T11:01:28.979Z</time></trkpt><trkpt lat="45.2424717" lon="9.0216733"><ele>76.0</ele><time>2026-04-18T11:01:29.979Z</time></trkpt><trkpt lat="45.24239" lon="9.0214783"><ele>76.66666666666666</ele><time>2026-04-18T11:01:30.979Z</time></trkpt><trkpt lat="45.2423133" lon="9.0212967"><ele>77.33333333333333</ele><time>2026-04-18T11:01:31.979Z</time></trkpt><trkpt lat="45.2422267" lon="9.021105"><ele>78.0</ele><time>2026-04-18T11:01:32.979Z</time></trkpt><trkpt lat="45.2421417" lon="9.02093"><ele>76.25</ele><time>2026-04-18T11:01:33.979Z</time></trkpt><trkpt lat="45.2420517" lon="9.02078"><ele>74.5</ele><time>2026-04-18T11:01:34.979Z</time></trkpt><trkpt lat="45.24196" lon="9.0206483"><ele>72.75</ele><time>2026-04-18T11:01:35.979Z</time></trkpt><trkpt lat="45.2418767" lon="9.020535"><ele>71.0</ele><time>2026-04-18T11:01:36.979Z</time></trkpt><trkpt lat="45.2418133" lon="9.0204233"><ele>71.0</ele><time>2026-04-18T11:01:37.979Z</time></trkpt><trkpt lat="45.2417717" lon="9.0203033"><ele>71.0</ele><time>2026-04-18T11:01:38.979Z</time></trkpt><trkpt lat="45.2417617" lon="9.0201583"><ele>71.0</ele><time>2026-04-18T11:01:39.979Z</time></trkpt><trkpt lat="45.241765" lon="9.01998"><ele>71.0</ele><time>2026-04-18T11:01:40.979Z</time></trkpt><trkpt lat="45.2417783" lon="9.01979"><ele>71.25</ele><time>2026-04-18T11:01:41.979Z</time></trkpt><trkpt lat="45.2417867" lon="9.0195817"><ele>71.5</ele><time>2026-04-18T11:01:42.979Z</time></trkpt><trkpt lat="45.2417867" lon="9.0193833"><ele>71.75</ele><time>2026-04-18T11:01:43.98Z</time></trkpt><trkpt lat="45.2417617" lon="9.0191817"><ele>72.0</ele><time>2026-04-18T11:01:44.979Z</time></trkpt><trkpt lat="45.241715" lon="9.0189867"><ele>72.0</ele><time>2026-04-18T11:01:45.979Z</time></trkpt><trkpt lat="45.241665" lon="9.0188033"><ele>72.0</ele><time>2026-04-18T11:01:46.98Z</time></trkpt><trkpt lat="45.2415917" lon="9.0186183"><ele>72.0</ele><time>2026-04-18T11:01:47.979Z</time></trkpt><trkpt lat="45.2415117" lon="9.01845"><ele>72.0</ele><time>2026-04-18T11:01:48.98Z</time></trkpt><trkpt lat="45.241415" lon="9.0182917"><ele>71.0</ele><time>2026-04-18T11:01:49.979Z</time></trkpt><trkpt lat="45.2413067" lon="9.01817"><ele>70.0</ele><time>2026-04-18T11:01:50.979Z</time></trkpt><trkpt lat="45.2411667" lon="9.0180983"><ele>69.0</ele><time>2026-04-18T11:01:51.979Z</time></trkpt><trkpt lat="45.241015" lon="9.01805"><ele>68.0</ele><time>2026-04-18T11:01:52.98Z</time></trkpt><trkpt lat="45.240865" lon="9.018005"><ele>68.0</ele><time>2026-04-18T11:01:53.979Z</time></trkpt><trkpt lat="45.24072" lon="9.0179617"><ele>68.0</ele><time>2026-04-18T11:01:54.979Z</time></trkpt><trkpt lat="45.2405833" lon="9.01791"><ele>68.0</ele><time>2026-04-18T11:01:55.979Z</time></trkpt><trkpt lat="45.24046" lon="9.01786"><ele>68.0</ele><time>2026-04-18T11:01:56.979Z</time></trkpt><trkpt lat="45.2403317" lon="9.0177733"><ele>68.0</ele><time>2026-04-18T11:01:57.979Z</time></trkpt><trkpt lat="45.2402033" lon="9.0176767"><ele>68.0</ele><time>2026-04-18T11:01:58.979Z</time></trkpt><trkpt lat="45.2400733" lon="9.0175633"><ele>68.0</ele><time>2026-04-18T11:01:59.979Z</time></trkpt><trkpt lat="45.2399433" lon="9.0174567"><ele>68.0</ele><time>2026-04-18T11:02:00.979Z</time></trkpt><trkpt lat="45.239815" lon="9.0173383"><ele>70.33333333333334</ele><time>2026-04-18T11:02:01.979Z</time></trkpt><trkpt lat="45.2396833" lon="9.0172183"><ele>72.66666666666667</ele><time>2026-04-18T11:02:02.979Z</time></trkpt><trkpt lat="45.239565" lon="9.0170933"><ele>75.0</ele><time>2026-04-18T11:02:03.979Z</time></trkpt><trkpt lat="45.2394383" lon="9.01698"><ele>75.0</ele><time>2026-04-18T11:02:04.979Z</time></trkpt><trkpt lat="45.23932" lon="9.0168683"><ele>75.0</ele><time>2026-04-18T11:02:05.979Z</time></trkpt><trkpt lat="45.2391983" lon="9.0167567"><ele>75.0</ele><time>2026-04-18T11:02:06.979Z</time></trkpt><trkpt lat="45.239085" lon="9.0166483"><ele>75.0</ele><time>2026-04-18T11:02:07.979Z</time></trkpt><trkpt lat="45.2389667" lon="9.01653"><ele>75.5</ele><time>2026-04-18T11:02:08.979Z</time></trkpt><trkpt lat="45.238845" lon="9.01642"><ele>76.0</ele><time>2026-04-18T11:02:09.979Z</time></trkpt><trkpt lat="45.238725" lon="9.016325"><ele>76.5</ele><time>2026-04-18T11:02:10.979Z</time></trkpt><trkpt lat="45.2386067" lon="9.0162133"><ele>77.0</ele><time>2026-04-18T11:02:11.979Z</time></trkpt><trkpt lat="45.2384883" lon="9.0160967"><ele>77.0</ele><time>2026-04-18T11:02:12.98Z</time></trkpt><trkpt lat="45.2383667" lon="9.01597"><ele>77.0</ele><time>2026-04-18T11:02:13.979Z</time></trkpt><trkpt lat="45.238235" lon="9.0158417"><ele>77.0</ele><time>2026-04-18T11:02:14.979Z</time></trkpt><trkpt lat="45.238105" lon="9.01572"><ele>77.0</ele><time>2026-04-18T11:02:15.979Z</time></trkpt><trkpt lat="45.2379717" lon="9.0155967"><ele>77.0</ele><time>2026-04-18T11:02:16.979Z</time></trkpt><trkpt lat="45.237855" lon="9.01545"><ele>77.0</ele><time>2026-04-18T11:02:17.979Z</time></trkpt><trkpt lat="45.237755" lon="9.0152917"><ele>77.0</ele><time>2026-04-18T11:02:18.979Z</time></trkpt><trkpt lat="45.2376667" lon="9.0150983"><ele>77.0</ele><time>2026-04-18T11:02:19.98Z</time></trkpt><trkpt lat="45.2375783" lon="9.0148917"><ele>77.0</ele><time>2026-04-18T11:02:20.979Z</time></trkpt><trkpt lat="45.2374967" lon="9.014685"><ele>75.66666666666667</ele><time>2026-04-18T11:02:21.979Z</time></trkpt><trkpt lat="45.2374067" lon="9.01448"><ele>74.33333333333333</ele><time>2026-04-18T11:02:22.979Z</time></trkpt><trkpt lat="45.2373133" lon="9.0142617"><ele>73.0</ele><time>2026-04-18T11:02:23.98Z</time></trkpt><trkpt lat="45.237225" lon="9.014065"><ele>72.0</ele><time>2026-04-18T11:02:24.979Z</time></trkpt><trkpt lat="45.2371433" lon="9.0138783"><ele>71.0</ele><time>2026-04-18T11:02:25.979Z</time></trkpt><trkpt lat="45.2370667" lon="9.013705"><ele>70.0</ele><time>2026-04-18T11:02:26.979Z</time></trkpt><trkpt lat="45.2369767" lon="9.013545"><ele>69.0</ele><time>2026-04-18T11:02:27.979Z</time></trkpt><trkpt lat="45.2368817" lon="9.01339"><ele>69.25</ele><time>2026-04-18T11:02:28.979Z</time></trkpt><trkpt lat="45.2367767" lon="9.0132383"><ele>69.5</ele><time>2026-04-18T11:02:29.979Z</time></trkpt><trkpt lat="45.2366733" lon="9.0130883"><ele>69.75</ele><time>2026-04-18T11:02:30.979Z</time></trkpt><trkpt lat="45.2365667" lon="9.0129517"><ele>70.0</ele><time>2026-04-18T11:02:31.979Z</time></trkpt><trkpt lat="45.2364733" lon="9.012825"><ele>69.8</ele><time>2026-04-18T11:02:32.979Z</time></trkpt><trkpt lat="45.23639" lon="9.0127"><ele>69.6</ele><time>2026-04-18T11:02:33.979Z</time></trkpt><trkpt lat="45.2363183" lon="9.012575"><ele>69.4</ele><time>2026-04-18T11:02:34.979Z</time></trkpt><trkpt lat="45.2362533" lon="9.0124683"><ele>69.2</ele><time>2026-04-18T11:02:35.979Z</time></trkpt><trkpt lat="45.2361983" lon="9.0123667"><ele>69.0</ele><time>2026-04-18T11:02:36.979Z</time></trkpt><trkpt lat="45.23616" lon="9.0122633"><ele>68.83333333333333</ele><time>2026-04-18T11:02:37.979Z</time></trkpt><trkpt lat="45.236125" lon="9.0121467"><ele>68.66666666666667</ele><time>2026-04-18T11:02:38.979Z</time></trkpt><trkpt lat="45.2360983" lon="9.0120317"><ele>68.5</ele><time>2026-04-18T11:02:39.979Z</time></trkpt><trkpt lat="45.2360833" lon="9.0119217"><ele>68.33333333333334</ele><time>2026-04-18T11:02:40.979Z</time></trkpt><trkpt lat="45.23607" lon="9.01179"><ele>68.16666666666667</ele><time>2026-04-18T11:02:41.979Z</time></trkpt><trkpt lat="45.2360617" lon="9.01165"><ele>68.0</ele><time>2026-04-18T11:02:42.979Z</time></trkpt><trkpt lat="45.2360617" lon="9.0114917"><ele>68.0</ele><time>2026-04-18T11:02:43.979Z</time></trkpt><trkpt lat="45.236065" lon="9.0113133"><ele>68.0</ele><time>2026-04-18T11:02:44.979Z</time></trkpt><trkpt lat="45.2360683" lon="9.0111083"><ele>68.0</ele><time>2026-04-18T11:02:45.979Z</time></trkpt><trkpt lat="45.236075" lon="9.010895"><ele>68.0</ele><time>2026-04-18T11:02:46.979Z</time></trkpt><trkpt lat="45.2360717" lon="9.01069"><ele>68.0</ele><time>2026-04-18T11:02:47.979Z</time></trkpt><trkpt lat="45.2360567" lon="9.010505"><ele>68.0</ele><time>2026-04-18T11:02:48.979Z</time></trkpt><trkpt lat="45.2360617" lon="9.010325"><ele>68.0</ele><time>2026-04-18T11:02:49.979Z</time></trkpt><trkpt lat="45.236095" lon="9.0101567"><ele>68.0</ele><time>2026-04-18T11:02:50.979Z</time></trkpt><trkpt lat="45.23613" lon="9.010005"><ele>67.83333333333334</ele><time>2026-04-18T11:02:51.979Z</time></trkpt><trkpt lat="45.23616" lon="9.0098817"><ele>67.66666666666667</ele><time>2026-04-18T11:02:52.979Z</time></trkpt><trkpt lat="45.2361867" lon="9.009775"><ele>67.5</ele><time>2026-04-18T11:02:53.979Z</time></trkpt><trkpt lat="45.23621" lon="9.0096783"><ele>67.33333333333333</ele><time>2026-04-18T11:02:54.979Z</time></trkpt><trkpt lat="45.2362267" lon="9.009535"><ele>67.16666666666666</ele><time>2026-04-18T11:02:56.979Z</time></trkpt><trkpt lat="45.2362333" lon="9.009435"><ele>67.0</ele><time>2026-04-18T11:02:59.979Z</time></trkpt><trkpt lat="45.2362683" lon="9.009355"><ele>67.0</ele><time>2026-04-18T11:03:14.979Z</time></trkpt><trkpt lat="45.2362583" lon="9.0092633"><ele>67.0</ele><time>2026-04-18T11:03:17.979Z</time></trkpt><trkpt lat="45.2362533" lon="9.0091283"><ele>67.0</ele><time>2026-04-18T11:03:19.979Z</time></trkpt><trkpt lat="45.2362617" lon="9.00898"><ele>67.0</ele><time>2026-04-18T11:03:21.979Z</time></trkpt><trkpt lat="45.2362733" lon="9.0088267"><ele>67.0</ele><time>2026-04-18T11:03:23.979Z</time></trkpt><trkpt lat="45.2362933" lon="9.0086667"><ele>66.8</ele><time>2026-04-18T11:03:25.979Z</time></trkpt><trkpt lat="45.2362933" lon="9.0085767"><ele>66.6</ele><time>2026-04-18T11:03:26.98Z</time></trkpt><trkpt lat="45.2362833" lon="9.00842"><ele>66.39999999999999</ele><time>2026-04-18T11:03:28.979Z</time></trkpt><trkpt lat="45.2362717" lon="9.008265"><ele>66.2</ele><time>2026-04-18T11:03:30.979Z</time></trkpt><trkpt lat="45.2362633" lon="9.0081417"><ele>66.0</ele><time>2026-04-18T11:03:32.979Z</time></trkpt><trkpt lat="45.2362367" lon="9.008035"><ele>66.0</ele><time>2026-04-18T11:03:35.979Z</time></trkpt><trkpt lat="45.23616" lon="9.0080183"><ele>66.0</ele><time>2026-04-18T11:05:18.979Z</time></trkpt><trkpt lat="45.2362117" lon="9.0080983"><ele>66.0</ele><time>2026-04-18T11:05:20.979Z</time></trkpt><trkpt lat="45.23624" lon="9.0082483"><ele>66.0</ele><time>2026-04-18T11:05:22.98Z</time></trkpt><trkpt lat="45.2362383" lon="9.008345"><ele>66.0</ele><time>2026-04-18T11:05:23.979Z</time></trkpt><trkpt lat="45.2362333" lon="9.0084467"><ele>66.0</ele><time>2026-04-18T11:05:24.979Z</time></trkpt><trkpt lat="45.236235" lon="9.0085417"><ele>66.0</ele><time>2026-04-18T11:05:25.98Z</time></trkpt><trkpt lat="45.2362333" lon="9.0086333"><ele>66.0</ele><time>2026-04-18T11:05:26.979Z</time></trkpt><trkpt lat="45.2362317" lon="9.008805"><ele>66.0</ele><time>2026-04-18T11:05:28.978Z</time></trkpt><trkpt lat="45.236235" lon="9.0089767"><ele>66.0</ele><time>2026-04-18T11:05:30.979Z</time></trkpt><trkpt lat="45.236235" lon="9.0091317"><ele>66.0</ele><time>2026-04-18T11:05:32.978Z</time></trkpt><trkpt lat="45.2362417" lon="9.0092517"><ele>66.2</ele><time>2026-04-18T11:05:34.978Z</time></trkpt><trkpt lat="45.2362433" lon="9.009345"><ele>66.39999999999999</ele><time>2026-04-18T11:05:36.978Z</time></trkpt><trkpt lat="45.2362067" lon="9.00944"><ele>66.6</ele><time>2026-04-18T11:05:39.978Z</time></trkpt><trkpt lat="45.236175" lon="9.0095583"><ele>66.8</ele><time>2026-04-18T11:05:41.978Z</time></trkpt><trkpt lat="45.2361633" lon="9.0097217"><ele>67.0</ele><time>2026-04-18T11:05:43.978Z</time></trkpt><trkpt lat="45.236135" lon="9.0099"><ele>67.0</ele><time>2026-04-18T11:05:45.978Z</time></trkpt><trkpt lat="45.2361167" lon="9.0099883"><ele>67.0</ele><time>2026-04-18T11:05:46.978Z</time></trkpt><trkpt lat="45.2360933" lon="9.01009"><ele>67.0</ele><time>2026-04-18T11:05:47.978Z</time></trkpt><trkpt lat="45.2360767" lon="9.0102033"><ele>67.0</ele><time>2026-04-18T11:05:48.978Z</time></trkpt><trkpt lat="45.23606" lon="9.010325"><ele>67.0</ele><time>2026-04-18T11:05:49.978Z</time></trkpt><trkpt lat="45.2360483" lon="9.010455"><ele>67.0</ele><time>2026-04-18T11:05:50.979Z</time></trkpt><trkpt lat="45.2360367" lon="9.0105967"><ele>67.2</ele><time>2026-04-18T11:05:51.978Z</time></trkpt><trkpt lat="45.2360383" lon="9.010735"><ele>67.4</ele><time>2026-04-18T11:05:52.978Z</time></trkpt><trkpt lat="45.2360433" lon="9.0108833"><ele>67.6</ele><time>2026-04-18T11:05:53.978Z</time></trkpt><trkpt lat="45.2360483" lon="9.01103"><ele>67.8</ele><time>2026-04-18T11:05:54.978Z</time></trkpt><trkpt lat="45.2360467" lon="9.01119"><ele>68.0</ele><time>2026-04-18T11:05:55.978Z</time></trkpt><trkpt lat="45.2360567" lon="9.0113483"><ele>68.0</ele><time>2026-04-18T11:05:56.978Z</time></trkpt><trkpt lat="45.23606" lon="9.011505"><ele>68.0</ele><time>2026-04-18T11:05:57.978Z</time></trkpt><trkpt lat="45.2360667" lon="9.0116417"><ele>68.0</ele><time>2026-04-18T11:05:58.978Z</time></trkpt><trkpt lat="45.2360683" lon="9.0117667"><ele>68.0</ele><time>2026-04-18T11:05:59.978Z</time></trkpt><trkpt lat="45.2360817" lon="9.0118867"><ele>68.0</ele><time>2026-04-18T11:06:00.978Z</time></trkpt><trkpt lat="45.236095" lon="9.0119933"><ele>68.0</ele><time>2026-04-18T11:06:01.978Z</time></trkpt><trkpt lat="45.23611" lon="9.0120883"><ele>68.0</ele><time>2026-04-18T11:06:02.978Z</time></trkpt><trkpt lat="45.236145" lon="9.0122233"><ele>68.0</ele><time>2026-04-18T11:06:04.978Z</time></trkpt><trkpt lat="45.2361617" lon="9.012315"><ele>68.0</ele><time>2026-04-18T11:06:06.978Z</time></trkpt><trkpt lat="45.2361083" lon="9.012395"><ele>68.0</ele><time>2026-04-18T11:06:10.978Z</time></trkpt></trkseg></trk></gpx>